# Wetter Temperatur Luftdruck Luftfeuchtigkeit Sichtweite Windgeschwindigkeit Windrichtung Zeit
1 Fog 10 1014 100 1200 0.15 245 12:18 22.04.2021
2 Fog 10 1014 100 1300 0.51 0 11:42 22.04.2021
3 Rain 10 1014 93 7000 0.25 256 11:19 22.04.2021
4 Clouds 11 1014 93 10000 0.25 256 10:41 22.04.2021
5 Clouds 11 1014 93 10000 0.22 188 10:19 22.04.2021
6 Clouds 11 1015 93 10000 0.22 188 09:37 22.04.2021
7 Clouds 12 1016 93 10000 1.03 0 08:55 22.04.2021
8 Clouds 12 1016 93 10000 1.03 0 08:36 22.04.2021
9 Clouds 12 1016 93 10000 1.03 0 08:18 22.04.2021
10 Clouds 12 1016 93 10000 1.03 230 07:31 22.04.2021
11 Clouds 12 1016 93 10000 1.03 230 07:31 22.04.2021
12 Clouds 12 1016 87 10000 0.38 219 06:57 22.04.2021
13 Clouds 12 1017 87 10000 0.69 230 06:21 22.04.2021
14 Clear 14 1017 88 10000 1.54 170 05:24 22.04.2021
15 Clear 17 1017 67 10000 4.12 160 02:29 22.04.2021
16 Clouds 19 1018 45 10000 2.57 210 00:25 22.04.2021
17 Clouds 20 1017 35 10000 3.09 210 23:41 21.04.2021
18 Clouds 20 1017 35 10000 3.09 210 23:21 21.04.2021
19 Clouds 21 1017 35 10000 1.54 0 22:41 21.04.2021
20 Clouds 21 1017 35 10000 1.54 0 22:21 21.04.2021
21 Clouds 21 1018 35 10000 3.6 280 21:41 21.04.2021
22 Clouds 21 1018 35 10000 3.6 280 21:23 21.04.2021
23 Clouds 21 1018 35 10000 4.12 250 20:32 21.04.2021
24 Clouds 21 1018 40 10000 1.03 80 19:58 21.04.2021
25 Clouds 20 1018 40 10000 1.03 80 19:38 21.04.2021
26 Clouds 20 1018 40 10000 1.03 80 19:18 21.04.2021
27 Clouds 19 1019 45 10000 2.06 260 18:42 21.04.2021
28 Clouds 19 1019 45 10000 2.06 260 18:22 21.04.2021
29 Clouds 19 1019 52 10000 2.06 300 17:45 21.04.2021
30 Clouds 18 1019 52 10000 2.06 300 17:23 21.04.2021
31 Clouds 17 1019 63 10000 1.03 70 16:41 21.04.2021
32 Clouds 15 1018 88 10000 0.51 0 15:52 21.04.2021
33 Clouds 16 1018 88 10000 0.51 0 15:28 21.04.2021
34 Clouds 14 1018 93 10000 1.54 60 14:46 21.04.2021
35 Rain 14 1018 93 10000 1.54 60 14:27 21.04.2021
36 Rain 14 1016 58 10000 1.03 0 13:50 21.04.2021
37 Clouds 14 1016 58 10000 1.03 0 13:23 21.04.2021
38 Clouds 14 1016 67 10000 1.03 0 12:48 21.04.2021
39 Clouds 14 1016 67 10000 1.03 0 12:25 21.04.2021
40 Clouds 14 1016 76 10000 2.06 40 11:46 21.04.2021
41 Clouds 14 1016 76 10000 2.06 40 11:25 21.04.2021
42 Clouds 14 1015 82 10000 3.09 130 10:40 21.04.2021
43 Clouds 14 1015 82 10000 3.09 150 09:57 21.04.2021
44 Clouds 14 1015 82 10000 3.09 150 09:31 21.04.2021
45 Clouds 15 1015 67 10000 2.57 330 08:51 21.04.2021
46 Clouds 15 1015 67 10000 2.57 330 08:24 21.04.2021
47 Clouds 15 1014 82 10000 1.54 10 07:58 21.04.2021
48 Clouds 14 1014 82 10000 1.54 10 07:29 21.04.2021
49 Clouds 15 1014 77 10000 3.09 60 06:23 21.04.2021
50 Clouds 15 1017 72 10000 5.14 130 02:56 21.04.2021
51 Haze 18 1015 45 5000 5.14 200 00:49 21.04.2021
52 Clouds 19 1014 42 8000 2.57 280 23:47 20.04.2021
53 Haze 20 1014 42 5000 2.57 230 22:50 20.04.2021
54 Haze 20 1014 42 5000 2.57 230 22:24 20.04.2021
55 Haze 20 1014 48 5000 1.03 0 21:59 20.04.2021
56 Haze 20 1014 48 5000 1.03 0 21:41 20.04.2021
57 Haze 20 1014 48 5000 1.03 0 21:22 20.04.2021
58 Haze 19 1015 59 5000 1.54 0 20:41 20.04.2021
59 Haze 18 1015 59 5000 1.54 0 20:21 20.04.2021
60 Haze 17 1015 63 4000 1.54 0 19:51 20.04.2021
61 Haze 17 1015 63 4000 1.54 0 19:33 20.04.2021
62 Haze 16 1015 72 4000 1.54 0 18:50 20.04.2021
63 Haze 16 1015 72 4000 1.54 0 18:31 20.04.2021
64 Mist 15 1015 82 1500 1.03 0 17:43 20.04.2021
65 Mist 15 1016 87 1200 2.9 250 16:55 20.04.2021
66 Mist 14 1016 87 1200 2.9 250 16:35 20.04.2021
67 Mist 13 1016 87 1200 1.03 0 15:42 20.04.2021
68 Mist 11 1016 87 1200 1.03 0 15:23 20.04.2021
69 Mist 13 1016 87 1500 1.72 260 14:49 20.04.2021
70 Mist 12 1016 87 1500 1.18 263 14:24 20.04.2021
71 Clouds 12 1014 87 6000 1.54 20 13:29 20.04.2021
72 Clouds 12 1014 87 6000 2.06 330 12:55 20.04.2021
73 Clouds 12 1014 87 6000 2.06 330 12:28 20.04.2021
74 Clouds 12 1015 87 7000 1.54 160 11:47 20.04.2021
75 Clouds 12 1015 87 7000 1.54 160 11:28 20.04.2021
76 Clouds 12 1015 87 7000 1.54 160 10:55 20.04.2021
77 Clouds 14 1015 87 8000 2.06 150 10:36 20.04.2021
78 Clouds 14 1016 87 8000 2.06 140 10:18 20.04.2021
79 Clouds 14 1015 87 8000 2.57 150 09:19 20.04.2021
80 Clouds 14 1015 87 7000 3.6 150 08:46 20.04.2021
81 Clear 14 1015 87 7000 2.06 190 07:59 20.04.2021
82 Clear 14 1015 87 7000 2.06 190 07:32 20.04.2021
83 Clear 15 1015 87 8000 3.6 160 05:48 20.04.2021
84 Clear 15 1015 87 8000 3.6 160 05:30 20.04.2021
85 Clear 15 1015 87 8000 3.6 150 04:24 20.04.2021
86 Clear 18 1015 59 10000 2.06 250 00:51 20.04.2021
87 Clear 17 1015 59 10000 2.06 250 00:20 20.04.2021
88 Clear 19 1015 56 10000 2.57 250 23:31 19.04.2021
89 Clear 21 1015 46 10000 3.6 250 22:45 19.04.2021
90 Clear 21 1015 46 10000 3.6 250 22:26 19.04.2021
91 Haze 21 1015 49 4000 3.09 240 21:43 19.04.2021
92 Haze 21 1015 49 4000 3.09 240 21:20 19.04.2021
93 Haze 22 1015 49 4000 2.06 280 20:41 19.04.2021
94 Haze 22 1015 49 4000 2.06 280 20:20 19.04.2021
95 Haze 20 1015 52 4000 1.54 280 19:50 19.04.2021
96 Haze 20 1015 52 4000 1.54 280 19:27 19.04.2021
97 Haze 20 1016 55 4000 2.57 220 18:59 19.04.2021
98 Haze 20 1016 55 4000 2.57 220 18:38 19.04.2021
99 Haze 19 1016 55 4000 2.57 220 18:19 19.04.2021
100 Haze 18 1016 55 4000 1.54 240 17:43 19.04.2021
101 Haze 18 1016 55 4000 1.54 240 17:23 19.04.2021
102 Clear 17 1016 59 6000 1.54 260 16:43 19.04.2021
103 Clear 17 1016 59 6000 1.54 260 16:24 19.04.2021
104 Mist 15 1015 87 5000 1.03 0 15:41 19.04.2021
105 Clear 14 1016 87 8000 1.07 260 15:23 19.04.2021
106 Clear 11 1016 87 8000 1.07 260 14:43 19.04.2021
107 Clouds 11 1016 87 8000 0.45 306 14:23 19.04.2021
108 Mist 13 1015 93 3000 0.45 306 13:49 19.04.2021
109 Mist 13 1015 93 5000 0.26 16 13:26 19.04.2021
110 Clouds 14 1015 93 7000 1.54 250 12:45 19.04.2021
111 Clouds 14 1015 93 7000 1.54 250 12:26 19.04.2021
112 Clouds 14 1014 93 9000 2.57 160 11:55 19.04.2021
113 Clouds 14 1014 93 9000 2.57 160 11:26 19.04.2021
114 Clouds 14 1014 81 9000 0.51 0 10:55 19.04.2021
115 Clouds 14 1014 81 9000 0.51 0 10:36 19.04.2021
116 Clouds 14 1014 81 9000 0.51 0 10:18 19.04.2021
117 Clouds 14 1014 93 10000 0.28 333 09:38 19.04.2021
118 Clouds 14 1014 93 10000 0.23 299 09:19 19.04.2021
119 Clear 15 1014 87 10000 0.23 299 08:30 19.04.2021
120 Clear 15 1014 82 10000 1.03 0 07:49 19.04.2021
121 Clear 15 1014 82 10000 1.03 0 07:20 19.04.2021
122 Clear 16 1014 82 10000 0.51 0 06:38 19.04.2021
123 Clear 19 1013 67 10000 3.09 160 02:37 19.04.2021
124 Clear 21 1014 49 10000 2.06 240 01:29 19.04.2021
125 Clear 21 1014 49 10000 2.06 240 00:30 19.04.2021
126 Haze 23 1014 41 5000 2.06 250 23:19 18.04.2021
127 Haze 24 1014 33 5000 1.54 270 22:52 18.04.2021
128 Haze 24 1014 33 5000 1.54 270 22:30 18.04.2021
129 Haze 24 1014 33 5000 1.54 270 22:30 18.04.2021
130 Haze 24 1014 41 4000 2.06 230 21:45 18.04.2021
131 Haze 24 1014 41 4000 2.06 230 21:23 18.04.2021
132 Haze 22 1015 52 4000 2.71 245 20:40 18.04.2021
133 Haze 22 1015 52 4000 2.48 249 20:21 18.04.2021
134 Haze 18 1016 63 3000 2.48 249 19:49 18.04.2021
135 Haze 19 1016 63 3000 2.48 249 19:30 18.04.2021
136 Haze 16 1017 67 3000 1.54 280 18:54 18.04.2021
137 Haze 17 1017 67 3000 1.54 280 18:31 18.04.2021
138 Haze 17 1017 67 3000 1.54 280 18:31 18.04.2021
139 Haze 16 1017 77 4000 1.03 270 17:57 18.04.2021
140 Haze 14 1017 77 4000 1.03 270 17:38 18.04.2021
141 Haze 16 1017 77 4000 1.03 270 17:19 18.04.2021
142 Mist 14 1017 93 1200 1.03 50 16:41 18.04.2021
143 Fog 13 1017 93 500 1.43 248 15:59 18.04.2021
144 Fog 13 1017 93 500 1.43 248 15:39 18.04.2021
145 Fog 13 1017 93 500 0.89 248 15:19 18.04.2021
146 Fog 13 1017 93 800 1.03 230 14:42 18.04.2021
147 Fog 12 1017 93 800 1.03 230 14:19 18.04.2021
148 Clouds 15 1016 87 6000 2.06 190 13:50 18.04.2021
149 Clouds 14 1016 87 6000 2.06 190 13:30 18.04.2021
150 Clouds 14 1016 93 6000 2.06 210 12:39 18.04.2021
151 Clouds 14 1016 93 6000 2.57 220 11:59 18.04.2021
152 Mist 15 1015 93 5000 1.54 230 11:40 18.04.2021
153 Mist 15 1015 93 5000 1.54 230 11:20 18.04.2021
154 Mist 15 1015 93 5000 0.51 0 10:44 18.04.2021
155 Mist 15 1015 93 5000 0.51 0 10:19 18.04.2021
156 Mist 15 1016 93 5000 1.54 40 09:39 18.04.2021
157 Clouds 15 1016 93 6000 2.57 30 09:21 18.04.2021
158 Clouds 15 1016 93 6000 2.06 320 08:47 18.04.2021
159 Clouds 15 1016 93 6000 2.06 320 08:28 18.04.2021
160 Clouds 15 1017 100 6000 3.09 150 07:41 18.04.2021
161 Clouds 15 1017 87 8000 4.12 160 06:56 18.04.2021
162 Clouds 14 1017 93 8000 3.6 160 05:27 18.04.2021
163 Clear 15 1017 87 10000 3.6 150 04:53 18.04.2021
164 Clear 16 1016 82 10000 5.14 160 02:23 18.04.2021
165 Clear 18 1016 55 10000 2.06 250 00:58 18.04.2021
166 Clouds 20 1015 52 7000 3.09 280 23:58 17.04.2021
167 Clouds 20 1015 52 7000 3.09 280 23:26 17.04.2021
168 Clouds 20 1015 52 7000 3.09 240 22:44 17.04.2021
169 Clouds 20 1015 52 7000 3.09 240 22:25 17.04.2021
170 Haze 21 1015 46 5000 3.09 240 21:44 17.04.2021
171 Haze 21 1015 46 5000 3.09 240 21:23 17.04.2021
172 Haze 21 1015 52 5000 2.57 260 20:40 17.04.2021
173 Haze 21 1015 52 5000 2.57 260 20:20 17.04.2021
174 Haze 20 1016 52 5000 2.06 250 19:39 17.04.2021
175 Haze 20 1016 52 5000 2.06 250 19:19 17.04.2021
176 Haze 18 1017 63 5000 1.54 330 18:49 17.04.2021
177 Haze 17 1017 63 5000 1.54 330 18:21 17.04.2021
178 Clouds 16 1018 67 6000 1.54 240 17:42 17.04.2021
179 Haze 15 1018 72 5000 2.06 280 16:56 17.04.2021
180 Haze 15 1018 72 5000 2.06 280 16:37 17.04.2021
181 Haze 15 1018 72 5000 2.06 280 16:18 17.04.2021
182 Clouds 14 1018 93 7000 1.22 239 15:19 17.04.2021
183 Clouds 14 1018 93 6000 1.22 239 14:42 17.04.2021
184 Clouds 14 1018 93 6000 0.78 260 14:19 17.04.2021
185 Mist 15 1017 100 2000 2.57 160 13:41 17.04.2021
186 Fog 13 1017 100 1200 3.09 140 12:47 17.04.2021
187 Fog 13 1017 100 1200 3.09 140 12:22 17.04.2021
188 Fog 13 1016 100 1200 3.6 160 11:50 17.04.2021
189 Fog 14 1016 100 2000 3.6 160 11:31 17.04.2021
190 Mist 14 1016 100 4600 4.63 150 10:48 17.04.2021
191 Mist 15 1016 100 3400 4.63 160 10:29 17.04.2021
192 Clouds 15 1016 100 1400 5.14 160 09:45 17.04.2021
193 Clouds 15 1016 82 10000 3.6 160 08:46 17.04.2021
194 Clouds 15 1016 82 10000 3.6 160 08:26 17.04.2021
195 Clouds 16 1016 82 10000 3.09 160 07:42 17.04.2021
196 Clear 19 1015 59 10000 3.09 130 03:59 17.04.2021
197 Clear 19 1015 59 10000 3.09 130 03:39 17.04.2021
198 Clear 23 1014 31 10000 2.06 240 00:51 17.04.2021
199 Clear 24 1014 31 10000 2.06 240 00:29 17.04.2021
200 Clear 25 1014 26 10000 2.57 220 23:52 16.04.2021
201 Clear 25 1014 26 10000 2.57 220 23:32 16.04.2021
202 Clear 26 1014 22 8000 2.57 220 22:51 16.04.2021
203 Clear 26 1014 22 8000 2.57 220 22:22 16.04.2021
204 Clear 26 1014 29 6000 2.57 220 21:54 16.04.2021
205 Clear 26 1014 29 6000 2.57 220 21:35 16.04.2021
206 Haze 25 1014 33 5000 2.06 0 20:50 16.04.2021
207 Haze 25 1014 33 5000 2.06 0 20:29 16.04.2021
208 Clear 24 1015 38 6000 1.54 0 19:55 16.04.2021
209 Clear 24 1015 38 6000 1.54 0 19:31 16.04.2021
210 Clear 23 1015 40 8000 1.54 270 18:46 16.04.2021
211 Clear 23 1015 40 8000 1.54 270 18:21 16.04.2021
212 Clear 22 1016 40 10000 1.54 250 17:46 16.04.2021
213 Clear 22 1016 40 10000 1.54 250 17:19 16.04.2021
214 Clear 19 1016 48 10000 1.03 0 16:44 16.04.2021
215 Clear 20 1016 48 10000 1.03 0 16:25 16.04.2021
216 Clear 17 1016 76 10000 1.96 246 15:51 16.04.2021
217 Clear 17 1016 76 10000 1.25 240 15:23 16.04.2021
218 Clear 13 1016 81 10000 1.25 240 14:42 16.04.2021
219 Clear 14 1016 81 10000 0.16 126 14:20 16.04.2021
220 Clear 14 1015 87 6000 0.16 126 13:50 16.04.2021
221 Clear 15 1015 87 6000 0.54 83 13:21 16.04.2021
222 Clear 14 1014 87 8000 0.54 83 12:48 16.04.2021
223 Clear 15 1014 87 8000 0.11 83 12:29 16.04.2021
224 Clear 15 1014 81 10000 1.54 350 11:55 16.04.2021
225 Clear 15 1014 81 10000 1.54 350 11:27 16.04.2021
226 Clear 15 1014 76 10000 0.2 91 10:56 16.04.2021
227 Clear 16 1014 76 10000 0.2 91 10:37 16.04.2021
228 Clear 16 1014 76 10000 0.57 89 10:19 16.04.2021
229 Clear 15 1014 81 10000 0.51 0 09:42 16.04.2021
230 Clear 16 1014 81 10000 0.51 0 09:20 16.04.2021
231 Clear 16 1014 71 10000 0.47 199 08:41 16.04.2021
232 Clear 16 1014 71 10000 0.36 236 08:18 16.04.2021
233 Clear 16 1014 71 10000 0.36 236 07:36 16.04.2021
234 Clear 16 1014 72 10000 0.18 34 06:58 16.04.2021
235 Clear 17 1015 67 10000 1.03 0 05:34 16.04.2021
236 Clear 18 1015 59 10000 2.06 150 04:22 16.04.2021
237 Clear 23 1014 41 10000 2.57 220 00:59 16.04.2021
238 Clear 23 1014 41 10000 2.57 220 00:41 16.04.2021
239 Clear 24 1014 41 10000 2.57 220 00:20 16.04.2021
240 Clear 25 1014 36 10000 2.06 270 23:41 15.04.2021
241 Clear 25 1014 36 10000 2.06 270 23:23 15.04.2021
242 Clear 26 1014 36 10000 3.6 250 22:40 15.04.2021
243 Clear 25 1014 36 10000 3.6 250 22:21 15.04.2021
244 Clear 26 1014 31 8000 2.57 200 21:42 15.04.2021
245 Clear 26 1014 31 8000 2.57 200 21:22 15.04.2021
246 Haze 25 1014 36 5000 1.54 270 20:45 15.04.2021
247 Haze 25 1014 36 5000 1.54 270 20:24 15.04.2021
248 Clear 24 1015 38 7000 2.06 270 19:45 15.04.2021
249 Clear 24 1015 38 7000 2.06 270 19:27 15.04.2021
250 Clear 23 1015 43 7000 1.03 230 18:43 15.04.2021
251 Clear 22 1015 43 7000 1.03 230 18:21 15.04.2021
252 Clear 21 1015 52 8000 1.03 180 17:55 15.04.2021
253 Clear 21 1015 52 8000 1.03 180 17:55 15.04.2021
254 Clear 20 1015 52 8000 1.03 180 17:36 15.04.2021
255 Clear 20 1015 52 8000 1.03 180 17:36 15.04.2021
256 Clear 18 1015 59 8000 1.54 230 16:59 15.04.2021
257 Clear 18 1015 59 8000 1.54 230 16:40 15.04.2021
258 Clear 18 1015 59 8000 1.54 230 16:22 15.04.2021
259 Clear 14 1015 76 10000 1.84 241 15:45 15.04.2021
260 Clear 16 1015 76 10000 0.88 249 15:25 15.04.2021
261 Clear 12 1015 81 10000 1.03 50 14:41 15.04.2021
262 Clear 15 1015 81 10000 1.03 50 14:23 15.04.2021
263 Clear 15 1015 81 10000 1.03 50 14:23 15.04.2021
264 Smoke 13 1014 93 7000 0.36 50 13:42 15.04.2021
265 Smoke 14 1014 93 7000 0.41 49 13:19 15.04.2021
266 Clear 14 1014 93 6000 0.41 49 12:41 15.04.2021
267 Clear 14 1014 93 6000 0.35 57 12:21 15.04.2021
268 Clear 14 1014 93 9000 0.35 57 11:46 15.04.2021
269 Clear 15 1014 93 9000 0.17 92 11:24 15.04.2021
270 Clear 15 1014 87 10000 0.17 92 10:55 15.04.2021
271 Clear 15 1014 87 10000 0.28 173 10:28 15.04.2021
272 Clear 15 1014 93 10000 0.28 173 09:49 15.04.2021
273 Clear 15 1014 93 10000 0.42 201 09:28 15.04.2021
274 Clear 14 1015 87 10000 1.54 220 08:49 15.04.2021
275 Clear 14 1015 87 10000 1.54 220 08:23 15.04.2021
276 Clear 15 1015 87 10000 3.09 160 07:25 15.04.2021
277 Clear 16 1015 77 10000 2.06 160 06:49 15.04.2021
278 Clear 16 1015 77 10000 2.06 160 06:30 15.04.2021
279 Clear 16 1015 77 10000 3.09 170 04:52 15.04.2021
280 Clear 20 1014 63 10000 5.14 150 02:51 15.04.2021
281 Clear 24 1014 34 10000 3.6 240 23:44 14.04.2021
282 Clear 24 1014 34 10000 3.6 240 23:25 14.04.2021
283 Clouds 25 1014 36 8000 3.6 290 22:47 14.04.2021
284 Clouds 25 1014 36 8000 3.6 290 22:26 14.04.2021
285 Clouds 26 1014 28 8000 2.57 0 21:51 14.04.2021
286 Clouds 26 1014 28 8000 2.57 0 21:32 14.04.2021
287 Clouds 26 1014 29 8000 3.07 239 20:58 14.04.2021
288 Clouds 26 1014 29 8000 3 240 20:34 14.04.2021
289 Clear 25 1015 31 10000 3 244 19:55 14.04.2021
290 Clear 25 1015 31 10000 2.64 248 19:21 14.04.2021
291 Clear 24 1015 37 10000 2.64 248 18:57 14.04.2021
292 Clear 24 1015 37 10000 2.64 248 18:36 14.04.2021
293 Clear 23 1015 37 10000 2.56 248 18:18 14.04.2021
294 Clear 22 1015 40 10000 2.24 249 17:29 14.04.2021
295 Clear 19 1016 45 10000 2.24 249 16:58 14.04.2021
296 Clear 20 1016 45 10000 1.8 256 16:29 14.04.2021
297 Clear 16 1015 71 10000 1.8 256 15:49 14.04.2021
298 Clear 15 1015 71 10000 0.64 254 15:28 14.04.2021
299 Clear 13 1014 76 10000 1.54 50 14:57 14.04.2021
300 Clear 12 1014 76 10000 1.54 50 14:38 14.04.2021
301 Clear 15 1014 76 10000 1.54 50 14:19 14.04.2021
302 Smoke 14 1013 87 8000 0.2 106 13:45 14.04.2021
303 Clear 15 1013 87 8000 0.2 215 12:43 14.04.2021
304 Clear 15 1013 87 8000 0.3 214 12:18 14.04.2021
305 Clouds 15 1012 87 9000 0.3 214 11:40 14.04.2021
306 Clouds 15 1012 87 9000 0.04 335 11:21 14.04.2021
307 Clear 15 1012 81 10000 0.04 335 10:34 14.04.2021
308 Clear 16 1013 82 10000 1.03 260 09:43 14.04.2021
309 Clear 16 1013 82 10000 1.03 260 09:23 14.04.2021
310 Clear 16 1013 72 10000 0.14 112 08:48 14.04.2021
311 Clear 16 1013 72 10000 0.13 49 08:23 14.04.2021
312 Clear 16 1013 72 10000 0.19 266 07:28 14.04.2021
313 Clear 16 1013 67 10000 1.03 0 06:28 14.04.2021
314 Clear 17 1013 63 10000 1.54 160 05:24 14.04.2021
315 Clear 22 1012 52 10000 6.17 150 02:27 14.04.2021
316 Clear 26 1013 26 10000 2.06 240 00:50 14.04.2021
317 Clear 26 1013 26 10000 2.06 240 00:50 14.04.2021
318 Clear 26 1013 26 10000 2.06 240 00:27 14.04.2021
319 Clear 28 1012 16 10000 2.57 240 23:32 13.04.2021
320 Clear 29 1011 11 10000 2.57 270 22:44 13.04.2021
321 Clear 30 1011 11 10000 2.57 270 22:21 13.04.2021
322 Clear 30 1012 10 10000 1.54 0 21:49 13.04.2021
323 Clear 30 1012 10 10000 1.54 0 21:30 13.04.2021
324 Clear 30 1012 10 10000 1.54 0 21:30 13.04.2021
325 Clear 29 1012 14 10000 2.06 240 20:50 13.04.2021
326 Clear 29 1012 14 10000 2.06 240 20:25 13.04.2021
327 Clear 28 1013 14 10000 1.54 280 19:58 13.04.2021
328 Clear 28 1013 14 10000 1.54 280 19:26 13.04.2021
329 Clear 27 1013 18 10000 1.03 270 18:49 13.04.2021
330 Clear 26 1013 18 10000 1.03 270 18:30 13.04.2021
331 Clear 23 1014 26 10000 1.85 264 17:40 13.04.2021
332 Clear 23 1014 26 10000 1.35 264 17:21 13.04.2021
333 Clear 21 1013 30 10000 1.54 250 16:45 13.04.2021
334 Clear 21 1013 30 10000 1.54 250 16:27 13.04.2021
335 Clear 19 1013 44 10000 1.24 264 15:55 13.04.2021
336 Clear 17 1013 44 10000 1.24 264 15:37 13.04.2021
337 Clear 13 1013 50 10000 1.54 30 14:58 13.04.2021
338 Clear 13 1013 50 10000 1.54 30 14:24 13.04.2021
339 Clear 15 1012 66 10000 1.35 70 13:55 13.04.2021
340 Clear 15 1012 66 10000 1.35 70 13:36 13.04.2021
341 Clear 15 1012 66 10000 1.43 70 13:18 13.04.2021
342 Clear 15 1012 66 10000 1.43 70 12:44 13.04.2021
343 Clear 15 1012 66 10000 1.31 71 12:22 13.04.2021
344 Clear 15 1012 66 9000 1.31 71 11:36 13.04.2021
345 Clear 16 1012 66 9000 1.12 67 10:57 13.04.2021
346 Clear 16 1012 66 9000 1.12 67 10:39 13.04.2021
347 Clear 16 1012 66 9000 1.05 70 10:18 13.04.2021
348 Clear 17 1012 58 10000 1.05 70 09:46 13.04.2021
349 Clear 16 1012 58 10000 0.87 72 09:18 13.04.2021
350 Clear 17 1012 58 10000 0.87 72 08:43 13.04.2021
351 Clear 17 1012 58 10000 0.59 73 08:21 13.04.2021
352 Clear 17 1013 58 10000 1.03 50 07:37 13.04.2021
353 Clear 17 1013 58 10000 1.03 50 07:19 13.04.2021
354 Clear 18 1013 58 10000 1.54 30 06:18 13.04.2021
355 Clear 22 1013 30 10000 3.6 160 02:52 13.04.2021
356 Clear 25 1015 18 10000 0.84 190 01:28 13.04.2021
357 Clear 27 1014 16 10000 2.57 250 23:50 12.04.2021
358 Clear 28 1014 16 10000 2.57 250 23:29 12.04.2021
359 Clear 28 1015 17 10000 3.09 250 22:45 12.04.2021
360 Clear 28 1015 17 10000 3.09 250 22:25 12.04.2021
361 Clear 28 1015 14 10000 2.57 220 21:47 12.04.2021
362 Clear 28 1015 14 10000 2.57 220 21:23 12.04.2021
363 Clear 27 1016 16 10000 2.06 260 20:45 12.04.2021
364 Clear 27 1016 16 10000 2.06 260 20:26 12.04.2021
365 Clear 26 1016 18 10000 1.54 240 19:58 12.04.2021
366 Clear 26 1016 18 10000 1.54 240 19:38 12.04.2021
367 Clear 26 1016 18 10000 1.54 240 19:19 12.04.2021
368 Clear 25 1016 21 10000 2.06 0 18:47 12.04.2021
369 Clear 24 1016 21 10000 2.06 0 18:27 12.04.2021
370 Clear 22 1016 24 10000 2.34 249 17:46 12.04.2021
371 Clear 22 1016 24 10000 1.82 250 17:24 12.04.2021
372 Clear 19 1016 26 10000 1.03 0 16:49 12.04.2021
373 Clear 19 1016 26 10000 1.03 0 16:28 12.04.2021
374 Clear 19 1016 26 10000 1.03 0 16:28 12.04.2021
375 Clear 15 1016 50 10000 1.01 252 15:54 12.04.2021
376 Clear 15 1016 50 10000 1.01 252 15:33 12.04.2021
377 Clear 12 1015 49 10000 0.23 263 14:55 12.04.2021
378 Clear 12 1015 49 10000 0.17 264 14:37 12.04.2021
379 Clear 13 1015 70 8000 0.74 66 13:56 12.04.2021
380 Clear 12 1015 70 8000 0.74 66 13:33 12.04.2021
381 Clear 14 1014 66 8000 0.97 67 12:59 12.04.2021
382 Clear 14 1014 66 8000 0.97 67 12:38 12.04.2021
383 Clear 14 1014 66 8000 0.69 81 12:19 12.04.2021
384 Clear 14 1014 61 8000 1.54 10 11:26 12.04.2021
385 Clear 14 1014 57 8000 1.54 20 10:51 12.04.2021
386 Clear 14 1014 57 8000 1.54 20 10:27 12.04.2021
387 Clear 15 1015 57 8000 0.53 90 09:51 12.04.2021
388 Clear 15 1015 57 8000 0.46 102 09:23 12.04.2021
389 Clear 15 1015 57 8000 0.46 102 09:23 12.04.2021
390 Clear 15 1015 54 10000 0.46 102 08:44 12.04.2021
391 Clear 14 1015 54 10000 0.41 102 07:45 12.04.2021
392 Clear 16 1015 54 10000 0.57 112 07:22 12.04.2021
393 Clear 17 1015 47 10000 0.41 164 06:29 12.04.2021
394 Clear 17 1015 44 10000 0.41 164 05:45 12.04.2021
395 Clear 17 1015 44 10000 0.41 164 05:45 12.04.2021
396 Clear 21 1014 28 10000 3.09 190 02:26 12.04.2021
397 Clear 26 1014 13 10000 2.06 220 00:27 12.04.2021
398 Clear 27 1013 13 10000 2.06 240 23:54 11.04.2021
399 Clear 27 1013 13 10000 2.06 240 23:32 11.04.2021
400 Clear 27 1013 14 10000 1.54 220 22:50 11.04.2021
401 Clear 27 1013 14 10000 1.54 220 22:28 11.04.2021
402 Clear 26 1013 17 10000 1.54 250 21:58 11.04.2021
403 Clear 26 1013 17 10000 1.54 250 21:39 11.04.2021
404 Clear 26 1013 17 10000 1.54 250 21:20 11.04.2021
405 Clear 25 1014 20 10000 1.54 210 20:39 11.04.2021
406 Clear 25 1014 20 10000 1.54 210 20:20 11.04.2021
407 Clear 24 1014 28 10000 1.54 240 19:41 11.04.2021
408 Clear 24 1014 28 10000 1.54 240 19:20 11.04.2021
409 Clear 21 1015 34 10000 2.06 240 18:55 11.04.2021
410 Clear 21 1015 34 10000 2.06 240 18:37 11.04.2021
411 Clear 21 1015 34 10000 2.06 240 18:18 11.04.2021
412 Clear 19 1015 42 10000 1.99 244 17:37 11.04.2021
413 Clear 18 1015 42 10000 1.57 248 17:18 11.04.2021
414 Clear 16 1016 51 10000 1.57 248 16:40 11.04.2021
415 Clear 15 1016 51 10000 0.95 240 16:20 11.04.2021
416 Clear 12 1016 76 10000 0.95 240 15:43 11.04.2021
417 Clear 12 1016 76 10000 0.37 200 15:22 11.04.2021
418 Clear 9 1016 81 10000 1.54 30 14:51 11.04.2021
419 Clear 9 1016 81 10000 1.54 30 14:21 11.04.2021
420 Clear 11 1015 81 7000 1.54 360 13:40 11.04.2021
421 Clear 6 1015 81 7000 1.54 360 13:22 11.04.2021
422 Clear 7 1016 76 10000 1.27 72 12:26 11.04.2021
423 Clear 7 1016 76 10000 1.27 72 11:57 11.04.2021
424 Clear 7 1016 81 8000 1.03 360 11:38 11.04.2021
425 Clear 7 1016 81 8000 1.03 360 11:19 11.04.2021
426 Clear 7 1017 76 8000 1.54 360 10:44 11.04.2021
427 Clear 11 1017 76 8000 1.54 360 10:22 11.04.2021
428 Clear 11 1018 76 8000 2.06 50 09:49 11.04.2021
429 Clear 11 1018 76 8000 2.06 50 09:26 11.04.2021
430 Clear 11 1018 71 10000 1.03 0 08:40 11.04.2021
431 Clear 11 1018 66 10000 0.51 0 07:41 11.04.2021
432 Clear 12 1018 66 10000 0.51 0 07:19 11.04.2021
433 Clear 13 1019 51 10000 3.09 220 05:47 11.04.2021
434 Clear 14 1019 51 10000 3.09 220 05:23 11.04.2021
435 Clear 14 1019 55 10000 5.14 190 04:37 11.04.2021
436 Clear 15 1019 55 10000 5.14 190 04:19 11.04.2021
437 Clear 19 1020 26 10000 2.57 230 00:55 11.04.2021
438 Clear 19 1020 26 10000 2.57 230 00:32 11.04.2021
439 Clear 20 1020 24 10000 3.09 200 23:46 10.04.2021
440 Clear 21 1021 28 10000 2.57 240 22:55 10.04.2021
441 Clear 21 1021 28 10000 2.57 240 22:28 10.04.2021
442 Clear 20 1020 37 10000 2.57 230 21:54 10.04.2021
443 Clear 20 1020 37 10000 2.57 230 21:25 10.04.2021
444 Clouds 20 1021 42 10000 2.57 200 20:57 10.04.2021
445 Clouds 20 1021 42 10000 2.57 200 20:36 10.04.2021
446 Clouds 19 1021 42 10000 2.57 200 20:18 10.04.2021
447 Clouds 18 1022 55 10000 2.06 280 19:42 10.04.2021
448 Clouds 18 1022 55 10000 2.06 280 19:24 10.04.2021
449 Clouds 18 1022 55 10000 2.13 238 18:42 10.04.2021
450 Clouds 18 1022 55 10000 2.51 246 18:23 10.04.2021
451 Clouds 16 1022 62 10000 2.06 170 17:35 10.04.2021
452 Clouds 15 1021 67 10000 2.57 240 16:43 10.04.2021
453 Clouds 14 1021 67 10000 2.57 240 16:24 10.04.2021
454 Clouds 15 1021 71 10000 1.03 230 15:48 10.04.2021
455 Clouds 12 1020 81 10000 0.59 335 14:55 10.04.2021
456 Clouds 12 1020 81 10000 0.59 335 14:34 10.04.2021
457 Clouds 12 1019 81 10000 2.06 140 13:56 10.04.2021
458 Clouds 12 1019 81 10000 2.06 140 13:36 10.04.2021
459 Clouds 12 1019 76 10000 2.57 170 12:43 10.04.2021
460 Clouds 12 1019 76 10000 2.57 170 12:43 10.04.2021
461 Clouds 13 1019 76 10000 2.57 170 12:20 10.04.2021
462 Clouds 13 1018 71 10000 2.57 150 11:45 10.04.2021
463 Clouds 13 1018 71 10000 2.57 150 11:22 10.04.2021
464 Clouds 13 1018 67 10000 2.57 230 10:51 10.04.2021
465 Clouds 13 1018 67 10000 2.57 230 10:30 10.04.2021
466 Clouds 13 1018 71 10000 4.12 210 09:44 10.04.2021
467 Clouds 12 1018 71 10000 4.12 210 09:18 10.04.2021
468 Clouds 12 1018 71 10000 4.12 210 09:18 10.04.2021
469 Clouds 13 1018 67 10000 3.6 140 08:34 10.04.2021
470 Clouds 12 1018 67 10000 4.12 150 07:56 10.04.2021
471 Clouds 14 1018 67 10000 4.12 150 07:26 10.04.2021
472 Clouds 14 1018 58 10000 4.12 130 06:29 10.04.2021
473 Clouds 15 1018 58 10000 3.6 180 05:34 10.04.2021
474 Clouds 16 1017 55 10000 3.09 140 03:41 10.04.2021
475 Clouds 16 1016 51 10000 6.69 190 02:42 10.04.2021
476 Clear 19 1016 42 10000 2.06 240 01:28 10.04.2021
477 Clear 19 1016 42 10000 2.06 240 00:37 10.04.2021
478 Clouds 21 1015 40 10000 3.09 240 23:55 09.04.2021
479 Clouds 21 1015 40 10000 3.09 240 23:30 09.04.2021
480 Clouds 21 1015 40 10000 3.6 240 22:54 09.04.2021
481 Clouds 22 1015 40 10000 3.6 240 22:36 09.04.2021
482 Clear 21 1015 43 10000 2.57 250 21:41 09.04.2021
483 Clear 21 1015 43 10000 2.57 250 21:22 09.04.2021
484 Clear 21 1016 45 10000 2.06 220 20:57 09.04.2021
485 Clear 21 1016 45 10000 2.06 220 20:39 09.04.2021
486 Clear 21 1016 45 10000 2.06 220 20:20 09.04.2021
487 Clear 20 1016 48 10000 3.27 251 19:43 09.04.2021
488 Clear 21 1016 48 10000 3.05 254 19:22 09.04.2021
489 Clear 20 1016 48 10000 2.06 0 18:43 09.04.2021
490 Clear 20 1016 48 10000 2.06 0 18:25 09.04.2021
491 Clear 18 1017 55 10000 1.54 240 17:48 09.04.2021
492 Clear 17 1017 55 10000 1.54 240 17:29 09.04.2021
493 Clear 17 1017 58 10000 1.03 0 16:47 09.04.2021
494 Clear 16 1017 58 10000 1.03 0 16:28 09.04.2021
495 Clear 15 1017 76 10000 2.08 253 15:44 09.04.2021
496 Clear 14 1017 76 10000 1.4 259 15:24 09.04.2021
497 Clear 13 1017 87 10000 1.4 259 14:46 09.04.2021
498 Clear 11 1017 87 10000 0.53 272 14:22 09.04.2021
499 Clear 13 1016 81 8000 1.03 0 13:45 09.04.2021
500 Clear 11 1016 81 8000 1.03 0 13:22 09.04.2021
501 Clear 11 1016 71 10000 0.21 257 12:47 09.04.2021
502 Clear 11 1016 71 10000 0.29 275 12:23 09.04.2021
503 Clear 12 1016 71 10000 1.54 20 11:42 09.04.2021
504 Clear 12 1016 71 10000 1.54 20 11:20 09.04.2021
505 Clear 12 1016 71 10000 1.54 30 10:37 09.04.2021
506 Clear 13 1017 66 10000 0.44 246 09:56 09.04.2021
507 Clear 13 1017 66 10000 0.51 244 09:27 09.04.2021
508 Clear 13 1017 66 10000 0.51 0 08:55 09.04.2021
509 Clear 13 1017 66 10000 0.51 0 08:28 09.04.2021
510 Clear 14 1018 54 10000 1.54 130 07:21 09.04.2021
511 Clear 15 1018 51 10000 1.03 180 06:28 09.04.2021
512 Clear 16 1018 51 10000 2.57 140 04:38 09.04.2021
513 Clear 17 1018 45 10000 6.69 200 03:39 09.04.2021
514 Clouds 20 1018 43 10000 4.12 240 00:39 09.04.2021
515 Clouds 21 1018 43 10000 4.12 240 00:21 09.04.2021
516 Clouds 22 1018 43 8000 3.09 240 23:37 08.04.2021
517 Clouds 22 1018 46 8000 3.09 210 22:52 08.04.2021
518 Clouds 22 1018 46 8000 3.09 210 22:27 08.04.2021
519 Clouds 22 1018 46 8000 3.09 0 21:58 08.04.2021
520 Clouds 22 1018 46 8000 3.09 0 21:40 08.04.2021
521 Clouds 22 1018 46 8000 3.09 0 21:21 08.04.2021
522 Clouds 22 1018 49 8000 3.09 240 20:56 08.04.2021
523 Clouds 22 1018 49 8000 3.09 240 20:35 08.04.2021
524 Clouds 21 1018 52 8000 2.06 250 19:58 08.04.2021
525 Clouds 21 1018 52 8000 2.06 250 19:27 08.04.2021
526 Clouds 20 1018 55 8000 2.06 0 18:58 08.04.2021
527 Clouds 20 1018 55 8000 2.06 0 18:38 08.04.2021
528 Clouds 19 1018 55 8000 2.06 0 18:19 08.04.2021
529 Clouds 20 1018 59 8000 3.06 252 17:40 08.04.2021
530 Clouds 18 1018 59 8000 2.58 253 17:18 08.04.2021
531 Clouds 19 1018 67 8000 2.58 253 16:43 08.04.2021
532 Clouds 17 1018 67 8000 2.3 257 16:22 08.04.2021
533 Clouds 16 1018 72 8000 2.3 257 15:43 08.04.2021
534 Clouds 16 1018 72 8000 1.77 265 15:23 08.04.2021
535 Clouds 15 1018 77 8000 1.77 265 14:42 08.04.2021
536 Clouds 15 1018 77 8000 0.54 291 14:20 08.04.2021
537 Clouds 15 1017 72 10000 0.51 0 13:46 08.04.2021
538 Clouds 15 1017 72 10000 0.51 0 13:24 08.04.2021
539 Clouds 15 1017 72 10000 1.54 150 12:53 08.04.2021
540 Clouds 15 1017 72 10000 1.54 150 12:33 08.04.2021
541 Clouds 15 1016 72 10000 3.09 170 11:57 08.04.2021
542 Clouds 15 1016 72 10000 3.09 170 11:25 08.04.2021
543 Clouds 15 1016 72 10000 3.6 170 10:51 08.04.2021
544 Clouds 15 1016 72 10000 3.6 170 10:25 08.04.2021
545 Clouds 16 1016 77 10000 3.09 160 09:46 08.04.2021
546 Clouds 15 1016 77 10000 3.09 160 09:26 08.04.2021
547 Clouds 16 1016 72 10000 5.14 130 08:44 08.04.2021
548 Clouds 17 1016 72 10000 5.14 130 08:22 08.04.2021
549 Clouds 16 1015 67 10000 5.14 190 07:45 08.04.2021
550 Clear 17 1015 67 10000 1.03 0 05:45 08.04.2021
551 Clear 21 1015 41 10000 4.12 50 01:25 08.04.2021
552 Clear 22 1015 41 10000 4.12 50 00:32 08.04.2021
553 Clear 23 1015 41 10000 4.12 250 23:48 07.04.2021
554 Clear 24 1015 41 10000 4.12 250 23:25 07.04.2021
555 Clear 24 1014 36 10000 3.09 230 22:57 07.04.2021
556 Clear 24 1014 36 10000 3.09 230 22:38 07.04.2021
557 Clear 25 1014 36 10000 3.09 230 22:20 07.04.2021
558 Clear 25 1014 41 10000 2.06 210 21:34 07.04.2021
559 Clear 24 1015 43 10000 3.09 250 20:54 07.04.2021
560 Clear 24 1015 43 10000 3.09 250 20:29 07.04.2021
561 Clear 24 1016 46 10000 2.06 230 19:52 07.04.2021
562 Clear 24 1016 46 10000 2.06 230 19:34 07.04.2021
563 Clear 23 1016 52 10000 3.02 255 18:59 07.04.2021
564 Clear 22 1016 52 10000 3.02 255 18:41 07.04.2021
565 Clear 21 1016 52 10000 2.8 255 18:18 07.04.2021
566 Clear 21 1017 56 10000 2.57 120 17:45 07.04.2021
567 Clear 19 1017 56 10000 2.57 120 17:26 07.04.2021
568 Clear 19 1017 63 10000 2.33 256 16:45 07.04.2021
569 Clear 18 1017 63 10000 2.09 255 16:21 07.04.2021
570 Clear 16 1017 82 10000 2.09 255 15:53 07.04.2021
571 Clear 16 1017 82 10000 2.09 255 15:32 07.04.2021
572 Clear 14 1017 87 10000 1.64 247 14:43 07.04.2021
573 Clear 14 1017 87 10000 0.59 246 14:20 07.04.2021
574 Clear 16 1021 67 10000 0.59 246 13:39 07.04.2021
575 Clear 14 1021 67 10000 0.23 287 13:20 07.04.2021
576 Clear 14 1021 67 10000 0.23 287 12:43 07.04.2021
577 Clear 14 1021 67 10000 0.44 252 12:18 07.04.2021
578 Clear 14 1021 67 10000 0.44 252 11:45 07.04.2021
579 Clear 14 1021 67 10000 0.61 258 11:22 07.04.2021
580 Clear 14 1021 66 10000 0.61 258 10:50 07.04.2021
581 Clear 14 1021 66 10000 0.59 267 09:50 07.04.2021
582 Clear 14 1021 66 10000 0.41 267 09:28 07.04.2021
583 Clear 15 1021 65 10000 0.41 267 08:53 07.04.2021
584 Clear 15 1021 65 10000 0.46 272 08:32 07.04.2021
585 Clear 15 1021 64 10000 0.85 245 07:54 07.04.2021
586 Clear 15 1021 63 10000 0.9 248 07:29 07.04.2021
587 Clear 16 1021 63 10000 0.9 248 06:44 07.04.2021
588 Clear 16 1021 58 10000 0.88 252 05:43 07.04.2021
589 Clear 20 1015 55 10000 3.6 190 03:18 07.04.2021
590 Clear 24 1015 44 10000 2.57 240 23:50 06.04.2021
591 Clear 24 1015 44 10000 2.57 240 23:23 06.04.2021
592 Clear 25 1015 41 8000 3.09 230 22:57 06.04.2021
593 Clear 25 1015 41 8000 3.09 230 22:21 06.04.2021
594 Clear 24 1015 43 8000 2.57 240 21:57 06.04.2021
595 Clear 24 1015 43 8000 2.57 240 21:38 06.04.2021
596 Clear 24 1015 43 8000 2.57 240 21:19 06.04.2021
597 Clear 23 1016 49 7000 2.79 245 20:45 06.04.2021
598 Clear 23 1016 49 7000 2.89 249 20:21 06.04.2021
599 Clear 22 1016 52 8000 2.06 0 19:47 06.04.2021
600 Clear 22 1016 52 8000 2.06 0 19:29 06.04.2021
601 Clear 21 1017 59 10000 2.7 252 18:45 06.04.2021
602 Clear 20 1017 59 10000 2.67 250 18:23 06.04.2021
603 Clear 18 1017 67 10000 2.67 250 17:45 06.04.2021
604 Clear 18 1017 67 10000 2.4 246 17:27 06.04.2021
605 Clear 17 1017 72 10000 2.4 246 16:49 06.04.2021
606 Clear 16 1017 72 10000 2.4 246 16:30 06.04.2021
607 Clear 15 1017 87 8000 1.49 246 15:28 06.04.2021
608 Clear 12 1016 93 10000 1.03 50 14:55 06.04.2021
609 Clear 12 1016 93 10000 1.03 50 14:37 06.04.2021
610 Clear 12 1016 93 10000 1.03 50 14:37 06.04.2021
611 Clear 12 1016 93 10000 1.03 50 14:18 06.04.2021
612 Mist 13 1015 93 5000 0.51 0 13:40 06.04.2021
613 Mist 12 1015 93 5000 0.51 0 13:21 06.04.2021
614 Clear 12 1015 87 6000 1.54 350 12:41 06.04.2021
615 Clear 12 1015 87 6000 1.54 350 12:20 06.04.2021
616 Clear 12 1015 87 8000 0.48 253 11:49 06.04.2021
617 Clear 12 1015 87 8000 0.38 266 11:21 06.04.2021
618 Clear 12 1015 93 7000 0.38 266 10:47 06.04.2021
619 Clear 12 1015 93 7000 0.16 296 10:25 06.04.2021
620 Clear 14 1015 82 10000 1.54 150 09:48 06.04.2021
621 Clear 14 1015 82 10000 1.54 150 09:48 06.04.2021
622 Clear 13 1015 82 10000 1.54 150 09:29 06.04.2021
623 Clear 13 1016 82 10000 3.09 140 08:40 06.04.2021
624 Clear 14 1016 82 10000 3.09 150 07:57 06.04.2021
625 Clear 14 1016 82 10000 3.09 160 06:55 06.04.2021
626 Clear 15 1016 77 10000 4.12 150 05:40 06.04.2021
627 Clear 18 1014 63 10000 4.63 150 02:54 06.04.2021
628 Clear 21 1016 46 10000 2.57 240 00:44 06.04.2021
629 Clear 22 1016 46 10000 2.57 240 00:21 06.04.2021
630 Clouds 23 1015 41 7000 2.06 240 23:42 05.04.2021
631 Clouds 24 1015 41 7000 2.06 240 23:19 05.04.2021
632 Haze 24 1015 41 4000 2.57 240 22:48 05.04.2021
633 Haze 24 1015 41 4000 2.57 240 22:25 05.04.2021
634 Haze 23 1015 43 4000 1.54 0 21:43 05.04.2021
635 Haze 23 1015 43 4000 1.54 0 21:20 05.04.2021
636 Haze 22 1016 52 4000 2.06 0 20:42 05.04.2021
637 Haze 22 1016 52 4000 2.06 0 20:23 05.04.2021
638 Haze 20 1016 59 4000 2.06 0 19:42 05.04.2021
639 Haze 20 1016 59 4000 2.06 0 19:20 05.04.2021
640 Haze 19 1016 63 4000 2.06 240 18:48 05.04.2021
641 Haze 19 1016 63 4000 2.06 240 18:30 05.04.2021
642 Haze 17 1017 67 3000 2.06 0 17:57 05.04.2021
643 Haze 17 1017 67 3000 2.06 0 17:37 05.04.2021
644 Haze 18 1017 67 3000 2.06 0 17:18 05.04.2021
645 Haze 17 1016 77 3000 1.54 270 16:41 05.04.2021
646 Haze 16 1016 77 3000 1.54 270 16:20 05.04.2021
647 Haze 16 1016 82 3000 1.03 0 15:50 05.04.2021
648 Haze 15 1016 82 3000 1.03 0 15:27 05.04.2021
649 Haze 14 1016 82 3000 0.51 0 14:46 05.04.2021
650 Haze 14 1016 82 3000 0.51 0 14:25 05.04.2021
651 Clouds 15 1015 82 6000 0.51 257 13:31 05.04.2021
652 Clouds 15 1015 82 6000 0.51 257 13:31 05.04.2021
653 Clouds 15 1015 82 6000 0.51 257 13:31 05.04.2021
654 Clouds 13 1014 87 8000 1.54 300 12:48 05.04.2021
655 Clouds 14 1014 87 8000 1.54 300 12:26 05.04.2021
656 Clouds 13 1014 87 8000 1.54 320 11:54 05.04.2021
657 Clouds 14 1014 87 8000 1.54 320 11:33 05.04.2021
658 Clouds 14 1014 87 8000 1.54 280 10:59 05.04.2021
659 Clouds 14 1014 87 8000 1.54 280 10:40 05.04.2021
660 Clouds 14 1014 87 8000 1.54 280 10:19 05.04.2021
661 Clouds 14 1014 88 8000 2.06 180 09:45 05.04.2021
662 Clouds 14 1014 88 8000 2.06 180 09:22 05.04.2021
663 Clouds 16 1020 71 10000 1.13 260 08:40 05.04.2021
664 Clouds 14 1014 93 10000 2.57 130 08:20 05.04.2021
665 Clear 15 1014 87 10000 2.57 160 07:35 05.04.2021
666 Clear 16 1013 82 10000 4.12 220 04:23 05.04.2021
667 Clouds 19 1013 52 8000 2.57 220 01:35 05.04.2021
668 Clouds 20 1013 52 8000 2.57 220 00:29 05.04.2021
669 Clouds 20 1013 55 8000 2.06 250 23:43 04.04.2021
670 Clouds 20 1013 55 8000 2.06 250 23:20 04.04.2021
671 Clouds 20 1014 52 7000 2.57 0 22:50 04.04.2021
672 Clouds 20 1014 52 7000 2.57 0 22:28 04.04.2021
673 Clouds 17 1015 59 6000 2.57 240 21:25 04.04.2021
674 Clouds 16 1015 67 7000 2.06 200 20:54 04.04.2021
675 Clouds 16 1015 67 7000 2.06 200 20:25 04.04.2021
676 Clouds 17 1016 72 7000 1.03 0 19:43 04.04.2021
677 Clouds 18 1016 72 7000 1.03 0 19:22 04.04.2021
678 Clouds 19 1014 55 7000 2.06 0 18:57 04.04.2021
679 Clouds 18 1014 55 7000 2.06 0 18:38 04.04.2021
680 Clouds 16 1014 55 7000 2.06 0 18:20 04.04.2021
681 Clouds 16 1016 63 7000 1.54 0 17:37 04.04.2021
682 Clouds 17 1016 63 7000 1.54 0 17:19 04.04.2021
683 Clouds 16 1015 59 6000 1.54 200 16:41 04.04.2021
684 Clouds 18 1014 59 10000 2.06 260 15:58 04.04.2021
685 Clouds 18 1014 59 10000 2.06 260 15:33 04.04.2021
686 Clouds 16 1013 82 10000 1.17 253 14:43 04.04.2021
687 Clouds 16 1013 82 10000 0.78 269 14:25 04.04.2021
688 Clouds 17 1012 76 8000 3.6 160 13:29 04.04.2021
689 Clouds 17 1012 71 8000 1.54 150 12:55 04.04.2021
690 Clouds 17 1012 71 8000 1.54 150 12:33 04.04.2021
691 Clouds 16 1011 76 8000 0.43 226 11:53 04.04.2021
692 Clouds 17 1011 76 8000 0.43 226 11:31 04.04.2021
693 Smoke 17 1011 76 8000 0.15 14 10:56 04.04.2021
694 Smoke 17 1011 76 8000 0.15 14 10:33 04.04.2021
695 Clear 17 1011 67 10000 2.06 180 09:52 04.04.2021
696 Clear 18 1011 67 10000 2.06 180 09:24 04.04.2021
697 Clouds 18 1012 67 8000 2.06 160 08:51 04.04.2021
698 Clouds 18 1012 67 8000 2.06 160 08:33 04.04.2021
699 Clear 17 1012 63 10000 2.57 170 07:50 04.04.2021
700 Clear 17 1012 59 10000 2.06 150 06:36 04.04.2021
701 Clear 18 1012 59 10000 4.63 160 05:33 04.04.2021
702 Clear 25 1012 28 10000 2.06 230 01:28 04.04.2021
703 Clear 26 1012 28 10000 2.06 230 00:20 04.04.2021
704 Clear 28 1012 19 10000 3.6 250 23:47 03.04.2021
705 Clear 28 1012 19 10000 3.6 250 23:23 03.04.2021
706 Clear 28 1011 25 10000 3.09 200 22:51 03.04.2021
707 Clear 28 1011 25 10000 3.09 200 22:21 03.04.2021
708 Clear 28 1012 24 10000 2.57 220 21:49 03.04.2021
709 Clear 28 1012 24 10000 2.57 220 21:24 03.04.2021
710 Clear 27 1012 28 10000 2.06 220 20:51 03.04.2021
711 Clear 27 1012 28 10000 2.06 220 20:28 03.04.2021
712 Clear 27 1013 36 10000 2.82 248 19:51 03.04.2021
713 Clear 27 1013 36 10000 2.6 254 19:25 03.04.2021
714 Clear 26 1013 38 10000 2.6 254 18:52 03.04.2021
715 Clear 26 1013 38 10000 2.6 254 18:33 03.04.2021
716 Clear 23 1014 46 10000 2.33 256 17:55 03.04.2021
717 Clear 23 1014 46 10000 2.07 255 17:26 03.04.2021
718 Clear 20 1013 52 10000 2.07 255 16:54 03.04.2021
719 Clear 20 1013 52 10000 1.62 246 16:25 03.04.2021
720 Clear 17 1013 72 10000 1.62 246 15:51 03.04.2021
721 Clear 16 1013 72 10000 1.62 246 15:31 03.04.2021
722 Clear 14 1013 87 10000 0.91 244 14:45 03.04.2021
723 Clear 13 1013 87 10000 0.67 64 14:25 03.04.2021
724 Clear 12 1013 82 10000 0.76 66 13:54 03.04.2021
725 Clear 12 1013 82 10000 0.76 66 13:34 03.04.2021
726 Mist 11 1011 87 4000 0.86 70 12:58 03.04.2021
727 Mist 13 1011 87 4000 0.86 70 12:33 03.04.2021
728 Haze 12 1011 87 5000 0.69 75 11:41 03.04.2021
729 Haze 13 1011 87 5000 0.59 81 11:20 03.04.2021
730 Haze 14 1011 87 5000 0.59 81 10:45 03.04.2021
731 Haze 12 1011 87 5000 0.37 87 10:26 03.04.2021
732 Clear 14 1011 82 6000 0.37 87 09:39 03.04.2021
733 Clear 14 1011 82 6000 0.42 97 09:21 03.04.2021
734 Clear 14 1012 82 6000 1.03 70 08:35 03.04.2021
735 Clear 15 1012 76 7000 1.03 0 07:40 03.04.2021
736 Clear 15 1012 76 7000 1.03 0 07:22 03.04.2021
737 Clear 18 1013 63 10000 2.06 190 03:54 03.04.2021
738 Clear 19 1013 59 10000 3.09 150 02:55 03.04.2021
739 Clear 19 1013 59 10000 3.09 150 02:30 03.04.2021
740 Clear 23 1014 41 10000 2.57 230 00:32 03.04.2021
741 Clouds 23 1014 43 8000 3.09 220 23:59 02.04.2021
742 Clouds 23 1014 43 8000 3.09 220 23:38 02.04.2021
743 Clouds 23 1014 43 8000 3.09 220 23:18 02.04.2021
744 Clouds 24 1014 41 6000 2.57 280 22:43 02.04.2021
745 Clouds 24 1014 41 6000 2.57 280 22:24 02.04.2021
746 Haze 24 1014 41 4000 1.54 270 21:41 02.04.2021
747 Haze 24 1014 41 4000 1.54 270 21:19 02.04.2021
748 Haze 23 1014 41 4000 2.57 250 20:42 02.04.2021
749 Haze 23 1014 41 4000 2.57 250 20:20 02.04.2021
750 Haze 22 1014 49 4000 2.06 220 19:42 02.04.2021
751 Haze 22 1014 49 4000 2.06 220 19:22 02.04.2021
752 Haze 20 1015 59 5000 2.56 245 18:48 02.04.2021
753 Haze 20 1015 59 5000 2.44 250 18:28 02.04.2021
754 Haze 19 1015 67 5000 2.44 250 17:56 02.04.2021
755 Haze 18 1015 67 5000 2.44 250 17:30 02.04.2021
756 Haze 17 1015 67 4000 1.03 270 16:35 02.04.2021
757 Haze 14 1015 82 4000 1.68 242 15:46 02.04.2021
758 Haze 14 1015 82 4000 0.57 226 15:22 02.04.2021
759 Haze 9 1014 93 4000 0.57 226 14:33 02.04.2021
760 Clouds 8 1014 87 7000 1.03 50 13:50 02.04.2021
761 Clouds 8 1014 87 7000 1.03 50 13:28 02.04.2021
762 Mist 12 1014 93 4000 0.07 134 12:58 02.04.2021
763 Mist 7 1014 93 4000 0.07 134 12:36 02.04.2021
764 Fog 12 1013 93 2000 0.45 265 12:18 02.04.2021
765 Fog 12 1013 100 5000 2.57 170 11:44 02.04.2021
766 Fog 9 1013 100 5000 2.57 170 11:18 02.04.2021
767 Fog 9 1013 93 5000 0.08 279 10:42 02.04.2021
768 Fog 12 1013 93 5000 0.35 244 10:21 02.04.2021
769 Fog 13 1013 93 5000 2.06 170 09:39 02.04.2021
770 Fog 13 1013 93 5000 2.06 170 09:21 02.04.2021
771 Fog 13 1013 93 5000 2.06 170 09:21 02.04.2021
772 Fog 14 1014 87 5000 2.57 170 08:45 02.04.2021
773 Fog 14 1014 87 5000 2.57 170 08:25 02.04.2021
774 Clouds 14 1014 93 7000 2.06 170 07:20 02.04.2021
775 Clouds 14 1014 87 8000 2.57 160 06:34 02.04.2021
776 Clear 17 1014 77 10000 4.12 150 03:25 02.04.2021
777 Clear 20 1014 49 6000 2.06 230 01:31 02.04.2021
778 Clear 20 1014 49 6000 2.06 230 00:41 02.04.2021
779 Haze 22 1014 46 5000 2.06 240 23:44 01.04.2021
780 Haze 22 1014 46 5000 2.06 240 23:26 01.04.2021
781 Haze 23 1013 49 4000 2.57 240 22:22 01.04.2021
782 Haze 22 1014 49 4000 3.09 240 21:59 01.04.2021
783 Haze 22 1014 49 4000 3.09 240 21:40 01.04.2021
784 Haze 22 1014 49 4000 3.09 240 21:20 01.04.2021
785 Haze 21 1014 52 4000 2.57 0 20:39 01.04.2021
786 Haze 21 1014 52 4000 2.57 0 20:21 01.04.2021
787 Haze 20 1015 59 4000 2.57 0 19:40 01.04.2021
788 Mist 16 1014 72 4000 2.06 240 18:59 01.04.2021
789 Mist 16 1014 72 4000 2.06 240 18:41 01.04.2021
790 Mist 17 1014 72 4000 2.06 240 18:18 01.04.2021
791 Haze 15 1015 77 4000 2.06 240 17:39 01.04.2021
792 Haze 15 1015 77 4000 2.06 240 17:20 01.04.2021
793 Mist 14 1015 82 4000 1.03 0 16:44 01.04.2021
794 Mist 13 1014 100 3000 2.14 249 15:59 01.04.2021
795 Mist 12 1014 100 3000 1.44 249 15:24 01.04.2021
796 Fog 12 1013 93 100 1.44 249 14:57 01.04.2021
797 Fog 12 1013 93 100 1.44 249 14:38 01.04.2021
798 Fog 12 1013 93 100 0.82 247 14:19 01.04.2021
799 Mist 10 1013 93 3000 0.82 247 13:47 01.04.2021
800 Mist 12 1013 93 3000 0.14 220 13:27 01.04.2021
801 Mist 13 1012 100 1500 1.03 0 12:46 01.04.2021
802 Mist 13 1012 100 1500 1.03 0 12:28 01.04.2021
803 Mist 13 1012 100 1000 1.54 180 11:44 01.04.2021
804 Mist 13 1012 100 1000 1.54 180 11:19 01.04.2021
805 Mist 13 1012 100 1200 2.57 140 10:47 01.04.2021
806 Mist 14 1012 100 1200 2.57 140 10:28 01.04.2021
807 Mist 14 1012 100 1400 3.09 150 09:36 01.04.2021
808 Mist 14 1012 100 2500 4.12 170 08:58 01.04.2021
809 Mist 14 1012 100 2500 4.12 170 08:33 01.04.2021
810 Mist 14 1012 100 3400 4.12 160 07:23 01.04.2021
811 Mist 15 1012 100 2600 4.12 170 06:58 01.04.2021
812 Mist 15 1012 93 4800 3.6 170 06:27 01.04.2021
813 Clear 19 1011 72 10000 4.63 150 03:25 01.04.2021
814 Clouds 23 1012 38 8000 2.06 250 00:28 01.04.2021
815 Clouds 24 1012 38 6000 2.57 250 23:44 31.03.2021
816 Clouds 24 1012 41 6000 3.6 240 22:56 31.03.2021
817 Clouds 24 1012 41 6000 3.6 240 22:38 31.03.2021
818 Clouds 24 1012 41 6000 3.6 240 22:19 31.03.2021
819 Haze 24 1012 43 5000 3.09 240 21:44 31.03.2021
820 Haze 25 1012 43 5000 3.09 240 21:20 31.03.2021
821 Haze 24 1012 43 5000 2.57 250 20:42 31.03.2021
822 Haze 24 1012 43 5000 2.57 250 20:22 31.03.2021
823 Haze 24 1013 46 5000 2.57 270 19:44 31.03.2021
824 Haze 24 1013 46 5000 2.57 270 19:25 31.03.2021
825 Haze 22 1013 52 5000 2.06 0 18:58 31.03.2021
826 Haze 22 1013 52 5000 2.06 0 18:40 31.03.2021
827 Clear 20 1013 59 6000 1.54 0 17:51 31.03.2021
828 Clear 20 1013 59 6000 1.54 0 17:31 31.03.2021
829 Clear 18 1013 67 6000 0.51 0 16:56 31.03.2021
830 Clear 18 1013 67 6000 0.51 0 16:37 31.03.2021
831 Rain 17 1013 67 6000 0.51 0 16:18 31.03.2021
832 Clear 15 1013 82 10000 1.93 245 15:43 31.03.2021
833 Clear 15 1013 82 10000 1.34 251 15:19 31.03.2021
834 Clear 12 1012 93 10000 1.34 251 14:42 31.03.2021
835 Clear 12 1012 93 10000 0.1 17 14:19 31.03.2021
836 Clear 12 1012 93 10000 0.1 17 13:39 31.03.2021
837 Clouds 14 1011 93 8000 0.13 77 12:41 31.03.2021
838 Clouds 14 1011 93 8000 0.23 177 12:20 31.03.2021
839 Clouds 14 1011 93 8000 0.23 177 11:41 31.03.2021
840 Clouds 14 1011 93 8000 0.4 221 11:20 31.03.2021
841 Clouds 14 1011 93 7000 0.4 221 10:46 31.03.2021
842 Clear 14 1011 93 7000 0.44 212 10:24 31.03.2021
843 Clear 16 1012 87 10000 2.06 180 09:37 31.03.2021
844 Clear 14 1012 87 10000 2.06 180 08:54 31.03.2021
845 Clear 14 1012 87 10000 2.06 180 08:33 31.03.2021
846 Clear 15 1013 87 10000 2.06 160 07:43 31.03.2021
847 Rain 15 1013 82 10000 2.57 170 06:38 31.03.2021
848 Clear 17 1013 72 10000 4.12 140 03:46 31.03.2021
849 Clear 21 1014 46 10000 2.57 260 01:35 31.03.2021
850 Clear 22 1014 46 10000 2.57 260 00:48 31.03.2021
851 Clear 22 1014 46 10000 2.57 260 00:18 31.03.2021
852 Clear 23 1014 41 10000 3.09 240 23:29 30.03.2021
853 Clear 24 1014 41 6000 3.6 230 22:56 30.03.2021
854 Clear 24 1014 41 6000 3.6 230 22:38 30.03.2021
855 Clear 24 1014 41 6000 3.6 230 22:20 30.03.2021
856 Haze 24 1014 41 5000 3.6 260 21:42 30.03.2021
857 Haze 24 1014 41 5000 3.6 260 21:19 30.03.2021
858 Haze 24 1014 46 5000 3.09 230 20:51 30.03.2021
859 Haze 24 1014 46 5000 3.09 230 20:27 30.03.2021
860 Haze 23 1015 46 5000 2.57 260 19:50 30.03.2021
861 Haze 23 1015 46 5000 2.57 260 19:23 30.03.2021
862 Haze 21 1015 52 5000 2.06 0 18:36 30.03.2021
863 Haze 20 1015 59 5000 1.54 150 17:52 30.03.2021
864 Haze 19 1015 59 5000 1.54 150 17:32 30.03.2021
865 Haze 17 1015 67 5000 2.5 248 16:48 30.03.2021
866 Haze 17 1015 67 5000 2.02 250 16:28 30.03.2021
867 Haze 15 1015 82 5000 2.02 250 15:43 30.03.2021
868 Haze 15 1015 82 5000 1.2 246 15:20 30.03.2021
869 Haze 12 1015 62 5000 1.12 246 14:48 30.03.2021
870 Haze 12 1015 62 5000 0.2 209 14:21 30.03.2021
871 Clear 12 1015 93 8000 0.2 209 13:54 30.03.2021
872 Clear 12 1015 93 8000 0.2 209 13:36 30.03.2021
873 Clear 14 1014 93 8000 1.03 0 12:45 30.03.2021
874 Clear 14 1014 93 8000 1.03 0 12:26 30.03.2021
875 Clear 12 1014 93 10000 2.06 190 11:51 30.03.2021
876 Clear 14 1014 93 10000 2.06 190 11:22 30.03.2021
877 Clear 13 1014 87 10000 2.57 150 10:43 30.03.2021
878 Clear 13 1014 87 10000 2.57 150 10:20 30.03.2021
879 Clear 14 1014 87 10000 3.6 150 09:43 30.03.2021
880 Clear 14 1014 87 10000 3.6 150 09:24 30.03.2021
881 Clear 15 1014 87 10000 3.6 160 08:53 30.03.2021
882 Clear 15 1014 87 10000 3.6 160 08:35 30.03.2021
883 Clear 16 1014 82 10000 3.6 160 07:50 30.03.2021
884 Clear 16 1014 82 10000 3.6 160 07:21 30.03.2021
885 Clear 16 1014 77 10000 3.09 170 05:25 30.03.2021
886 Clear 16 1014 72 10000 3.6 160 04:45 30.03.2021
887 Clear 22 1015 46 10000 2.57 270 00:26 30.03.2021
888 Clear 22 1015 43 10000 2.57 250 23:31 29.03.2021
889 Clear 23 1015 43 10000 3.09 250 22:44 29.03.2021
890 Clear 23 1015 43 10000 3.09 250 22:18 29.03.2021
891 Clear 23 1015 43 8000 2.57 230 21:43 29.03.2021
892 Clear 23 1015 43 8000 2.57 230 21:22 29.03.2021
893 Haze 23 1015 46 5000 3.09 240 20:44 29.03.2021
894 Haze 23 1015 46 5000 3.09 240 20:26 29.03.2021
895 Haze 22 1015 46 5000 2.06 0 19:46 29.03.2021
896 Haze 22 1015 46 5000 2.06 0 19:20 29.03.2021
897 Clear 20 1016 49 6000 3.26 245 18:40 29.03.2021
898 Clear 20 1016 49 6000 2.86 246 18:21 29.03.2021
899 Clear 19 1016 55 7000 2.86 246 17:45 29.03.2021
900 Clear 17 1016 59 10000 2.28 246 16:59 29.03.2021
901 Clear 17 1016 59 10000 2.28 246 16:36 29.03.2021
902 Clear 15 1015 71 10000 1.82 250 15:57 29.03.2021
903 Clear 14 1015 71 10000 1.82 250 15:34 29.03.2021
904 Clear 13 1015 76 10000 1.22 247 14:56 29.03.2021
905 Clear 12 1015 76 10000 1.22 247 14:36 29.03.2021
906 Clear 12 1014 76 10000 1.03 50 13:53 29.03.2021
907 Clear 14 1014 76 10000 1.03 50 13:29 29.03.2021
908 Mist 15 1013 100 1000 3.6 150 12:51 29.03.2021
909 Mist 15 1013 100 1000 3.6 150 12:51 29.03.2021
910 Mist 14 1013 100 1000 3.6 150 12:29 29.03.2021
911 Mist 13 1013 100 1500 2.57 160 11:41 29.03.2021
912 Mist 13 1013 100 3000 3.09 180 11:22 29.03.2021
913 Clear 14 1012 87 10000 3.09 170 10:38 29.03.2021
914 Clear 14 1012 82 10000 2.57 170 09:56 29.03.2021
915 Clear 15 1012 76 10000 2.06 170 08:59 29.03.2021
916 Clear 15 1012 76 10000 2.06 170 08:29 29.03.2021
917 Clear 16 1012 72 10000 2.57 160 07:42 29.03.2021
918 Clear 16 1012 63 10000 0.51 232 06:42 29.03.2021
919 Clear 18 1012 55 10000 2.06 180 04:22 29.03.2021
920 Clear 21 1011 49 10000 5.14 150 02:21 29.03.2021
921 Clear 24 1012 29 10000 2.57 240 00:24 29.03.2021
922 Clear 25 1012 27 10000 3.09 240 23:51 28.03.2021
923 Clear 26 1012 27 10000 3.09 240 23:20 28.03.2021
924 Clear 27 1012 24 10000 3.6 230 22:42 28.03.2021
925 Clear 27 1012 24 10000 3.6 230 22:21 28.03.2021
926 Clear 27 1012 24 10000 4.12 240 21:45 28.03.2021
927 Clear 27 1012 24 10000 4.12 240 21:23 28.03.2021
928 Clear 27 1013 21 10000 3.09 240 20:50 28.03.2021
929 Clear 27 1013 21 10000 3.09 240 20:32 28.03.2021
930 Clear 26 1013 22 10000 2.06 0 19:46 28.03.2021
931 Clear 26 1013 22 10000 2.06 0 19:23 28.03.2021
932 Clear 25 1014 23 10000 2.57 260 18:59 28.03.2021
933 Clear 25 1014 23 10000 2.57 260 18:36 28.03.2021
934 Clear 24 1014 26 10000 1.54 230 17:56 28.03.2021
935 Clear 24 1014 26 10000 1.54 230 17:36 28.03.2021
936 Clear 21 1014 37 10000 1.54 220 16:55 28.03.2021
937 Clear 21 1014 37 10000 1.54 220 16:24 28.03.2021
938 Clear 17 1013 44 10000 1.68 259 15:49 28.03.2021
939 Clear 19 1013 44 10000 0.92 260 15:24 28.03.2021
940 Clear 14 1013 66 10000 1.54 50 14:40 28.03.2021
941 Clear 16 1013 54 10000 0.51 0 13:59 28.03.2021
942 Clear 13 1013 54 10000 0.51 0 13:34 28.03.2021
943 Clouds 15 1012 62 7000 1.03 0 12:55 28.03.2021
944 Clouds 15 1012 62 7000 1.03 0 12:34 28.03.2021
945 Clouds 16 1011 62 8000 0.29 66 11:50 28.03.2021
946 Clouds 15 1011 62 8000 0.29 66 11:32 28.03.2021
947 Clouds 15 1011 58 8000 0.39 57 10:47 28.03.2021
948 Clouds 16 1011 58 8000 0.47 64 10:29 28.03.2021
949 Clouds 15 1011 62 10000 0.47 64 09:50 28.03.2021
950 Clear 15 1011 62 10000 0.29 110 09:27 28.03.2021
951 Clear 16 1011 54 10000 0.29 110 08:48 28.03.2021
952 Clear 16 1011 54 10000 0.29 110 08:30 28.03.2021
953 Clear 17 1011 47 10000 0.37 124 07:39 28.03.2021
954 Clear 18 1012 45 10000 0.44 180 05:39 28.03.2021
955 Clear 20 1011 35 10000 2.57 140 03:28 28.03.2021
956 Clear 26 1012 12 10000 3.09 240 00:35 28.03.2021
957 Clear 27 1012 12 10000 3.09 240 23:51 27.03.2021
958 Clear 27 1012 12 10000 3.09 240 23:33 27.03.2021
959 Clear 28 1013 14 10000 2.57 210 22:40 27.03.2021
960 Clear 28 1013 14 10000 2.57 210 22:21 27.03.2021
961 Clear 29 1013 14 10000 3.09 240 21:42 27.03.2021
962 Clear 29 1013 14 10000 3.09 240 21:21 27.03.2021
963 Clear 28 1014 11 10000 2.57 210 20:55 27.03.2021
964 Clear 28 1014 11 10000 2.57 210 20:37 27.03.2021
965 Clear 27 1014 12 10000 2.06 200 19:47 27.03.2021
966 Clear 27 1014 12 10000 2.06 200 19:27 27.03.2021
967 Clear 26 1015 16 10000 2.06 240 18:58 27.03.2021
968 Clear 26 1015 16 10000 2.06 240 18:39 27.03.2021
969 Clear 26 1015 16 10000 2.06 240 18:20 27.03.2021
970 Clear 25 1015 20 10000 1.54 140 17:29 27.03.2021
971 Clear 24 1015 21 10000 1.54 280 16:58 27.03.2021
972 Clear 23 1015 21 10000 1.54 280 16:38 27.03.2021
973 Clear 22 1015 21 10000 1.54 280 16:20 27.03.2021
974 Clear 20 1015 32 10000 1.87 249 15:39 27.03.2021
975 Clear 16 1015 44 10000 1.49 254 14:55 27.03.2021
976 Clear 16 1015 44 10000 0.36 242 14:24 27.03.2021
977 Clear 14 1015 57 10000 0.36 242 13:39 27.03.2021
978 Clear 12 1015 57 10000 1.2 65 13:19 27.03.2021
979 Clear 11 1015 61 10000 1.2 65 12:41 27.03.2021
980 Clear 13 1013 66 6000 1.54 270 11:49 27.03.2021
981 Clear 12 1013 66 6000 1.54 270 11:31 27.03.2021
982 Clear 12 1013 61 10000 1.54 70 10:49 27.03.2021
983 Clear 12 1013 61 10000 1.54 70 10:30 27.03.2021
984 Clear 13 1013 61 10000 0.94 70 09:44 27.03.2021
985 Clear 13 1013 61 10000 0.75 63 09:18 27.03.2021
986 Clear 14 1014 58 10000 0.75 63 08:38 27.03.2021
987 Clear 14 1014 54 10000 1.54 30 07:49 27.03.2021
988 Clear 14 1014 54 10000 2.06 20 06:59 27.03.2021
989 Clear 14 1014 54 10000 2.06 20 06:59 27.03.2021
990 Clear 14 1014 54 10000 2.06 20 06:39 27.03.2021
991 Clouds 16 1015 41 10000 1.54 0 04:42 27.03.2021
992 Clear 18 1015 34 10000 2.57 150 02:19 27.03.2021
993 Clear 22 1015 20 10000 2.57 240 00:32 27.03.2021
994 Clear 23 1015 20 10000 2.57 240 23:59 26.03.2021
995 Clear 23 1015 20 10000 2.57 240 23:25 26.03.2021
996 Clear 24 1015 20 10000 2.57 230 22:39 26.03.2021
997 Clear 24 1015 15 10000 5.14 160 21:42 26.03.2021
998 Clear 24 1015 15 10000 5.14 160 21:23 26.03.2021
999 Clear 24 1015 18 10000 5.66 150 20:55 26.03.2021
1000 Clear 24 1017 27 10000 2.57 240 20:31 26.03.2021
1001 Clear 23 1017 27 10000 2.57 240 19:52 26.03.2021
1002 Clear 23 1017 27 10000 2.57 240 19:33 26.03.2021
1003 Clear 22 1017 35 10000 2.06 0 18:50 26.03.2021
1004 Clear 22 1017 35 10000 2.06 0 18:30 26.03.2021
1005 Clear 21 1018 42 10000 3.09 240 17:50 26.03.2021
1006 Clear 20 1018 42 10000 3.09 240 17:28 26.03.2021
1007 Clear 19 1018 45 10000 1.54 300 16:36 26.03.2021
1008 Clear 18 1019 58 10000 2.58 250 15:59 26.03.2021
1009 Clear 17 1019 58 10000 2.58 250 15:35 26.03.2021
1010 Clear 16 1019 54 10000 1.92 244 14:45 26.03.2021
1011 Clear 14 1019 93 10000 1.54 30 13:52 26.03.2021
1012 Clear 11 1019 93 10000 1.54 30 13:23 26.03.2021
1013 Clear 12 1019 100 10000 0.27 221 12:40 26.03.2021
1014 Clear 10 1018 87 8000 2.06 310 11:49 26.03.2021
1015 Clear 11 1018 87 8000 2.06 310 11:30 26.03.2021
1016 Clear 11 1019 81 10000 1.03 0 10:44 26.03.2021
1017 Clear 11 1019 81 10000 1.03 0 10:23 26.03.2021
1018 Clear 11 1019 81 10000 2.06 170 09:41 26.03.2021
1019 Clear 11 1019 81 10000 1.03 0 08:49 26.03.2021
1020 Clear 11 1019 81 10000 1.03 0 08:31 26.03.2021
1021 Clear 12 1019 76 10000 1.54 300 07:57 26.03.2021
1022 Clear 12 1019 76 10000 1.54 300 07:22 26.03.2021
1023 Clear 13 1020 76 10000 2.06 150 06:56 26.03.2021
1024 Clear 13 1020 71 10000 3.6 160 05:32 26.03.2021
1025 Clear 14 1020 67 10000 3.6 140 04:23 26.03.2021
1026 Clear 17 1018 55 10000 5.66 210 00:52 26.03.2021
1027 Clouds 18 1018 37 10000 3.09 270 00:18 26.03.2021
1028 Clouds 19 1018 37 10000 3.09 270 23:42 25.03.2021
1029 Clouds 21 1019 30 10000 3.09 200 22:41 25.03.2021
1030 Clouds 21 1019 30 10000 3.09 200 22:20 25.03.2021
1031 Clouds 21 1019 33 10000 1.54 230 21:47 25.03.2021
1032 Clouds 21 1019 33 10000 1.54 230 21:29 25.03.2021
1033 Clouds 21 1019 43 8000 3.09 230 20:41 25.03.2021
1034 Clouds 21 1019 43 8000 3.09 230 20:23 25.03.2021
1035 Clouds 20 1019 56 7000 3.09 220 19:40 25.03.2021
1036 Clouds 20 1019 56 7000 3.09 220 19:22 25.03.2021
1037 Haze 19 1019 59 4000 2.06 140 18:46 25.03.2021
1038 Haze 19 1019 59 4000 2.06 140 18:26 25.03.2021
1039 Haze 17 1019 72 4000 2.06 200 17:41 25.03.2021
1040 Haze 17 1019 72 4000 2.06 200 17:23 25.03.2021
1041 Clouds 16 1019 72 7000 2.57 230 16:38 25.03.2021
1042 Clouds 17 1019 72 7000 2.57 230 16:19 25.03.2021
1043 Clouds 16 1018 82 6000 1.54 270 15:42 25.03.2021
1044 Clouds 14 1018 82 6000 1.54 270 15:19 25.03.2021
1045 Clouds 13 1019 87 6000 1.54 220 14:42 25.03.2021
1046 Clouds 13 1018 93 6000 2.08 250 13:40 25.03.2021
1047 Clouds 13 1018 93 6000 1.22 262 13:22 25.03.2021
1048 Clouds 12 1017 93 8000 1.22 262 12:41 25.03.2021
1049 Clouds 12 1017 93 8000 1.29 264 12:20 25.03.2021
1050 Mist 12 1016 100 3000 3.09 150 11:48 25.03.2021
1051 Mist 12 1016 100 3000 3.09 150 11:26 25.03.2021
1052 Clouds 12 1015 93 10000 0.54 295 10:51 25.03.2021
1053 Clear 12 1015 93 10000 1 263 10:24 25.03.2021
1054 Clear 13 1015 93 10000 1.54 240 09:55 25.03.2021
1055 Clear 13 1015 93 10000 1.54 240 09:36 25.03.2021
1056 Clear 13 1016 93 10000 2.06 150 08:43 25.03.2021
1057 Clear 14 1016 82 10000 3.6 160 07:58 25.03.2021
1058 Clouds 14 1016 82 10000 3.09 150 06:59 25.03.2021
1059 Clouds 14 1016 82 10000 3.09 150 06:25 25.03.2021
1060 Clear 15 1017 76 10000 3.6 160 05:48 25.03.2021
1061 Clear 17 1016 63 10000 4.63 150 02:48 25.03.2021
1062 Clear 21 1016 43 10000 3.09 210 00:21 25.03.2021
1063 Clear 22 1016 43 10000 3.09 210 23:51 24.03.2021
1064 Clear 23 1016 43 10000 3.09 210 23:28 24.03.2021
1065 Clear 23 1016 41 10000 3.6 240 22:48 24.03.2021
1066 Clear 24 1016 41 10000 3.6 240 22:27 24.03.2021
1067 Clear 24 1016 41 10000 4.63 240 21:42 24.03.2021
1068 Clear 24 1016 41 10000 4.63 240 21:23 24.03.2021
1069 Clouds 25 1017 36 10000 3.6 180 20:43 24.03.2021
1070 Clouds 25 1017 36 10000 3.6 180 20:20 24.03.2021
1071 Clouds 24 1017 41 10000 3.6 250 19:46 24.03.2021
1072 Clouds 24 1017 41 10000 3.6 250 19:28 24.03.2021
1073 Clear 24 1017 43 7000 3.09 0 18:46 24.03.2021
1074 Clear 24 1017 43 7000 3.09 0 18:23 24.03.2021
1075 Clear 23 1017 46 7000 2.06 240 17:49 24.03.2021
1076 Clear 23 1017 46 7000 2.06 240 17:29 24.03.2021
1077 Clear 22 1017 52 7000 2.92 254 16:51 24.03.2021
1078 Clear 21 1017 52 7000 2.74 253 16:29 24.03.2021
1079 Clear 20 1017 55 10000 2.74 253 15:49 24.03.2021
1080 Clear 19 1017 55 10000 2.74 253 15:30 24.03.2021
1081 Clear 19 1017 67 8000 2.46 251 14:47 24.03.2021
1082 Clear 17 1017 67 8000 1.82 253 14:25 24.03.2021
1083 Clear 17 1017 67 8000 1.82 253 14:25 24.03.2021
1084 Clear 17 1017 87 10000 1.82 253 13:53 24.03.2021
1085 Clear 14 1017 87 10000 0.85 279 13:27 24.03.2021
1086 Clear 13 1016 87 10000 1.54 40 12:42 24.03.2021
1087 Clear 13 1016 87 10000 1.54 40 12:22 24.03.2021
1088 Clear 14 1015 87 10000 0.39 295 11:43 24.03.2021
1089 Clear 14 1015 82 10000 1.03 0 10:58 24.03.2021
1090 Clear 15 1015 82 10000 1.03 0 10:38 24.03.2021
1091 Clear 15 1015 82 10000 1.03 0 10:20 24.03.2021
1092 Clear 15 1015 82 10000 2.57 170 09:51 24.03.2021
1093 Clear 15 1015 82 10000 2.57 170 09:20 24.03.2021
1094 Clear 15 1015 77 10000 3.09 180 08:49 24.03.2021
1095 Clear 16 1015 77 10000 3.09 180 08:25 24.03.2021
1096 Clear 16 1015 72 10000 2.06 140 07:37 24.03.2021
1097 Clouds 17 1015 72 10000 3.09 150 06:52 24.03.2021
1098 Clear 18 1015 59 10000 3.6 160 03:57 24.03.2021
1099 Clear 22 1014 46 10000 5.66 210 00:48 24.03.2021
1100 Clear 23 1015 41 10000 3.6 250 23:57 23.03.2021
1101 Clear 24 1015 41 10000 3.6 250 23:21 23.03.2021
1102 Clear 25 1015 36 10000 4.12 240 22:52 23.03.2021
1103 Clear 26 1015 36 10000 4.12 240 22:31 23.03.2021
1104 Clear 26 1015 32 8000 3.6 200 21:52 23.03.2021
1105 Clear 26 1015 32 8000 3.6 200 21:33 23.03.2021
1106 Clear 27 1015 32 7000 3.6 250 20:48 23.03.2021
1107 Clear 27 1015 32 7000 3.6 250 20:29 23.03.2021
1108 Clear 27 1015 29 7000 3.09 250 19:57 23.03.2021
1109 Clear 27 1015 29 7000 3.09 250 19:37 23.03.2021
1110 Clear 26 1015 29 7000 3.09 250 19:19 23.03.2021
1111 Clear 26 1016 31 10000 2.06 0 18:38 23.03.2021
1112 Clear 26 1016 31 10000 2.06 0 18:18 23.03.2021
1113 Clear 25 1016 35 10000 2.57 240 17:43 23.03.2021
1114 Clear 24 1016 35 10000 2.57 240 17:21 23.03.2021
1115 Clear 23 1016 38 10000 0.51 80 16:26 23.03.2021
1116 Clear 21 1017 49 10000 1.03 270 15:50 23.03.2021
1117 Clear 21 1017 49 10000 1.03 270 15:23 23.03.2021
1118 Clear 18 1016 51 10000 1.5 262 14:49 23.03.2021
1119 Clear 19 1016 51 10000 1.27 266 14:19 23.03.2021
1120 Clear 19 1016 51 10000 1.27 266 14:19 23.03.2021
1121 Clear 15 1016 66 10000 1.27 266 13:47 23.03.2021
1122 Clear 16 1016 66 10000 0.33 322 13:24 23.03.2021
1123 Clear 13 1016 81 10000 0.51 0 12:45 23.03.2021
1124 Clear 12 1016 81 10000 0.51 0 12:26 23.03.2021
1125 Clear 14 1014 76 8000 0.03 21 11:49 23.03.2021
1126 Clear 14 1014 76 8000 0.03 21 11:49 23.03.2021
1127 Clear 14 1014 76 8000 0.44 264 11:21 23.03.2021
1128 Clear 15 1013 67 10000 1.54 180 10:42 23.03.2021
1129 Clear 15 1013 67 10000 1.54 180 10:21 23.03.2021
1130 Clear 15 1013 71 10000 0.36 232 09:51 23.03.2021
1131 Clear 15 1013 71 10000 0.29 202 09:23 23.03.2021
1132 Clear 16 1013 67 10000 0.29 202 08:55 23.03.2021
1133 Clear 16 1013 67 10000 0.29 202 08:37 23.03.2021
1134 Clear 16 1013 67 10000 0.64 246 08:19 23.03.2021
1135 Clear 16 1014 67 10000 0.32 219 07:27 23.03.2021
1136 Clear 17 1014 59 10000 1.54 130 06:53 23.03.2021
1137 Clear 19 1015 49 10000 3.09 140 03:57 23.03.2021
1138 Clear 19 1015 49 10000 3.09 140 03:18 23.03.2021
1139 Clear 25 1015 28 10000 2.57 250 23:56 22.03.2021
1140 Clear 26 1015 28 10000 2.57 250 23:20 22.03.2021
1141 Clear 27 1015 26 10000 2.57 220 22:44 22.03.2021
1142 Clear 27 1015 26 10000 2.57 220 22:21 22.03.2021
1143 Clear 27 1016 24 10000 3.09 230 21:49 22.03.2021
1144 Clear 27 1016 24 10000 3.09 230 21:27 22.03.2021
1145 Clear 26 1016 28 10000 2.06 270 20:44 22.03.2021
1146 Clear 26 1016 28 10000 2.06 270 20:26 22.03.2021
1147 Clear 25 1017 31 10000 2.57 230 19:58 22.03.2021
1148 Clear 26 1017 31 10000 2.57 230 19:38 22.03.2021
1149 Clear 26 1017 31 10000 2.57 230 19:20 22.03.2021
1150 Clear 25 1018 33 10000 2.45 243 18:41 22.03.2021
1151 Clear 25 1018 33 10000 2.16 244 18:22 22.03.2021
1152 Clear 23 1019 40 10000 2.06 270 17:49 22.03.2021
1153 Clear 23 1019 40 10000 2.06 270 17:22 22.03.2021
1154 Clear 21 1019 45 10000 1.54 280 16:55 22.03.2021
1155 Clear 21 1019 45 10000 1.54 280 16:37 22.03.2021
1156 Clear 19 1020 48 10000 1.54 150 15:43 22.03.2021
1157 Clear 19 1020 48 10000 1.54 150 15:23 22.03.2021
1158 Clear 20 1019 55 10000 2.06 360 14:58 22.03.2021
1159 Clear 15 1020 87 10000 1.54 60 14:34 22.03.2021
1160 Clear 16 1019 76 8000 2.06 300 13:52 22.03.2021
1161 Clear 14 1020 87 10000 0.89 227 13:33 22.03.2021
1162 Clear 12 1020 87 10000 0.3 353 12:59 22.03.2021
1163 Clear 12 1020 87 10000 0.29 31 12:26 22.03.2021
1164 Clear 12 1019 76 10000 3.6 40 11:57 22.03.2021
1165 Clear 12 1019 76 10000 3.6 40 11:39 22.03.2021
1166 Clear 12 1019 76 10000 3.6 40 11:19 22.03.2021
1167 Clouds 13 1019 76 10000 1.54 350 10:41 22.03.2021
1168 Clouds 13 1019 76 10000 1.54 350 10:18 22.03.2021
1169 Clouds 13 1019 76 10000 1.03 0 09:36 22.03.2021
1170 Clear 13 1019 76 10000 3.09 250 08:57 22.03.2021
1171 Clear 13 1019 76 10000 3.09 250 08:57 22.03.2021
1172 Clear 13 1019 76 10000 3.09 250 08:39 22.03.2021
1173 Clear 13 1019 76 10000 3.09 250 08:20 22.03.2021
1174 Clouds 14 1019 67 10000 1.54 120 07:42 22.03.2021
1175 Clouds 14 1019 72 10000 3.6 140 06:52 22.03.2021
1176 Clouds 15 1019 72 10000 4.63 200 05:18 22.03.2021
1177 Clouds 18 1016 55 10000 8.23 210 00:55 22.03.2021
1178 Clouds 20 1017 43 10000 2.06 210 00:21 22.03.2021
1179 Clouds 21 1017 43 10000 2.06 210 23:48 21.03.2021
1180 Clouds 22 1017 43 10000 2.06 210 23:19 21.03.2021
1181 Clouds 22 1017 40 10000 3.09 200 22:54 21.03.2021
1182 Clouds 23 1016 35 10000 2.57 180 21:45 21.03.2021
1183 Clouds 23 1016 35 10000 2.57 180 21:27 21.03.2021
1184 Clouds 23 1016 33 10000 3.6 210 20:58 21.03.2021
1185 Clouds 24 1016 33 10000 3.6 210 20:39 21.03.2021
1186 Clouds 23 1016 33 10000 3.6 210 20:21 21.03.2021
1187 Clouds 24 1016 35 10000 3.6 230 19:49 21.03.2021
1188 Clouds 23 1016 35 10000 3.6 230 19:20 21.03.2021
1189 Clouds 22 1017 37 10000 2.57 0 18:46 21.03.2021
1190 Clouds 23 1017 37 10000 2.57 0 18:27 21.03.2021
1191 Clear 22 1017 40 10000 2.57 270 17:45 21.03.2021
1192 Clear 22 1017 40 10000 2.57 270 17:19 21.03.2021
1193 Clouds 21 1017 45 10000 1.54 200 16:54 21.03.2021
1194 Clouds 21 1017 45 10000 1.54 200 16:29 21.03.2021
1195 Clouds 19 1017 51 10000 1.54 250 15:49 21.03.2021
1196 Clouds 17 1017 51 10000 1.54 250 15:23 21.03.2021
1197 Clouds 18 1017 67 10000 1.03 230 14:59 21.03.2021
1198 Clouds 17 1017 67 10000 1.03 230 14:40 21.03.2021
1199 Clouds 16 1017 67 10000 1.03 230 14:21 21.03.2021
1200 Clouds 14 1017 76 10000 1.41 260 13:52 21.03.2021
1201 Clouds 13 1017 82 10000 0.23 298 12:46 21.03.2021
1202 Clouds 13 1017 82 10000 0.26 270 12:26 21.03.2021
1203 Clouds 13 1015 76 10000 0.51 0 11:51 21.03.2021
1204 Clouds 13 1015 76 10000 0.51 0 11:27 21.03.2021
1205 Clouds 13 1015 71 10000 0.51 110 10:54 21.03.2021
1206 Clouds 13 1015 71 10000 0.51 110 10:34 21.03.2021
1207 Clouds 13 1015 71 10000 0.48 244 09:58 21.03.2021
1208 Clouds 13 1015 71 10000 0.48 244 09:38 21.03.2021
1209 Clouds 13 1015 71 10000 0.48 244 09:38 21.03.2021
1210 Clouds 13 1015 71 10000 0.48 244 09:38 21.03.2021
1211 Clouds 13 1015 71 10000 0.34 239 09:19 21.03.2021
1212 Clouds 13 1016 66 10000 0.34 239 08:39 21.03.2021
1213 Clouds 13 1016 66 10000 0.44 210 08:20 21.03.2021
1214 Clear 14 1016 62 10000 0.44 210 07:36 21.03.2021
1215 Clouds 14 1017 58 10000 2.57 160 06:50 21.03.2021
1216 Clear 15 1017 55 10000 4.12 150 04:58 21.03.2021
1217 Clear 15 1017 55 10000 4.12 150 04:58 21.03.2021
1218 Clear 18 1016 48 10000 3.09 170 01:54 21.03.2021
1219 Clear 20 1015 42 10000 6.69 220 00:40 21.03.2021
1220 Clouds 22 1016 29 10000 2.57 230 00:21 21.03.2021
1221 Clouds 23 1016 29 10000 2.57 230 23:47 20.03.2021
1222 Clouds 23 1016 29 10000 2.57 230 23:20 20.03.2021
1223 Clear 24 1016 29 10000 2.57 240 22:50 20.03.2021
1224 Clear 24 1016 29 10000 2.57 240 22:21 20.03.2021
1225 Clear 24 1017 27 10000 2.57 210 21:45 20.03.2021
1226 Clear 24 1017 27 10000 2.57 210 21:24 20.03.2021
1227 Clear 24 1014 29 10000 2.57 210 20:44 20.03.2021
1228 Clear 24 1014 29 10000 2.57 210 20:22 20.03.2021
1229 Clouds 23 1018 31 10000 2.06 0 19:48 20.03.2021
1230 Clouds 23 1018 31 10000 2.06 0 19:26 20.03.2021
1231 Clouds 22 1019 35 10000 2.57 230 18:49 20.03.2021
1232 Clouds 21 1019 35 10000 2.57 230 18:26 20.03.2021
1233 Clear 21 1019 42 10000 1.54 180 17:54 20.03.2021
1234 Clear 20 1019 42 10000 1.54 180 17:32 20.03.2021
1235 Clear 19 1020 51 10000 2.06 200 16:45 20.03.2021
1236 Clear 18 1020 51 10000 2.06 200 16:21 20.03.2021
1237 Clear 18 1020 58 10000 1.86 254 15:59 20.03.2021
1238 Clear 17 1020 58 10000 1.86 254 15:39 20.03.2021
1239 Clear 15 1021 71 10000 1.78 253 14:46 20.03.2021
1240 Clear 13 1021 71 10000 0.97 254 14:28 20.03.2021
1241 Clear 13 1021 93 10000 0.97 254 13:40 20.03.2021
1242 Clear 10 1020 87 10000 0.29 281 12:52 20.03.2021
1243 Clear 10 1020 87 10000 0.46 78 12:26 20.03.2021
1244 Clear 11 1020 76 8000 1.54 290 11:47 20.03.2021
1245 Clear 11 1020 76 8000 1.54 290 11:29 20.03.2021
1246 Clouds 11 1020 76 10000 0.27 212 10:56 20.03.2021
1247 Clouds 11 1020 76 10000 0.27 212 10:37 20.03.2021
1248 Clouds 11 1020 76 10000 0.42 242 10:18 20.03.2021
1249 Clear 11 1019 76 10000 1.54 0 09:27 20.03.2021
1250 Clear 12 1020 71 10000 1.03 280 08:58 20.03.2021
1251 Clear 12 1020 71 10000 1.03 280 08:37 20.03.2021
1252 Clouds 12 1020 66 10000 1.54 140 07:54 20.03.2021
1253 Clouds 12 1020 66 10000 1.54 140 07:32 20.03.2021
1254 Clouds 13 1020 62 10000 2.57 150 06:54 20.03.2021
1255 Clouds 13 1020 62 10000 2.57 150 06:19 20.03.2021
1256 Clouds 14 1019 62 10000 3.6 150 04:00 20.03.2021
1257 Clouds 14 1019 62 10000 3.6 150 03:41 20.03.2021
1258 Clouds 16 1018 55 7000 2.06 210 00:35 20.03.2021
1259 Clouds 18 1018 55 7000 2.06 210 23:31 19.03.2021
1260 Clouds 18 1017 59 7000 3.09 230 22:54 19.03.2021
1261 Clouds 18 1017 59 7000 3.09 230 22:30 19.03.2021
1262 Clouds 18 1017 59 7000 3.6 210 21:58 19.03.2021
1263 Clouds 18 1017 59 7000 3.6 210 21:23 19.03.2021
1264 Clouds 18 1016 59 7000 3.6 240 20:59 19.03.2021
1265 Clouds 18 1016 59 7000 3.6 240 20:40 19.03.2021
1266 Clouds 19 1016 59 7000 3.6 240 20:22 19.03.2021
1267 Clouds 19 1015 49 7000 2.57 0 19:46 19.03.2021
1268 Clouds 20 1015 49 7000 2.57 0 19:20 19.03.2021
1269 Clouds 19 1015 52 7000 2.57 210 18:41 19.03.2021
1270 Clouds 19 1015 52 7000 2.57 210 18:20 19.03.2021
1271 Haze 19 1015 55 5000 2.86 246 17:55 19.03.2021
1272 Haze 19 1015 55 5000 2.86 246 17:32 19.03.2021
1273 Haze 18 1016 67 5000 3.01 252 16:55 19.03.2021
1274 Haze 16 1016 67 5000 3.01 252 16:31 19.03.2021
1275 Haze 16 1016 67 5000 3.01 252 16:31 19.03.2021
1276 Clouds 16 1016 76 6000 0.51 0 15:56 19.03.2021
1277 Clouds 14 1016 76 6000 0.51 0 15:27 19.03.2021
1278 Haze 13 1016 82 5000 2.44 266 14:47 19.03.2021
1279 Haze 13 1016 82 5000 1.21 260 14:28 19.03.2021
1280 Clouds 13 1016 76 6000 0.51 0 13:42 19.03.2021
1281 Clouds 13 1015 76 7000 1.54 220 12:57 19.03.2021
1282 Clouds 13 1015 76 7000 1.54 220 12:37 19.03.2021
1283 Clouds 13 1014 82 10000 3.09 160 11:48 19.03.2021
1284 Clouds 13 1014 76 10000 3.6 160 10:54 19.03.2021
1285 Clouds 13 1014 76 10000 3.6 160 10:32 19.03.2021
1286 Clouds 13 1014 76 10000 4.63 160 09:58 19.03.2021
1287 Clouds 13 1014 76 10000 4.63 160 09:39 19.03.2021
1288 Clouds 13 1014 76 10000 4.63 160 09:19 19.03.2021
1289 Clouds 13 1014 82 10000 3.09 170 08:40 19.03.2021
1290 Clouds 13 1014 82 10000 3.09 170 08:21 19.03.2021
1291 Clouds 13 1014 82 10000 3.09 170 07:39 19.03.2021
1292 Clear 14 1014 82 10000 2.06 140 06:52 19.03.2021
1293 Clouds 15 1014 77 10000 4.12 160 03:34 19.03.2021
1294 Clouds 17 1013 59 10000 4.12 220 00:58 19.03.2021
1295 Clear 18 1015 55 9000 1.03 60 23:49 18.03.2021
1296 Clear 19 1015 55 9000 1.03 60 23:26 18.03.2021
1297 Clouds 19 1014 52 10000 3.6 140 22:41 18.03.2021
1298 Clouds 19 1015 63 6000 2.06 260 22:22 18.03.2021
1299 Clouds 19 1015 63 6000 2.06 260 21:39 18.03.2021
1300 Haze 19 1016 67 4000 3.22 240 20:54 18.03.2021
1301 Haze 19 1016 67 4000 3.22 240 20:35 18.03.2021
1302 Haze 18 1016 72 4000 3.11 240 19:59 18.03.2021
1303 Haze 18 1016 72 4000 3.11 240 19:41 18.03.2021
1304 Haze 18 1016 72 4000 3.2 239 19:20 18.03.2021
1305 Haze 17 1016 77 5000 2.57 230 18:35 18.03.2021
1306 Haze 16 1016 88 4000 2.06 230 17:51 18.03.2021
1307 Haze 16 1016 88 4000 2.06 230 17:26 18.03.2021
1308 Mist 16 1016 82 4000 1.54 270 16:49 18.03.2021
1309 Mist 15 1016 82 4000 1.54 270 16:30 18.03.2021
1310 Mist 16 1016 88 4000 1.54 270 15:49 18.03.2021
1311 Mist 14 1016 88 4000 1.54 270 15:29 18.03.2021
1312 Mist 15 1015 88 4000 1.54 180 14:58 18.03.2021
1313 Mist 14 1015 88 4000 1.54 180 14:40 18.03.2021
1314 Mist 14 1015 88 4000 1.54 180 14:40 18.03.2021
1315 Mist 13 1014 88 3000 1.54 150 13:54 18.03.2021
1316 Mist 14 1014 88 3000 1.54 150 13:27 18.03.2021
1317 Mist 13 1014 87 4000 1.54 230 12:46 18.03.2021
1318 Mist 13 1014 87 4000 1.54 230 12:28 18.03.2021
1319 Clouds 14 1013 88 10000 2.57 150 11:55 18.03.2021
1320 Clouds 14 1013 88 10000 2.57 150 11:34 18.03.2021
1321 Clouds 13 1013 88 10000 2.57 170 10:51 18.03.2021
1322 Clouds 13 1013 88 10000 2.57 170 10:29 18.03.2021
1323 Clouds 14 1013 88 10000 2.57 170 09:58 18.03.2021
1324 Clouds 14 1013 88 10000 3.6 140 09:30 18.03.2021
1325 Clouds 13 1013 87 10000 3.6 150 08:57 18.03.2021
1326 Clouds 13 1013 87 10000 3.6 150 08:33 18.03.2021
1327 Clear 14 1013 87 10000 4.12 160 07:58 18.03.2021
1328 Clear 14 1013 87 10000 4.12 160 07:40 18.03.2021
1329 Clear 14 1013 82 10000 4.12 160 06:40 18.03.2021
1330 Clear 14 1013 82 10000 4.12 160 06:21 18.03.2021
1331 Clouds 15 1014 82 10000 4.12 150 04:42 18.03.2021
1332 Clouds 20 1014 40 10000 2.06 200 00:39 18.03.2021
1333 Clouds 22 1014 40 10000 2.06 200 23:19 17.03.2021
1334 Clouds 23 1014 43 10000 2.57 250 22:38 17.03.2021
1335 Clouds 23 1014 43 10000 2.57 250 22:19 17.03.2021
1336 Clouds 24 1013 41 10000 4.63 170 21:48 17.03.2021
1337 Clouds 23 1015 46 10000 1.54 180 21:30 17.03.2021
1338 Clouds 23 1015 46 10000 1.54 180 20:45 17.03.2021
1339 Clouds 22 1015 46 10000 1.54 180 20:26 17.03.2021
1340 Clouds 22 1015 49 8000 1.54 200 19:57 17.03.2021
1341 Clouds 22 1015 49 8000 1.54 200 19:36 17.03.2021
1342 Clouds 22 1015 49 8000 1.54 200 19:18 17.03.2021
1343 Clouds 20 1016 52 10000 2.75 252 18:41 17.03.2021
1344 Clouds 19 1017 59 10000 2.86 254 17:59 17.03.2021
1345 Clouds 19 1017 59 10000 2.86 254 17:32 17.03.2021
1346 Clouds 18 1017 63 10000 2.37 258 16:57 17.03.2021
1347 Clouds 18 1017 63 10000 2.37 258 16:38 17.03.2021
1348 Clouds 18 1017 63 10000 1.89 269 16:19 17.03.2021
1349 Clouds 18 1017 67 10000 1.89 269 15:40 17.03.2021
1350 Clouds 17 1017 72 10000 1.54 300 14:57 17.03.2021
1351 Clouds 17 1017 72 10000 1.54 300 14:36 17.03.2021
1352 Clouds 16 1017 72 10000 1.54 300 14:18 17.03.2021
1353 Clouds 16 1017 72 10000 1.54 300 14:18 17.03.2021
1354 Clouds 16 1017 72 10000 2.06 50 13:52 17.03.2021
1355 Clouds 15 1017 72 10000 2.06 50 13:22 17.03.2021
1356 Clouds 14 1016 76 10000 1.54 240 12:36 17.03.2021
1357 Clouds 14 1016 76 10000 1.54 240 12:18 17.03.2021
1358 Clouds 14 1016 76 10000 1.54 240 12:18 17.03.2021
1359 Clouds 15 1015 72 10000 4.12 180 11:37 17.03.2021
1360 Clouds 15 1015 72 10000 4.12 180 11:18 17.03.2021
1361 Clouds 16 1014 67 10000 2.06 200 10:40 17.03.2021
1362 Clouds 16 1014 67 10000 2.06 140 09:59 17.03.2021
1363 Clouds 16 1014 67 10000 2.06 140 09:41 17.03.2021
1364 Clouds 16 1014 67 10000 2.06 140 09:20 17.03.2021
1365 Clouds 16 1014 67 10000 2.57 160 08:44 17.03.2021
1366 Clouds 16 1014 67 10000 2.57 160 08:25 17.03.2021
1367 Clouds 16 1014 63 10000 1.54 140 07:37 17.03.2021
1368 Clouds 17 1015 59 10000 1 249 06:48 17.03.2021
1369 Clouds 17 1015 59 10000 2.06 160 05:28 17.03.2021
1370 Clouds 17 1015 63 10000 1.54 150 03:31 17.03.2021
1371 Clouds 19 1016 52 8000 1.54 240 01:19 17.03.2021
1372 Clouds 20 1016 52 8000 1.54 240 00:33 17.03.2021
1373 Clouds 20 1016 52 8000 2.06 190 23:26 16.03.2021
1374 Clouds 21 1016 49 7000 2.57 190 22:44 16.03.2021
1375 Clouds 21 1016 49 7000 2.57 190 22:26 16.03.2021
1376 Clouds 21 1016 49 7000 2.57 190 21:44 16.03.2021
1377 Clouds 21 1016 49 7000 2.57 190 21:25 16.03.2021
1378 Clouds 22 1017 46 6000 1.54 0 20:56 16.03.2021
1379 Clouds 22 1017 46 6000 1.54 0 20:19 16.03.2021
1380 Clouds 21 1017 49 7000 2.82 246 19:48 16.03.2021
1381 Clouds 21 1017 49 7000 2.72 244 19:27 16.03.2021
1382 Clouds 20 1017 56 7000 1.54 190 18:53 16.03.2021
1383 Clouds 20 1017 56 7000 1.54 190 18:35 16.03.2021
1384 Clouds 19 1018 63 7000 1.54 170 17:52 16.03.2021
1385 Clouds 20 1018 63 7000 1.54 170 17:33 16.03.2021
1386 Clouds 18 1019 67 7000 1.03 180 16:54 16.03.2021
1387 Clouds 17 1019 67 7000 1.03 180 16:31 16.03.2021
1388 Clouds 16 1019 77 7000 2.25 247 15:59 16.03.2021
1389 Clouds 16 1019 77 7000 2.25 247 15:39 16.03.2021
1390 Clouds 16 1019 77 7000 2.08 258 15:19 16.03.2021
1391 Clouds 15 1019 82 7000 2.08 258 14:45 16.03.2021
1392 Clouds 15 1019 82 7000 1.8 250 14:23 16.03.2021
1393 Clouds 15 1018 82 7000 1.8 250 13:58 16.03.2021
1394 Clouds 15 1018 82 7000 0.95 235 13:29 16.03.2021
1395 Clouds 15 1018 82 7000 0.95 235 12:56 16.03.2021
1396 Clouds 15 1018 82 7000 1.04 247 12:38 16.03.2021
1397 Clouds 14 1018 82 7000 0.7 239 12:18 16.03.2021
1398 Clouds 14 1018 82 7000 0.7 239 12:18 16.03.2021
1399 Clouds 15 1017 77 10000 2.06 150 11:35 16.03.2021
1400 Clouds 15 1017 77 10000 2.57 180 10:50 16.03.2021
1401 Clouds 15 1017 77 10000 2.57 180 10:50 16.03.2021
1402 Clouds 14 1017 77 10000 2.57 180 10:21 16.03.2021
1403 Clouds 14 1017 77 10000 2.57 180 10:21 16.03.2021
1404 Clouds 14 1017 77 10000 1.54 160 09:41 16.03.2021
1405 Clouds 15 1017 77 10000 1.54 160 09:21 16.03.2021
1406 Clouds 15 1017 72 10000 2.57 150 08:56 16.03.2021
1407 Clouds 15 1017 72 10000 2.57 150 08:37 16.03.2021
1408 Clouds 15 1017 72 10000 1.03 0 07:55 16.03.2021
1409 Clouds 15 1017 72 10000 1.03 0 07:27 16.03.2021
1410 Clouds 15 1018 72 10000 2.06 170 06:38 16.03.2021
1411 Clouds 15 1018 72 10000 3.6 160 05:37 16.03.2021
1412 Clouds 15 1018 72 10000 3.6 160 04:26 16.03.2021
1413 Clouds 15 1017 67 10000 4.12 160 02:27 16.03.2021
1414 Clouds 17 1017 72 6000 3.09 210 00:47 16.03.2021
1415 Clouds 19 1017 67 6000 3.09 220 23:54 15.03.2021
1416 Clouds 19 1017 67 6000 3.09 220 23:19 15.03.2021
1417 Clouds 19 1016 63 7000 3.09 230 22:43 15.03.2021
1418 Clouds 19 1016 63 7000 3.09 230 22:25 15.03.2021
1419 Clouds 20 1016 56 7000 2.57 200 21:51 15.03.2021
1420 Clouds 20 1016 56 7000 2.57 200 21:29 15.03.2021
1421 Clouds 20 1017 63 7000 3.66 236 20:55 15.03.2021
1422 Clouds 21 1017 63 7000 3.66 236 20:37 15.03.2021
1423 Clouds 20 1017 63 7000 3.6 237 20:19 15.03.2021
1424 Clouds 19 1017 72 6000 1.54 190 19:43 15.03.2021
1425 Clouds 19 1017 72 6000 1.54 190 19:24 15.03.2021
1426 Haze 18 1018 77 5000 3.64 238 18:47 15.03.2021
1427 Haze 18 1018 77 5000 3.47 240 18:23 15.03.2021
1428 Mist 17 1018 82 3000 3.09 220 17:55 15.03.2021
1429 Mist 17 1018 82 3000 3.09 220 17:28 15.03.2021
1430 Drizzle 17 1018 100 1500 2.06 150 16:50 15.03.2021
1431 Drizzle 17 1018 100 1500 2.06 150 16:25 15.03.2021
1432 Drizzle 16 1017 100 800 1.03 210 15:44 15.03.2021
1433 Fog 15 1017 100 800 1.03 210 15:25 15.03.2021
1434 Clouds 15 1017 100 1000 1.54 250 14:42 15.03.2021
1435 Clouds 14 1017 100 1000 1.54 250 14:21 15.03.2021
1436 Fog 14 1017 100 800 1.03 240 13:46 15.03.2021
1437 Fog 13 1017 100 800 1.03 240 13:24 15.03.2021
1438 Clouds 13 1015 94 1500 1.45 254 12:47 15.03.2021
1439 Clouds 13 1015 94 1500 1.11 233 12:18 15.03.2021
1440 Clouds 13 1015 88 10000 3.6 150 11:48 15.03.2021
1441 Clouds 14 1015 88 10000 3.6 150 11:30 15.03.2021
1442 Clouds 14 1015 88 10000 4.63 160 10:45 15.03.2021
1443 Clouds 14 1015 88 10000 4.63 160 10:27 15.03.2021
1444 Clouds 14 1015 88 10000 3.6 160 09:49 15.03.2021
1445 Clouds 15 1015 88 10000 3.6 160 09:30 15.03.2021
1446 Clouds 14 1014 88 10000 4.63 150 08:48 15.03.2021
1447 Clouds 15 1014 88 10000 4.63 150 08:28 15.03.2021
1448 Clouds 16 1014 88 10000 4.63 160 07:49 15.03.2021
1449 Clouds 16 1014 88 10000 4.63 160 07:30 15.03.2021
1450 Clouds 16 1014 88 10000 4.12 160 06:36 15.03.2021
1451 Clear 16 1014 82 10000 4.12 150 05:25 15.03.2021
1452 Clear 22 1014 49 10000 2.57 260 01:26 15.03.2021
1453 Clear 24 1014 41 10000 3.09 230 23:52 14.03.2021
1454 Clear 24 1014 41 10000 3.09 230 23:19 14.03.2021
1455 Clear 25 1014 41 10000 3.6 220 22:42 14.03.2021
1456 Clear 26 1014 41 10000 3.6 220 22:19 14.03.2021
1457 Clear 26 1014 36 10000 3.09 220 21:44 14.03.2021
1458 Clear 26 1014 36 10000 3.09 220 21:18 14.03.2021
1459 Clear 27 1014 36 10000 3.09 230 20:43 14.03.2021
1460 Clear 27 1014 36 10000 3.09 230 20:24 14.03.2021
1461 Clear 26 1014 41 10000 3.09 260 19:42 14.03.2021
1462 Clear 26 1014 41 10000 3.09 260 19:22 14.03.2021
1463 Clear 26 1015 41 8000 2.57 220 18:47 14.03.2021
1464 Clear 25 1015 41 8000 2.57 220 18:22 14.03.2021
1465 Clear 24 1015 49 8000 2.06 220 17:39 14.03.2021
1466 Clear 24 1015 49 8000 2.06 220 17:20 14.03.2021
1467 Clear 21 1015 60 7000 1.54 270 16:46 14.03.2021
1468 Clear 22 1015 60 7000 1.54 270 16:24 14.03.2021
1469 Clear 19 1015 67 10000 1.03 230 15:52 14.03.2021
1470 Clear 19 1015 67 10000 1.03 230 15:30 14.03.2021
1471 Clear 17 1016 82 10000 1.54 180 14:41 14.03.2021
1472 Clear 16 1016 82 10000 1.54 180 14:20 14.03.2021
1473 Clear 18 1015 82 10000 1.54 230 13:49 14.03.2021
1474 Clear 15 1015 82 10000 1.54 230 13:28 14.03.2021
1475 Clear 16 1015 88 10000 0.89 259 12:45 14.03.2021
1476 Clear 14 1015 88 10000 0.5 242 12:27 14.03.2021
1477 Clouds 15 1014 87 8000 2.06 170 11:47 14.03.2021
1478 Clouds 15 1014 87 8000 2.06 170 11:29 14.03.2021
1479 Clouds 15 1014 94 10000 2.06 180 10:56 14.03.2021
1480 Clouds 15 1014 94 10000 2.06 180 10:36 14.03.2021
1481 Clouds 15 1014 94 10000 2.06 180 10:18 14.03.2021
1482 Clouds 16 1014 88 10000 2.57 170 09:42 14.03.2021
1483 Clouds 16 1014 88 10000 2.57 170 09:21 14.03.2021
1484 Clouds 16 1014 88 10000 3.09 170 08:40 14.03.2021
1485 Clouds 16 1014 88 10000 3.09 170 08:18 14.03.2021
1486 Clouds 16 1014 88 10000 3.09 170 08:18 14.03.2021
1487 Clouds 16 1014 82 10000 3.09 170 07:35 14.03.2021
1488 Clouds 17 1015 82 10000 3.09 160 06:27 14.03.2021
1489 Clear 20 1014 63 10000 5.14 160 02:21 14.03.2021
1490 Clear 22 1015 53 10000 2.06 230 00:50 14.03.2021
1491 Clear 23 1015 53 10000 2.06 230 00:19 14.03.2021
1492 Clouds 24 1015 44 10000 3.09 250 23:42 13.03.2021
1493 Clouds 25 1015 44 10000 3.09 250 23:22 13.03.2021
1494 Clear 26 1014 38 10000 3.09 230 22:50 13.03.2021
1495 Clear 26 1014 38 10000 3.09 230 22:25 13.03.2021
1496 Clouds 27 1014 39 10000 3.6 250 21:40 13.03.2021
1497 Clouds 27 1014 39 10000 3.6 250 21:40 13.03.2021
1498 Clouds 27 1014 39 10000 3.6 250 21:19 13.03.2021
1499 Clouds 27 1015 36 10000 3.09 230 20:48 13.03.2021
1500 Clouds 27 1015 36 10000 3.09 230 20:28 13.03.2021
1501 Clear 26 1015 36 10000 3.09 230 19:47 13.03.2021
1502 Clear 26 1015 36 10000 3.09 230 19:29 13.03.2021
1503 Clear 26 1016 41 10000 2.06 260 18:43 13.03.2021
1504 Clear 25 1016 41 10000 2.06 260 18:21 13.03.2021
1505 Clear 24 1016 43 10000 2.06 190 17:56 13.03.2021
1506 Clear 24 1016 43 10000 2.06 190 17:35 13.03.2021
1507 Clear 23 1017 46 10000 2.06 280 16:59 13.03.2021
1508 Clear 23 1017 46 10000 2.06 280 16:39 13.03.2021
1509 Clear 21 1017 49 10000 2.73 246 15:58 13.03.2021
1510 Clear 21 1017 49 10000 2.15 249 15:22 13.03.2021
1511 Clear 20 1017 59 10000 2.15 249 14:46 13.03.2021
1512 Clear 18 1017 59 10000 1.62 252 14:25 13.03.2021
1513 Clear 18 1017 77 10000 1.62 252 13:45 13.03.2021
1514 Clear 18 1017 77 10000 0.92 253 13:21 13.03.2021
1515 Clear 17 1016 77 10000 0.82 257 12:42 13.03.2021
1516 Clear 16 1015 72 10000 2.06 150 11:59 13.03.2021
1517 Clear 16 1015 72 10000 2.06 150 11:40 13.03.2021
1518 Clear 16 1015 72 10000 2.06 150 11:22 13.03.2021
1519 Clear 16 1014 67 10000 0.46 267 10:49 13.03.2021
1520 Clear 16 1014 67 10000 0.55 252 10:25 13.03.2021
1521 Clear 17 1014 59 10000 1.03 150 09:38 13.03.2021
1522 Clear 17 1014 59 10000 2.06 180 08:58 13.03.2021
1523 Clear 17 1014 59 10000 2.06 180 08:58 13.03.2021
1524 Clear 17 1014 59 10000 2.06 180 08:38 13.03.2021
1525 Clear 17 1014 59 10000 2.06 180 08:18 13.03.2021
1526 Clear 17 1014 59 10000 2.06 160 07:39 13.03.2021
1527 Clear 19 1015 52 10000 3.09 150 05:45 13.03.2021
1528 Clear 21 1015 49 10000 4.12 150 02:42 13.03.2021
1529 Clear 23 1015 43 10000 3.6 240 00:44 13.03.2021
1530 Clear 26 1014 36 10000 4.12 240 23:49 12.03.2021
1531 Clear 26 1014 36 10000 4.12 240 23:30 12.03.2021
1532 Clear 28 1014 30 10000 3.09 240 22:42 12.03.2021
1533 Clear 28 1014 30 10000 3.09 240 22:23 12.03.2021
1534 Clouds 28 1014 30 10000 3.09 240 21:42 12.03.2021
1535 Clouds 29 1014 30 10000 3.09 240 21:21 12.03.2021
1536 Clouds 28 1015 34 7000 3.6 250 20:55 12.03.2021
1537 Clouds 28 1015 34 7000 3.6 250 20:32 12.03.2021
1538 Clouds 28 1015 36 7000 2.57 190 19:55 12.03.2021
1539 Clouds 27 1015 36 7000 2.57 190 19:36 12.03.2021
1540 Clouds 27 1015 36 7000 1.54 210 18:55 12.03.2021
1541 Clouds 27 1015 36 7000 1.54 210 18:34 12.03.2021
1542 Clouds 26 1015 44 7000 1.54 270 17:49 12.03.2021
1543 Clouds 26 1015 44 7000 1.54 270 17:30 12.03.2021
1544 Clouds 25 1016 49 7000 1.54 210 16:55 12.03.2021
1545 Clouds 23 1016 49 7000 1.54 210 16:34 12.03.2021
1546 Clouds 23 1016 56 7000 1.54 170 15:51 12.03.2021
1547 Clouds 22 1016 56 7000 1.54 170 15:25 12.03.2021
1548 Clouds 22 1015 63 8000 2.21 253 14:47 12.03.2021
1549 Clouds 20 1015 63 8000 1.66 255 14:20 12.03.2021
1550 Clouds 18 1015 72 10000 1.54 90 13:42 12.03.2021
1551 Clouds 18 1015 72 10000 1.54 90 13:21 12.03.2021
1552 Clouds 18 1015 77 10000 0.58 252 12:56 12.03.2021
1553 Clouds 17 1015 77 10000 0.33 256 12:36 12.03.2021
1554 Clouds 17 1015 77 10000 0.7 248 12:18 12.03.2021
1555 Clouds 18 1014 67 10000 0.51 0 11:40 12.03.2021
1556 Clouds 18 1014 67 10000 0.51 0 11:18 12.03.2021
1557 Clouds 18 1013 67 10000 2.57 150 10:44 12.03.2021
1558 Clouds 18 1013 67 10000 2.57 150 10:22 12.03.2021
1559 Clouds 18 1013 67 10000 2.57 150 09:37 12.03.2021
1560 Clouds 18 1013 67 10000 2.57 150 09:18 12.03.2021
1561 Clouds 18 1013 67 10000 3.09 160 08:39 12.03.2021
1562 Clouds 19 1013 68 10000 2.57 160 07:41 12.03.2021
1563 Clouds 19 1013 68 10000 2.57 160 07:21 12.03.2021
1564 Clouds 19 1014 63 10000 2.57 150 06:42 12.03.2021
1565 Clouds 20 1014 63 10000 1.54 140 05:52 12.03.2021
1566 Clouds 23 1015 46 10000 2.06 190 00:55 12.03.2021
1567 Clouds 25 1015 41 10000 2.57 190 23:56 11.03.2021
1568 Clouds 26 1015 41 10000 2.57 210 22:59 11.03.2021
1569 Clouds 26 1015 41 10000 2.57 210 22:59 11.03.2021
1570 Clouds 26 1015 41 10000 2.57 210 22:39 11.03.2021
1571 Clouds 26 1015 41 10000 2.57 210 22:19 11.03.2021
1572 Clouds 26 1015 41 10000 2.57 0 21:46 11.03.2021
1573 Clouds 26 1015 41 10000 2.57 0 21:24 11.03.2021
1574 Clouds 25 1016 49 8000 1.54 0 20:49 11.03.2021
1575 Clouds 25 1016 49 8000 1.54 0 20:22 11.03.2021
1576 Clouds 25 1016 46 7000 3.09 210 19:53 11.03.2021
1577 Clouds 25 1016 46 7000 3.09 210 19:34 11.03.2021
1578 Clouds 25 1016 49 7000 3.09 220 18:53 11.03.2021
1579 Clouds 25 1016 49 7000 3.09 220 18:53 11.03.2021
1580 Clouds 25 1016 49 7000 3.09 220 18:34 11.03.2021
1581 Clouds 24 1017 49 8000 2.06 0 17:53 11.03.2021
1582 Clouds 24 1017 49 8000 2.06 0 17:35 11.03.2021
1583 Clouds 23 1017 52 8000 1.54 0 16:37 11.03.2021
1584 Clouds 22 1017 52 8000 1.54 0 16:19 11.03.2021
1585 Clouds 23 1017 56 10000 1.54 0 15:39 11.03.2021
1586 Clouds 20 1017 56 10000 1.54 0 15:20 11.03.2021
1587 Clouds 19 1017 63 10000 2.06 220 14:44 11.03.2021
1588 Clouds 19 1017 63 10000 2.06 220 14:18 11.03.2021
1589 Clouds 18 1017 67 10000 1.54 10 13:45 11.03.2021
1590 Clouds 18 1017 67 10000 1.54 10 13:22 11.03.2021
1591 Clear 16 1017 82 10000 1.54 20 12:54 11.03.2021
1592 Clear 16 1017 82 10000 1.54 20 12:29 11.03.2021
1593 Clear 16 1015 77 10000 1.03 0 11:47 11.03.2021
1594 Clear 16 1015 77 10000 1.03 0 11:29 11.03.2021
1595 Clear 16 1015 76 10000 0.14 228 10:55 11.03.2021
1596 Clear 16 1015 76 10000 0.9 215 10:25 11.03.2021
1597 Clear 16 1015 72 10000 0.9 215 09:50 11.03.2021
1598 Clear 16 1015 72 10000 0.9 215 09:32 11.03.2021
1599 Clear 17 1015 67 10000 0.9 226 08:50 11.03.2021
1600 Clear 17 1015 67 10000 0.9 226 08:31 11.03.2021
1601 Clear 18 1016 67 10000 1.54 150 07:47 11.03.2021
1602 Clouds 17 1016 67 10000 1.54 150 07:20 11.03.2021
1603 Clouds 17 1016 63 10000 0.56 240 06:40 11.03.2021
1604 Clouds 18 1016 63 10000 0.7 230 06:21 11.03.2021
1605 Clear 20 1017 42 10000 4.63 160 02:25 11.03.2021
1606 Clear 20 1017 42 10000 4.63 160 02:25 11.03.2021
1607 Clear 23 1018 46 10000 2.57 260 00:23 11.03.2021
1608 Clear 24 1018 41 10000 3.6 250 23:22 10.03.2021
1609 -273 0 0 0 0 0 22:42 10.03.2021
1610 Clear 26 1017 38 10000 3.6 240 22:41 10.03.2021
1611 Clear 26 1017 38 10000 3.6 240 22:41 10.03.2021
1612 Clear 26 1017 38 10000 3.6 240 22:41 10.03.2021
1613 Clear 26 1017 38 10000 3.6 240 22:41 10.03.2021
1614 Clear 26 1017 38 10000 3.6 240 22:41 10.03.2021
1615 Clear 26 1017 38 10000 3.6 240 22:41 10.03.2021
1616 Clear 26 1017 38 10000 3.6 210 21:58 10.03.2021
1617 Clear 26 1017 38 10000 3.6 210 21:39 10.03.2021
1618 Clear 26 1017 38 10000 3.6 210 21:20 10.03.2021
1619 Clear 26 1017 39 10000 3.6 230 20:42 10.03.2021
1620 Clear 26 1017 39 10000 3.6 230 20:24 10.03.2021
1621 Clear 26 1017 39 10000 3.6 230 20:24 10.03.2021
1622 Clouds 26 1017 44 8000 3.6 240 19:41 10.03.2021
1623 Clouds 26 1017 44 8000 3.6 240 19:21 10.03.2021
1624 Clouds 25 1017 44 8000 3.09 270 18:44 10.03.2021
1625 Clouds 26 1017 44 8000 3.09 270 18:23 10.03.2021
1626 Clouds 24 1018 43 8000 2.57 230 17:43 10.03.2021
1627 Clouds 25 1018 43 8000 2.57 230 17:21 10.03.2021
1628 Clouds 25 1018 49 7000 2.77 244 16:55 10.03.2021
1629 Clouds 24 1018 49 7000 2.77 244 16:37 10.03.2021
1630 Clouds 22 1018 49 7000 2.8 246 16:18 10.03.2021
1631 Clouds 22 1017 56 8000 2.8 246 15:40 10.03.2021
1632 Clouds 22 1017 56 8000 2.2 248 15:21 10.03.2021
1633 Clouds 20 1017 68 8000 2.2 248 14:40 10.03.2021
1634 Clouds 19 1017 68 8000 1.97 252 14:19 10.03.2021
1635 Clear 18 1017 82 10000 1.03 150 13:43 10.03.2021
1636 Clear 16 1017 82 10000 1.03 150 13:18 10.03.2021
1637 Clear 15 1016 88 10000 1.03 350 12:41 10.03.2021
1638 Clear 15 1015 87 10000 1.54 170 11:59 10.03.2021
1639 Clear 15 1015 87 10000 1.54 170 11:31 10.03.2021
1640 Clouds 16 1014 88 10000 2.06 170 10:57 10.03.2021
1641 Clouds 16 1014 88 10000 2.06 170 10:34 10.03.2021
1642 Clouds 17 1014 82 10000 2.06 160 09:58 10.03.2021
1643 Clouds 17 1014 82 10000 2.06 160 09:40 10.03.2021
1644 Clouds 17 1014 82 10000 2.06 160 09:20 10.03.2021
1645 Clouds 17 1014 82 10000 3.6 160 08:46 10.03.2021
1646 Clouds 17 1014 82 10000 3.6 160 08:28 10.03.2021
1647 Clouds 17 1014 77 10000 2.57 160 07:48 10.03.2021
1648 Clouds 18 1014 77 10000 2.57 160 07:29 10.03.2021
1649 Clouds 18 1014 77 10000 3.6 170 06:52 10.03.2021
1650 Clouds 20 1014 63 10000 4.63 150 03:29 10.03.2021
1651 Clear 24 1014 44 10000 2.57 240 00:42 10.03.2021
1652 Clear 26 1014 36 10000 3.09 240 23:47 09.03.2021
1653 Clear 28 1013 30 10000 2.57 240 22:58 09.03.2021
1654 Clear 29 1013 30 10000 2.57 240 22:38 09.03.2021
1655 Clear 29 1013 30 10000 2.57 240 22:18 09.03.2021
1656 Clear 29 1013 32 10000 4.12 230 21:42 09.03.2021
1657 Clear 29 1013 32 10000 4.12 230 21:22 09.03.2021
1658 Clear 29 1013 32 10000 4.12 230 20:56 09.03.2021
1659 Clear 29 1013 32 10000 4.12 230 20:37 09.03.2021
1660 Clear 29 1013 32 10000 4.12 230 20:19 09.03.2021
1661 Clear 29 1012 28 10000 6.69 170 19:43 09.03.2021
1662 Clear 29 1014 28 10000 2.57 0 19:25 09.03.2021
1663 Clear 29 1014 28 10000 2.57 0 18:42 09.03.2021
1664 Clear 29 1014 28 10000 2.57 0 18:20 09.03.2021
1665 Clear 28 1014 30 10000 2.06 260 17:47 09.03.2021
1666 Clear 28 1014 30 10000 2.06 260 17:27 09.03.2021
1667 Clear 26 1014 33 10000 2.49 252 16:41 09.03.2021
1668 Clear 25 1014 33 10000 2.41 254 16:22 09.03.2021
1669 Clear 25 1014 40 10000 2.41 254 15:56 09.03.2021
1670 Clear 24 1014 40 10000 2.18 257 15:28 09.03.2021
1671 Clear 22 1014 55 10000 2.18 257 14:52 09.03.2021
1672 Clear 20 1014 55 10000 1.29 253 14:26 09.03.2021
1673 Clear 21 1014 67 10000 1.29 253 13:43 09.03.2021
1674 Clear 18 1014 67 10000 0.43 240 13:21 09.03.2021
1675 Clear 16 1013 71 10000 0.43 240 12:54 09.03.2021
1676 Clear 16 1013 71 10000 0.43 240 12:54 09.03.2021
1677 Clear 19 1013 71 10000 0.43 240 12:36 09.03.2021
1678 Clear 18 1012 67 10000 0.54 249 11:45 09.03.2021
1679 Clear 18 1012 67 10000 0.15 277 11:22 09.03.2021
1680 Clear 18 1012 58 10000 0.15 277 10:59 09.03.2021
1681 Clear 18 1012 58 10000 0.15 277 10:39 09.03.2021
1682 Clear 18 1012 58 10000 0.29 228 10:21 09.03.2021
1683 Clear 18 1012 55 10000 1.54 170 09:46 09.03.2021
1684 Clear 19 1012 55 10000 1.54 170 09:27 09.03.2021
1685 Clear 19 1012 55 10000 2.57 160 08:57 09.03.2021
1686 Clear 19 1012 55 10000 2.57 160 08:32 09.03.2021
1687 Clear 20 1013 51 10000 1.54 160 07:46 09.03.2021
1688 Clear 20 1013 51 10000 1.54 160 07:26 09.03.2021
1689 Clear 20 1013 45 10000 3.09 170 06:44 09.03.2021
1690 Clouds 21 1013 42 10000 3.6 170 05:48 09.03.2021
1691 Clear 26 1014 34 10000 2.57 250 01:31 09.03.2021
1692 Clear 26 1014 34 10000 2.57 250 01:31 09.03.2021
1693 Clear 26 1014 34 10000 2.57 250 01:31 09.03.2021
1694 Clear 26 1014 34 10000 2.57 250 01:31 09.03.2021
1695 Clear 26 1014 34 10000 2.57 250 01:31 09.03.2021
1696 Clear 30 1013 26 10000 4.63 220 23:56 08.03.2021
1697 Clear 30 1013 26 10000 4.63 220 23:37 08.03.2021
1698 Clear 30 1013 26 10000 4.63 220 23:18 08.03.2021
1699 Clear 32 1012 25 10000 3.09 250 22:40 08.03.2021
1700 Clear 33 1012 25 10000 3.09 250 22:21 08.03.2021
1701 Clear 33 1013 25 10000 3.6 220 21:45 08.03.2021
1702 Clear 33 1013 25 10000 3.6 220 21:26 08.03.2021
1703 Clear 33 1013 27 10000 4.12 260 20:40 08.03.2021
1704 Clear 33 1013 27 10000 4.12 260 20:20 08.03.2021
1705 Clear 33 1013 29 8000 2.57 240 19:40 08.03.2021
1706 Clear 33 1014 30 10000 2.57 260 18:57 08.03.2021
1707 Clear 32 1014 30 10000 2.57 260 18:37 08.03.2021
1708 Clear 32 1014 30 10000 2.57 260 18:18 08.03.2021
1709 Clear 30 1014 37 10000 1.03 260 17:43 08.03.2021
1710 Clear 30 1014 37 10000 1.03 260 17:22 08.03.2021
1711 Clear 28 1015 44 10000 1.54 90 16:41 08.03.2021
1712 Clear 28 1015 44 10000 1.54 90 16:21 08.03.2021
1713 Clear 26 1015 46 10000 1.54 0 15:41 08.03.2021
1714 Clear 25 1015 46 10000 1.54 0 15:22 08.03.2021
1715 Clear 23 1015 56 10000 1.08 295 14:21 08.03.2021
1716 Clear 21 1015 63 10000 1.08 295 13:54 08.03.2021
1717 Clear 19 1015 63 10000 0.76 295 13:23 08.03.2021
1718 Clear 20 1014 77 10000 0.51 30 12:56 08.03.2021
1719 Clear 16 1014 77 10000 0.51 30 12:29 08.03.2021
1720 Clear 17 1012 72 10000 1.03 0 11:48 08.03.2021
1721 Clear 17 1012 72 10000 1.03 0 11:30 08.03.2021
1722 Clear 18 1012 67 10000 0.19 8 10:55 08.03.2021
1723 Clear 18 1012 67 10000 0.19 8 10:37 08.03.2021
1724 Clear 18 1012 67 10000 0.25 233 10:18 08.03.2021
1725 Clear 18 1012 63 10000 1.03 0 09:27 08.03.2021
1726 Clear 18 1012 63 10000 1.03 0 09:27 08.03.2021
1727 Clear 18 1013 63 10000 1.03 10 08:52 08.03.2021
1728 Clear 18 1013 63 10000 1.03 10 08:25 08.03.2021
1729 Clear 20 1013 56 10000 1.54 350 07:21 08.03.2021
1730 Clear 23 1013 43 10000 4.63 190 05:42 08.03.2021
1731 Clear 25 1014 50 10000 2.57 180 02:24 08.03.2021
1732 Clear 27 1015 44 10000 3.09 210 00:42 08.03.2021
1733 Clear 30 1015 39 10000 3.09 240 23:53 07.03.2021
1734 Clear 30 1015 39 10000 3.09 240 23:21 07.03.2021
1735 Clear 31 1015 39 10000 3.6 240 22:48 07.03.2021
1736 Clear 31 1015 39 10000 3.6 240 22:28 07.03.2021
1737 Clear 31 1015 37 10000 3.6 210 21:53 07.03.2021
1738 Clear 31 1015 37 10000 3.6 210 21:33 07.03.2021
1739 Clear 31 1015 39 10000 3.6 240 20:58 07.03.2021
1740 Clear 31 1015 39 10000 3.6 240 20:58 07.03.2021
1741 Clear 31 1015 39 10000 3.6 240 20:40 07.03.2021
1742 Clear 31 1015 39 10000 3.6 240 20:18 07.03.2021
1743 Clear 30 1016 34 10000 2.06 0 19:40 07.03.2021
1744 Clear 30 1016 34 10000 2.06 0 19:22 07.03.2021
1745 Clear 29 1016 42 10000 3.09 240 18:54 07.03.2021
1746 Clear 29 1016 42 10000 3.09 240 18:21 07.03.2021
1747 Clear 28 1017 44 10000 1.54 250 17:59 07.03.2021
1748 Clear 28 1017 44 10000 1.54 250 17:38 07.03.2021
1749 Clear 27 1017 44 10000 1.54 250 17:18 07.03.2021
1750 Clear 26 1017 50 10000 2.06 180 16:42 07.03.2021
1751 Clear 26 1017 50 10000 2.06 180 16:21 07.03.2021
1752 Clear 26 1017 50 10000 2.06 180 16:21 07.03.2021
1753 Clear 24 1017 56 10000 1.54 240 15:49 07.03.2021
1754 Clear 24 1017 56 10000 1.54 240 15:31 07.03.2021
1755 Clear 22 1017 64 10000 2.06 240 14:48 07.03.2021
1756 Clear 22 1017 64 10000 2.06 240 14:29 07.03.2021
1757 Clear 19 1016 77 10000 1.71 250 13:48 07.03.2021
1758 Clear 19 1016 77 10000 0.88 254 13:26 07.03.2021
1759 Clear 18 1016 82 10000 1.13 248 12:48 07.03.2021
1760 Clear 16 1016 82 10000 0.04 337 12:29 07.03.2021
1761 Clear 16 1014 82 10000 1.54 280 11:53 07.03.2021
1762 Clear 16 1014 82 10000 1.54 280 11:23 07.03.2021
1763 Clear 17 1014 77 10000 1.54 160 10:51 07.03.2021
1764 Clear 17 1014 77 10000 1.54 160 10:33 07.03.2021
1765 Clear 17 1014 77 10000 2.57 170 09:52 07.03.2021
1766 Clear 17 1014 77 10000 2.57 170 09:27 07.03.2021
1767 Clear 18 1014 72 10000 1.54 180 08:55 07.03.2021
1768 Clear 18 1014 72 10000 1.54 180 08:37 07.03.2021
1769 Clear 18 1014 72 10000 1.54 180 08:19 07.03.2021
1770 Clear 20 1015 68 10000 3.6 160 04:57 07.03.2021
1771 Clear 23 1014 56 10000 4.12 150 02:26 07.03.2021
1772 Clear 26 1015 44 10000 3.09 200 00:24 07.03.2021
1773 Clear 27 1015 44 10000 3.09 200 23:40 06.03.2021
1774 Clear 27 1015 44 10000 3.09 200 23:19 06.03.2021
1775 Clear 28 1015 39 10000 3.09 200 22:41 06.03.2021
1776 Clear 29 1015 39 10000 3.09 200 22:21 06.03.2021
1777 Clear 29 1014 42 10000 3.6 200 21:40 06.03.2021
1778 Clear 29 1014 42 10000 3.6 200 21:20 06.03.2021
1779 Clouds 29 1015 44 10000 3.09 230 20:41 06.03.2021
1780 Clouds 29 1015 44 10000 2.06 200 19:51 06.03.2021
1781 Clouds 29 1015 44 10000 2.06 200 19:25 06.03.2021
1782 Clear 28 1015 44 7000 2.57 0 18:57 06.03.2021
1783 Clear 28 1015 44 7000 2.57 0 18:39 06.03.2021
1784 Clear 27 1015 44 7000 2.57 0 18:20 06.03.2021
1785 Clear 26 1016 50 7000 2.06 250 17:47 06.03.2021
1786 Clear 26 1016 50 7000 2.06 250 17:26 06.03.2021
1787 Clear 24 1016 60 8000 2.87 252 16:53 06.03.2021
1788 Clear 24 1016 60 8000 2.87 252 16:30 06.03.2021
1789 Clear 23 1016 64 9000 2.06 210 15:55 06.03.2021
1790 Clear 21 1016 64 9000 2.06 210 15:34 06.03.2021
1791 Clear 20 1016 77 10000 1.03 240 14:55 06.03.2021
1792 Clear 19 1016 77 10000 1.03 240 14:31 06.03.2021
1793 Clear 17 1015 82 10000 1.37 264 13:46 06.03.2021
1794 Clear 17 1015 82 10000 0.26 301 13:24 06.03.2021
1795 Clear 15 1015 88 10000 0.26 301 12:49 06.03.2021
1796 Clear 15 1014 88 8000 3.09 160 12:20 06.03.2021
1797 Clear 16 1013 88 10000 1.03 0 11:59 06.03.2021
1798 Clear 16 1013 88 10000 1.03 0 11:27 06.03.2021
1799 Clear 15 1013 94 10000 1.54 160 10:59 06.03.2021
1800 Clear 15 1013 94 10000 1.54 160 10:41 06.03.2021
1801 Clear 16 1013 88 10000 3.09 170 09:56 06.03.2021
1802 Clear 16 1013 88 10000 3.09 170 09:24 06.03.2021
1803 Clear 17 1012 82 10000 4.12 140 08:54 06.03.2021
1804 Clear 18 1012 82 10000 4.12 140 08:30 06.03.2021
1805 Clear 17 1012 82 10000 4.12 160 07:54 06.03.2021
1806 Clear 17 1012 82 10000 4.12 160 07:22 06.03.2021
1807 Clear 18 1013 72 10000 2.57 190 05:52 06.03.2021
1808 Clear 20 1014 72 10000 4.12 150 03:47 06.03.2021
1809 Clear 22 1013 64 10000 4.63 200 01:33 06.03.2021
1810 Clear 23 1012 56 10000 6.69 210 00:46 06.03.2021
1811 Clear 25 1012 50 10000 5.66 220 23:48 05.03.2021
1812 Clear 26 1012 50 10000 5.66 220 23:19 05.03.2021
1813 Clear 27 1012 44 10000 6.69 170 22:43 05.03.2021
1814 Clear 28 1014 44 10000 3.6 220 22:21 05.03.2021
1815 Clear 28 1014 44 10000 3.6 220 21:51 05.03.2021
1816 Clear 28 1014 44 10000 3.6 220 21:29 05.03.2021
1817 Clear 28 1014 44 10000 4.12 210 20:50 05.03.2021
1818 Clear 28 1014 44 10000 4.12 210 20:25 05.03.2021
1819 Clear 27 1014 44 10000 3.6 230 19:49 05.03.2021
1820 Clear 27 1014 44 10000 3.6 230 19:25 05.03.2021
1821 Clear 27 1014 47 10000 3.6 200 18:53 05.03.2021
1822 Clear 26 1014 47 10000 3.6 200 18:27 05.03.2021
1823 Clear 24 1015 56 8000 2.57 220 17:56 05.03.2021
1824 Clear 24 1015 56 8000 2.57 220 17:33 05.03.2021
1825 Clear 23 1015 60 8000 2.57 230 16:44 05.03.2021
1826 Clear 23 1015 60 8000 2.57 230 16:24 05.03.2021
1827 Clear 20 1015 72 8000 2.06 270 15:55 05.03.2021
1828 Clear 20 1015 72 8000 2.06 270 15:28 05.03.2021
1829 Clear 19 1014 72 10000 1.54 250 14:54 05.03.2021
1830 Clear 19 1014 72 10000 1.54 250 14:34 05.03.2021
1831 Clear 17 1013 82 10000 1.03 180 13:46 05.03.2021
1832 Clear 17 1013 82 10000 1.03 180 13:21 05.03.2021
1833 Clear 17 1013 82 10000 1.12 257 12:47 05.03.2021
1834 Clear 17 1011 82 10000 3.6 160 11:41 05.03.2021
1835 Clear 17 1011 82 10000 3.6 160 11:21 05.03.2021
1836 Clear 18 1010 77 10000 2.06 170 10:57 05.03.2021
1837 Clear 18 1010 77 10000 2.06 170 10:57 05.03.2021
1838 Clear 18 1010 77 10000 2.06 170 10:37 05.03.2021
1839 Clear 17 1010 77 10000 2.06 170 10:19 05.03.2021
1840 Clear 19 1010 72 10000 3.09 160 09:45 05.03.2021
1841 Clear 19 1010 72 10000 3.09 160 09:26 05.03.2021
1842 Clear 20 1010 68 10000 4.12 150 08:39 05.03.2021
1843 Clear 20 1010 68 10000 4.12 150 08:20 05.03.2021
1844 Clear 19 1010 68 10000 4.12 170 07:36 05.03.2021
1845 Clear 20 1010 63 10000 3.09 150 06:44 05.03.2021
1846 Clear 20 1010 63 10000 3.09 150 06:26 05.03.2021
1847 Clear 26 1009 50 10000 4.63 140 01:40 05.03.2021
1848 Clear 28 1011 44 10000 3.09 230 00:19 05.03.2021
1849 Clear 31 1010 37 10000 3.6 240 23:25 04.03.2021
1850 Clear 33 1010 33 10000 3.6 240 22:31 04.03.2021
1851 Clear 33 1010 35 10000 3.6 250 21:56 04.03.2021
1852 Clear 33 1010 35 10000 3.6 250 21:34 04.03.2021
1853 Clear 33 1011 35 10000 2.57 210 20:59 04.03.2021
1854 Clear 33 1011 35 10000 2.57 210 20:40 04.03.2021
1855 Clear 33 1011 35 10000 2.57 210 20:21 04.03.2021
1856 Clear 33 1012 33 10000 1.54 260 19:51 04.03.2021
1857 Clear 33 1012 33 10000 1.54 260 19:26 04.03.2021
1858 Clear 31 1013 37 10000 1.54 240 18:52 04.03.2021
1859 Clear 31 1013 37 10000 1.54 240 18:30 04.03.2021
1860 Clear 29 1014 42 10000 2.06 0 17:50 04.03.2021
1861 Clear 29 1014 42 10000 2.06 0 17:31 04.03.2021
1862 Clear 28 1014 47 10000 1.03 0 16:56 04.03.2021
1863 Clear 28 1014 47 10000 1.03 0 16:38 04.03.2021
1864 Clear 28 1014 47 10000 1.03 0 16:19 04.03.2021
1865 Clear 26 1015 53 10000 1.03 170 15:45 04.03.2021
1866 Clear 26 1015 53 10000 1.03 170 15:24 04.03.2021
1867 Clear 24 1015 64 10000 1.03 0 14:40 04.03.2021
1868 Clear 21 1015 63 10000 1.61 254 13:59 04.03.2021
1869 Clear 22 1015 63 10000 1.61 254 13:40 04.03.2021
1870 Clear 19 1015 63 10000 0.29 271 13:19 04.03.2021
1871 Clear 18 1014 72 10000 0.24 284 12:41 04.03.2021
1872 Clear 17 1014 82 10000 1.03 0 11:51 04.03.2021
1873 Clear 17 1014 82 10000 1.03 0 11:32 04.03.2021
1874 Clear 17 1013 82 10000 1.54 260 10:58 04.03.2021
1875 Clear 17 1013 82 10000 1.54 260 10:36 04.03.2021
1876 Clear 18 1014 72 10000 0.39 211 09:51 04.03.2021
1877 Clear 19 1014 72 10000 0.29 182 09:27 04.03.2021
1878 Clear 19 1014 72 10000 3.09 160 08:51 04.03.2021
1879 Clear 19 1014 72 10000 3.09 160 08:25 04.03.2021
1880 Clear 18 1014 72 10000 2.06 250 07:36 04.03.2021
1881 Clouds 20 1015 68 10000 1.54 120 06:31 04.03.2021
1882 Clear 20 1015 64 10000 2.06 140 05:57 04.03.2021
1883 Clear 22 1015 60 10000 5.14 160 02:38 04.03.2021
1884 Clouds 27 1015 37 10000 3.09 240 23:57 03.03.2021
1885 Clouds 30 1015 30 10000 4.12 240 22:39 03.03.2021
1886 Clouds 30 1015 30 10000 4.12 240 22:20 03.03.2021
1887 Clouds 31 1015 29 10000 3.09 0 21:41 03.03.2021
1888 Clouds 32 1015 29 10000 3.09 0 21:23 03.03.2021
1889 Clouds 31 1015 32 10000 3.09 180 20:53 03.03.2021
1890 Clouds 31 1015 32 10000 3.09 180 20:35 03.03.2021
1891 Clear 31 1016 39 8000 3.6 210 19:48 03.03.2021
1892 Clear 30 1016 39 8000 3.6 210 19:30 03.03.2021
1893 Clear 30 1016 35 8000 2.06 230 18:56 03.03.2021
1894 Clear 30 1016 35 8000 2.06 230 18:38 03.03.2021
1895 Clear 29 1016 41 8000 2.57 250 17:58 03.03.2021
1896 Clear 29 1016 41 8000 2.57 250 17:22 03.03.2021
1897 Clear 27 1016 47 8000 2.76 251 16:54 03.03.2021
1898 Clear 27 1016 47 8000 2.51 249 16:27 03.03.2021
1899 Clear 25 1016 56 10000 2.51 249 15:54 03.03.2021
1900 Clear 25 1016 56 10000 2.51 249 15:32 03.03.2021
1901 Clear 22 1016 72 10000 2 245 14:50 03.03.2021
1902 Clear 21 1016 72 10000 1.59 239 14:27 03.03.2021
1903 Clear 19 1016 77 10000 1.59 239 13:46 03.03.2021
1904 Clear 19 1016 77 10000 0.7 227 13:26 03.03.2021
1905 Clear 17 1016 88 10000 0.68 226 12:43 03.03.2021
1906 Clear 16 1016 88 10000 0.38 232 12:23 03.03.2021
1907 Clear 16 1014 88 10000 1.03 0 11:45 03.03.2021
1908 Clear 16 1014 88 10000 1.03 0 11:27 03.03.2021
1909 Clouds 17 1014 82 10000 0.51 0 10:45 03.03.2021
1910 Clouds 16 1014 82 10000 0.51 0 10:22 03.03.2021
1911 Clouds 17 1014 82 10000 1.54 170 09:43 03.03.2021
1912 Clouds 17 1013 82 10000 2.57 170 08:54 03.03.2021
1913 Clouds 17 1013 82 10000 2.57 170 08:25 03.03.2021
1914 Clouds 18 1014 77 10000 2.57 170 07:58 03.03.2021
1915 Clouds 18 1014 77 10000 2.57 170 07:33 03.03.2021
1916 Clouds 19 1014 72 10000 3.09 170 06:29 03.03.2021
1917 Clouds 19 1014 72 10000 1.54 180 05:44 03.03.2021
1918 Clouds 20 1015 68 10000 3.09 160 04:48 03.03.2021
1919 Clear 20 1015 68 10000 3.09 160 04:24 03.03.2021
1920 Clouds 25 1014 50 10000 2.57 230 00:34 03.03.2021
1921 Clouds 26 1014 44 10000 3.09 200 23:35 02.03.2021
1922 Clouds 28 1013 44 10000 3.09 230 22:53 02.03.2021
1923 Clouds 28 1013 44 10000 3.09 230 22:23 02.03.2021
1924 Clouds 28 1013 39 10000 3.6 230 21:55 02.03.2021
1925 Clouds 28 1013 39 10000 3.6 230 21:36 02.03.2021
1926 Clouds 29 1013 39 10000 4.12 230 20:58 02.03.2021
1927 Clouds 29 1013 39 10000 4.12 230 20:40 02.03.2021
1928 Clouds 29 1013 39 10000 4.12 230 20:21 02.03.2021
1929 Clear 29 1011 41 10000 5.66 170 19:47 02.03.2021
1930 Clouds 28 1013 39 8000 3.09 220 19:28 02.03.2021
1931 Clouds 28 1013 39 8000 3.09 220 18:43 02.03.2021
1932 Clouds 27 1013 39 8000 3.09 220 18:24 02.03.2021
1933 Clouds 27 1013 41 8000 1.03 260 17:58 02.03.2021
1934 Clouds 27 1013 41 8000 1.03 260 17:39 02.03.2021
1935 Clouds 26 1013 41 8000 1.03 260 17:20 02.03.2021
1936 Clouds 24 1014 49 8000 2.06 190 16:47 02.03.2021
1937 Clouds 22 1013 60 10000 2.72 249 15:55 02.03.2021
1938 Clouds 22 1013 60 10000 1.99 267 15:27 02.03.2021
1939 Clouds 22 1013 60 10000 1.99 267 15:27 02.03.2021
1940 Clouds 22 1013 60 10000 1.99 267 15:27 02.03.2021
1941 Clouds 21 1013 64 10000 1.99 267 14:53 02.03.2021
1942 Clouds 21 1013 64 10000 1.41 242 14:20 02.03.2021
1943 Clear 20 1011 77 10000 1.54 250 13:47 02.03.2021
1944 Clear 17 1012 94 10000 0.88 231 13:26 02.03.2021
1945 Clear 18 1012 94 10000 0.77 231 12:47 02.03.2021
1946 Clear 18 1012 94 10000 0.8 222 12:25 02.03.2021
1947 Clear 19 1010 82 10000 0.8 222 11:47 02.03.2021
1948 Clear 17 1010 82 10000 0.46 265 11:23 02.03.2021
1949 Clouds 17 1010 82 10000 1.03 160 10:54 02.03.2021
1950 Clouds 17 1010 82 10000 1.03 160 10:30 02.03.2021
1951 Clouds 17 1010 82 10000 1.54 210 09:43 02.03.2021
1952 Clouds 18 1010 82 10000 1.54 210 09:24 02.03.2021
1953 Clouds 18 1010 77 10000 1.54 190 08:53 02.03.2021
1954 Clouds 18 1010 77 10000 1.54 190 08:33 02.03.2021
1955 Clouds 18 1011 88 10000 2.06 140 07:46 02.03.2021
1956 Clouds 18 1011 88 10000 3.09 160 06:37 02.03.2021
1957 Clouds 19 1011 77 10000 3.09 170 05:50 02.03.2021
1958 Clouds 19 1011 77 10000 3.09 170 05:32 02.03.2021
1959 Clouds 20 1012 77 10000 4.63 160 04:37 02.03.2021
1960 Clouds 23 1010 60 10000 3.6 150 01:42 02.03.2021
1961 Clouds 23 1012 56 10000 2.06 230 01:21 02.03.2021
1962 Clouds 25 1012 50 10000 2.57 270 23:29 01.03.2021
1963 Clouds 26 1012 47 10000 2.57 270 22:56 01.03.2021
1964 Clouds 26 1012 47 10000 2.57 270 22:38 01.03.2021
1965 Clouds 26 1012 47 10000 2.57 270 22:19 01.03.2021
1966 Clouds 26 1021 41 10000 2.06 250 21:41 01.03.2021
1967 Clouds 27 1021 41 10000 2.06 250 21:23 01.03.2021
1968 Clouds 27 1012 38 10000 2.57 220 20:42 01.03.2021
1969 Clouds 27 1012 38 10000 2.57 220 20:20 01.03.2021
1970 Clouds 27 1011 34 10000 3.09 240 19:43 01.03.2021
1971 Clouds 28 1011 34 10000 3.09 240 19:24 01.03.2021
1972 Clear 28 1011 32 10000 3.6 260 18:43 01.03.2021
1973 Clear 27 1011 32 10000 3.6 260 18:23 01.03.2021
1974 Clear 28 1011 32 10000 3.09 260 17:47 01.03.2021
1975 Clear 27 1011 32 10000 3.09 260 17:22 01.03.2021
1976 Clear 27 1011 36 10000 2.06 240 16:46 01.03.2021
1977 Clear 27 1011 36 10000 2.06 240 16:27 01.03.2021
1978 Clear 25 1011 38 10000 2.57 261 15:49 01.03.2021
1979 Clear 25 1011 38 10000 1.88 264 15:22 01.03.2021
1980 Clear 23 1012 49 10000 1.88 264 14:58 01.03.2021
1981 Clear 23 1012 49 10000 1.88 264 14:39 01.03.2021
1982 Clear 21 1012 59 10000 1.2 269 13:50 01.03.2021
1983 Clear 21 1012 59 10000 0.92 280 13:29 01.03.2021
1984 Clear 20 1011 72 10000 0.92 280 12:59 01.03.2021
1985 Clear 19 1011 72 10000 0.92 280 12:41 01.03.2021
1986 Clear 17 1011 72 10000 0.33 333 12:21 01.03.2021
1987 Clear 18 1010 67 10000 1.54 0 11:47 01.03.2021
1988 Clear 18 1010 67 10000 1.54 0 11:18 01.03.2021
1989 Clear 19 1010 63 10000 0.51 0 10:37 01.03.2021
1990 Clear 19 1010 63 10000 0.51 0 10:37 01.03.2021
1991 Clear 19 1010 63 10000 0.51 0 10:18 01.03.2021
1992 Clear 19 1009 59 10000 2.57 170 09:48 01.03.2021
1993 Clear 19 1009 59 10000 2.57 170 09:28 01.03.2021
1994 Clouds 20 1009 52 10000 1.54 170 08:55 01.03.2021
1995 Clouds 20 1009 52 10000 1.54 170 08:22 01.03.2021
1996 Clear 21 1009 48 10000 2.06 120 06:55 01.03.2021
1997 Clear 21 1009 48 10000 2.06 120 06:24 01.03.2021
1998 Clear 24 1010 35 10000 4.63 140 02:38 01.03.2021
1999 Clear 30 1010 27 10000 4.12 240 23:44 28.02.2021
2000 Clear 32 1011 18 10000 3.09 220 22:57 28.02.2021
2001 Clear 32 1011 18 10000 3.09 220 22:28 28.02.2021
2002 Clear 32 1011 18 10000 3.09 220 22:28 28.02.2021
2003 Clear 32 1011 20 10000 3.6 240 21:58 28.02.2021
2004 Clear 32 1011 20 10000 3.6 240 21:37 28.02.2021
2005 Clear 32 1011 20 10000 3.6 240 21:18 28.02.2021
2006 Clear 32 1012 23 10000 3.09 250 20:39 28.02.2021
2007 Clear 32 1012 23 10000 3.09 250 20:18 28.02.2021
2008 Clear 31 1012 23 10000 3.6 240 19:46 28.02.2021
2009 Clear 31 1012 23 10000 3.6 240 19:25 28.02.2021
2010 Clear 30 1012 28 10000 2.06 0 18:44 28.02.2021
2011 Clear 30 1012 28 10000 2.06 0 18:26 28.02.2021
2012 Clear 30 1013 34 10000 1.54 300 17:53 28.02.2021
2013 Clear 29 1013 34 10000 1.54 300 17:29 28.02.2021
2014 Clear 29 1013 39 10000 1.54 0 16:57 28.02.2021
2015 Clear 29 1013 39 10000 1.54 0 16:38 28.02.2021
2016 Clear 28 1013 39 10000 1.54 0 16:19 28.02.2021
2017 Clear 26 1013 46 10000 1.54 0 15:49 28.02.2021
2018 Clear 25 1013 46 10000 1.54 0 15:25 28.02.2021
2019 Clear 23 1013 49 10000 1.97 253 14:53 28.02.2021
2020 Clear 23 1013 49 10000 2.02 254 14:30 28.02.2021
2021 Clear 19 1013 67 10000 0.51 80 13:53 28.02.2021
2022 Clear 21 1013 67 10000 0.51 80 13:22 28.02.2021
2023 Clear 18 1013 77 10000 1.54 30 12:59 28.02.2021
2024 Clear 18 1013 77 10000 1.54 30 12:59 28.02.2021
2025 Clear 18 1013 77 10000 1.54 30 12:59 28.02.2021
2026 Clear 18 1013 77 10000 1.54 30 12:40 28.02.2021
2027 Clear 18 1013 77 10000 1.54 30 12:40 28.02.2021
2028 Clear 17 1013 77 10000 1.54 30 12:22 28.02.2021
2029 Clear 18 1011 77 7000 2.57 60 11:55 28.02.2021
2030 Clear 18 1011 77 7000 2.57 60 11:26 28.02.2021
2031 Clear 19 1011 72 10000 0.36 24 10:59 28.02.2021
2032 Clear 19 1011 72 10000 0.25 353 10:29 28.02.2021
2033 Clear 19 1011 72 10000 0.25 353 09:57 28.02.2021
2034 Clear 19 1011 72 10000 0.25 353 09:35 28.02.2021
2035 Clear 20 1011 67 10000 1.03 260 08:55 28.02.2021
2036 Clear 20 1011 67 10000 1.03 260 08:33 28.02.2021
2037 Clear 20 1011 68 10000 0.43 197 07:59 28.02.2021
2038 Clear 20 1011 68 10000 0.29 194 07:39 28.02.2021
2039 Clear 20 1011 68 10000 0.61 188 07:19 28.02.2021
2040 Clear 20 1012 67 10000 1.54 80 06:23 28.02.2021
2041 Clear 23 1012 56 10000 3.09 160 03:48 28.02.2021
2042 Clear 24 1012 53 10000 4.12 150 02:25 28.02.2021
2043 Clear 26 1013 42 10000 2.57 240 01:20 28.02.2021
2044 Clear 27 1013 42 10000 2.57 240 00:39 28.02.2021
2045 Clear 29 1012 35 10000 3.6 240 23:50 27.02.2021
2046 Clear 30 1012 35 10000 3.6 240 23:21 27.02.2021
2047 Clear 30 1012 33 10000 4.12 260 22:50 27.02.2021
2048 Clear 31 1012 33 10000 4.12 260 22:23 27.02.2021
2049 Clear 31 1012 30 10000 3.6 260 21:58 27.02.2021
2050 Clear 31 1012 30 10000 3.6 260 21:37 27.02.2021
2051 Clear 30 1013 33 10000 3.6 250 20:55 27.02.2021
2052 Clear 31 1013 33 10000 3.6 250 20:37 27.02.2021
2053 Clear 31 1013 33 10000 3.6 250 20:18 27.02.2021
2054 Clear 30 1013 35 10000 2.57 240 19:41 27.02.2021
2055 Clear 30 1013 35 10000 2.57 240 19:23 27.02.2021
2056 Clear 30 1013 39 10000 2.57 240 18:39 27.02.2021
2057 Clear 30 1013 39 10000 2.57 240 18:19 27.02.2021
2058 Clear 29 1014 44 10000 2.06 300 17:43 27.02.2021
2059 Clear 29 1014 44 10000 2.06 300 17:20 27.02.2021
2060 Clear 27 1014 50 10000 1.54 0 16:51 27.02.2021
2061 Clear 27 1014 50 10000 1.54 0 16:31 27.02.2021
2062 Clear 25 1014 56 10000 0.51 280 15:49 27.02.2021
2063 Clear 25 1014 56 10000 0.51 280 15:31 27.02.2021
2064 Clear 22 1014 68 10000 1.75 260 14:43 27.02.2021
2065 Clear 21 1014 68 10000 1.27 262 14:25 27.02.2021
2066 Clear 19 1014 77 10000 1.03 60 13:49 27.02.2021
2067 Clear 18 1014 77 10000 1.03 60 13:26 27.02.2021
2068 Clear 16 1013 88 10000 0.38 307 12:51 27.02.2021
2069 Clear 16 1013 88 10000 0.19 23 12:28 27.02.2021
2070 Clear 17 1012 88 8000 1.03 0 11:56 27.02.2021
2071 Clear 17 1012 88 8000 1.03 0 11:36 27.02.2021
2072 Clear 17 1012 88 8000 1.03 0 11:18 27.02.2021
2073 Clear 18 1012 82 10000 2.06 180 10:41 27.02.2021
2074 Clear 18 1012 82 10000 2.06 180 10:18 27.02.2021
2075 Clear 18 1012 82 10000 2.06 180 10:18 27.02.2021
2076 Clear 19 1012 82 10000 2.57 160 09:43 27.02.2021
2077 Clear 19 1012 82 10000 2.57 160 09:21 27.02.2021
2078 Clear 19 1012 88 10000 2.57 160 08:39 27.02.2021
2079 Clear 19 1012 88 10000 2.57 160 08:19 27.02.2021
2080 Clear 19 1012 82 10000 3.09 170 07:34 27.02.2021
2081 Clear 22 1012 68 10000 5.14 150 02:56 27.02.2021
2082 Clear 25 1013 47 10000 2.57 260 00:35 27.02.2021
2083 Clear 27 1013 44 10000 2.57 260 23:48 26.02.2021
2084 Clear 28 1013 44 10000 2.57 260 23:25 26.02.2021
2085 Clear 29 1012 39 8000 2.57 260 22:42 26.02.2021
2086 Clear 28 1012 39 8000 2.57 260 22:23 26.02.2021
2087 Clear 29 1013 37 8000 3.6 30 21:37 26.02.2021
2088 Clear 29 1013 37 8000 3.6 30 21:18 26.02.2021
2089 Clear 29 1014 39 8000 3.09 250 20:43 26.02.2021
2090 Clear 29 1014 39 8000 3.09 250 20:20 26.02.2021
2091 Clear 29 1013 39 8000 3.09 250 19:40 26.02.2021
2092 Clear 29 1013 39 8000 3.09 250 19:18 26.02.2021
2093 Clear 28 1013 37 8000 3.09 250 18:41 26.02.2021
2094 Clear 28 1013 37 8000 3.09 250 18:21 26.02.2021
2095 Clear 27 1014 39 10000 1.54 260 17:39 26.02.2021
2096 Clear 27 1014 39 10000 1.54 260 17:20 26.02.2021
2097 Clear 26 1014 47 10000 3.07 247 16:49 26.02.2021
2098 Clear 25 1014 47 10000 3.07 247 16:30 26.02.2021
2099 Clear 24 1014 56 10000 1.54 230 15:51 26.02.2021
2100 Clear 24 1014 56 10000 1.54 230 15:30 26.02.2021
2101 Clear 21 1013 64 10000 2.29 254 14:59 26.02.2021
2102 Clear 21 1013 64 10000 2.29 254 14:41 26.02.2021
2103 Clear 21 1013 64 10000 1.55 251 14:22 26.02.2021
2104 Clear 18 1013 77 10000 1.58 259 13:39 26.02.2021
2105 Clear 19 1013 77 10000 0.85 255 13:20 26.02.2021
2106 Clear 15 1012 94 10000 0.85 255 12:33 26.02.2021
2107 Clear 17 1011 88 8000 1.54 360 11:49 26.02.2021
2108 Clear 17 1011 88 8000 1.54 360 11:28 26.02.2021
2109 Clear 17 1011 88 10000 1.54 310 10:45 26.02.2021
2110 Clear 17 1011 88 10000 2.57 170 09:49 26.02.2021
2111 Clear 17 1011 88 10000 2.57 170 09:29 26.02.2021
2112 Clouds 18 1011 82 10000 3.09 160 08:51 26.02.2021
2113 Clouds 18 1011 82 10000 3.09 160 08:18 26.02.2021
2114 Clear 19 1011 77 10000 3.09 170 07:41 26.02.2021
2115 Clear 19 1012 77 10000 2.06 160 06:35 26.02.2021
2116 Clear 20 1012 77 10000 3.09 160 05:26 26.02.2021
2117 Clear 21 1012 68 10000 4.63 160 03:28 26.02.2021
2118 Clear 25 1012 44 10000 3.6 270 01:29 26.02.2021
2119 Clear 27 1012 44 10000 3.09 230 23:44 25.02.2021
2120 Clear 27 1012 44 10000 3.09 230 23:25 25.02.2021
2121 Clear 27 1012 41 10000 3.6 250 22:47 25.02.2021
2122 Clear 27 1012 39 10000 4.12 250 21:58 25.02.2021
2123 Clear 27 1012 39 10000 4.12 250 21:36 25.02.2021
2124 Clear 27 1012 39 10000 4.12 250 21:18 25.02.2021
2125 Clear 27 1012 44 10000 3.6 250 20:40 25.02.2021
2126 Clear 27 1012 44 10000 3.6 250 20:21 25.02.2021
2127 Clear 29 1013 44 8000 3.6 220 19:51 25.02.2021
2128 Clear 29 1013 44 8000 3.6 220 19:21 25.02.2021
2129 Clear 28 1012 39 10000 3.09 240 18:56 25.02.2021
2130 Clear 28 1012 39 10000 3.09 240 18:19 25.02.2021
2131 Clear 27 1012 38 10000 3.09 260 17:46 25.02.2021
2132 Clear 27 1012 38 10000 3.09 260 17:25 25.02.2021
2133 Clear 25 1012 46 10000 2.57 260 16:42 25.02.2021
2134 Clear 25 1012 46 10000 2.57 260 16:24 25.02.2021
2135 Clear 27 925 99 10000 2.46 250 15:29 25.02.2021
2136 Clear 25 925 99 10000 2.46 250 14:41 25.02.2021
2137 Clear 24 925 99 10000 1.57 249 14:21 25.02.2021
2138 Clear 23 925 99 10000 1.57 249 13:50 25.02.2021
2139 Clear 21 925 99 10000 0.28 270 13:25 25.02.2021
2140 Clear 24 1013 32 10000 0.28 270 12:47 25.02.2021
2141 Clear 18 1012 52 10000 0.17 286 12:21 25.02.2021
2142 Clear 18 1012 52 10000 0.17 286 11:45 25.02.2021
2143 Clear 18 1011 52 10000 0.15 203 11:19 25.02.2021
2144 Clear 18 1012 50 10000 0.15 203 10:38 25.02.2021
2145 Clear 18 1011 49 10000 0.39 183 09:58 25.02.2021
2146 Clear 19 1011 49 10000 0.39 183 09:38 25.02.2021
2147 Clear 19 1011 50 10000 0.5 220 08:54 25.02.2021
2148 Clear 19 1011 51 10000 0.54 197 08:23 25.02.2021
2149 Clear 19 1012 52 10000 0.54 197 07:52 25.02.2021
2150 Clear 19 1012 51 10000 0.5 201 07:26 25.02.2021
2151 Clear 19 1012 50 10000 0.32 205 06:47 25.02.2021
2152 Clear 22 1014 43 10000 1.27 221 01:57 25.02.2021
2153 Clear 23 1013 45 10000 1.27 221 01:34 25.02.2021
2154 Clear 24 1013 43 10000 1.6 228 00:39 25.02.2021
2155 Clear 26 1012 37 10000 2.47 230 23:47 24.02.2021
2156 Clear 27 1011 35 10000 3.39 234 23:22 24.02.2021
2157 Clear 28 1010 33 10000 3.39 234 22:44 24.02.2021
2158 Clear 28 1011 33 10000 3.66 235 22:24 24.02.2021
2159 Clear 28 1011 33 10000 3.66 235 21:44 24.02.2021
2160 Clear 32 925 41 10000 1.34 225 20:53 24.02.2021
2161 Clear 30 1013 28 10000 2.57 210 20:29 24.02.2021
2162 Clear 30 1013 28 10000 2.57 210 19:54 24.02.2021
2163 Clear 30 1013 28 10000 2.57 210 19:26 24.02.2021
2164 Clear 29 1013 28 10000 3.6 260 18:55 24.02.2021
2165 Clear 30 1013 28 10000 3.6 260 18:34 24.02.2021
2166 Clear 29 1013 30 10000 2.06 250 17:50 24.02.2021
2167 Clear 29 1013 30 10000 2.06 250 17:29 24.02.2021
2168 Clear 27 1013 34 10000 2.57 190 16:52 24.02.2021
2169 Clear 27 1013 34 10000 2.57 190 16:22 24.02.2021
2170 Clear 25 1013 35 10000 1.03 250 15:58 24.02.2021
2171 Clear 25 1013 35 10000 1.03 250 15:36 24.02.2021
2172 Clear 23 1013 46 10000 2.07 248 14:52 24.02.2021
2173 Clear 21 1013 46 10000 2.07 248 14:32 24.02.2021
2174 Clear 19 1013 59 10000 1.52 255 13:56 24.02.2021
2175 Clear 18 1013 59 10000 1.52 255 13:37 24.02.2021
2176 Clear 18 1013 59 10000 0.56 277 13:19 24.02.2021
2177 Clear 15 1012 82 10000 0.56 277 12:42 24.02.2021
2178 Clear 15 1012 82 10000 0.11 281 12:23 24.02.2021
2179 Clear 17 1011 67 10000 0.51 0 11:42 24.02.2021
2180 Clouds 18 1011 63 10000 0.06 306 10:48 24.02.2021
2181 Clouds 18 1011 63 10000 0.15 317 10:26 24.02.2021
2182 Clouds 19 1010 59 10000 0.15 317 09:33 24.02.2021
2183 Clouds 19 1010 59 10000 1.03 250 08:58 24.02.2021
2184 Clouds 19 1010 59 10000 1.03 250 08:33 24.02.2021
2185 Clouds 19 1010 48 10000 0.39 217 07:55 24.02.2021
2186 Clouds 20 1010 48 10000 0.53 231 07:19 24.02.2021
2187 Clouds 20 1011 48 10000 1.03 0 06:20 24.02.2021
2188 Clear 23 1011 38 10000 4.12 150 02:44 24.02.2021
2189 Clear 29 1012 25 10000 3.6 270 23:59 23.02.2021
2190 Clear 30 1012 25 10000 3.6 270 23:20 23.02.2021
2191 Clear 30 1012 22 10000 3.6 250 22:24 23.02.2021
2192 Clear 31 1012 23 10000 3.09 200 21:56 23.02.2021
2193 Clear 31 1012 23 10000 3.09 200 21:37 23.02.2021
2194 Clear 31 1012 23 10000 3.09 200 21:18 23.02.2021
2195 Clear 30 1013 20 10000 2.06 220 20:45 23.02.2021
2196 Clear 30 1013 20 10000 2.06 220 20:27 23.02.2021
2197 Clear 29 1013 21 10000 2.57 0 19:47 23.02.2021
2198 Clear 29 1013 21 10000 2.57 0 19:26 23.02.2021
2199 Clear 29 1014 28 10000 2.06 240 18:47 23.02.2021
2200 Clear 29 1014 28 10000 2.06 240 18:29 23.02.2021
2201 Clear 28 1015 32 10000 2.06 250 17:54 23.02.2021
2202 Clear 28 1015 32 10000 2.06 250 17:28 23.02.2021
2203 Clear 25 1015 35 10000 1.03 0 16:47 23.02.2021
2204 Clear 25 1015 35 10000 1.03 0 16:24 23.02.2021
2205 Clear 24 1015 43 10000 1.03 210 15:51 23.02.2021
2206 Clear 24 1015 43 10000 1.03 210 15:33 23.02.2021
2207 Clear 20 1015 51 10000 1.81 256 14:57 23.02.2021
2208 Clear 20 1015 51 10000 1.81 256 14:38 23.02.2021
2209 Clear 19 1015 51 10000 1.11 263 14:19 23.02.2021
2210 Clear 17 1016 62 10000 1.11 263 13:38 23.02.2021
2211 Clear 16 1016 62 10000 0.42 10 13:18 23.02.2021
2212 Clear 14 1015 76 10000 1.03 70 12:44 23.02.2021
2213 Clear 14 1015 76 10000 1.03 70 12:19 23.02.2021
2214 Clouds 16 1014 71 8000 1.54 350 11:45 23.02.2021
2215 Clouds 16 1014 71 8000 1.54 350 11:18 23.02.2021
2216 Clouds 16 1014 72 10000 1.54 310 10:39 23.02.2021
2217 Clouds 16 1014 72 10000 1.54 310 10:39 23.02.2021
2218 Clouds 16 1014 72 10000 1.54 310 10:18 23.02.2021
2219 Clouds 16 1014 72 10000 1.54 40 09:41 23.02.2021
2220 Clouds 17 1014 72 10000 1.54 40 09:21 23.02.2021
2221 Clouds 17 1014 67 10000 0.51 0 08:45 23.02.2021
2222 Clouds 17 1014 67 10000 0.51 0 08:20 23.02.2021
2223 Clouds 18 1014 59 10000 0.29 176 07:34 23.02.2021
2224 Clear 19 1015 55 10000 3.09 150 05:27 23.02.2021
2225 Clear 22 1015 40 10000 5.14 200 02:43 23.02.2021
2226 Clear 23 1015 40 10000 5.14 200 02:24 23.02.2021
2227 Clear 27 1016 32 10000 3.6 250 00:19 23.02.2021
2228 Clear 29 1016 15 10000 3.09 220 23:32 22.02.2021
2229 Clear 29 1016 16 10000 4.12 250 22:44 22.02.2021
2230 Clear 29 1016 16 10000 4.12 250 22:23 22.02.2021
2231 Clear 29 1016 21 10000 3.6 240 21:58 22.02.2021
2232 Clear 29 1016 21 10000 3.6 240 21:38 22.02.2021
2233 Clear 29 1016 21 10000 3.6 240 21:20 22.02.2021
2234 Clear 28 1017 26 10000 3.6 220 20:44 22.02.2021
2235 Clear 28 1017 26 10000 3.6 220 20:25 22.02.2021
2236 Clear 27 1017 29 10000 2.57 210 19:46 22.02.2021
2237 Clear 27 1017 29 10000 2.57 210 19:28 22.02.2021
2238 Clear 26 1018 34 10000 2.57 0 18:48 22.02.2021
2239 Clear 26 1018 34 10000 2.57 0 18:29 22.02.2021
2240 Clear 25 1018 36 10000 2.57 0 17:49 22.02.2021
2241 Clear 25 1018 36 10000 2.57 0 17:20 22.02.2021
2242 Clear 24 1018 38 10000 2.06 270 16:48 22.02.2021
2243 Clear 24 1018 38 10000 2.06 270 16:29 22.02.2021
2244 Clear 22 1018 43 10000 1.54 180 15:31 22.02.2021
2245 Clear 20 1018 55 10000 2.27 253 14:53 22.02.2021
2246 Clear 20 1018 55 10000 2.27 253 14:35 22.02.2021
2247 Clear 16 1017 82 10000 1.03 50 13:51 22.02.2021
2248 Clear 15 1017 82 10000 1.03 50 13:31 22.02.2021
2249 Clear 13 1017 93 10000 0.82 240 12:47 22.02.2021
2250 Clear 13 1017 93 10000 0.67 239 12:23 22.02.2021
2251 Clear 15 1015 76 10000 0.67 239 11:51 22.02.2021
2252 Clear 14 1015 76 10000 0.65 252 11:29 22.02.2021
2253 Clear 16 1015 67 10000 0.65 252 10:54 22.02.2021
2254 Clear 16 1015 67 10000 0.65 252 10:36 22.02.2021
2255 Clear 16 1015 67 10000 0.57 241 10:18 22.02.2021
2256 Clear 16 1015 71 10000 3.09 150 09:37 22.02.2021
2257 Clear 16 1015 71 10000 3.09 150 09:18 22.02.2021
2258 Clear 16 1015 62 10000 1.54 180 08:44 22.02.2021
2259 Clear 17 1015 62 10000 1.54 180 08:20 22.02.2021
2260 Clear 17 1015 58 10000 2.57 160 07:39 22.02.2021
2261 Clear 17 1015 58 10000 2.57 160 07:18 22.02.2021
2262 Clear 18 1016 55 10000 2.57 160 06:24 22.02.2021
2263 Clear 20 1015 48 10000 5.14 150 03:49 22.02.2021
2264 Clear 20 1015 48 10000 5.14 150 02:55 22.02.2021
2265 Clear 24 1016 38 10000 3.6 260 00:49 22.02.2021
2266 Clear 25 1016 38 10000 3.6 260 00:26 22.02.2021
2267 Clear 26 1015 36 10000 3.09 200 23:48 21.02.2021
2268 Clear 27 1015 34 10000 3.6 210 22:55 21.02.2021
2269 Clear 28 1015 34 10000 3.6 210 22:25 21.02.2021
2270 Clear 29 1015 30 10000 3.09 230 21:50 21.02.2021
2271 Clear 29 1015 30 10000 3.09 230 21:30 21.02.2021
2272 Clear 29 1016 30 10000 4.12 240 20:50 21.02.2021
2273 Clear 29 1016 30 10000 4.12 240 20:21 21.02.2021
2274 Clear 28 1016 30 10000 2.57 230 19:59 21.02.2021
2275 Clear 28 1016 30 10000 2.57 230 19:39 21.02.2021
2276 Clear 28 1016 30 10000 2.57 230 19:21 21.02.2021
2277 Clear 27 1017 36 10000 2.57 250 18:28 21.02.2021
2278 Clear 26 1017 38 10000 2.06 270 17:47 21.02.2021
2279 Clear 26 1017 38 10000 2.06 270 17:21 21.02.2021
2280 Clear 24 1018 43 10000 1.54 260 16:50 21.02.2021
2281 Clear 23 1018 43 10000 1.54 260 16:29 21.02.2021
2282 Clear 21 1018 49 10000 2.37 255 15:26 21.02.2021
2283 Clear 20 1018 63 10000 2.37 255 14:59 21.02.2021
2284 Clear 20 1018 63 10000 2.37 255 14:39 21.02.2021
2285 Clear 19 1018 82 10000 1.78 254 13:59 21.02.2021
2286 Clear 17 1018 82 10000 1.84 251 13:30 21.02.2021
2287 Clear 15 1017 87 10000 1.1 260 12:50 21.02.2021
2288 Clear 15 1017 87 10000 0.43 253 12:26 21.02.2021
2289 Clear 16 1016 72 10000 2.06 160 11:42 21.02.2021
2290 Clear 16 1016 72 10000 1.54 170 10:50 21.02.2021
2291 Clear 16 1016 72 10000 1.54 170 10:22 21.02.2021
2292 Clear 16 1015 67 10000 1.54 160 09:51 21.02.2021
2293 Clear 17 1015 67 10000 1.54 160 09:26 21.02.2021
2294 Clear 17 1015 67 10000 2.06 150 08:43 21.02.2021
2295 Clear 17 1015 67 10000 2.06 150 08:19 21.02.2021
2296 Clear 18 1015 63 10000 2.06 160 07:28 21.02.2021
2297 Clear 18 1016 63 10000 2.57 150 06:46 21.02.2021
2298 Clear 21 1015 49 10000 4.12 160 02:44 21.02.2021
2299 Clear 22 1015 49 10000 4.12 160 02:24 21.02.2021
2300 Clear 24 1016 43 10000 4.12 250 00:36 21.02.2021
2301 Clear 26 1016 43 10000 4.12 250 00:18 21.02.2021
2302 Clear 28 1015 32 10000 3.6 220 22:59 20.02.2021
2303 Clear 28 1015 32 10000 3.6 220 22:38 20.02.2021
2304 Clear 29 1015 30 10000 3.6 250 21:59 20.02.2021
2305 Clear 29 1015 30 10000 3.6 250 21:41 20.02.2021
2306 Clear 29 1015 30 10000 3.6 250 21:18 20.02.2021
2307 Clear 29 1016 28 10000 5.14 220 20:42 20.02.2021
2308 Clear 29 1016 28 10000 5.14 220 20:20 20.02.2021
2309 Clear 30 1016 26 10000 2.57 250 19:48 20.02.2021
2310 Clear 29 1016 26 10000 2.57 250 19:19 20.02.2021
2311 Clear 28 1016 32 10000 1.54 210 18:37 20.02.2021
2312 Clear 28 1016 32 10000 1.54 210 18:19 20.02.2021
2313 Clear 27 1017 36 10000 3.09 270 17:36 20.02.2021
2314 Clear 26 1017 44 10000 1.54 260 16:54 20.02.2021
2315 Clear 24 1017 44 10000 1.54 260 16:27 20.02.2021
2316 Clear 24 1017 49 10000 1.54 240 15:44 20.02.2021
2317 Clear 22 1017 49 10000 1.54 240 15:18 20.02.2021
2318 Clear 22 1017 52 10000 2.33 259 14:43 20.02.2021
2319 Clear 20 1017 52 10000 1.69 260 14:22 20.02.2021
2320 Clear 20 1017 67 10000 1.69 260 13:40 20.02.2021
2321 Clear 18 1017 67 10000 1.05 264 13:22 20.02.2021
2322 Clear 15 1017 87 10000 1.05 264 12:47 20.02.2021
2323 Clear 16 1015 82 10000 0.39 282 11:56 20.02.2021
2324 Clear 16 1015 82 10000 0.39 282 11:38 20.02.2021
2325 Clear 16 1015 82 10000 1.03 0 10:55 20.02.2021
2326 Clear 16 1015 82 10000 1.03 0 10:32 20.02.2021
2327 Clear 17 1015 72 10000 1.03 0 09:48 20.02.2021
2328 Clear 17 1015 72 10000 1.03 0 09:20 20.02.2021
2329 Clear 18 1015 67 10000 0.57 272 08:34 20.02.2021
2330 Clouds 18 1015 63 10000 1.03 270 07:54 20.02.2021
2331 Clear 22 1016 49 10000 3.6 150 02:45 20.02.2021
2332 Clear 22 1016 49 10000 3.6 150 02:21 20.02.2021
2333 Clear 23 1015 49 10000 5.14 210 01:47 20.02.2021
2334 Clear 25 1016 38 10000 3.6 230 00:45 20.02.2021
2335 Clear 27 1016 34 10000 4.12 230 23:45 19.02.2021
2336 Clear 28 1015 30 10000 2.57 220 22:56 19.02.2021
2337 Clear 29 1015 30 10000 2.57 220 22:26 19.02.2021
2338 Clear 29 1016 30 10000 3.6 250 21:48 19.02.2021
2339 Clear 29 1016 30 10000 3.6 250 21:28 19.02.2021
2340 Clear 28 1016 32 10000 2.57 200 20:47 19.02.2021
2341 Clear 28 1016 32 10000 2.57 200 20:27 19.02.2021
2342 Clear 28 1017 32 10000 3.09 220 19:55 19.02.2021
2343 Clear 27 1017 32 10000 3.09 220 19:24 19.02.2021
2344 Clear 27 1017 38 10000 1.54 220 18:56 19.02.2021
2345 Clear 26 1017 38 10000 1.54 220 18:33 19.02.2021
2346 Clear 25 1018 41 10000 2.06 180 17:49 19.02.2021
2347 Clear 24 1018 46 10000 1.54 220 16:52 19.02.2021
2348 Clear 23 1018 46 10000 1.54 220 16:27 19.02.2021
2349 Clear 22 1018 49 10000 2.53 255 15:57 19.02.2021
2350 Clear 20 1018 49 10000 2.53 255 15:31 19.02.2021
2351 Clear 19 1019 67 10000 2.02 257 14:56 19.02.2021
2352 Clear 19 1019 67 10000 2.02 257 14:36 19.02.2021
2353 Clear 18 1019 72 10000 1.34 261 13:58 19.02.2021
2354 Clear 16 1019 72 10000 1.34 261 13:37 19.02.2021
2355 Clear 15 1019 72 10000 0.67 246 13:19 19.02.2021
2356 Clear 14 1019 87 10000 0.78 250 12:41 19.02.2021
2357 Clear 13 1019 87 10000 0.31 231 12:22 19.02.2021
2358 Clear 14 1017 76 10000 1.03 170 11:48 19.02.2021
2359 Clear 14 1017 76 10000 1.03 170 11:22 19.02.2021
2360 Clear 14 1017 76 10000 1.03 0 10:42 19.02.2021
2361 Clear 14 1017 76 10000 1.03 0 10:20 19.02.2021
2362 Clear 15 1017 76 10000 1.54 160 09:39 19.02.2021
2363 Clear 15 1017 76 10000 1.54 160 09:21 19.02.2021
2364 Clear 15 1017 72 10000 1.54 150 08:49 19.02.2021
2365 Clear 15 1017 72 10000 1.54 150 08:22 19.02.2021
2366 Clear 16 1020 60 10000 0.78 233 07:48 19.02.2021
2367 Clear 16 1018 67 10000 3.6 150 07:27 19.02.2021
2368 Clear 16 1018 67 10000 3.6 150 06:47 19.02.2021
2369 Clouds 17 1018 63 10000 4.12 150 04:44 19.02.2021
2370 Clouds 17 1018 63 10000 4.12 150 04:25 19.02.2021
2371 Clear 19 1017 49 10000 5.66 200 01:47 19.02.2021
2372 Clouds 22 1018 43 10000 3.6 240 00:36 19.02.2021
2373 Clouds 25 1017 36 10000 3.6 220 23:52 18.02.2021
2374 Clouds 25 1017 36 10000 3.6 220 23:33 18.02.2021
2375 Clouds 26 1017 36 7000 3.6 220 22:44 18.02.2021
2376 Clouds 26 1017 36 7000 3.6 220 22:26 18.02.2021
2377 Clouds 26 1017 34 7000 3.6 230 21:45 18.02.2021
2378 Clouds 26 1017 34 7000 3.6 230 21:24 18.02.2021
2379 Clouds 26 1017 38 7000 2.57 200 20:41 18.02.2021
2380 Clouds 26 1017 38 7000 2.57 200 20:23 18.02.2021
2381 Clouds 25 1018 41 7000 3.09 220 19:46 18.02.2021
2382 Clouds 25 1018 41 7000 3.09 220 19:25 18.02.2021
2383 Clouds 24 1018 46 7000 2.57 240 18:52 18.02.2021
2384 Clouds 23 1018 46 7000 2.57 240 18:27 18.02.2021
2385 Clouds 23 1018 49 10000 2.57 0 17:52 18.02.2021
2386 Clouds 22 1018 49 10000 2.57 0 17:25 18.02.2021
2387 Clouds 21 1018 52 10000 2.06 210 16:52 18.02.2021
2388 Clouds 21 1018 52 10000 2.06 210 16:34 18.02.2021
2389 Clear 19 1019 63 10000 1.03 180 15:44 18.02.2021
2390 Clear 19 1019 63 10000 1.03 180 15:24 18.02.2021
2391 Clear 18 1019 72 10000 1.03 0 14:58 18.02.2021
2392 Clear 17 1019 72 10000 1.03 0 14:36 18.02.2021
2393 Clear 15 1019 76 10000 0.51 0 13:58 18.02.2021
2394 Clear 15 1019 76 10000 0.51 0 13:40 18.02.2021
2395 Clear 14 1019 76 10000 0.51 0 13:18 18.02.2021
2396 Clear 13 1018 82 10000 1.32 249 12:41 18.02.2021
2397 Clear 13 1018 82 10000 0.6 230 12:18 18.02.2021
2398 Clear 13 1017 76 10000 2.57 150 11:46 18.02.2021
2399 Clear 14 1017 76 10000 2.57 150 11:25 18.02.2021
2400 Clear 14 1017 76 10000 2.57 160 10:44 18.02.2021
2401 Clear 14 1017 76 10000 2.57 160 10:25 18.02.2021
2402 Clear 14 1017 76 10000 2.57 160 09:39 18.02.2021
2403 Clear 14 1017 76 10000 2.57 160 09:20 18.02.2021
2404 Clouds 15 1017 76 10000 3.6 160 08:39 18.02.2021
2405 Clouds 15 1017 76 10000 3.6 160 08:20 18.02.2021
2406 Clear 15 1017 76 10000 4.12 160 07:31 18.02.2021
2407 Clear 16 1017 72 10000 4.12 150 06:40 18.02.2021
2408 Clear 19 1016 63 10000 4.12 160 02:21 18.02.2021
2409 Clear 24 1016 41 10000 3.6 0 23:49 17.02.2021
2410 Clear 25 1016 41 10000 3.6 0 23:21 17.02.2021
2411 Clear 26 1016 38 10000 3.6 210 22:49 17.02.2021
2412 Clear 25 1016 38 10000 3.6 210 22:25 17.02.2021
2413 Clear 27 1017 36 10000 3.6 0 21:48 17.02.2021
2414 Clear 27 1017 36 10000 3.6 0 21:22 17.02.2021
2415 Clear 26 1017 36 8000 3.6 0 20:47 17.02.2021
2416 Clear 25 1017 36 8000 3.6 0 20:28 17.02.2021
2417 Clear 24 1018 43 6000 3.6 210 19:46 17.02.2021
2418 Clear 24 1018 43 6000 3.6 210 19:27 17.02.2021
2419 Haze 24 1018 49 5000 3.09 210 18:41 17.02.2021
2420 Haze 24 1018 49 5000 3.09 210 18:22 17.02.2021
2421 Haze 22 1018 60 5000 2.57 0 17:40 17.02.2021
2422 Haze 22 1018 60 5000 2.57 0 17:18 17.02.2021
2423 Haze 21 1018 63 5000 2.06 270 16:43 17.02.2021
2424 Haze 20 1018 63 5000 2.06 270 16:22 17.02.2021
2425 Haze 19 1018 67 5000 1.54 240 15:44 17.02.2021
2426 Haze 19 1018 67 5000 1.54 240 15:44 17.02.2021
2427 Haze 18 1018 67 5000 1.54 240 15:23 17.02.2021
2428 Haze 17 1018 77 5000 1.54 0 14:46 17.02.2021
2429 Haze 17 1018 77 5000 1.54 0 14:28 17.02.2021
2430 Clouds 16 1018 88 7000 2.1 249 13:45 17.02.2021
2431 Clouds 15 1018 88 7000 1.33 254 13:27 17.02.2021
2432 Clouds 14 1017 82 8000 1.44 253 12:47 17.02.2021
2433 Clouds 14 1017 82 8000 0.59 260 12:23 17.02.2021
2434 Clouds 15 1016 77 10000 2.06 160 11:42 17.02.2021
2435 Clouds 15 1016 77 10000 2.06 160 11:19 17.02.2021
2436 Clouds 15 1016 82 10000 2.06 170 10:45 17.02.2021
2437 Clouds 15 1016 82 10000 2.06 170 10:25 17.02.2021
2438 Clouds 15 1017 82 10000 2.57 160 09:45 17.02.2021
2439 Clouds 15 1017 82 10000 2.57 160 09:25 17.02.2021
2440 Clouds 15 1017 88 10000 3.09 160 08:43 17.02.2021
2441 Clouds 15 1017 88 10000 3.09 160 08:22 17.02.2021
2442 Clouds 15 1017 88 10000 2.57 170 07:34 17.02.2021
2443 Clouds 16 1017 82 10000 2.57 160 06:35 17.02.2021
2444 Clouds 17 1017 72 10000 3.6 200 02:42 17.02.2021
2445 Clouds 17 1017 72 10000 3.6 200 02:21 17.02.2021
2446 Clouds 19 1018 68 10000 1.54 200 00:33 17.02.2021
2447 Clouds 20 1018 68 10000 2.57 210 23:57 16.02.2021
2448 Clouds 20 1018 68 10000 2.57 210 23:38 16.02.2021
2449 Clouds 20 1018 68 10000 3.09 210 22:44 16.02.2021
2450 Clouds 20 1018 68 10000 3.09 210 22:25 16.02.2021
2451 Clouds 20 1018 68 10000 3.09 210 22:25 16.02.2021
2452 Clouds 20 1018 68 10000 3.09 210 22:25 16.02.2021
2453 Clouds 19 1018 68 8000 3.09 250 21:57 16.02.2021
2454 Clouds 19 1018 68 8000 3.09 250 21:39 16.02.2021
2455 Clouds 18 1018 68 8000 3.09 250 21:20 16.02.2021
2456 Haze 18 1019 68 4000 2.57 200 20:42 16.02.2021
2457 Haze 20 1019 68 4000 2.57 200 20:20 16.02.2021
2458 Haze 19 1019 77 3000 2.57 210 19:44 16.02.2021
2459 Haze 19 1019 77 3000 2.57 210 19:25 16.02.2021
2460 Mist 17 1019 77 3000 2.57 210 18:41 16.02.2021
2461 Mist 17 1019 77 3000 2.57 210 18:23 16.02.2021
2462 Mist 16 1019 77 2000 2.06 190 17:53 16.02.2021
2463 Mist 16 1019 77 2000 2.06 190 17:27 16.02.2021
2464 Mist 16 1019 82 2000 2.06 210 16:52 16.02.2021
2465 Mist 16 1019 82 2000 2.06 210 16:52 16.02.2021
2466 Mist 17 1019 82 2000 2.06 210 16:30 16.02.2021
2467 Mist 17 1018 82 2000 1.54 60 15:53 16.02.2021
2468 Mist 17 1018 82 2000 1.54 60 15:32 16.02.2021
2469 Mist 16 1017 88 2000 2.51 250 14:57 16.02.2021
2470 Mist 16 1017 88 2000 2.51 250 14:38 16.02.2021
2471 Mist 16 1017 88 2000 2.11 252 14:19 16.02.2021
2472 Mist 16 1018 88 2000 2.11 252 13:38 16.02.2021
2473 Mist 15 1017 88 2000 1.4 254 12:52 16.02.2021
2474 Mist 15 1017 88 2000 0.78 249 12:29 16.02.2021
2475 Clouds 15 1016 94 6000 4.12 170 11:58 16.02.2021
2476 Clouds 14 1016 94 6000 4.12 170 11:39 16.02.2021
2477 Clouds 14 1016 94 6000 4.12 170 11:19 16.02.2021
2478 Clouds 15 1016 94 7000 3.09 150 10:45 16.02.2021
2479 Clouds 15 1016 94 7000 3.09 150 10:27 16.02.2021
2480 Clouds 14 1016 100 7000 3.6 160 09:52 16.02.2021
2481 Clouds 15 1016 88 9000 3.09 170 09:26 16.02.2021
2482 Clear 15 1016 94 10000 3.09 170 08:51 16.02.2021
2483 Clear 15 1016 94 10000 3.09 170 08:28 16.02.2021
2484 Clear 15 1016 94 10000 3.6 160 07:44 16.02.2021
2485 Clear 16 1016 88 10000 3.09 170 06:49 16.02.2021
2486 Clear 19 1015 68 10000 5.14 160 02:40 16.02.2021
2487 Clouds 23 1016 53 10000 3.09 200 23:55 15.02.2021
2488 Clouds 24 1016 53 10000 3.09 200 23:29 15.02.2021
2489 Clouds 24 1016 50 10000 4.12 230 22:50 15.02.2021
2490 Clouds 24 1016 50 10000 4.12 230 22:27 15.02.2021
2491 Clouds 24 1016 50 10000 3.09 230 21:44 15.02.2021
2492 Clouds 24 1016 50 10000 3.09 230 21:24 15.02.2021
2493 Clouds 24 1016 46 8000 3.6 200 20:54 15.02.2021
2494 Clouds 24 1016 46 8000 3.6 200 20:36 15.02.2021
2495 Clouds 24 1017 53 6000 2.57 220 19:51 15.02.2021
2496 Clouds 24 1017 53 6000 2.57 220 19:26 15.02.2021
2497 Haze 22 1017 60 4000 3.09 210 18:54 15.02.2021
2498 Haze 22 1017 60 4000 3.09 210 18:27 15.02.2021
2499 Haze 21 1017 64 4000 3.09 0 17:58 15.02.2021
2500 Haze 21 1017 64 4000 3.09 0 17:40 15.02.2021
2501 Haze 21 1017 64 4000 3.09 0 17:20 15.02.2021
2502 Haze 19 1017 72 4000 2.06 260 16:42 15.02.2021
2503 Haze 19 1017 72 4000 2.06 260 16:21 15.02.2021
2504 Haze 18 1017 77 4000 2.57 240 15:42 15.02.2021
2505 Haze 18 1017 77 4000 2.57 240 15:19 15.02.2021
2506 Haze 17 1017 88 4000 2.39 257 14:44 15.02.2021
2507 Haze 17 1017 88 4000 2.02 260 14:20 15.02.2021
2508 Mist 16 1017 88 4000 2.16 259 13:49 15.02.2021
2509 Mist 17 1017 88 4000 1.19 266 13:22 15.02.2021
2510 Clouds 16 1017 82 8000 2.06 240 12:47 15.02.2021
2511 Clouds 15 1017 82 8000 2.06 240 12:25 15.02.2021
2512 Mist 15 1015 100 5000 1.03 0 11:51 15.02.2021
2513 Mist 15 1015 100 5000 1.03 0 11:26 15.02.2021
2514 Mist 15 1015 100 5000 4.12 140 10:50 15.02.2021
2515 Mist 15 1015 100 5000 4.12 140 10:30 15.02.2021
2516 Clouds 16 1014 94 9000 5.14 160 09:59 15.02.2021
2517 Clouds 16 1014 94 9000 5.14 160 09:41 15.02.2021
2518 Clouds 17 1014 94 9000 5.14 160 09:22 15.02.2021
2519 Clouds 16 1014 94 8000 4.63 160 08:21 15.02.2021
2520 Clouds 17 1014 88 10000 4.12 160 07:18 15.02.2021
2521 Clouds 17 1014 88 10000 3.6 160 06:41 15.02.2021
2522 Clear 21 1013 68 10000 4.12 160 02:52 15.02.2021
2523 Clear 21 1013 68 10000 4.12 160 02:20 15.02.2021
2524 Clear 24 1014 50 10000 3.09 230 23:59 14.02.2021
2525 Clear 25 1014 50 10000 3.09 230 23:25 14.02.2021
2526 Clouds 26 1014 47 10000 3.6 230 22:46 14.02.2021
2527 Clouds 26 1014 47 10000 3.6 230 22:23 14.02.2021
2528 Clouds 26 1014 47 10000 3.6 200 21:51 14.02.2021
2529 Clouds 26 1014 47 10000 3.6 200 21:29 14.02.2021
2530 Clouds 26 1014 47 10000 3.6 200 21:29 14.02.2021
2531 Clouds 26 1014 47 8000 3.6 250 20:53 14.02.2021
2532 Clouds 25 1014 47 8000 3.6 250 20:30 14.02.2021
2533 Clear 25 1014 50 7000 3.09 240 19:49 14.02.2021
2534 Clear 25 1014 50 7000 3.09 240 19:29 14.02.2021
2535 Clear 24 1014 57 7000 3.09 240 18:42 14.02.2021
2536 Clear 24 1014 57 7000 3.09 240 18:21 14.02.2021
2537 Clear 23 1015 60 7000 2.57 210 17:40 14.02.2021
2538 Clear 21 1015 68 7000 2.06 240 16:57 14.02.2021
2539 Clear 21 1015 68 7000 2.06 240 16:38 14.02.2021
2540 Clear 20 1015 68 7000 2.06 240 16:18 14.02.2021
2541 Clear 19 1014 72 7000 2.06 240 15:41 14.02.2021
2542 Clear 17 1014 82 8000 2.29 254 14:58 14.02.2021
2543 Clear 17 1014 82 8000 1.76 250 14:29 14.02.2021
2544 Clear 16 1014 94 8000 1.76 250 13:56 14.02.2021
2545 Clear 16 1014 94 8000 1.71 247 13:31 14.02.2021
2546 Clear 15 1014 88 10000 1.04 245 12:45 14.02.2021
2547 Clear 15 1014 88 10000 0.77 231 12:21 14.02.2021
2548 Fog 15 1013 100 700 2.57 170 11:51 14.02.2021
2549 Fog 15 1013 100 700 2.57 170 11:24 14.02.2021
2550 Fog 15 1012 100 900 3.6 160 10:49 14.02.2021
2551 Fog 15 1013 100 1200 3.09 150 09:57 14.02.2021
2552 Fog 15 1013 100 1200 3.09 150 09:38 14.02.2021
2553 Mist 15 1013 100 1000 3.09 150 09:20 14.02.2021
2554 Clear 16 1013 94 10000 2.06 180 08:40 14.02.2021
2555 Clear 16 1013 94 10000 2.06 160 07:57 14.02.2021
2556 Clear 17 1014 88 10000 3.09 160 06:51 14.02.2021
2557 Clear 17 1014 88 10000 4.12 180 05:42 14.02.2021
2558 Clear 19 1015 82 10000 3.09 150 03:32 14.02.2021
2559 Clear 20 1014 77 10000 3.6 150 02:21 14.02.2021
2560 Clear 23 1015 50 10000 3.09 220 00:47 14.02.2021
2561 Clear 23 1015 50 10000 3.09 220 00:27 14.02.2021
2562 Clear 25 1015 50 8000 3.09 240 23:41 13.02.2021
2563 Clear 25 1015 50 8000 3.09 240 23:21 13.02.2021
2564 Clouds 25 1015 53 8000 4.12 220 22:42 13.02.2021
2565 Clouds 25 1015 53 8000 4.12 220 22:19 13.02.2021
2566 Clouds 25 1015 50 8000 3.6 250 21:42 13.02.2021
2567 Clouds 25 1015 53 6000 3.09 0 20:54 13.02.2021
2568 Clouds 25 1015 53 6000 3.09 0 20:30 13.02.2021
2569 Clouds 25 1015 53 6000 3.09 0 20:30 13.02.2021
2570 Haze 25 1016 60 4000 2.57 200 19:55 13.02.2021
2571 Haze 25 1016 60 4000 2.57 200 19:37 13.02.2021
2572 Haze 25 1016 60 4000 2.57 200 19:18 13.02.2021
2573 Mist 23 1016 68 3000 2.06 210 18:38 13.02.2021
2574 Mist 22 1016 73 3000 1.03 300 17:57 13.02.2021
2575 Mist 22 1016 73 3000 1.03 300 17:38 13.02.2021
2576 Mist 22 1016 73 3000 1.03 300 17:19 13.02.2021
2577 Mist 20 1017 82 4000 1.03 200 16:42 13.02.2021
2578 Mist 20 1017 82 4000 1.03 200 16:18 13.02.2021
2579 Mist 19 1017 88 3000 1.54 200 15:29 13.02.2021
2580 Mist 19 1016 88 3000 1.03 350 14:50 13.02.2021
2581 Mist 19 1016 88 3000 1.03 350 14:30 13.02.2021
2582 Mist 18 1016 94 3000 1.83 255 13:44 13.02.2021
2583 Mist 17 1016 94 3000 1.36 255 13:24 13.02.2021
2584 Mist 16 1016 94 4000 1.03 230 12:41 13.02.2021
2585 Mist 16 1016 94 4000 1.03 230 12:18 13.02.2021
2586 Clouds 17 1014 94 7000 3.09 160 11:41 13.02.2021
2587 Clouds 17 1014 94 7000 3.09 160 11:19 13.02.2021
2588 Clouds 17 1013 94 8000 3.09 160 10:44 13.02.2021
2589 Clouds 17 1013 94 8000 3.09 160 10:23 13.02.2021
2590 Clouds 17 1013 88 9000 3.6 160 09:52 13.02.2021
2591 Clouds 18 1013 88 9000 3.6 160 09:29 13.02.2021
2592 Clouds 18 1013 88 10000 2.57 170 08:54 13.02.2021
2593 Clouds 18 1013 88 10000 2.57 170 08:30 13.02.2021
2594 Clouds 18 1014 88 10000 2.06 140 07:45 13.02.2021
2595 Clouds 19 1014 88 10000 2.57 150 06:37 13.02.2021
2596 Clouds 19 1014 82 10000 3.09 160 05:19 13.02.2021
2597 Clear 20 1014 77 10000 5.66 150 03:46 13.02.2021
2598 Clouds 24 1014 53 7000 3.09 230 01:31 13.02.2021
2599 Clouds 25 1014 53 7000 3.09 230 00:23 13.02.2021
2600 Clouds 26 1014 47 7000 4.12 220 23:48 12.02.2021
2601 Clouds 26 1014 47 7000 4.12 220 23:20 12.02.2021
2602 Clouds 26 1014 44 7000 3.09 240 22:38 12.02.2021
2603 Clouds 27 1014 44 7000 3.09 240 22:18 12.02.2021
2604 Haze 26 1014 44 5000 3.6 220 21:42 12.02.2021
2605 Haze 26 1014 44 5000 3.6 220 21:23 12.02.2021
2606 Haze 26 1014 50 4000 2.57 200 20:45 12.02.2021
2607 Haze 26 1014 50 4000 2.57 200 20:26 12.02.2021
2608 Haze 26 1015 50 4000 2.57 200 19:55 12.02.2021
2609 Haze 26 1015 50 4000 2.57 200 19:30 12.02.2021
2610 Mist 25 1015 57 3000 2.57 210 18:44 12.02.2021
2611 Mist 25 1015 57 3000 2.57 210 18:25 12.02.2021
2612 Mist 23 1015 60 3000 2.57 210 17:43 12.02.2021
2613 Mist 22 1015 68 3000 2.06 210 16:56 12.02.2021
2614 Mist 22 1015 68 3000 2.06 210 16:21 12.02.2021
2615 Mist 21 1015 77 3000 1.03 240 15:44 12.02.2021
2616 Mist 21 1015 77 3000 1.03 240 15:20 12.02.2021
2617 Mist 20 1015 82 3000 1.54 240 14:39 12.02.2021
2618 Mist 20 1015 82 3000 1.7 254 13:58 12.02.2021
2619 Mist 18 1015 82 3000 1.7 254 13:40 12.02.2021
2620 Mist 18 1014 88 3000 1.03 240 12:55 12.02.2021
2621 Mist 18 1014 88 3000 1.03 240 12:36 12.02.2021
2622 Haze 18 1013 82 5000 1.54 320 11:49 12.02.2021
2623 Clouds 18 1013 82 7000 0.51 0 11:26 12.02.2021
2624 Clouds 18 1012 82 9000 2.06 340 10:52 12.02.2021
2625 Clouds 18 1012 82 9000 2.06 340 10:34 12.02.2021
2626 Clouds 18 1012 82 9000 1.54 30 09:44 12.02.2021
2627 Clouds 18 1012 82 10000 1.03 0 09:24 12.02.2021
2628 Clouds 18 1013 82 10000 1.03 0 08:48 12.02.2021
2629 Clouds 19 1013 82 10000 1.54 150 08:27 12.02.2021
2630 Clouds 18 1013 82 10000 1.54 170 07:53 12.02.2021
2631 Clouds 18 1013 82 10000 1.03 0 07:28 12.02.2021
2632 Clouds 18 1013 82 10000 2.06 150 06:55 12.02.2021
2633 Clouds 19 1014 82 10000 2.57 150 05:39 12.02.2021
2634 Clouds 20 1014 82 10000 3.6 160 03:48 12.02.2021
2635 Clouds 20 1015 73 7000 3.09 220 00:47 12.02.2021
2636 Clouds 22 1015 64 7000 3.09 210 23:40 11.02.2021
2637 Clouds 22 1015 64 7000 3.09 210 23:22 11.02.2021
2638 Clouds 23 1015 60 7000 3.6 240 22:45 11.02.2021
2639 Clouds 23 1015 60 7000 3.6 240 22:24 11.02.2021
2640 Clouds 23 1015 64 7000 2.57 0 21:46 11.02.2021
2641 Clouds 22 1015 64 7000 2.57 0 21:27 11.02.2021
2642 Clouds 23 1016 60 6000 3.09 0 20:59 11.02.2021
2643 Clouds 23 1016 60 6000 3.09 0 20:40 11.02.2021
2644 Clouds 23 1016 60 6000 3.09 0 20:21 11.02.2021
2645 Haze 23 1016 64 5000 3.09 210 19:47 11.02.2021
2646 Haze 23 1016 64 5000 3.09 210 19:27 11.02.2021
2647 Haze 22 1016 68 4000 2.57 230 18:47 11.02.2021
2648 Haze 22 1016 68 4000 2.57 230 18:25 11.02.2021
2649 Mist 21 1016 77 4000 2.57 200 17:50 11.02.2021
2650 Mist 20 1016 77 4000 2.57 200 17:22 11.02.2021
2651 Mist 20 1016 77 3000 3.6 250 16:49 11.02.2021
2652 Mist 21 1016 77 3000 3.6 250 16:30 11.02.2021
2653 Mist 19 1016 77 3000 2.06 0 15:49 11.02.2021
2654 Mist 20 1016 77 3000 2.06 0 15:29 11.02.2021
2655 Mist 19 1016 88 2000 1.54 230 14:58 11.02.2021
2656 Mist 19 1016 88 2000 1.54 230 14:32 11.02.2021
2657 Mist 19 1016 94 1500 2.05 251 13:45 11.02.2021
2658 Mist 17 1016 94 1500 1.44 246 13:21 11.02.2021
2659 Mist 17 1015 94 2000 1.44 246 12:58 11.02.2021
2660 Mist 18 1015 94 2000 1.44 246 12:37 11.02.2021
2661 Mist 17 1014 94 5000 3.6 160 11:58 11.02.2021
2662 Mist 17 1014 94 5000 3.6 160 11:40 11.02.2021
2663 Mist 17 1014 94 5000 3.6 160 11:20 11.02.2021
2664 Mist 18 1013 94 5000 4.12 160 10:42 11.02.2021
2665 Mist 18 1013 94 5000 4.12 160 10:22 11.02.2021
2666 Clouds 18 1013 94 6000 4.63 160 09:42 11.02.2021
2667 Clouds 18 1013 94 7000 4.63 160 09:19 11.02.2021
2668 Clouds 18 1013 94 7000 4.63 160 09:19 11.02.2021
2669 Clouds 19 1013 94 7000 4.12 160 08:49 11.02.2021
2670 Rain 19 1013 88 10000 3.09 170 07:54 11.02.2021
2671 Clouds 20 1013 82 10000 5.14 150 06:48 11.02.2021
2672 Clouds 20 1013 82 10000 5.14 150 06:29 11.02.2021
2673 Clear 21 1012 72 10000 6.17 160 03:48 11.02.2021
2674 Clear 22 1011 68 10000 6.69 150 02:28 11.02.2021
2675 Clouds 26 1012 47 10000 3.6 230 00:36 11.02.2021
2676 Clouds 27 1012 47 10000 3.6 230 00:18 11.02.2021
2677 Clouds 27 1012 47 10000 3.6 230 23:35 10.02.2021
2678 Clouds 27 1012 44 10000 3.6 230 22:49 10.02.2021
2679 Clouds 28 1012 44 10000 3.6 230 22:26 10.02.2021
2680 Clouds 29 1012 45 10000 4.12 230 21:41 10.02.2021
2681 Clouds 29 1012 45 10000 4.12 230 21:22 10.02.2021
2682 Clouds 29 1012 45 10000 3.6 270 20:59 10.02.2021
2683 Clouds 29 1012 45 10000 3.6 270 20:39 10.02.2021
2684 Clouds 29 1012 45 10000 3.6 270 20:19 10.02.2021
2685 Clear 28 1012 47 8000 3.6 230 19:43 10.02.2021
2686 Clear 28 1012 47 8000 3.6 230 19:21 10.02.2021
2687 Clear 28 1012 42 8000 2.57 0 18:39 10.02.2021
2688 Clear 28 1012 42 8000 2.57 0 18:18 10.02.2021
2689 Clear 27 1013 41 8000 2.06 0 17:49 10.02.2021
2690 Clear 27 1013 41 8000 2.06 0 17:21 10.02.2021
2691 Clear 26 1013 44 10000 1.54 0 16:49 10.02.2021
2692 Clear 26 1013 44 10000 1.54 0 16:29 10.02.2021
2693 Clear 25 1013 53 10000 1.03 220 15:44 10.02.2021
2694 Clear 23 1013 53 10000 1.03 220 15:21 10.02.2021
2695 Clear 23 1013 64 10000 2.41 251 14:41 10.02.2021
2696 Clear 22 1013 64 10000 1.85 253 14:18 10.02.2021
2697 Clear 23 1013 64 10000 1.85 253 13:40 10.02.2021
2698 Clear 21 1013 64 10000 0.87 240 13:21 10.02.2021
2699 Clear 18 1012 94 10000 0.77 242 12:44 10.02.2021
2700 Clear 17 1012 94 10000 0.53 216 12:26 10.02.2021
2701 Clear 18 1011 82 10000 1.54 170 11:41 10.02.2021
2702 Clear 18 1011 82 10000 1.54 170 11:23 10.02.2021
2703 Clear 18 1011 82 10000 2.06 180 10:43 10.02.2021
2704 Clear 18 1011 82 10000 2.06 180 10:19 10.02.2021
2705 Clear 18 1011 82 10000 1.03 0 09:43 10.02.2021
2706 Clear 18 1011 82 10000 1.03 0 09:21 10.02.2021
2707 Clear 19 1011 77 10000 0.4 222 08:43 10.02.2021
2708 Clouds 19 1011 82 10000 2.57 150 07:55 10.02.2021
2709 Clouds 19 1011 82 10000 2.57 150 07:18 10.02.2021
2710 Clouds 19 1011 82 10000 2.57 150 07:18 10.02.2021
2711 Clear 22 1012 68 10000 5.66 160 03:45 10.02.2021
2712 Clouds 26 1012 41 10000 3.6 260 00:51 10.02.2021
2713 Clouds 28 1012 37 10000 3.6 210 23:37 09.02.2021
2714 Clouds 29 1012 28 10000 4.12 240 22:56 09.02.2021
2715 Clouds 29 1012 28 10000 4.12 240 22:25 09.02.2021
2716 Clouds 30 1012 27 10000 3.09 0 21:54 09.02.2021
2717 Clouds 29 1012 27 10000 3.09 0 21:35 09.02.2021
2718 Clouds 30 1013 23 10000 3.09 0 20:59 09.02.2021
2719 Clouds 30 1013 23 10000 3.09 0 20:40 09.02.2021
2720 Clouds 30 1013 23 10000 3.09 0 20:20 09.02.2021
2721 Clouds 29 1013 23 10000 3.09 0 19:39 09.02.2021
2722 Clouds 29 1013 23 10000 3.09 0 19:18 09.02.2021
2723 Clear 28 1013 36 8000 1.54 240 18:41 09.02.2021
2724 Clear 27 1014 41 10000 2.06 210 17:58 09.02.2021
2725 Clear 27 1014 41 10000 2.06 210 17:40 09.02.2021
2726 Clear 26 1014 41 10000 2.06 210 17:22 09.02.2021
2727 Clear 25 1014 50 10000 1.54 240 16:47 09.02.2021
2728 Clear 24 1014 50 10000 1.54 240 16:19 09.02.2021
2729 Clear 24 1014 60 10000 1.03 210 15:50 09.02.2021
2730 Clear 22 1014 60 10000 1.03 210 15:27 09.02.2021
2731 Clear 22 1015 68 10000 2.13 260 14:56 09.02.2021
2732 Clear 20 1015 68 10000 1.4 255 14:28 09.02.2021
2733 Clear 20 1015 77 10000 1.4 255 13:53 09.02.2021
2734 Clear 18 1015 77 10000 0.86 247 13:29 09.02.2021
2735 Clear 18 1015 94 10000 0.8 248 12:57 09.02.2021
2736 Clear 18 1015 94 10000 0.8 248 12:38 09.02.2021
2737 Clear 14 1015 94 10000 0.3 263 12:20 09.02.2021
2738 Clear 15 1013 94 8000 2.57 350 11:41 09.02.2021
2739 Clear 15 1013 94 8000 2.57 350 11:20 09.02.2021
2740 Clear 16 1013 77 10000 0.51 0 10:50 09.02.2021
2741 Clear 16 1013 77 10000 0.51 0 10:19 09.02.2021
2742 Clear 16 1013 82 10000 2.57 150 09:43 09.02.2021
2743 Clear 16 1013 82 10000 2.57 150 09:25 09.02.2021
2744 Clear 16 1013 82 10000 2.06 170 08:51 09.02.2021
2745 Clear 16 1013 82 10000 2.06 170 08:27 09.02.2021
2746 Clear 17 1013 77 10000 1.54 170 07:29 09.02.2021
2747 Clear 18 1014 72 10000 3.09 140 04:55 09.02.2021
2748 Clear 19 1014 67 10000 3.6 150 03:42 09.02.2021
2749 Clear 22 1014 46 10000 3.6 250 00:44 09.02.2021
2750 Clear 25 1014 41 8000 3.09 260 23:57 08.02.2021
2751 Clear 26 1014 41 8000 3.09 260 23:22 08.02.2021
2752 Clouds 26 1014 39 8000 2.57 220 22:45 08.02.2021
2753 Clouds 26 1014 39 8000 2.57 220 22:26 08.02.2021
2754 Clear 26 1015 39 8000 2.57 220 21:58 08.02.2021
2755 Clear 26 1015 39 8000 2.57 220 21:36 08.02.2021
2756 Clear 26 1015 39 8000 2.57 220 21:18 08.02.2021
2757 Clear 25 1015 47 8000 3.09 210 20:42 08.02.2021
2758 Clear 25 1015 47 8000 3.09 210 20:21 08.02.2021
2759 Clear 25 1016 47 8000 3.09 200 19:45 08.02.2021
2760 Clouds 25 1016 47 8000 3.09 200 19:26 08.02.2021
2761 Clouds 24 1016 53 6000 3.09 240 18:49 08.02.2021
2762 Clouds 24 1016 53 6000 3.09 240 18:24 08.02.2021
2763 Clouds 24 1016 49 6000 3.09 270 17:47 08.02.2021
2764 Clouds 23 1016 49 6000 3.09 270 17:26 08.02.2021
2765 Clouds 23 1016 56 6000 2.06 0 16:47 08.02.2021
2766 Clouds 22 1016 56 6000 2.06 0 16:28 08.02.2021
2767 Clouds 21 1016 68 6000 1.54 210 15:56 08.02.2021
2768 Clouds 21 1016 68 6000 1.54 210 15:37 08.02.2021
2769 Clouds 20 1016 68 6000 1.54 210 15:18 08.02.2021
2770 Clouds 19 1016 77 6000 0.51 240 14:42 08.02.2021
2771 Clear 17 1016 77 6000 0.51 240 14:24 08.02.2021
2772 Clear 17 1016 82 6000 1.88 243 13:45 08.02.2021
2773 Clear 15 1016 82 6000 2.12 244 13:25 08.02.2021
2774 Clear 14 1016 82 10000 2.12 244 12:39 08.02.2021
2775 Clear 15 1014 82 10000 3.09 130 11:58 08.02.2021
2776 Clear 15 1014 82 10000 3.09 130 11:32 08.02.2021
2777 Clear 15 1014 82 10000 2.57 170 10:46 08.02.2021
2778 Clear 15 1014 82 10000 2.57 170 10:26 08.02.2021
2779 Clear 15 1014 82 10000 2.57 170 10:26 08.02.2021
2780 Clear 15 1013 82 10000 2.57 150 09:56 08.02.2021
2781 Clear 15 1013 82 10000 2.57 150 09:36 08.02.2021
2782 Clear 15 1013 82 10000 2.57 150 09:36 08.02.2021
2783 Clear 16 1013 77 10000 3.6 160 08:55 08.02.2021
2784 Clear 16 1013 77 10000 3.6 160 08:26 08.02.2021
2785 Clear 16 1013 82 10000 3.09 170 07:40 08.02.2021
2786 Clear 17 1013 77 10000 2.57 170 06:33 08.02.2021
2787 Clear 17 1014 72 10000 4.12 160 04:56 08.02.2021
2788 Clear 20 1013 63 10000 3.6 200 02:26 08.02.2021
2789 Clear 24 1014 46 8000 3.6 240 00:25 08.02.2021
2790 Clear 24 1014 44 8000 3.6 240 23:53 07.02.2021
2791 Clear 25 1014 44 8000 3.6 240 23:28 07.02.2021
2792 Clear 25 1014 44 7000 2.06 200 22:56 07.02.2021
2793 Clear 25 1014 44 7000 2.06 200 22:38 07.02.2021
2794 Clear 25 1014 44 7000 2.06 200 22:19 07.02.2021
2795 Clear 25 1014 47 7000 2.57 180 21:49 07.02.2021
2796 Clear 25 1014 47 7000 2.57 180 21:24 07.02.2021
2797 Clear 26 1015 44 6000 3.09 240 20:49 07.02.2021
2798 Clear 26 1015 44 6000 3.09 240 20:28 07.02.2021
2799 Haze 23 1016 60 4000 2.57 180 19:49 07.02.2021
2800 Haze 23 1016 60 4000 2.57 180 19:29 07.02.2021
2801 Haze 22 1017 64 3000 2.06 0 18:48 07.02.2021
2802 Haze 22 1017 64 3000 2.06 0 18:27 07.02.2021
2803 Haze 20 1017 72 3000 1.03 240 17:58 07.02.2021
2804 Haze 20 1017 72 3000 1.03 240 17:39 07.02.2021
2805 Haze 19 1017 72 3000 1.03 240 17:18 07.02.2021
2806 Mist 19 1017 82 2000 1.54 240 16:42 07.02.2021
2807 Mist 18 1017 82 2000 1.54 240 16:21 07.02.2021
2808 Mist 18 1017 88 2000 2.06 270 15:44 07.02.2021
2809 Mist 18 1017 88 2000 2.06 270 15:21 07.02.2021
2810 Mist 18 1017 88 2000 0.51 0 14:46 07.02.2021
2811 Mist 18 1017 88 2000 0.51 0 14:26 07.02.2021
2812 Mist 18 1016 88 1500 1.03 60 13:50 07.02.2021
2813 Mist 16 1016 88 1500 1.03 60 13:30 07.02.2021
2814 Mist 16 1016 100 2000 1.54 90 12:42 07.02.2021
2815 Mist 16 1016 100 2000 1.54 90 12:22 07.02.2021
2816 Clouds 17 1013 82 8000 3.09 210 11:45 07.02.2021
2817 Clouds 16 1013 82 8000 3.09 210 11:26 07.02.2021
2818 Clouds 16 1013 82 10000 2.06 160 10:42 07.02.2021
2819 Clouds 16 1013 82 10000 2.06 160 10:42 07.02.2021
2820 Clouds 16 1013 82 10000 2.06 160 10:22 07.02.2021
2821 Clouds 17 1012 88 9000 1.03 0 09:43 07.02.2021
2822 Clouds 17 1012 88 9000 1.03 0 09:21 07.02.2021
2823 Clouds 17 1012 82 9000 0.78 258 08:22 07.02.2021
2824 Clouds 17 1013 82 10000 0.77 249 06:34 07.02.2021
2825 Clouds 17 1013 82 10000 0.77 249 06:34 07.02.2021
2826 Clouds 17 1013 82 10000 2.06 150 05:56 07.02.2021
2827 Clear 18 1013 82 8000 4.12 160 03:39 07.02.2021
2828 Clear 20 1014 68 7000 3.09 260 01:24 07.02.2021
2829 Clear 21 1014 68 7000 3.09 260 00:32 07.02.2021
2830 Clear 23 1014 64 6000 3.09 240 23:44 06.02.2021
2831 Clear 23 1014 56 6000 3.6 240 22:40 06.02.2021
2832 Haze 23 1014 60 4000 3.6 220 21:39 06.02.2021
2833 Haze 23 1014 60 4000 3.6 220 21:21 06.02.2021
2834 Haze 23 1015 60 4000 3.6 230 20:50 06.02.2021
2835 Haze 23 1015 60 4000 3.6 230 20:25 06.02.2021
2836 Haze 23 1015 60 4000 3.09 220 19:56 06.02.2021
2837 Haze 22 1015 60 4000 3.09 220 19:30 06.02.2021
2838 Haze 21 1016 68 4000 2.57 240 18:47 06.02.2021
2839 Haze 21 1016 68 4000 2.57 240 18:28 06.02.2021
2840 Mist 18 1016 72 3000 2.57 240 17:46 06.02.2021
2841 Mist 20 1016 72 3000 2.57 240 17:22 06.02.2021
2842 Mist 17 1016 82 3000 1.54 0 16:59 06.02.2021
2843 Mist 19 1016 82 3000 1.54 0 16:37 06.02.2021
2844 Mist 18 1016 82 3000 1.54 0 16:19 06.02.2021
2845 Mist 18 1016 88 2000 1.54 240 15:41 06.02.2021
2846 Mist 18 1016 88 2000 1.54 240 15:20 06.02.2021
2847 Mist 17 1015 88 2000 2.41 249 14:45 06.02.2021
2848 Mist 17 1015 88 2000 2.13 253 14:24 06.02.2021
2849 Mist 17 1015 94 2000 2.13 253 13:48 06.02.2021
2850 Mist 16 1015 82 2000 1.4 253 12:57 06.02.2021
2851 Mist 16 1015 82 2000 0.84 246 12:21 06.02.2021
2852 Mist 15 1013 100 5000 3.6 150 11:47 06.02.2021
2853 Mist 16 1013 100 5000 3.6 150 11:22 06.02.2021
2854 Clouds 16 1013 94 6000 3.6 150 10:57 06.02.2021
2855 Clouds 16 1013 94 6000 3.6 150 10:30 06.02.2021
2856 Clouds 17 1012 94 6000 3.6 160 09:58 06.02.2021
2857 Clouds 17 1012 94 6000 3.6 160 09:37 06.02.2021
2858 Clouds 17 1012 94 6000 3.6 160 09:18 06.02.2021
2859 Clouds 16 1012 100 7000 4.63 160 08:33 06.02.2021
2860 Clear 17 1012 94 10000 3.6 170 08:00 06.02.2021
2861 Clear 19 1012 82 10000 4.12 160 05:44 06.02.2021
2862 Clear 20 1012 77 10000 4.12 160 03:58 06.02.2021
2863 Clear 22 1012 68 10000 4.63 160 01:58 06.02.2021
2864 Clear 23 1013 56 10000 2.57 230 00:48 06.02.2021
2865 Clear 23 1013 56 10000 2.57 230 00:48 06.02.2021
2866 Clear 25 1013 56 10000 2.57 230 00:19 06.02.2021
2867 Clear 25 1013 57 8000 2.57 230 23:44 05.02.2021
2868 Clear 26 1013 57 8000 2.57 230 23:26 05.02.2021
2869 Clear 26 1014 50 8000 3.09 230 22:47 05.02.2021
2870 Clear 25 1014 50 8000 3.09 230 22:23 05.02.2021
2871 Clear 25 1014 50 8000 3.6 200 21:47 05.02.2021
2872 Clear 25 1014 50 8000 3.6 200 21:28 05.02.2021
2873 Haze 24 1014 53 5000 3.09 220 20:47 05.02.2021
2874 Clear 25 1014 53 6000 3.09 270 19:53 05.02.2021
2875 Clear 24 1014 53 6000 3.09 270 19:20 05.02.2021
2876 Haze 24 1015 53 5000 2.06 240 18:54 05.02.2021
2877 Haze 24 1015 53 5000 2.06 240 18:28 05.02.2021
2878 Haze 22 1015 56 5000 2.57 0 17:45 05.02.2021
2879 Haze 22 1015 56 5000 2.57 0 17:24 05.02.2021
2880 Haze 20 1016 64 5000 3.09 250 16:50 05.02.2021
2881 Haze 21 1016 64 5000 3.09 250 16:24 05.02.2021
2882 Haze 20 1016 68 5000 2.06 0 15:57 05.02.2021
2883 Haze 20 1016 68 5000 2.06 0 15:27 05.02.2021
2884 Haze 18 1016 77 5000 1.54 0 14:55 05.02.2021
2885 Haze 18 1016 77 5000 1.54 0 14:36 05.02.2021
2886 Haze 18 1016 77 5000 1.54 0 14:18 05.02.2021
2887 Clear 16 1015 88 7000 1.54 220 13:38 05.02.2021
2888 Clouds 17 1015 72 10000 1.47 253 12:57 05.02.2021
2889 Clouds 17 1015 72 10000 1.47 253 12:38 05.02.2021
2890 Mist 17 1014 94 2000 2.57 140 11:42 05.02.2021
2891 Mist 17 1013 100 3000 3.6 140 11:22 05.02.2021
2892 Mist 17 1013 94 5000 3.6 140 10:59 05.02.2021
2893 Mist 17 1013 94 4200 4.12 160 10:28 05.02.2021
2894 Mist 18 1013 94 4600 4.63 160 09:57 05.02.2021
2895 Drizzle 18 1012 94 4100 5.14 160 09:39 05.02.2021
2896 Drizzle 18 1012 94 4100 5.14 160 09:20 05.02.2021
2897 Mist 19 1012 94 5000 3.6 170 08:29 05.02.2021
2898 Clear 19 1012 88 10000 3.09 150 07:39 05.02.2021
2899 Clear 20 1012 82 10000 4.12 170 06:58 05.02.2021
2900 Clear 20 1012 77 10000 4.63 170 05:39 05.02.2021
2901 Clear 21 1012 68 10000 4.63 160 04:50 05.02.2021
2902 Clear 24 1012 64 10000 6.17 150 02:25 05.02.2021
2903 Clear 27 1013 42 10000 2.57 240 00:41 05.02.2021
2904 Clear 27 1013 42 10000 2.57 240 00:21 05.02.2021
2905 Clear 28 1013 37 10000 3.6 240 23:59 04.02.2021
2906 Clear 29 1013 37 10000 3.6 240 23:40 04.02.2021
2907 Clear 29 1013 37 10000 3.6 240 23:21 04.02.2021
2908 Clear 29 1013 33 10000 3.6 240 22:52 04.02.2021
2909 Clear 29 1013 33 10000 3.6 240 22:28 04.02.2021
2910 Clear 30 1013 31 10000 3.6 240 21:42 04.02.2021
2911 Clear 30 1013 31 10000 3.6 240 21:22 04.02.2021
2912 Clear 30 1013 29 10000 4.12 270 20:53 04.02.2021
2913 Clear 30 1013 29 10000 4.12 270 20:34 04.02.2021
2914 Clear 30 1014 29 10000 4.12 240 19:48 04.02.2021
2915 Clear 30 1014 29 10000 4.12 240 19:21 04.02.2021
2916 Clouds 30 1014 35 8000 3.09 230 18:39 04.02.2021
2917 Clouds 29 1014 35 8000 3.09 230 18:20 04.02.2021
2918 Clear 28 1014 26 10000 2.06 190 17:44 04.02.2021
2919 Clear 28 1014 26 10000 2.06 190 17:20 04.02.2021
2920 Clear 27 1014 28 10000 1.03 210 16:46 04.02.2021
2921 Clear 27 1014 28 10000 1.03 210 16:19 04.02.2021
2922 Clear 26 1014 31 10000 1.54 210 15:40 04.02.2021
2923 Clear 26 1014 31 10000 1.54 210 15:21 04.02.2021
2924 Clear 23 1014 43 10000 2.39 256 14:55 04.02.2021
2925 Clear 23 1014 43 10000 2.39 256 14:37 04.02.2021
2926 Clear 23 1014 43 10000 1.53 262 14:18 04.02.2021
2927 Clear 21 1014 68 10000 1.03 120 13:41 04.02.2021
2928 Clear 18 1013 88 10000 0.39 20 12:57 04.02.2021
2929 Clear 18 1013 88 10000 0.99 67 12:21 04.02.2021
2930 Clear 20 1012 82 10000 0.99 67 11:42 04.02.2021
2931 Clear 18 1012 82 10000 0.92 87 11:24 04.02.2021
2932 Clouds 19 1011 82 10000 1.54 290 10:43 04.02.2021
2933 Clouds 19 1012 77 10000 2.06 150 09:56 04.02.2021
2934 Clouds 19 1012 77 10000 2.06 150 09:37 04.02.2021
2935 Clouds 19 1012 77 10000 2.06 150 09:18 04.02.2021
2936 Clouds 20 1012 72 10000 0.53 96 08:37 04.02.2021
2937 Clouds 20 1012 72 10000 0.43 112 08:18 04.02.2021
2938 Clouds 21 1012 64 10000 1.03 230 07:38 04.02.2021
2939 Clear 21 1012 64 10000 2.06 130 06:55 04.02.2021
2940 Clear 21 1012 64 10000 2.06 130 06:35 04.02.2021
2941 Clear 24 1012 50 10000 2.57 150 03:53 04.02.2021
2942 Clear 25 1012 47 10000 3.6 150 02:25 04.02.2021
2943 Clear 30 1013 15 10000 2.06 210 00:35 04.02.2021
2944 Clear 30 1013 16 10000 3.09 200 23:40 03.02.2021
2945 Clear 31 1013 18 10000 3.09 210 22:44 03.02.2021
2946 Clear 31 1013 18 10000 3.09 210 22:22 03.02.2021
2947 Clear 31 1014 18 10000 3.09 210 21:58 03.02.2021
2948 Clear 30 1014 18 10000 3.09 210 21:37 03.02.2021
2949 Clear 30 1014 18 10000 3.09 210 21:18 03.02.2021
2950 Clear 30 1014 51 10000 2.57 230 20:43 03.02.2021
2951 Clear 30 1014 51 10000 2.57 230 20:24 03.02.2021
2952 Clear 29 1015 20 10000 2.06 0 19:43 03.02.2021
2953 Clear 29 1015 20 10000 2.06 0 19:21 03.02.2021
2954 Clear 28 1015 34 10000 2.06 230 18:48 03.02.2021
2955 Clear 28 1015 34 10000 2.06 230 18:20 03.02.2021
2956 Clear 27 1016 41 10000 2.06 200 17:52 03.02.2021
2957 Clear 26 1016 41 10000 2.06 200 17:31 03.02.2021
2958 Clear 25 1016 43 10000 1.54 270 16:57 03.02.2021
2959 Clear 23 1016 43 10000 1.54 270 16:30 03.02.2021
2960 Clear 23 1016 53 10000 1.03 180 15:46 03.02.2021
2961 Clear 22 1016 53 10000 1.03 180 15:26 03.02.2021
2962 Clear 20 1016 56 10000 1.03 90 14:54 03.02.2021
2963 Clear 20 1016 56 10000 1.03 90 14:30 03.02.2021
2964 Clear 20 1016 72 10000 1.46 242 13:56 03.02.2021
2965 Clear 17 1016 72 10000 0.78 210 13:29 03.02.2021
2966 Clear 15 1016 94 10000 1.03 350 12:52 03.02.2021
2967 Clear 14 1016 94 10000 1.03 350 12:29 03.02.2021
2968 Clear 15 1014 87 10000 1.03 300 11:59 03.02.2021
2969 Clear 15 1014 87 10000 1.03 300 11:37 03.02.2021
2970 Clouds 15 1014 82 10000 1.03 0 10:59 03.02.2021
2971 Clouds 16 1014 82 10000 1.03 0 10:23 03.02.2021
2972 Clear 16 1014 82 10000 2.57 170 09:51 03.02.2021
2973 Clear 15 1014 82 10000 2.57 170 09:32 03.02.2021
2974 Clear 16 1014 82 10000 0.51 0 08:55 03.02.2021
2975 Clear 15 1014 82 10000 0.51 0 08:36 03.02.2021
2976 Clear 16 1014 77 10000 2.06 170 07:43 03.02.2021
2977 Clear 17 1015 77 10000 3.09 150 06:42 03.02.2021
2978 Clear 18 1014 59 10000 2.57 160 04:55 03.02.2021
2979 Clear 18 1014 59 10000 2.57 160 04:34 03.02.2021
2980 Clear 18 1015 55 10000 3.6 160 03:48 03.02.2021
2981 Clear 19 1015 42 10000 5.14 200 02:37 03.02.2021
2982 Clouds 21 1015 43 10000 3.6 240 01:21 03.02.2021
2983 Clouds 24 1015 43 10000 3.6 240 00:23 03.02.2021
2984 Clouds 24 1014 43 10000 4.63 240 23:41 02.02.2021
2985 Clouds 24 1014 43 10000 4.63 240 23:41 02.02.2021
2986 Clouds 25 1014 43 10000 4.63 240 23:22 02.02.2021
2987 Clouds 25 1014 41 10000 3.6 230 22:39 02.02.2021
2988 Clouds 25 1014 41 10000 3.6 230 22:19 02.02.2021
2989 Clouds 25 1014 36 10000 3.6 250 21:44 02.02.2021
2990 Clouds 25 1014 36 10000 3.6 250 21:23 02.02.2021
2991 Clouds 25 1014 41 8000 4.12 240 20:48 02.02.2021
2992 Clouds 25 1014 41 8000 4.12 240 20:21 02.02.2021
2993 Clouds 24 1014 46 8000 3.09 210 19:50 02.02.2021
2994 Clouds 24 1014 46 8000 3.09 210 19:32 02.02.2021
2995 Clouds 24 1015 49 10000 2.57 250 18:54 02.02.2021
2996 Clouds 24 1015 49 10000 2.57 250 18:36 02.02.2021
2997 Clouds 23 1015 49 10000 2.57 250 18:18 02.02.2021
2998 Haze 22 1015 56 5000 1.54 210 17:37 02.02.2021
2999 Haze 22 1015 56 5000 1.54 210 17:19 02.02.2021
3000 Clouds 22 1015 60 6000 2.06 240 16:43 02.02.2021
3001 Clouds 20 1015 60 6000 2.06 240 16:24 02.02.2021
3002 Clouds 20 1015 68 6000 1.54 240 15:42 02.02.2021
3003 Clouds 19 1015 68 6000 1.54 240 15:23 02.02.2021
3004 Haze 18 1015 88 5000 1.54 160 14:50 02.02.2021
3005 Haze 18 1015 88 5000 1.54 160 14:31 02.02.2021
3006 Fog 17 1015 100 800 1.75 252 13:56 02.02.2021
3007 Fog 17 1015 100 800 1.75 252 13:37 02.02.2021
3008 Fog 15 1015 100 800 1.6 255 13:19 02.02.2021
3009 Fog 14 1014 100 500 1.5 251 12:41 02.02.2021
3010 Mist 14 1012 100 5000 2.57 150 11:45 02.02.2021
3011 Mist 14 1012 100 5000 2.57 150 11:22 02.02.2021
3012 Mist 14 1012 100 4000 2.57 150 10:55 02.02.2021
3013 Mist 14 1012 100 4000 2.57 150 10:27 02.02.2021
3014 Mist 15 1012 100 3800 2.57 150 09:47 02.02.2021
3015 Mist 15 1012 100 3800 2.57 150 09:26 02.02.2021
3016 Mist 15 1012 100 1000 3.09 160 08:55 02.02.2021
3017 Fog 15 1012 100 900 3.6 170 08:28 02.02.2021
3018 Clear 15 1012 94 10000 2.57 160 07:37 02.02.2021
3019 Clear 16 1012 88 10000 2.57 150 06:43 02.02.2021
3020 Clouds 17 1013 88 10000 4.12 160 05:53 02.02.2021
3021 Clouds 17 1013 82 10000 3.6 150 04:57 02.02.2021
3022 Clouds 18 1012 63 10000 6.17 200 02:44 02.02.2021
3023 Clouds 18 1012 63 10000 6.17 200 02:23 02.02.2021
3024 Clouds 21 1013 49 10000 3.6 240 00:36 02.02.2021
3025 Clouds 24 1013 46 10000 3.6 210 23:30 01.02.2021
3026 Clouds 24 1013 43 10000 3.09 0 22:51 01.02.2021
3027 Clouds 24 1013 43 10000 3.09 0 22:33 01.02.2021
3028 Clouds 24 1013 46 10000 3.09 210 21:53 01.02.2021
3029 Clouds 23 1013 46 10000 3.09 210 21:34 01.02.2021
3030 Clouds 24 1014 46 10000 2.57 210 20:57 01.02.2021
3031 Clouds 23 1014 46 10000 2.57 210 20:38 01.02.2021
3032 Clouds 23 1014 46 10000 2.57 210 20:19 01.02.2021
3033 Clouds 23 1014 56 8000 2.06 210 19:39 01.02.2021
3034 Clouds 22 1014 56 8000 2.06 210 19:20 01.02.2021
3035 Clouds 22 1014 60 8000 1.54 0 18:49 01.02.2021
3036 Clouds 22 1014 60 8000 1.54 0 18:27 01.02.2021
3037 Clouds 21 1015 63 8000 3.52 255 17:47 01.02.2021
3038 Clouds 21 1015 63 8000 3.21 257 17:24 01.02.2021
3039 Clouds 20 1015 72 10000 1.54 0 16:56 01.02.2021
3040 Clouds 19 1015 72 10000 1.54 0 16:29 01.02.2021
3041 Clouds 19 1015 72 10000 2.06 250 15:44 01.02.2021
3042 Clouds 19 1015 72 10000 2.06 250 15:19 01.02.2021
3043 Haze 18 1014 88 5000 2.44 252 14:52 01.02.2021
3044 Haze 16 1014 88 5000 2.44 252 14:33 01.02.2021
3045 Mist 16 1014 94 4000 1.03 240 13:50 01.02.2021
3046 Mist 14 1014 94 4000 1.03 240 13:27 01.02.2021
3047 Clouds 15 1014 77 10000 1.74 248 12:56 01.02.2021
3048 Clouds 15 1014 77 10000 1.74 248 12:37 01.02.2021
3049 Clouds 16 1014 77 10000 1.02 244 12:19 01.02.2021
3050 Mist 15 1013 100 5000 3.09 150 11:39 01.02.2021
3051 Mist 15 1013 100 2000 4.12 150 11:18 01.02.2021
3052 Fog 14 1012 100 8000 2.57 170 10:42 01.02.2021
3053 Fog 14 1012 100 8000 2.57 170 10:19 01.02.2021
3054 Clear 15 1012 88 10000 1.54 150 09:43 01.02.2021
3055 Clouds 16 1013 94 10000 2.06 170 08:58 01.02.2021
3056 Clouds 16 1013 94 10000 2.06 170 08:27 01.02.2021
3057 Clouds 16 1013 88 10000 2.57 140 07:36 01.02.2021
3058 Clear 17 1014 77 10000 4.12 150 05:46 01.02.2021
3059 Clouds 18 1014 72 10000 6.17 200 02:41 01.02.2021
3060 Clouds 22 1014 53 10000 5.14 230 00:27 01.02.2021
3061 Clouds 23 1013 50 10000 5.14 200 23:40 31.01.2021
3062 Clouds 24 1013 47 10000 4.12 200 22:42 31.01.2021
3063 Clouds 24 1013 47 10000 4.12 200 22:23 31.01.2021
3064 Clouds 24 1014 47 10000 2.57 180 21:49 31.01.2021
3065 Clouds 24 1014 47 10000 2.57 180 21:22 31.01.2021
3066 Clouds 23 1015 43 10000 2.06 240 20:46 31.01.2021
3067 Clouds 23 1015 43 10000 2.06 240 20:21 31.01.2021
3068 Clouds 23 1015 56 10000 2.06 150 19:43 31.01.2021
3069 Clouds 23 1015 56 10000 2.06 150 19:24 31.01.2021
3070 Clouds 23 1015 56 10000 2.06 150 19:24 31.01.2021
3071 Clouds 22 1016 72 10000 1.54 280 18:58 31.01.2021
3072 Clouds 22 1016 72 10000 1.54 280 18:40 31.01.2021
3073 Clouds 22 1016 72 10000 1.54 280 18:20 31.01.2021
3074 Clouds 21 1017 77 10000 3.14 257 17:45 31.01.2021
3075 Clouds 21 1017 77 10000 3.1 261 17:23 31.01.2021
3076 Clouds 21 1017 68 10000 2.06 210 16:47 31.01.2021
3077 Clouds 20 1017 68 10000 2.06 210 16:28 31.01.2021
3078 Clouds 20 1013 68 10000 1.54 180 15:52 31.01.2021
3079 Clouds 19 1013 68 10000 1.54 180 15:34 31.01.2021
3080 Clouds 20 1016 82 10000 2.06 210 14:42 31.01.2021
3081 Clouds 19 1016 82 10000 2.06 210 14:24 31.01.2021
3082 Clouds 19 1015 72 10000 0.51 240 13:53 31.01.2021
3083 Clouds 19 1015 72 10000 0.51 240 13:34 31.01.2021
3084 Clouds 17 1015 88 10000 0.23 285 12:49 31.01.2021
3085 Clouds 16 1015 88 10000 0.69 24 12:22 31.01.2021
3086 Clouds 17 1013 88 10000 2.57 190 11:44 31.01.2021
3087 Clouds 17 1013 88 10000 2.57 190 11:25 31.01.2021
3088 Clouds 17 1013 94 10000 2.57 170 10:57 31.01.2021
3089 Clouds 17 1013 94 10000 2.57 170 10:35 31.01.2021
3090 Clouds 17 1013 94 10000 3.09 170 09:51 31.01.2021
3091 Clouds 17 1013 94 10000 3.09 170 09:25 31.01.2021
3092 Clouds 17 1013 94 10000 3.09 140 08:33 31.01.2021
3093 Clouds 18 1013 88 10000 3.6 150 06:58 31.01.2021
3094 Clouds 18 1014 88 10000 3.6 210 05:40 31.01.2021
3095 Clouds 20 1015 100 5000 2.01 265 00:47 31.01.2021
3096 Clouds 20 1015 100 5000 2.05 264 00:22 31.01.2021
3097 Clouds 21 1014 94 5000 1.03 0 23:34 30.01.2021
3098 Clouds 21 1014 88 10000 3.03 251 22:57 30.01.2021
3099 Clouds 21 1014 88 10000 3.03 251 22:30 30.01.2021
3100 Clouds 21 1014 88 10000 3.03 251 22:30 30.01.2021
3101 Clouds 22 1014 68 10000 3.41 252 21:42 30.01.2021
3102 Clouds 22 1014 68 10000 3.06 259 21:23 30.01.2021
3103 Clouds 23 1014 56 10000 2.06 100 20:48 30.01.2021
3104 Clouds 23 1014 56 10000 2.06 100 20:29 30.01.2021
3105 Clouds 23 1014 56 10000 1.03 230 19:46 30.01.2021
3106 Clouds 23 1014 56 10000 1.03 230 19:27 30.01.2021
3107 Clouds 24 1014 47 10000 1.03 250 18:55 30.01.2021
3108 Clouds 25 1014 47 10000 1.03 250 18:36 30.01.2021
3109 Clouds 25 1014 47 10000 1.03 250 18:18 30.01.2021
3110 Clouds 22 1015 46 10000 1.54 180 17:21 30.01.2021
3111 Clouds 23 1015 26 10000 1.03 170 16:48 30.01.2021
3112 Clouds 20 1015 26 10000 1.03 170 16:25 30.01.2021
3113 Clouds 19 1015 72 9000 1.03 180 15:59 30.01.2021
3114 Clouds 21 1015 72 9000 1.03 180 15:40 30.01.2021
3115 Clouds 19 1015 72 9000 1.03 180 15:21 30.01.2021
3116 Clouds 20 1015 82 10000 1.03 100 14:52 30.01.2021
3117 Clouds 19 1015 82 10000 1.03 100 14:22 30.01.2021
3118 Clouds 18 1016 94 9000 1.47 351 13:35 30.01.2021
3119 Clouds 18 1016 94 9000 1.47 351 13:35 30.01.2021
3120 Haze 17 1016 94 5000 1.54 150 12:53 30.01.2021
3121 Haze 17 1016 94 5000 1.54 150 12:33 30.01.2021
3122 Clouds 17 1014 94 10000 2.06 20 11:59 30.01.2021
3123 Clouds 15 1014 94 10000 2.06 20 11:31 30.01.2021
3124 Clouds 15 1014 94 10000 4.12 50 10:49 30.01.2021
3125 Clouds 16 1014 94 7000 2.06 10 09:52 30.01.2021
3126 Clouds 15 1014 94 7000 2.06 10 09:31 30.01.2021
3127 Clouds 17 1014 94 10000 3.09 310 08:49 30.01.2021
3128 Rain 17 1014 94 10000 3.09 310 08:30 30.01.2021
3129 Clouds 16 1014 94 5000 3.09 30 06:58 30.01.2021
3130 Clouds 15 1015 94 7000 1.03 0 06:19 30.01.2021
3131 Clouds 16 1016 100 7000 3.09 170 03:35 30.01.2021
3132 Clouds 17 1015 94 8000 4.63 170 02:25 30.01.2021
3133 Clouds 18 1015 72 8000 3.6 210 01:31 30.01.2021
3134 Rain 18 1015 72 8000 3.6 210 00:47 30.01.2021
3135 Rain 18 1015 72 8000 3.6 210 00:21 30.01.2021
3136 Clouds 20 1013 56 8000 2.57 180 23:49 29.01.2021
3137 Clouds 20 1013 56 8000 2.57 180 23:24 29.01.2021
3138 Clouds 20 1013 63 8000 2.06 210 22:45 29.01.2021
3139 Clouds 21 1013 63 8000 2.06 210 22:20 29.01.2021
3140 Clouds 21 1013 56 8000 2.06 210 21:37 29.01.2021
3141 Clouds 22 1013 56 8000 2.06 210 21:19 29.01.2021
3142 Clouds 23 1013 46 10000 0.51 30 20:41 29.01.2021
3143 Clouds 22 1013 46 10000 0.51 30 20:21 29.01.2021
3144 Clouds 22 1013 46 10000 2.32 172 19:38 29.01.2021
3145 Clouds 23 1013 46 10000 2.5 242 19:19 29.01.2021
3146 Clouds 23 1014 49 10000 1.03 230 18:42 29.01.2021
3147 Clouds 22 1014 52 10000 1.54 240 17:45 29.01.2021
3148 Clouds 22 1014 52 10000 1.54 240 17:22 29.01.2021
3149 Clouds 22 1015 55 8000 2.06 170 16:47 29.01.2021
3150 Clouds 22 1015 55 8000 2.06 170 16:24 29.01.2021
3151 Clouds 21 1015 55 10000 1.54 180 15:51 29.01.2021
3152 Clouds 21 1015 55 10000 1.54 180 15:31 29.01.2021
3153 Clouds 21 1015 59 10000 2.14 251 14:48 29.01.2021
3154 Clouds 20 1015 59 10000 1.2 268 14:18 29.01.2021
3155 Clouds 19 1015 63 10000 1.03 240 13:44 29.01.2021
3156 Clouds 19 1015 63 10000 1.03 240 13:26 29.01.2021
3157 Clouds 19 1015 63 10000 1.54 90 12:29 29.01.2021
3158 Clouds 19 1013 59 10000 2.57 160 11:51 29.01.2021
3159 Clouds 19 1013 59 10000 2.57 160 11:20 29.01.2021
3160 Clouds 19 1013 59 10000 2.57 160 10:53 29.01.2021
3161 Clouds 19 1013 59 10000 2.57 160 10:35 29.01.2021
3162 Clouds 20 1012 59 10000 3.09 140 09:50 29.01.2021
3163 Clouds 20 1012 59 10000 3.09 140 09:28 29.01.2021
3164 Clouds 19 1012 59 10000 2.57 160 08:47 29.01.2021
3165 Clouds 20 1012 59 10000 2.57 160 08:25 29.01.2021
3166 Clouds 19 1013 55 10000 3.6 160 07:42 29.01.2021
3167 Clouds 20 1013 55 10000 3.6 160 07:22 29.01.2021
3168 Clouds 21 1013 52 10000 3.09 140 06:29 29.01.2021
3169 Clouds 22 1013 40 10000 5.14 190 03:52 29.01.2021
3170 Clouds 24 1013 36 10000 3.09 210 00:46 29.01.2021
3171 Clouds 25 1013 36 10000 3.09 210 00:22 29.01.2021
3172 Clouds 26 1012 29 10000 3.09 220 23:47 28.01.2021
3173 Clouds 26 1012 29 10000 3.09 220 23:27 28.01.2021
3174 Clouds 26 1012 24 10000 4.12 190 22:57 28.01.2021
3175 Clouds 26 1012 24 10000 4.12 190 22:38 28.01.2021
3176 Clouds 27 1012 24 10000 4.12 190 22:18 28.01.2021
3177 Clouds 27 1012 22 10000 3.6 240 21:41 28.01.2021
3178 Clouds 27 1012 22 10000 3.6 240 21:20 28.01.2021
3179 Clouds 28 1012 24 8000 3.6 220 20:40 28.01.2021
3180 Clouds 28 1012 24 8000 3.6 220 20:19 28.01.2021
3181 Clouds 28 1012 28 8000 2.06 120 19:48 28.01.2021
3182 Clouds 29 1012 28 8000 2.06 120 19:27 28.01.2021
3183 Clear 28 1013 29 10000 3.6 240 18:49 28.01.2021
3184 Clear 28 1013 29 10000 3.6 240 18:29 28.01.2021
3185 Clear 27 1013 31 10000 3.09 230 17:48 28.01.2021
3186 Clear 27 1013 31 10000 3.09 230 17:48 28.01.2021
3187 Clear 27 1013 31 10000 3.09 230 17:30 28.01.2021
3188 Clear 26 1013 38 10000 1.54 180 16:47 28.01.2021
3189 Clear 25 1013 38 10000 1.54 180 16:28 28.01.2021
3190 Clear 25 1013 40 10000 1.03 270 15:59 28.01.2021
3191 Clear 23 1013 40 10000 1.03 270 15:24 28.01.2021
3192 Clear 23 1013 46 10000 1.54 180 14:44 28.01.2021
3193 Clear 23 1013 46 10000 1.54 180 14:44 28.01.2021
3194 Clear 21 1013 46 10000 1.54 180 14:23 28.01.2021
3195 Clear 21 1013 55 10000 1.03 180 13:55 28.01.2021
3196 Clear 19 1013 55 10000 1.03 180 13:23 28.01.2021
3197 Clear 17 1012 72 10000 1.53 248 12:49 28.01.2021
3198 Clear 17 1012 72 10000 0.52 270 12:26 28.01.2021
3199 Clear 18 1011 55 10000 0.52 270 11:44 28.01.2021
3200 Clear 18 1011 55 10000 0.61 46 11:22 28.01.2021
3201 Clouds 18 1011 59 10000 1.03 0 10:57 28.01.2021
3202 Clouds 18 1011 59 10000 1.03 0 10:39 28.01.2021
3203 Clouds 18 1011 59 10000 1.03 0 10:20 28.01.2021
3204 Clouds 19 1011 59 10000 0.51 300 09:36 28.01.2021
3205 Clouds 18 1011 59 10000 0.51 300 09:18 28.01.2021
3206 Clouds 18 1011 55 10000 0.67 254 08:40 28.01.2021
3207 Clouds 20 1011 48 10000 2.06 150 07:49 28.01.2021
3208 Clouds 20 1011 48 10000 2.06 150 07:18 28.01.2021
3209 Clouds 20 1012 48 10000 2.57 160 06:46 28.01.2021
3210 Clouds 22 1012 40 10000 3.09 150 04:30 28.01.2021
3211 Clear 24 1012 35 10000 5.66 190 02:33 28.01.2021
3212 Clear 27 1013 32 10000 3.6 240 00:35 28.01.2021
3213 Clear 29 1012 28 10000 3.6 240 23:25 27.01.2021
3214 Clear 30 1013 23 10000 3.6 210 22:44 27.01.2021
3215 Clear 30 1013 23 10000 3.6 210 22:26 27.01.2021
3216 Clear 30 1013 23 10000 3.6 210 22:26 27.01.2021
3217 Clear 30 1013 28 10000 3.6 240 21:59 27.01.2021
3218 Clear 29 1013 28 10000 3.6 240 21:40 27.01.2021
3219 Clear 29 1013 28 10000 3.6 240 21:40 27.01.2021
3220 Clear 29 1013 28 10000 3.6 240 21:22 27.01.2021
3221 Clouds 29 1014 28 10000 4.63 210 20:41 27.01.2021
3222 Clear 29 1014 32 10000 3.6 240 19:59 27.01.2021
3223 Clear 29 1014 32 10000 3.6 240 19:41 27.01.2021
3224 Clear 29 1014 32 10000 3.6 240 19:20 27.01.2021
3225 Clouds 28 1015 30 10000 1.54 180 18:43 27.01.2021
3226 Clouds 28 1015 30 10000 1.54 180 18:23 27.01.2021
3227 Clear 27 1015 34 10000 2.06 190 17:46 27.01.2021
3228 Clear 26 1015 34 10000 2.06 190 17:26 27.01.2021
3229 Clear 25 1015 38 10000 2.06 270 16:48 27.01.2021
3230 Clear 24 1015 38 10000 2.06 270 16:28 27.01.2021
3231 Clear 24 1016 37 10000 1.54 210 15:51 27.01.2021
3232 Clear 22 1016 37 10000 1.54 210 15:32 27.01.2021
3233 Clear 22 1016 45 10000 2.53 246 14:45 27.01.2021
3234 Clear 20 1016 45 10000 2.38 248 14:22 27.01.2021
3235 Clear 19 1016 59 10000 2.38 248 13:48 27.01.2021
3236 Clear 17 1016 59 10000 1.64 250 13:19 27.01.2021
3237 Clear 16 1016 63 10000 1.64 250 12:40 27.01.2021
3238 Clear 16 1016 63 10000 0.52 242 12:21 27.01.2021
3239 Clear 17 1014 67 10000 3.09 160 11:44 27.01.2021
3240 Clear 17 1014 67 10000 3.09 160 11:22 27.01.2021
3241 Clear 17 1014 67 10000 3.09 160 11:22 27.01.2021
3242 Clouds 17 1014 67 10000 3.09 160 10:40 27.01.2021
3243 Clouds 17 1014 67 10000 3.09 160 10:21 27.01.2021
3244 Clear 17 1014 67 10000 3.09 170 09:47 27.01.2021
3245 Clear 18 1014 58 10000 1.54 140 08:59 27.01.2021
3246 Clear 18 1014 58 10000 1.54 140 08:31 27.01.2021
3247 Clear 18 1015 58 10000 0.68 243 07:43 27.01.2021
3248 Clear 18 1015 58 10000 0.51 245 07:19 27.01.2021
3249 Clouds 18 1015 55 10000 3.09 160 06:19 27.01.2021
3250 Clouds 19 1016 51 10000 4.12 160 05:43 27.01.2021
3251 Clear 20 1015 48 10000 6.17 160 03:34 27.01.2021
3252 Clear 21 1015 49 10000 5.66 150 02:23 27.01.2021
3253 Clear 21 1014 46 10000 6.69 200 01:49 27.01.2021
3254 Clear 26 1015 34 10000 2.06 230 00:33 27.01.2021
3255 Clear 27 1014 29 10000 4.12 240 23:49 26.01.2021
3256 Clear 28 1014 29 10000 4.12 240 23:28 26.01.2021
3257 Clouds 28 1014 37 10000 5.14 250 22:50 26.01.2021
3258 Clouds 29 1014 37 10000 5.14 250 22:23 26.01.2021
3259 Clear 29 1012 23 10000 7.72 210 21:54 26.01.2021
3260 Clouds 30 1014 37 10000 3.6 240 21:34 26.01.2021
3261 Clouds 30 1014 37 10000 3.6 240 20:58 26.01.2021
3262 Clouds 30 1014 37 10000 3.6 240 20:39 26.01.2021
3263 Clouds 30 1014 37 10000 3.6 240 20:21 26.01.2021
3264 Clouds 29 1014 36 10000 3.09 210 19:45 26.01.2021
3265 Clouds 28 1014 36 10000 3.09 210 19:20 26.01.2021
3266 Clouds 28 1015 36 10000 4.12 210 18:47 26.01.2021
3267 Clouds 28 1015 36 10000 4.12 210 18:27 26.01.2021
3268 Clouds 27 1015 41 8000 2.57 240 17:52 26.01.2021
3269 Clouds 27 1015 41 8000 2.57 240 17:33 26.01.2021
3270 Clouds 26 1015 44 8000 2.57 270 16:56 26.01.2021
3271 Clouds 26 1015 44 8000 2.57 270 16:37 26.01.2021
3272 Clouds 25 1015 44 8000 2.57 270 16:18 26.01.2021
3273 Clouds 25 1015 49 8000 3.09 190 15:44 26.01.2021
3274 Clouds 23 1015 49 8000 3.09 190 15:24 26.01.2021
3275 Clouds 23 1015 56 10000 2.06 150 14:43 26.01.2021
3276 Clouds 21 1015 56 10000 2.06 150 14:25 26.01.2021
3277 Clouds 19 1014 68 10000 2.5 247 13:34 26.01.2021
3278 Clouds 18 1014 67 10000 1.03 250 12:57 26.01.2021
3279 Clouds 18 1014 67 10000 1.03 250 12:38 26.01.2021
3280 Clouds 18 1014 67 10000 1.03 250 12:19 26.01.2021
3281 Clear 18 1012 72 10000 0.66 272 11:50 26.01.2021
3282 Clear 18 1012 72 10000 0.57 284 11:19 26.01.2021
3283 Clear 18 1012 72 10000 2.06 160 10:42 26.01.2021
3284 Clear 18 1012 72 10000 2.06 160 10:21 26.01.2021
3285 Clear 19 1012 67 10000 4.63 170 09:40 26.01.2021
3286 Clear 19 1012 67 10000 4.63 170 09:21 26.01.2021
3287 Clear 17 1011 63 10000 4.63 180 08:48 26.01.2021
3288 Clear 20 1011 63 10000 4.63 180 08:18 26.01.2021
3289 Clear 20 1012 67 10000 4.63 160 07:19 26.01.2021
3290 Clear 20 1012 63 10000 5.14 150 05:53 26.01.2021
3291 Clear 21 1012 63 10000 5.14 150 05:34 26.01.2021
3292 Clear 22 1012 49 10000 5.66 140 03:39 26.01.2021
3293 Clouds 26 1012 42 10000 3.6 240 01:35 26.01.2021
3294 Clouds 28 1012 42 10000 3.6 240 00:36 26.01.2021
3295 Clouds 29 1012 39 10000 4.12 240 23:33 25.01.2021
3296 Clouds 30 1021 32 8000 4.12 240 22:51 25.01.2021
3297 Clouds 30 1021 32 8000 4.12 240 22:33 25.01.2021
3298 Clouds 30 1012 28 8000 4.12 250 21:48 25.01.2021
3299 Clouds 30 1012 28 8000 4.12 250 21:22 25.01.2021
3300 Clouds 30 1012 28 8000 4.63 250 20:45 25.01.2021
3301 Clouds 29 1012 28 8000 4.63 250 20:27 25.01.2021
3302 Clouds 29 1013 39 8000 4.63 230 19:50 25.01.2021
3303 Clouds 29 1013 39 8000 4.63 230 19:27 25.01.2021
3304 Clouds 29 1013 39 8000 3.6 250 18:48 25.01.2021
3305 Clouds 29 1013 39 8000 3.6 250 18:48 25.01.2021
3306 Clouds 29 1013 39 8000 3.6 250 18:26 25.01.2021
3307 Clouds 28 1014 41 8000 2.57 0 17:50 25.01.2021
3308 Clouds 28 1014 41 8000 2.57 0 17:26 25.01.2021
3309 Clouds 27 1014 44 8000 1.54 200 16:59 25.01.2021
3310 Clouds 27 1014 44 8000 1.54 200 16:40 25.01.2021
3311 Clouds 27 1014 44 8000 1.54 200 16:21 25.01.2021
3312 Clear 26 1015 50 10000 1.03 280 15:43 25.01.2021
3313 Clear 25 1015 50 10000 1.03 280 15:23 25.01.2021
3314 Clear 23 1014 56 10000 1.54 0 14:39 25.01.2021
3315 Clear 23 1014 56 10000 1.54 0 14:19 25.01.2021
3316 Clear 22 1014 68 10000 2.24 251 13:47 25.01.2021
3317 Clear 20 1014 68 10000 1.65 253 13:25 25.01.2021
3318 Clear 20 1014 68 10000 1.53 254 12:45 25.01.2021
3319 Clear 19 1014 68 10000 0.38 315 12:19 25.01.2021
3320 Clear 20 1012 72 8000 3.6 150 11:47 25.01.2021
3321 Clear 20 1012 72 8000 3.6 150 11:18 25.01.2021
3322 Clear 19 1011 77 10000 3.09 160 10:39 25.01.2021
3323 Clear 19 1011 77 10000 3.09 160 10:18 25.01.2021
3324 Clear 20 1011 77 10000 2.57 160 09:42 25.01.2021
3325 Clear 19 1011 77 10000 2.57 160 09:23 25.01.2021
3326 Clouds 20 1011 67 10000 3.09 160 08:27 25.01.2021
3327 Clear 21 1011 68 10000 3.09 170 07:31 25.01.2021
3328 Clear 21 1011 63 10000 3.6 160 06:53 25.01.2021
3329 Clear 22 1012 60 10000 6.17 150 03:39 25.01.2021
3330 Clear 25 1012 41 10000 3.09 240 01:22 25.01.2021
3331 Clear 28 1012 39 10000 4.12 240 23:41 24.01.2021
3332 Clear 29 1012 39 10000 4.12 240 23:19 24.01.2021
3333 Clouds 29 1012 39 10000 5.14 240 22:42 24.01.2021
3334 Clouds 30 1012 39 10000 5.14 240 22:20 24.01.2021
3335 Clouds 30 1012 37 10000 5.14 240 21:48 24.01.2021
3336 Clouds 30 1012 37 10000 5.14 240 21:24 24.01.2021
3337 Clouds 30 1013 35 8000 4.63 260 20:44 24.01.2021
3338 Clouds 30 1013 35 8000 4.63 260 20:21 24.01.2021
3339 Clouds 30 1014 37 8000 3.6 240 19:52 24.01.2021
3340 Clouds 30 1014 37 8000 3.6 240 19:27 24.01.2021
3341 Clouds 30 1014 37 8000 3.09 230 18:58 24.01.2021
3342 Clouds 30 1014 37 8000 3.09 230 18:39 24.01.2021
3343 Clouds 30 1014 37 8000 3.09 230 18:20 24.01.2021
3344 Clear 28 1015 44 8000 2.06 160 17:50 24.01.2021
3345 Clear 28 1015 44 8000 2.06 160 17:28 24.01.2021
3346 Clear 28 1015 47 10000 1.54 250 16:58 24.01.2021
3347 Clear 27 1015 47 10000 1.54 250 16:38 24.01.2021
3348 Clear 27 1015 47 10000 1.54 250 16:18 24.01.2021
3349 Clear 26 1015 50 10000 2.06 230 15:43 24.01.2021
3350 Clear 25 1015 50 10000 2.06 230 15:18 24.01.2021
3351 Clear 24 1015 53 10000 1.54 230 14:43 24.01.2021
3352 Clear 22 1015 63 10000 1.03 230 13:48 24.01.2021
3353 Clear 20 1015 63 10000 1.03 230 13:30 24.01.2021
3354 Clear 19 1014 77 10000 1.39 262 12:50 24.01.2021
3355 Clear 19 1014 77 10000 0.57 276 12:20 24.01.2021
3356 Clear 20 1012 72 8000 2.57 170 11:52 24.01.2021
3357 Clear 20 1012 72 8000 2.57 170 11:25 24.01.2021
3358 Clouds 20 1012 68 10000 2.06 150 10:50 24.01.2021
3359 Clouds 20 1012 68 10000 2.06 150 10:29 24.01.2021
3360 Clear 22 1013 53 10000 0.79 240 09:44 24.01.2021
3361 Clear 22 1013 52 10000 0.8 241 09:18 24.01.2021
3362 Clear 22 1012 52 10000 0.58 255 08:26 24.01.2021
3363 Clear 22 1012 60 10000 4.63 150 03:37 24.01.2021
3364 Clear 23 1012 53 10000 4.63 150 02:18 24.01.2021
3365 Clear 27 1013 44 10000 3.6 240 00:28 24.01.2021
3366 Clear 29 1012 39 10000 3.09 240 23:59 23.01.2021
3367 Clear 29 1012 39 10000 3.09 240 23:59 23.01.2021
3368 Clear 29 1012 39 10000 3.09 240 23:33 23.01.2021
3369 Clear 29 1013 39 8000 4.12 250 22:58 23.01.2021
3370 Clear 29 1013 39 8000 4.12 250 22:40 23.01.2021
3371 Clear 29 1013 39 8000 3.09 230 21:58 23.01.2021
3372 Clear 29 1013 39 8000 3.09 230 21:23 23.01.2021
3373 Clear 30 1013 44 8000 3.6 210 20:51 23.01.2021
3374 Clear 28 1013 44 8000 3.6 210 20:30 23.01.2021
3375 Clear 29 1013 42 8000 3.6 220 19:47 23.01.2021
3376 Clear 29 1013 42 8000 3.6 220 19:25 23.01.2021
3377 Clear 29 1014 47 8000 4.12 240 18:59 23.01.2021
3378 Clear 28 1014 47 8000 4.12 240 18:40 23.01.2021
3379 Clear 27 1014 47 8000 4.12 240 18:20 23.01.2021
3380 Clear 27 1014 47 8000 4.12 230 17:29 23.01.2021
3381 Clear 27 1014 47 10000 1.54 250 16:52 23.01.2021
3382 Clear 26 1014 47 10000 1.54 250 16:32 23.01.2021
3383 Clear 24 1014 56 10000 1.54 240 15:49 23.01.2021
3384 Clear 24 1014 56 10000 1.54 240 15:28 23.01.2021
3385 Clear 22 1014 64 10000 1.54 190 14:38 23.01.2021
3386 Clear 22 1014 64 10000 1.54 190 14:19 23.01.2021
3387 Clear 20 1014 51 10000 1.03 240 13:40 23.01.2021
3388 Clear 19 1014 51 10000 1.03 240 13:22 23.01.2021
3389 Clear 17 1014 62 10000 1.96 243 12:43 23.01.2021
3390 Clear 16 1014 62 10000 0.81 254 12:23 23.01.2021
3391 Clear 18 1012 82 8000 3.09 180 11:35 23.01.2021
3392 Clouds 16 1011 82 10000 2.06 180 10:55 23.01.2021
3393 Clouds 16 1011 82 10000 2.06 180 10:24 23.01.2021
3394 Clouds 17 1011 77 10000 2.57 170 09:52 23.01.2021
3395 Clouds 17 1011 77 10000 2.57 170 09:28 23.01.2021
3396 Clear 17 1011 77 10000 3.6 160 08:42 23.01.2021
3397 Clouds 18 1011 72 10000 3.6 150 07:48 23.01.2021
3398 Clear 19 1012 68 10000 2.06 150 06:49 23.01.2021
3399 Clear 23 1011 56 10000 4.63 150 02:20 23.01.2021
3400 Clear 28 1011 42 10000 3.09 220 00:32 23.01.2021
3401 Clear 29 1011 39 8000 3.6 250 23:36 22.01.2021
3402 Clear 31 1011 35 8000 3.6 240 22:44 22.01.2021
3403 Clear 31 1011 35 8000 3.6 240 22:20 22.01.2021
3404 Clear 31 1012 35 8000 2.57 0 21:39 22.01.2021
3405 Clear 31 1012 35 8000 2.57 0 21:21 22.01.2021
3406 Clear 31 1012 39 8000 3.09 0 20:46 22.01.2021
3407 Clear 31 1012 39 8000 3.09 0 20:26 22.01.2021
3408 Clear 30 1012 39 8000 3.6 240 19:47 22.01.2021
3409 Clear 30 1012 39 8000 3.6 240 19:18 22.01.2021
3410 Clear 29 1013 42 8000 2.57 240 18:45 22.01.2021
3411 Clear 29 1013 42 8000 2.57 240 18:26 22.01.2021
3412 Clear 29 1013 39 7000 2.57 210 17:48 22.01.2021
3413 Clear 29 1013 39 7000 2.57 210 17:29 22.01.2021
3414 Clear 27 1013 44 7000 2.57 250 16:54 22.01.2021
3415 Clear 27 1013 44 7000 2.57 250 16:30 22.01.2021
3416 Clear 26 1013 50 7000 2.57 190 15:45 22.01.2021
3417 Clear 26 1013 50 7000 2.57 190 15:20 22.01.2021
3418 Clear 24 1013 60 8000 1.03 180 14:32 22.01.2021
3419 Clear 24 1012 64 6000 2.17 251 13:54 22.01.2021
3420 Clear 20 1013 77 10000 2.22 251 13:35 22.01.2021
3421 Clear 19 1013 77 10000 1.56 247 12:56 22.01.2021
3422 Clear 18 1013 77 10000 0.76 241 12:27 22.01.2021
3423 Clear 17 1011 82 6000 0.51 0 11:49 22.01.2021
3424 Clear 15 1011 82 6000 0.51 0 11:30 22.01.2021
3425 Clear 16 1010 82 9000 1.03 10 10:46 22.01.2021
3426 Clear 17 1010 82 9000 1.03 10 10:22 22.01.2021
3427 Clear 18 1011 72 10000 0.46 257 09:42 22.01.2021
3428 Clear 18 1011 77 10000 1.54 170 08:57 22.01.2021
3429 Clear 18 1011 77 10000 1.54 170 08:31 22.01.2021
3430 Clear 17 1012 77 10000 2.57 160 07:41 22.01.2021
3431 Clouds 19 1013 68 10000 3.09 160 04:39 22.01.2021
3432 Clear 24 1014 47 10000 3.6 200 01:20 22.01.2021
3433 Clear 25 1014 47 10000 3.6 200 00:27 22.01.2021
3434 Clouds 27 1014 44 10000 3.09 230 23:43 21.01.2021
3435 Clouds 27 1014 44 10000 3.09 230 23:20 21.01.2021
3436 Clear 28 1014 44 10000 3.6 230 22:42 21.01.2021
3437 Clear 29 1014 37 10000 3.09 230 21:44 21.01.2021
3438 Clear 29 1014 37 10000 3.09 230 21:23 21.01.2021
3439 Clear 29 1014 37 10000 4.12 250 20:59 21.01.2021
3440 Clear 29 1014 37 10000 4.12 250 20:41 21.01.2021
3441 Clear 29 1014 37 10000 4.12 250 20:20 21.01.2021
3442 Clear 29 1014 39 10000 3.6 220 19:46 21.01.2021
3443 Clear 29 1014 39 10000 3.6 220 19:25 21.01.2021
3444 Clear 29 1014 42 10000 4.12 230 18:43 21.01.2021
3445 Clear 29 1014 42 10000 4.12 230 18:21 21.01.2021
3446 Clear 28 1014 41 10000 2.57 0 17:57 21.01.2021
3447 Clear 28 1014 41 10000 2.57 0 17:21 21.01.2021
3448 Clear 26 1015 47 10000 1.03 290 16:56 21.01.2021
3449 Clear 26 1015 47 10000 1.03 290 16:38 21.01.2021
3450 Clear 26 1015 47 10000 1.03 290 16:19 21.01.2021
3451 Clear 24 1015 53 10000 2.06 0 15:46 21.01.2021
3452 Clear 24 1015 53 10000 2.06 0 15:24 21.01.2021
3453 Clear 22 1015 56 10000 1.54 0 14:44 21.01.2021
3454 Clear 22 1015 56 10000 1.54 0 14:23 21.01.2021
3455 Clear 20 1015 68 10000 2.38 250 13:43 21.01.2021
3456 Clear 20 1015 68 10000 1.81 247 13:23 21.01.2021
3457 Clear 20 1014 60 10000 1.81 247 12:42 21.01.2021
3458 Clear 19 1014 60 10000 0.65 250 12:24 21.01.2021
3459 Clear 17 1012 82 10000 3.6 160 11:51 21.01.2021
3460 Clear 17 1012 82 10000 3.6 160 11:30 21.01.2021
3461 Clouds 16 1012 72 10000 1.03 0 10:52 21.01.2021
3462 Clouds 17 1012 72 10000 1.03 0 10:33 21.01.2021
3463 Clear 16 1012 82 10000 1.54 240 09:45 21.01.2021
3464 Clouds 17 1012 82 10000 1.54 240 09:25 21.01.2021
3465 Clouds 17 1012 77 10000 2.06 170 08:48 21.01.2021
3466 Clear 16 1012 77 10000 2.06 170 08:25 21.01.2021
3467 Clouds 17 1013 72 10000 1.03 0 07:28 21.01.2021
3468 Clouds 17 1013 72 10000 1.54 170 06:58 21.01.2021
3469 Clouds 19 1013 72 10000 4.12 170 05:22 21.01.2021
3470 Clear 22 1012 56 10000 6.69 150 02:59 21.01.2021
3471 Clear 25 1013 41 10000 3.09 240 01:21 21.01.2021
3472 Clear 29 1013 39 10000 4.63 240 23:56 20.01.2021
3473 Clear 29 1013 39 10000 4.63 240 23:36 20.01.2021
3474 Clear 29 1013 39 10000 4.63 240 23:18 20.01.2021
3475 Clouds 30 1013 32 10000 3.09 210 22:46 20.01.2021
3476 Clouds 31 1013 32 10000 3.09 210 22:28 20.01.2021
3477 Clouds 31 1013 33 10000 3.6 210 21:43 20.01.2021
3478 Clouds 31 1013 33 10000 3.6 210 21:22 20.01.2021
3479 Clear 31 1013 35 10000 4.12 240 20:50 20.01.2021
3480 Clear 31 1013 35 10000 4.12 240 20:20 20.01.2021
3481 Clear 31 1013 35 10000 2.57 270 19:46 20.01.2021
3482 Clear 31 1013 35 10000 2.57 270 19:27 20.01.2021
3483 Clear 29 1014 39 10000 3.09 270 18:42 20.01.2021
3484 Clear 29 1014 39 10000 3.09 270 18:20 20.01.2021
3485 Clear 28 1014 44 8000 2.57 230 17:43 20.01.2021
3486 Clear 28 1014 44 8000 2.57 230 17:24 20.01.2021
3487 Clear 26 1015 46 8000 2.06 220 16:45 20.01.2021
3488 Clear 24 1015 49 8000 1.54 270 15:56 20.01.2021
3489 Clear 24 1015 49 8000 1.54 270 15:36 20.01.2021
3490 Clear 22 1015 56 10000 1.03 350 14:52 20.01.2021
3491 Clear 22 1015 56 10000 1.03 350 14:29 20.01.2021
3492 Clear 19 1015 63 10000 2.13 252 13:59 20.01.2021
3493 Clear 19 1015 63 10000 2.13 252 13:36 20.01.2021
3494 Clear 17 1014 77 10000 1.59 251 12:54 20.01.2021
3495 Clear 17 1014 77 10000 0.56 231 12:22 20.01.2021
3496 Clear 15 1013 77 10000 2.57 150 11:39 20.01.2021
3497 Clear 15 1013 77 10000 2.57 150 11:39 20.01.2021
3498 Clear 16 1013 77 10000 2.57 150 11:18 20.01.2021
3499 Clear 15 1012 77 10000 3.09 160 10:44 20.01.2021
3500 Clear 17 1012 77 10000 3.09 160 10:18 20.01.2021
3501 Clear 17 1012 77 10000 2.57 170 09:31 20.01.2021
3502 Clouds 16 1012 77 10000 2.57 170 08:59 20.01.2021
3503 Clouds 16 1012 77 10000 2.57 170 08:35 20.01.2021
3504 Clear 17 1013 72 10000 3.09 150 07:59 20.01.2021
3505 Clear 17 1013 72 10000 3.09 150 07:37 20.01.2021
3506 Clouds 19 1013 63 10000 2.57 210 06:56 20.01.2021
3507 Clear 21 1013 56 10000 4.63 170 03:34 20.01.2021
3508 Clear 24 1012 46 10000 7.2 160 01:51 20.01.2021
3509 Clear 28 1014 36 10000 2.06 210 00:52 20.01.2021
3510 Clear 28 1014 32 10000 3.6 180 23:51 19.01.2021
3511 Clear 28 1014 32 10000 3.6 180 23:32 19.01.2021
3512 Clear 30 1014 32 10000 3.09 260 22:58 19.01.2021
3513 Clear 30 1014 32 10000 3.09 260 22:38 19.01.2021
3514 Clear 30 1014 32 10000 3.09 260 22:20 19.01.2021
3515 Clear 30 1014 30 10000 4.12 240 21:54 19.01.2021
3516 Clear 30 1014 30 10000 4.12 240 21:32 19.01.2021
3517 Clouds 31 1014 28 10000 4.12 240 20:49 19.01.2021
3518 Clouds 31 1014 28 10000 4.12 240 20:27 19.01.2021
3519 Clouds 30 1014 32 10000 4.12 240 19:56 19.01.2021
3520 Clouds 30 1014 32 10000 4.12 240 19:31 19.01.2021
3521 Clouds 29 1015 30 10000 3.6 260 18:51 19.01.2021
3522 Clouds 29 1015 30 10000 3.6 260 18:32 19.01.2021
3523 Clouds 29 1015 28 10000 3.09 250 17:55 19.01.2021
3524 Clouds 29 1015 28 10000 3.09 250 17:37 19.01.2021
3525 Clouds 29 1015 28 10000 3.09 250 17:18 19.01.2021
3526 Clouds 28 1015 32 10000 2.06 240 16:38 19.01.2021
3527 Clouds 28 1015 32 10000 2.06 240 16:18 19.01.2021
3528 Clear 26 1015 33 10000 3.09 240 15:47 19.01.2021
3529 Clear 26 1015 33 10000 3.09 240 15:29 19.01.2021
3530 Clear 24 1015 37 10000 1.54 240 14:42 19.01.2021
3531 Clear 24 1015 37 10000 1.54 240 14:23 19.01.2021
3532 Clear 21 1015 48 10000 2.22 256 13:49 19.01.2021
3533 Clear 20 1015 48 10000 1.38 263 13:22 19.01.2021
3534 Clear 19 1015 55 10000 1.38 263 12:48 19.01.2021
3535 Clear 18 1015 55 10000 1.35 261 12:30 19.01.2021
3536 Clear 19 1013 59 10000 1.03 0 11:50 19.01.2021
3537 Clear 17 1013 59 10000 1.03 0 11:28 19.01.2021
3538 Clear 17 1013 59 10000 1.03 0 11:28 19.01.2021
3539 Clear 17 1012 63 10000 2.06 160 10:52 19.01.2021
3540 Clear 17 1012 63 10000 2.06 160 10:32 19.01.2021
3541 Clear 17 1012 59 10000 1.54 170 09:53 19.01.2021
3542 Clear 17 1012 59 10000 1.54 170 09:31 19.01.2021
3543 Clear 17 1012 55 10000 1.03 140 08:59 19.01.2021
3544 Clear 17 1012 55 10000 1.03 140 08:26 19.01.2021
3545 Clear 18 1012 55 10000 0.26 321 07:47 19.01.2021
3546 Clear 19 1012 52 10000 2.57 170 06:54 19.01.2021
3547 Clear 19 1012 52 10000 2.57 170 06:54 19.01.2021
3548 Clear 23 1011 40 10000 5.14 150 02:56 19.01.2021
3549 Clear 23 1011 40 10000 5.14 150 02:20 19.01.2021
3550 Clear 30 1012 25 10000 4.63 240 23:59 18.01.2021
3551 Clear 30 1012 25 10000 4.63 240 23:35 18.01.2021
3552 Clear 31 1012 23 10000 4.63 240 22:58 18.01.2021
3553 Clear 31 1012 23 10000 4.63 240 22:38 18.01.2021
3554 Clear 31 1012 23 10000 4.63 240 22:18 18.01.2021
3555 Clear 32 1012 19 10000 4.12 230 21:40 18.01.2021
3556 Clear 32 1012 19 10000 4.12 230 21:21 18.01.2021
3557 Clear 32 1012 22 10000 3.6 240 20:43 18.01.2021
3558 Clear 32 1012 22 10000 3.6 240 20:43 18.01.2021
3559 Clear 32 1012 22 10000 3.6 240 20:25 18.01.2021
3560 Clear 32 1012 22 10000 4.12 250 19:51 18.01.2021
3561 Clear 32 1012 22 10000 4.12 250 19:33 18.01.2021
3562 Clear 31 1012 23 10000 2.57 270 18:47 18.01.2021
3563 Clear 31 1012 23 10000 2.57 270 18:23 18.01.2021
3564 Clear 30 1013 24 10000 1.54 90 17:45 18.01.2021
3565 Clear 30 1013 24 10000 1.54 90 17:24 18.01.2021
3566 Clear 29 1013 26 10000 2.06 270 16:48 18.01.2021
3567 Clear 29 1013 26 10000 2.06 270 16:22 18.01.2021
3568 Clear 27 1013 27 10000 1.54 240 15:49 18.01.2021
3569 Clear 26 1013 27 10000 1.54 240 15:25 18.01.2021
3570 Clear 25 1014 35 10000 1.03 240 14:46 18.01.2021
3571 Clear 24 1014 35 10000 1.03 240 14:28 18.01.2021
3572 Clear 21 1014 45 10000 1.03 160 13:47 18.01.2021
3573 Clear 19 1014 45 10000 1.03 160 13:28 18.01.2021
3574 Clear 19 1013 58 10000 1.37 260 12:56 18.01.2021
3575 Clear 18 1013 58 10000 1.34 261 12:36 18.01.2021
3576 Clear 15 1013 58 10000 0.29 294 12:18 18.01.2021
3577 Clear 17 1012 62 8000 0.29 294 11:40 18.01.2021
3578 Clear 14 1012 62 8000 0.24 46 11:20 18.01.2021
3579 Clear 14 1011 58 10000 0.24 46 10:46 18.01.2021
3580 Clear 16 1011 51 10000 0.1 166 09:50 18.01.2021
3581 Clear 16 1011 51 10000 0.1 166 09:32 18.01.2021
3582 Clear 16 1011 51 10000 0.06 144 08:55 18.01.2021
3583 Clear 16 1011 51 10000 0.14 357 08:25 18.01.2021
3584 Clear 18 1012 48 10000 0.51 0 07:38 18.01.2021
3585 Clear 22 1012 40 10000 2.06 140 05:49 18.01.2021
3586 Clear 22 1012 37 10000 3.6 160 04:40 18.01.2021
3587 Clear 22 1012 37 10000 3.6 160 04:18 18.01.2021
3588 Clear 23 1012 35 10000 3.09 140 03:43 18.01.2021
3589 Clear 23 1012 35 10000 3.09 140 03:20 18.01.2021
3590 Clear 25 1012 31 10000 5.14 160 02:40 18.01.2021
3591 Clear 28 1013 20 10000 3.6 240 01:39 18.01.2021
3592 Clear 29 1013 20 10000 3.6 240 00:35 18.01.2021
3593 Clear 30 1013 18 10000 4.12 230 23:49 17.01.2021
3594 Clear 31 1013 18 10000 4.12 230 23:22 17.01.2021
3595 Clear 32 1013 13 10000 3.6 0 22:46 17.01.2021
3596 Clear 33 1013 13 10000 3.6 0 22:22 17.01.2021
3597 Clear 31 1013 15 10000 4.12 240 21:42 17.01.2021
3598 Clear 31 1013 15 10000 4.12 240 21:24 17.01.2021
3599 Clear 31 1014 15 10000 2.57 200 20:49 17.01.2021
3600 Clear 31 1014 15 10000 2.57 200 20:30 17.01.2021
3601 Clear 31 1014 20 10000 3.09 250 19:43 17.01.2021
3602 Clear 31 1014 20 10000 3.09 250 19:25 17.01.2021
3603 Clear 31 1014 20 10000 3.09 250 19:25 17.01.2021
3604 Clear 30 1014 21 10000 2.06 180 18:49 17.01.2021
3605 Clear 30 1014 21 10000 2.06 180 18:27 17.01.2021
3606 Clear 29 1015 26 10000 2.06 200 17:49 17.01.2021
3607 Clear 29 1015 26 10000 2.06 200 17:28 17.01.2021
3608 Clear 27 1015 25 10000 1.54 330 16:44 17.01.2021
3609 Clear 27 1015 25 10000 1.54 330 16:24 17.01.2021
3610 Clear 26 1016 31 10000 1.03 330 15:44 17.01.2021
3611 Clear 24 1016 31 10000 1.03 330 15:25 17.01.2021
3612 Clear 24 1017 35 10000 2.27 258 14:50 17.01.2021
3613 Clear 22 1017 35 10000 1.89 254 14:27 17.01.2021
3614 Clear 21 1017 45 10000 1.89 254 13:58 17.01.2021
3615 Clear 21 1017 45 10000 1.89 254 13:36 17.01.2021
3616 Clear 19 1017 45 10000 1.18 254 13:18 17.01.2021
3617 Clear 16 1016 71 10000 1.18 254 12:37 17.01.2021
3618 Clear 16 1016 71 10000 0.07 48 12:18 17.01.2021
3619 Clear 13 1015 58 8000 1.03 0 11:25 17.01.2021
3620 Clouds 15 1014 51 10000 0.21 113 10:50 17.01.2021
3621 Clouds 18 1014 51 10000 0.1 124 10:24 17.01.2021
3622 Clear 17 1014 51 10000 0.1 124 09:46 17.01.2021
3623 Clear 18 1014 51 10000 0.51 0 08:47 17.01.2021
3624 Clear 18 1015 48 10000 0.03 36 07:51 17.01.2021
3625 Clear 21 1015 35 10000 2.57 150 04:29 17.01.2021
3626 Clear 24 1014 29 10000 5.66 210 02:49 17.01.2021
3627 Clear 27 1014 26 10000 4.12 220 00:52 17.01.2021
3628 Clear 27 1014 26 10000 4.12 220 00:20 17.01.2021
3629 Clear 28 1014 24 10000 3.6 240 23:52 16.01.2021
3630 Clear 28 1014 24 10000 3.6 240 23:20 16.01.2021
3631 Clear 29 1014 26 10000 4.63 240 22:49 16.01.2021
3632 Clear 29 1014 24 10000 3.6 210 21:59 16.01.2021
3633 Clear 29 1014 24 10000 3.6 210 21:40 16.01.2021
3634 Clear 29 1014 24 10000 3.6 210 21:20 16.01.2021
3635 Clear 29 1014 25 10000 4.12 230 20:45 16.01.2021
3636 Clear 29 1014 25 10000 4.12 230 20:22 16.01.2021
3637 Clear 29 1014 28 10000 3.6 230 19:48 16.01.2021
3638 Clear 29 1014 28 10000 3.6 230 19:29 16.01.2021
3639 Clear 28 1014 28 10000 4.12 230 18:44 16.01.2021
3640 Clear 28 1014 28 10000 4.12 230 18:26 16.01.2021
3641 Clear 27 1015 34 10000 2.06 210 17:49 16.01.2021
3642 Clear 26 1015 34 10000 2.06 210 17:30 16.01.2021
3643 Clear 26 1015 38 10000 2.06 270 16:47 16.01.2021
3644 Clear 26 1015 38 10000 2.06 270 16:47 16.01.2021
3645 Clear 23 1015 38 10000 2.06 270 16:29 16.01.2021
3646 Clear 22 1015 43 10000 1.03 270 15:54 16.01.2021
3647 Clear 22 1015 43 10000 1.03 270 15:33 16.01.2021
3648 Clear 19 1015 48 10000 1.03 230 14:30 16.01.2021
3649 Clear 19 1015 48 10000 1.03 230 14:30 16.01.2021
3650 Clear 19 1015 48 10000 1.03 230 14:30 16.01.2021
3651 Clear 18 1015 59 10000 2.22 247 13:50 16.01.2021
3652 Clear 18 1015 59 10000 1.38 253 13:29 16.01.2021
3653 Clear 15 1015 66 10000 1.42 260 12:46 16.01.2021
3654 Clear 15 1015 66 10000 0.6 258 12:21 16.01.2021
3655 Clear 17 1013 62 10000 1.03 0 11:52 16.01.2021
3656 Clear 16 1013 62 10000 1.03 0 11:25 16.01.2021
3657 Clear 17 1013 55 10000 0.43 240 10:50 16.01.2021
3658 Clear 15 1013 55 10000 0.52 233 10:28 16.01.2021
3659 Clear 15 1013 55 10000 2.06 160 09:40 16.01.2021
3660 Clear 17 1013 55 10000 2.06 160 09:19 16.01.2021
3661 Clear 16 1012 51 10000 2.06 140 07:53 16.01.2021
3662 Clear 18 1012 48 10000 4.12 160 06:44 16.01.2021
3663 Clouds 20 1013 42 10000 3.09 160 04:51 16.01.2021
3664 Clear 23 1012 35 10000 6.17 190 02:56 16.01.2021
3665 Clear 23 1012 35 10000 6.17 190 02:21 16.01.2021
3666 Clear 26 1013 29 10000 3.6 240 00:43 16.01.2021
3667 Clear 27 1013 29 10000 3.6 240 00:19 16.01.2021
3668 Clear 29 1012 24 10000 4.12 240 23:25 15.01.2021
3669 Clear 30 1013 21 10000 3.6 230 22:27 15.01.2021
3670 Clear 29 1013 21 10000 3.09 210 21:48 15.01.2021
3671 Clear 29 1013 21 10000 3.09 210 21:30 15.01.2021
3672 Clear 29 1014 23 10000 2.57 180 20:42 15.01.2021
3673 Clear 29 1014 23 10000 2.57 180 20:23 15.01.2021
3674 Clear 28 1014 26 10000 3.6 190 19:43 15.01.2021
3675 Clear 28 1014 26 10000 3.6 190 19:24 15.01.2021
3676 Clear 27 1015 28 10000 2.57 240 18:45 15.01.2021
3677 Clear 28 1015 28 10000 2.57 240 18:20 15.01.2021
3678 Clear 27 1015 29 10000 4.12 210 17:56 15.01.2021
3679 Clear 27 1015 29 10000 4.12 210 17:37 15.01.2021
3680 Clear 27 1015 29 10000 4.12 210 17:19 15.01.2021
3681 Clear 25 1015 31 10000 2.06 240 16:40 15.01.2021
3682 Clear 25 1015 31 10000 2.06 240 16:21 15.01.2021
3683 Clear 24 1015 33 10000 2.06 280 15:40 15.01.2021
3684 Clear 23 1015 33 10000 2.06 280 15:18 15.01.2021
3685 Clear 23 1015 40 10000 1.03 210 14:38 15.01.2021
3686 Clear 21 1015 40 10000 1.03 210 14:18 15.01.2021
3687 Clear 19 1015 48 10000 2.18 248 13:40 15.01.2021
3688 Clear 19 1015 48 10000 1.39 244 13:19 15.01.2021
3689 Clear 17 1015 77 10000 1.54 30 12:45 15.01.2021
3690 Clear 16 1015 77 10000 1.54 30 12:22 15.01.2021
3691 Clear 16 1014 58 10000 0.47 285 11:42 15.01.2021
3692 Clear 17 1014 58 10000 0.3 274 11:18 15.01.2021
3693 Clouds 16 1014 58 10000 1.03 110 10:48 15.01.2021
3694 Clouds 16 1014 58 10000 1.03 110 10:21 15.01.2021
3695 Clouds 17 1013 58 10000 1.03 0 09:48 15.01.2021
3696 Clouds 17 1013 58 10000 1.03 0 09:29 15.01.2021
3697 Clear 17 1014 51 10000 0.7 238 08:28 15.01.2021
3698 Clear 18 1014 48 10000 1.54 170 07:44 15.01.2021
3699 Clear 18 1014 48 10000 1.54 170 07:23 15.01.2021
3700 Clear 19 1014 42 10000 3.09 170 06:36 15.01.2021
3701 Clear 22 1014 30 10000 4.12 150 02:44 15.01.2021
3702 Clear 25 1014 25 10000 3.6 240 00:47 15.01.2021
3703 Clear 27 1014 24 10000 4.63 250 23:31 14.01.2021
3704 Clear 28 1013 23 10000 4.63 250 22:58 14.01.2021
3705 Clear 29 1013 23 10000 4.63 250 22:37 14.01.2021
3706 Clear 29 1013 23 10000 4.63 250 22:19 14.01.2021
3707 Clear 30 1014 21 10000 4.63 240 21:40 14.01.2021
3708 Clear 30 1014 21 10000 4.63 240 21:20 14.01.2021
3709 Clear 30 1014 20 10000 4.63 230 20:48 14.01.2021
3710 Clear 30 1014 20 10000 4.63 230 20:18 14.01.2021
3711 Clear 29 1014 23 10000 3.6 230 19:38 14.01.2021
3712 Clear 29 1014 23 10000 3.6 230 19:18 14.01.2021
3713 Clear 28 1014 24 10000 3.6 210 18:45 14.01.2021
3714 Clear 28 1014 24 10000 3.6 210 18:18 14.01.2021
3715 Clear 28 1015 24 10000 2.57 270 17:44 14.01.2021
3716 Clear 28 1015 24 10000 2.57 270 17:25 14.01.2021
3717 Clear 27 1015 21 10000 1.54 270 16:39 14.01.2021
3718 Clear 25 1015 25 10000 1.54 250 15:56 14.01.2021
3719 Clear 25 1015 25 10000 1.54 250 15:38 14.01.2021
3720 Clear 22 1015 34 10000 3.09 210 14:58 14.01.2021
3721 Clear 22 1015 34 10000 3.09 210 14:36 14.01.2021
3722 Clear 20 1015 34 10000 3.09 210 14:18 14.01.2021
3723 Clear 19 1014 44 10000 1.9 262 13:47 14.01.2021
3724 Clear 18 1014 44 10000 1.27 248 13:19 14.01.2021
3725 Clear 19 1014 58 10000 1.27 248 12:38 14.01.2021
3726 Clear 17 1014 58 10000 0.53 284 12:18 14.01.2021
3727 Clear 16 1013 58 8000 0.51 260 11:41 14.01.2021
3728 Clear 16 1013 58 8000 0.51 260 11:20 14.01.2021
3729 Clear 16 1013 54 10000 1.54 180 10:49 14.01.2021
3730 Clear 17 1013 54 10000 1.54 180 10:22 14.01.2021
3731 Clear 17 1013 51 10000 1.54 140 09:44 14.01.2021
3732 Clear 17 1013 51 10000 1.54 140 09:22 14.01.2021
3733 Clear 17 1013 47 10000 0.72 264 08:48 14.01.2021
3734 Clear 17 1013 47 10000 0.62 238 08:22 14.01.2021
3735 Clear 18 1013 39 10000 1.54 150 07:45 14.01.2021
3736 Clear 19 1014 29 10000 1.54 170 06:46 14.01.2021
3737 Clouds 20 1014 24 10000 3.09 160 05:45 14.01.2021
3738 Clear 26 1014 27 10000 3.6 250 00:44 14.01.2021
3739 Clear 28 1014 24 10000 5.14 230 23:51 13.01.2021
3740 Clear 29 1014 24 10000 5.14 230 23:21 13.01.2021
3741 Clear 30 1014 21 10000 4.12 230 22:28 13.01.2021
3742 Clear 30 1014 20 10000 4.12 220 21:57 13.01.2021
3743 Clear 30 1014 20 10000 4.12 220 21:38 13.01.2021
3744 Clear 30 1015 20 10000 4.12 220 20:58 13.01.2021
3745 Clear 30 1015 20 10000 4.12 220 20:30 13.01.2021
3746 Clear 30 1015 21 10000 3.09 220 19:57 13.01.2021
3747 Clear 30 1015 21 10000 3.09 220 19:37 13.01.2021
3748 Clear 29 1015 21 10000 3.09 220 19:19 13.01.2021
3749 Clear 29 1016 21 10000 2.57 230 18:40 13.01.2021
3750 Clear 28 1017 21 10000 2.06 210 17:51 13.01.2021
3751 Clear 28 1017 21 10000 2.06 210 17:25 13.01.2021
3752 Clear 26 1017 25 10000 2.06 240 16:51 13.01.2021
3753 Clear 26 1017 25 10000 2.06 240 16:22 13.01.2021
3754 Clear 24 1017 27 10000 2.06 180 15:53 13.01.2021
3755 Clear 24 1017 27 10000 2.06 180 15:35 13.01.2021
3756 Clear 22 1017 37 10000 2.53 252 14:48 13.01.2021
3757 Clear 20 1017 44 10000 2.26 259 13:53 13.01.2021
3758 Clear 20 1017 44 10000 2.26 259 13:31 13.01.2021
3759 Clear 15 1017 54 10000 1.42 254 12:47 13.01.2021
3760 Clear 15 1017 54 10000 0.44 268 12:29 13.01.2021
3761 Clear 17 1015 54 10000 0.44 268 11:59 13.01.2021
3762 Clear 16 1015 54 10000 0.44 268 11:40 13.01.2021
3763 Clear 16 1015 54 10000 0.25 241 11:22 13.01.2021
3764 Clouds 16 1015 50 10000 1.54 200 10:41 13.01.2021
3765 Clouds 16 1015 50 10000 1.54 200 10:22 13.01.2021
3766 Clear 17 1014 44 10000 3.09 170 09:34 13.01.2021
3767 Clear 17 1014 44 10000 3.09 140 08:53 13.01.2021
3768 Clear 17 1014 44 10000 3.09 140 08:32 13.01.2021
3769 Clouds 18 1014 41 10000 3.09 160 07:37 13.01.2021
3770 Clouds 19 1015 39 10000 3.6 170 06:58 13.01.2021
3771 Clear 20 1015 34 10000 4.63 160 04:21 13.01.2021
3772 Clear 20 1015 30 10000 5.14 160 03:48 13.01.2021
3773 Clear 21 1015 30 10000 5.14 160 03:29 13.01.2021
3774 Clear 23 1014 26 10000 5.14 160 02:19 13.01.2021
3775 Clear 26 1015 24 10000 3.09 220 00:29 13.01.2021
3776 Clear 28 1014 24 10000 4.63 250 23:29 12.01.2021
3777 Clear 29 1014 24 10000 5.14 240 22:47 12.01.2021
3778 Clear 29 1014 24 10000 5.14 240 22:25 12.01.2021
3779 Clear 29 1014 23 10000 5.14 240 21:53 12.01.2021
3780 Clear 30 1014 23 10000 5.14 240 21:34 12.01.2021
3781 Clear 30 1014 20 10000 3.6 220 20:53 12.01.2021
3782 Clear 30 1014 20 10000 3.6 220 20:29 12.01.2021
3783 Clear 30 1014 23 10000 3.09 230 19:56 12.01.2021
3784 Clear 30 1014 23 10000 3.09 230 19:37 12.01.2021
3785 Clear 29 1015 26 10000 2.57 270 18:52 12.01.2021
3786 Clear 29 1015 26 10000 2.57 270 18:25 12.01.2021
3787 Clear 28 1015 28 10000 2.06 200 17:55 12.01.2021
3788 Clear 27 1015 28 10000 2.06 200 17:31 12.01.2021
3789 Clear 27 1015 29 10000 2.06 270 16:44 12.01.2021
3790 Clear 25 1015 29 10000 2.06 270 16:25 12.01.2021
3791 Clear 25 1015 38 10000 1.54 230 15:45 12.01.2021
3792 Clear 23 1015 38 10000 1.54 230 15:24 12.01.2021
3793 Clear 22 1016 42 10000 1.03 220 14:49 12.01.2021
3794 Clear 20 1016 42 10000 1.03 220 14:26 12.01.2021
3795 Clear 20 1016 51 10000 1.03 50 13:53 12.01.2021
3796 Clear 18 1016 51 10000 1.03 50 13:33 12.01.2021
3797 Clear 15 1015 71 10000 1.03 20 12:33 12.01.2021
3798 Clear 16 1014 66 10000 0.51 0 11:42 12.01.2021
3799 Clear 15 1014 66 10000 0.51 0 10:59 12.01.2021
3800 Clear 16 1014 62 10000 0.24 203 10:40 12.01.2021
3801 Clear 16 1014 62 10000 0.37 243 10:19 12.01.2021
3802 Clear 16 1013 55 10000 1.03 200 09:43 12.01.2021
3803 Clear 17 1013 55 10000 1.03 200 09:20 12.01.2021
3804 Clear 17 1013 55 10000 1.54 150 08:26 12.01.2021
3805 Clear 18 1014 51 10000 2.06 160 07:41 12.01.2021
3806 Clear 18 1014 51 10000 2.06 160 07:21 12.01.2021
3807 Clear 18 1015 48 10000 3.6 160 05:38 12.01.2021
3808 Clear 21 1015 43 10000 2.57 140 03:33 12.01.2021
3809 Clear 22 1015 40 10000 5.66 190 02:21 12.01.2021
3810 Clear 25 1016 24 10000 3.6 240 01:36 12.01.2021
3811 Clear 27 1016 24 10000 3.6 240 00:30 12.01.2021
3812 Clear 28 1015 21 10000 3.6 210 23:40 11.01.2021
3813 Clear 28 1015 21 10000 3.6 210 23:18 11.01.2021
3814 Clear 28 1016 20 10000 3.6 240 22:45 11.01.2021
3815 Clear 28 1016 20 10000 3.6 240 22:27 11.01.2021
3816 Clear 28 1016 20 10000 3.09 210 21:45 11.01.2021
3817 Clear 28 1016 20 10000 3.09 210 21:25 11.01.2021
3818 Clear 28 1017 23 10000 3.09 240 20:57 11.01.2021
3819 Clear 28 1017 23 10000 3.09 240 20:36 11.01.2021
3820 Clear 28 1017 23 10000 3.09 240 20:18 11.01.2021
3821 Clear 27 1017 22 10000 3.09 210 19:41 11.01.2021
3822 Clear 27 1017 22 10000 3.09 210 19:21 11.01.2021
3823 Clear 26 1017 27 10000 2.57 210 18:42 11.01.2021
3824 Clear 25 1017 27 10000 2.57 210 18:23 11.01.2021
3825 Clear 25 1018 33 10000 3.09 210 17:42 11.01.2021
3826 Clear 24 1018 33 10000 3.09 210 17:24 11.01.2021
3827 Clear 23 1018 37 10000 2.57 150 16:47 11.01.2021
3828 Clear 21 1018 37 10000 2.57 150 16:28 11.01.2021
3829 Clear 21 1018 42 10000 2.57 150 15:53 11.01.2021
3830 Clear 22 1018 42 10000 2.57 150 15:33 11.01.2021
3831 Clear 18 1018 51 10000 2.06 210 14:45 11.01.2021
3832 Clear 18 1018 51 10000 2.06 210 14:26 11.01.2021
3833 Clear 16 1018 62 10000 2.16 247 13:45 11.01.2021
3834 Clear 16 1018 62 10000 1.52 242 13:22 11.01.2021
3835 Clear 13 1018 71 10000 0.51 270 12:42 11.01.2021
3836 Clear 13 1018 71 10000 0.51 270 12:23 11.01.2021
3837 Clear 15 1017 71 10000 0.96 241 11:45 11.01.2021
3838 Clear 14 1016 66 10000 0.64 259 10:55 11.01.2021
3839 Clear 14 1016 66 10000 0.64 259 10:35 11.01.2021
3840 Clear 15 1016 71 10000 2.06 160 09:48 11.01.2021
3841 Clear 13 1016 71 10000 2.06 160 09:29 11.01.2021
3842 Clear 15 1016 71 10000 2.57 160 08:52 11.01.2021
3843 Clear 15 1016 71 10000 2.57 160 08:32 11.01.2021
3844 Clear 14 1016 67 10000 3.09 150 07:41 11.01.2021
3845 Clear 16 1016 67 10000 3.09 150 07:21 11.01.2021
3846 Clear 16 1017 58 10000 3.09 140 06:49 11.01.2021
3847 Clear 20 1015 34 10000 8.23 190 02:23 11.01.2021
3848 Clear 23 1015 31 10000 4.63 240 00:40 11.01.2021
3849 Clear 25 1015 25 10000 4.12 210 23:47 10.01.2021
3850 Clear 26 1014 22 10000 4.12 210 22:51 10.01.2021
3851 Clear 27 1014 22 10000 4.12 210 22:29 10.01.2021
3852 Clear 27 1015 24 10000 4.63 210 21:58 10.01.2021
3853 Clear 26 1015 24 10000 4.63 210 21:39 10.01.2021
3854 Clear 27 1015 24 10000 4.63 210 21:18 10.01.2021
3855 Clear 27 1015 24 10000 4.12 240 20:44 10.01.2021
3856 Clear 27 1015 24 10000 4.12 240 20:26 10.01.2021
3857 Clear 27 1015 24 10000 4.12 240 20:26 10.01.2021
3858 Clear 27 1015 26 10000 4.12 230 19:38 10.01.2021
3859 Clear 27 1015 26 10000 4.12 230 19:20 10.01.2021
3860 Clear 25 1015 29 10000 2.57 0 18:44 10.01.2021
3861 Clear 25 1015 29 10000 2.57 0 18:20 10.01.2021
3862 Clear 24 1016 29 10000 2.57 0 17:26 10.01.2021
3863 Clear 24 1016 28 10000 2.06 250 16:49 10.01.2021
3864 Clear 22 1016 28 10000 2.06 250 16:28 10.01.2021
3865 Clear 22 1016 32 10000 1.54 210 15:40 10.01.2021
3866 Clear 20 1016 32 10000 1.54 210 15:21 10.01.2021
3867 Clear 19 1016 36 10000 1.03 290 14:40 10.01.2021
3868 Clear 18 1016 36 10000 1.03 290 14:22 10.01.2021
3869 Clear 16 1017 72 10000 2.15 258 13:42 10.01.2021
3870 Clear 16 1017 72 10000 1.75 256 13:24 10.01.2021
3871 Clear 13 1016 76 10000 1.8 255 12:51 10.01.2021
3872 Clear 13 1016 76 10000 1.8 255 12:33 10.01.2021
3873 Clear 14 1015 76 8000 0.82 244 11:55 10.01.2021
3874 Clear 13 1015 76 8000 0.71 248 11:20 10.01.2021
3875 Clear 13 1015 71 10000 1.54 170 10:51 10.01.2021
3876 Clear 14 1015 71 10000 1.54 170 10:22 10.01.2021
3877 Clear 14 1015 71 10000 2.06 160 09:39 10.01.2021
3878 Clear 14 1015 66 10000 3.6 150 08:27 10.01.2021
3879 Clear 16 1015 54 10000 3.6 170 07:38 10.01.2021
3880 Clear 17 1016 41 10000 4.12 150 06:21 10.01.2021
3881 Clear 17 1016 36 10000 4.63 150 05:45 10.01.2021
3882 Clear 17 1016 36 10000 4.63 150 05:27 10.01.2021
3883 Clouds 21 1015 40 10000 3.6 270 01:30 10.01.2021
3884 Clouds 23 1015 40 10000 3.6 270 00:19 10.01.2021
3885 Clouds 25 1014 38 10000 5.14 230 23:41 09.01.2021
3886 Clouds 25 1014 31 10000 3.6 250 22:59 09.01.2021
3887 Clouds 26 1014 31 10000 3.6 250 22:20 09.01.2021
3888 Clouds 27 1014 29 10000 2.57 250 21:58 09.01.2021
3889 Clouds 27 1014 29 10000 2.57 250 21:39 09.01.2021
3890 Clouds 27 1014 29 10000 2.57 250 21:20 09.01.2021
3891 Clouds 27 1015 31 10000 2.57 200 20:47 09.01.2021
3892 Clouds 26 1015 31 10000 2.57 200 20:28 09.01.2021
3893 Clouds 26 1015 38 10000 2.06 220 19:39 09.01.2021
3894 Clouds 26 1015 38 10000 2.06 220 19:20 09.01.2021
3895 Clear 25 1016 43 10000 2.06 240 18:37 09.01.2021
3896 Clear 24 1016 46 10000 1.54 210 17:53 09.01.2021
3897 Clear 24 1016 46 10000 1.54 210 17:33 09.01.2021
3898 Clear 23 1016 49 10000 2.06 180 16:56 09.01.2021
3899 Clear 23 1016 49 10000 2.06 180 16:22 09.01.2021
3900 Clear 21 1016 59 10000 1.03 240 15:41 09.01.2021
3901 Clear 21 1016 59 10000 1.03 240 15:19 09.01.2021
3902 Clear 19 1017 72 10000 1.54 280 14:37 09.01.2021
3903 Clear 19 1017 72 10000 1.54 280 14:18 09.01.2021
3904 Clear 18 1017 77 10000 1.03 180 13:43 09.01.2021
3905 Clear 16 1017 77 10000 1.03 180 13:24 09.01.2021
3906 Clear 14 1016 94 10000 1.54 260 12:28 09.01.2021
3907 Clouds 16 1015 94 6000 4.63 160 11:58 09.01.2021
3908 Clouds 16 1015 94 6000 4.63 160 11:37 09.01.2021
3909 Mist 15 1015 100 4000 3.6 150 11:18 09.01.2021
3910 Mist 14 1015 93 5000 3.09 160 10:42 09.01.2021
3911 Clouds 15 1015 87 10000 2.57 160 10:22 09.01.2021
3912 Clouds 15 1015 87 10000 2.57 170 09:43 09.01.2021
3913 Clouds 16 1015 87 10000 2.57 170 09:20 09.01.2021
3914 Clouds 16 1016 88 10000 3.09 150 07:49 09.01.2021
3915 Clouds 17 1017 82 10000 4.12 160 06:53 09.01.2021
3916 Clouds 17 1017 82 10000 4.12 160 06:33 09.01.2021
3917 Clear 19 1017 59 10000 7.2 150 03:53 09.01.2021
3918 Clear 20 1016 52 10000 5.66 150 02:41 09.01.2021
3919 Clear 20 1016 52 10000 5.66 150 02:23 09.01.2021
3920 Clear 20 1016 52 10000 5.66 150 02:23 09.01.2021
3921 Clouds 23 1016 38 10000 3.6 230 01:25 09.01.2021
3922 Clouds 24 1016 38 10000 3.6 230 00:33 09.01.2021
3923 Clouds 24 1016 38 10000 3.6 230 00:33 09.01.2021
3924 Clouds 25 1016 36 10000 5.14 220 23:46 08.01.2021
3925 Clouds 27 1016 36 10000 4.12 230 22:46 08.01.2021
3926 Clouds 27 1016 38 10000 5.14 230 21:53 08.01.2021
3927 Clouds 27 1016 38 10000 5.14 230 21:19 08.01.2021
3928 Clouds 28 1015 30 10000 3.6 270 20:37 08.01.2021
3929 Clouds 29 1015 30 10000 4.12 250 19:58 08.01.2021
3930 Clouds 29 1015 30 10000 4.12 250 19:25 08.01.2021
3931 Clouds 28 1015 26 10000 3.09 210 18:54 08.01.2021
3932 Clouds 28 1015 26 10000 3.09 210 18:54 08.01.2021
3933 Clouds 28 1015 26 10000 3.09 210 18:32 08.01.2021
3934 Clouds 28 1016 29 10000 2.57 250 17:54 08.01.2021
3935 Clouds 28 1016 29 10000 2.57 250 17:25 08.01.2021
3936 Clouds 26 1016 31 10000 3.09 210 16:49 08.01.2021
3937 Clouds 23 1016 35 10000 2.57 210 15:52 08.01.2021
3938 Clouds 25 1016 35 10000 2.57 210 15:32 08.01.2021
3939 Clear 23 1017 40 10000 1.54 230 14:40 08.01.2021
3940 Clear 19 1017 48 10000 2.19 258 13:55 08.01.2021
3941 Clear 19 1017 48 10000 1.65 252 13:22 08.01.2021
3942 Clear 18 1016 72 10000 1.65 252 12:52 08.01.2021
3943 Clear 17 1016 72 10000 0.87 269 12:22 08.01.2021
3944 Clear 17 1016 72 10000 0.87 269 12:22 08.01.2021
3945 Clear 18 1015 77 8000 1.54 240 11:50 08.01.2021
3946 Clear 17 1015 77 8000 1.54 240 11:30 08.01.2021
3947 Clear 17 1014 77 10000 1.54 170 10:56 08.01.2021
3948 Clear 17 1014 77 10000 1.54 170 10:38 08.01.2021
3949 Clear 18 1014 72 10000 2.57 170 09:53 08.01.2021
3950 Clear 18 1014 72 10000 2.57 170 09:34 08.01.2021
3951 Clear 16 1014 63 10000 3.09 160 08:41 08.01.2021
3952 Clear 17 1015 59 10000 4.63 160 07:29 08.01.2021
3953 Clear 17 1015 59 10000 3.6 150 06:40 08.01.2021
3954 Clouds 27 1015 26 10000 5.66 240 00:32 08.01.2021
3955 Clouds 28 1015 26 10000 5.66 240 23:41 07.01.2021
3956 Clouds 30 1015 26 10000 4.63 240 22:50 07.01.2021
3957 Clouds 30 1015 26 10000 4.63 240 22:32 07.01.2021
3958 Clouds 31 1015 23 10000 4.12 240 21:49 07.01.2021
3959 Clouds 31 1015 23 10000 4.12 240 21:27 07.01.2021
3960 Clouds 31 1016 22 10000 4.12 240 20:48 07.01.2021
3961 Clouds 31 1016 22 10000 4.12 240 20:29 07.01.2021
3962 Clear 32 1016 25 10000 4.12 210 19:47 07.01.2021
3963 Clear 32 1016 25 10000 4.12 210 19:23 07.01.2021
3964 Clear 31 1016 23 10000 2.57 260 18:40 07.01.2021
3965 Clear 31 1016 23 10000 2.57 260 18:19 07.01.2021
3966 Clear 29 1017 30 10000 2.06 280 17:31 07.01.2021
3967 Clear 28 1017 36 10000 2.57 250 16:55 07.01.2021
3968 Clear 28 1017 36 10000 2.57 250 16:32 07.01.2021
3969 Clear 26 1017 41 10000 1.54 200 15:48 07.01.2021
3970 Clear 25 1017 41 10000 1.54 200 15:30 07.01.2021
3971 Clear 22 1017 43 10000 1.03 150 14:27 07.01.2021
3972 Clear 21 1017 55 10000 2.04 258 13:49 07.01.2021
3973 Clear 20 1017 55 10000 1.34 264 13:22 07.01.2021
3974 Clear 24 930 81 10000 1.34 264 12:52 07.01.2021
3975 Clear 18 1015 76 8000 1.5 290 12:21 07.01.2021
3976 Clear 16 1015 76 8000 1.5 290 11:38 07.01.2021
3977 Clear 14 1015 76 10000 0.18 278 10:54 07.01.2021
3978 Clear 14 1015 76 10000 0.18 278 10:35 07.01.2021
3979 Clear 15 1015 72 10000 1 0 09:50 07.01.2021
3980 Clear 15 1015 72 10000 1 0 09:32 07.01.2021
3981 Clear 16 1015 67 10000 1 0 08:31 07.01.2021
3982 Clear 16 1015 67 10000 2.6 140 07:57 07.01.2021
3983 Clear 16 1015 67 10000 2.6 140 07:38 07.01.2021
3984 Clear 18 1016 59 10000 3.6 150 05:52 07.01.2021
3985 Clear 25 1014 38 10000 6.7 220 01:34 07.01.2021
3986 Clear 28 1015 23 10000 4.1 240 23:58 06.01.2021
3987 Clear 30 1015 23 10000 4.1 240 22:51 06.01.2021
3988 Clear 30 1015 27 10000 4.6 240 22:20 06.01.2021
3989 Clear 30 1015 27 10000 4.6 240 21:41 06.01.2021
3990 Clear 30 1015 27 10000 4.6 240 21:41 06.01.2021
3991 Clear 30 1016 27 10000 4.1 200 21:22 06.01.2021
3992 Clear 30 1016 27 10000 4.1 200 20:42 06.01.2021
3993 Clear 30 1016 27 10000 3.1 180 20:22 06.01.2021
3994 Clear 30 1016 27 10000 3.1 180 19:42 06.01.2021
3995 Clear 30 1016 27 10000 3.1 180 19:24 06.01.2021
3996 Clear 29 1016 30 10000 3.6 240 18:45 06.01.2021
3997 Clear 29 1016 30 10000 3.6 240 18:27 06.01.2021
3998 Clear 27 1017 31 10000 2.6 210 17:45 06.01.2021
3999 Clear 27 1017 31 10000 2.6 210 17:26 06.01.2021
4000 Clear 26 1017 33 10000 2.1 150 16:56 06.01.2021
4001 Clear 25 1017 38 10000 1.5 270 16:20 06.01.2021
4002 Clear 25 1017 38 10000 1.5 270 15:58 06.01.2021
4003 Clear 24 1017 38 10000 1.5 270 15:33 06.01.2021
4004 Clear 22 1017 45 10000 1.5 240 14:57 06.01.2021
4005 Clear 21 1017 45 10000 1.5 240 14:30 06.01.2021
4006 Clear 19 1017 55 10000 0.5 240 13:51 06.01.2021
4007 Clear 16 1016 71 10000 1.66 248 13:25 06.01.2021
4008 Clear 16 1016 71 10000 1.55 257 12:54 06.01.2021
4009 Clear 16 1016 71 10000 1.55 257 12:30 06.01.2021
4010 Clear 14 1015 81 8000 2.1 170 11:44 06.01.2021
4011 Clear 12 1015 81 10000 2.6 170 11:21 06.01.2021
4012 Clear 13 1015 81 10000 2.6 170 10:35 06.01.2021
4013 Clear 13 1014 76 10000 2.1 150 09:52 06.01.2021
4014 Clear 13 1014 76 10000 2.1 150 09:27 06.01.2021
4015 Clear 13 1014 76 10000 2.6 170 08:51 06.01.2021
4016 Clear 13 1014 76 10000 3.6 170 08:18 06.01.2021
4017 Clear 13 1014 76 10000 3.6 170 07:49 06.01.2021
4018 Clear 16 1015 59 10000 3.6 160 05:59 06.01.2021
4019 Clear 18 1015 52 10000 4.6 150 04:43 06.01.2021
4020 Clear 21 1014 40 10000 5.7 140 02:55 06.01.2021
4021 Clear 21 1014 40 10000 5.7 140 02:36 06.01.2021
4022 Clear 22 1013 35 10000 7.2 190 02:18 06.01.2021
4023 Clouds 27 1013 28 10000 4.6 240 23:44 05.01.2021
4024 Clouds 28 1013 28 10000 5.1 250 22:55 05.01.2021
4025 Clouds 28 1013 28 10000 5.1 250 22:36 05.01.2021
4026 Clouds 29 1013 26 10000 3.6 0 22:18 05.01.2021
4027 Clouds 29 1014 26 10000 3.6 0 21:19 05.01.2021
4028 Clouds 29 1014 26 10000 3.6 0 20:30 05.01.2021
4029 Clouds 29 1014 26 10000 3.6 230 19:45 05.01.2021
4030 Clouds 29 1014 26 10000 3.6 230 19:24 05.01.2021
4031 Clear 28 1014 28 10000 3.1 210 18:49 05.01.2021
4032 Clear 28 1014 28 10000 3.1 210 18:28 05.01.2021
4033 Clear 27 1014 25 10000 2.6 270 17:54 05.01.2021
4034 Clear 27 1014 25 10000 2.6 270 17:32 05.01.2021
4035 Clear 25 1015 29 10000 1.5 230 16:54 05.01.2021
4036 Clear 24 1015 26 10000 2.1 270 16:24 05.01.2021
4037 Clear 24 1015 26 10000 2.1 270 15:59 05.01.2021
4038 Clear 24 1015 26 10000 2.1 270 15:35 05.01.2021
4039 Clear 21 1015 37 10000 2.1 210 14:48 05.01.2021
4040 Clear 19 1015 48 10000 0.5 10 14:18 05.01.2021
4041 Clear 18 1015 48 10000 0.5 10 13:39 05.01.2021
4042 Clear 15 1015 71 10000 1.85 251 13:20 05.01.2021
4043 Clear 14 1015 71 10000 1.85 251 12:46 05.01.2021
4044 Clear 16 1014 71 10000 3.1 160 12:20 05.01.2021
4045 Clear 14 1014 71 10000 3.1 160 11:32 05.01.2021
4046 Clear 14 1014 71 10000 3.1 160 11:31 05.01.2021
4047 Clear 13 1013 62 10000 2.6 170 10:46 05.01.2021
4048 Clear 13 1013 62 10000 2.6 170 10:25 05.01.2021
4049 Clear 13 1013 62 10000 3.6 160 09:47 05.01.2021
4050 Clear 13 1013 62 10000 3.6 160 09:26 05.01.2021
4051 Clear 14 1013 54 10000 3.1 160 08:23 05.01.2021
4052 Clear 15 1013 51 10000 4.1 160 06:39 05.01.2021
4053 Clear 19 1014 34 10000 5.1 150 03:48 05.01.2021
4054 Clear 25 1011 31 10000 8.7 210 00:45 05.01.2021
4055 Clouds 28 1013 32 10000 4.6 230 23:44 04.01.2021
4056 Clouds 29 1012 28 10000 4.6 220 23:24 04.01.2021
4057 Clouds 30 1012 28 10000 4.6 220 22:49 04.01.2021
4058 Clouds 30 1012 27 10000 3.1 260 22:22 04.01.2021
4059 Clouds 31 1012 27 10000 3.1 260 21:45 04.01.2021
4060 Clouds 30 1013 27 10000 4.6 260 21:25 04.01.2021
4061 Clouds 30 1013 27 10000 4.6 260 20:43 04.01.2021
4062 Clear 30 1013 30 10000 4.6 230 20:22 04.01.2021
4063 Clear 29 1013 30 10000 4.6 230 19:48 04.01.2021
4064 Clouds 30 1012 28 10000 4.1 210 19:22 04.01.2021
4065 Clouds 30 1012 28 10000 4.1 210 18:48 04.01.2021
4066 Clear 29 1013 28 10000 3.6 240 18:19 04.01.2021
4067 Clear 29 1013 28 10000 3.6 240 17:41 04.01.2021
4068 Clear 28 1013 34 10000 2.6 270 17:22 04.01.2021
4069 Clear 28 1013 34 10000 2.6 270 16:45 04.01.2021
4070 Clear 27 1013 34 10000 2.6 270 16:26 04.01.2021
4071 Clear 26 1013 41 10000 2.6 270 15:49 04.01.2021
4072 Clear 25 1013 43 10000 1 20 15:25 04.01.2021
4073 Clear 25 1013 43 10000 1 20 14:34 04.01.2021
4074 Clear 22 1014 56 10000 1 220 13:44 04.01.2021
4075 Clear 19 1013 67 10000 1 30 13:22 04.01.2021
4076 Clear 18 1013 67 10000 1 30 12:36 04.01.2021
4077 Clear 18 1012 72 10000 1.5 260 11:55 04.01.2021
4078 Clear 16 1012 67 10000 1.5 140 11:21 04.01.2021
4079 Clear 16 1012 67 10000 1.5 140 10:47 04.01.2021
4080 Clear 16 1012 67 10000 1.5 140 10:25 04.01.2021
4081 Clear 17 1012 63 10000 2.1 170 09:51 04.01.2021
4082 Clear 17 1012 63 10000 1 160 09:19 04.01.2021
4083 Clear 17 1012 63 10000 1 160 08:41 04.01.2021
4084 Clear 18 1012 59 10000 3.1 160 07:54 04.01.2021
4085 Clear 19 1013 55 10000 3.6 170 07:18 04.01.2021
4086 Clear 21 1013 49 10000 3.1 150 05:21 04.01.2021
4087 Clear 24 1013 38 10000 5.7 170 02:34 04.01.2021
4088 Clear 28 1013 32 10000 4.6 240 00:29 04.01.2021
4089 Clear 29 1013 32 10000 4.6 240 23:47 03.01.2021
4090 Clear 30 1013 35 10000 4.1 240 23:19 03.01.2021
4091 Clear 31 1013 35 10000 4.1 240 22:49 03.01.2021
4092 Clear 31 1013 35 10000 4.1 240 22:30 03.01.2021
4093 Clear 31 1014 23 10000 4.6 240 21:47 03.01.2021
4094 Clouds 32 1014 27 10000 3.6 240 21:25 03.01.2021
4095 Clouds 32 1014 27 10000 3.6 240 20:43 03.01.2021
4096 Clouds 32 1014 27 10000 3.6 240 20:23 03.01.2021
4097 Clear 32 1013 30 10000 6.2 190 19:54 03.01.2021
4098 Clear 30 1015 32 10000 2.6 270 19:34 03.01.2021
4099 Clear 30 1015 32 10000 2.6 270 18:54 03.01.2021
4100 Clear 30 1015 32 10000 2.6 270 18:36 03.01.2021
4101 Clear 29 1015 32 10000 2.1 270 17:57 03.01.2021
4102 Clear 29 1015 32 10000 2.1 270 17:38 03.01.2021
4103 Clear 27 1015 44 10000 1.5 200 17:18 03.01.2021
4104 Clear 27 1015 44 10000 1.5 200 16:41 03.01.2021
4105 Clear 26 1015 46 10000 2.1 240 16:19 03.01.2021
4106 Clear 25 1015 46 10000 2.1 240 15:45 03.01.2021
4107 Clouds 26 1015 49 10000 1 20 15:23 03.01.2021
4108 Clouds 25 1015 49 10000 1 20 14:45 03.01.2021
4109 Clouds 23 1015 49 10000 1 20 14:24 03.01.2021
4110 Clouds 22 1016 59 10000 2.1 180 13:39 03.01.2021
4111 Clouds 17 1016 62 10000 1 180 13:21 03.01.2021
4112 Clouds 16 1015 82 10000 1.5 260 11:57 03.01.2021
4113 Clouds 16 1015 82 10000 1.5 260 11:39 03.01.2021
4114 Clouds 16 1015 77 10000 2.6 140 11:21 03.01.2021
4115 Clouds 15 1015 77 10000 2.6 140 10:34 03.01.2021
4116 Clouds 16 1014 72 10000 1 0 09:52 03.01.2021
4117 Clouds 16 1014 72 10000 1 0 09:28 03.01.2021
4118 Clouds 16 1014 72 10000 1.5 200 08:32 03.01.2021
4119 Clear 17 1016 72 10000 4.6 160 06:57 03.01.2021
4120 Clear 19 1016 56 10000 4.6 150 03:30 03.01.2021
4121 Clear 21 1015 46 10000 5.7 190 02:26 03.01.2021
4122 Clear 23 1014 41 10000 7.2 200 00:54 03.01.2021
4123 Clouds 26 1016 39 10000 3.6 260 23:53 02.01.2021
4124 Clouds 28 1016 36 10000 4.6 250 23:20 02.01.2021
4125 Clouds 28 1016 36 10000 4.6 250 22:48 02.01.2021
4126 Clouds 27 1016 36 10000 4.6 250 22:29 02.01.2021
4127 Clouds 29 1016 37 10000 5.1 230 21:49 02.01.2021
4128 Clouds 29 1016 37 10000 5.1 230 21:29 02.01.2021
4129 Clouds 29 1016 34 10000 4.1 200 20:46 02.01.2021
4130 Clouds 29 1016 34 10000 3.1 240 20:26 02.01.2021
4131 Clouds 30 1016 34 10000 3.1 240 19:48 02.01.2021
4132 Clouds 28 1016 41 10000 3.1 0 19:20 02.01.2021
4133 Clouds 28 1016 41 10000 3.1 0 18:51 02.01.2021
4134 Clouds 28 1016 41 10000 3.1 0 18:32 02.01.2021
4135 Clouds 27 1016 39 10000 3.6 250 17:46 02.01.2021
4136 Clouds 27 1016 39 10000 3.6 250 17:28 02.01.2021
4137 Clouds 27 1016 41 10000 2.6 230 16:46 02.01.2021
4138 Clouds 25 1016 49 10000 1 240 16:21 02.01.2021
4139 Clouds 25 1016 49 10000 1 240 15:46 02.01.2021
4140 Clouds 24 1016 49 10000 1 240 15:27 02.01.2021
4141 Clouds 23 1016 56 10000 2.25 266 14:47 02.01.2021
4142 Clouds 19 1016 63 10000 1 290 14:23 02.01.2021
4143 Clouds 21 1016 63 10000 1 290 13:43 02.01.2021
4144 Clouds 16 1016 76 10000 1.26 256 12:55 02.01.2021
4145 Clouds 15 1016 76 10000 1.39 257 12:32 02.01.2021
4146 Clouds 16 1014 76 10000 3.1 160 11:59 02.01.2021
4147 Clouds 16 1014 72 10000 4.6 150 11:26 02.01.2021
4148 Clouds 16 1014 72 10000 4.6 150 10:59 02.01.2021
4149 Clouds 16 1014 72 10000 4.6 150 10:35 02.01.2021
4150 Clouds 16 1013 72 10000 4.6 160 09:59 02.01.2021
4151 Clouds 16 1013 72 10000 4.6 160 09:39 02.01.2021
4152 Clear 16 1013 72 10000 2.6 200 09:19 02.01.2021
4153 Clear 16 1013 72 10000 2.6 200 08:41 02.01.2021
4154 Clear 17 1013 63 10000 3.6 160 08:18 02.01.2021
4155 Clear 17 1013 63 10000 3.6 160 07:24 02.01.2021
4156 Clear 18 1014 67 10000 3.6 170 06:57 02.01.2021
4157 Clear 18 1014 63 10000 5.7 160 05:55 02.01.2021
4158 Clear 23 1013 38 10000 5.7 190 01:58 02.01.2021
4159 Clear 26 1014 32 10000 4.1 240 00:38 02.01.2021
4160 Clear 28 1014 32 10000 4.1 240 23:58 01.01.2021
4161 Clear 29 1014 30 10000 4.6 250 23:24 01.01.2021
4162 Clear 30 1014 30 10000 4.6 250 22:52 01.01.2021
4163 Clear 30 1014 30 10000 4.6 250 22:27 01.01.2021
4164 Clear 31 1015 28 10000 4.1 230 22:00 01.01.2021
4165 Clear 31 1015 28 10000 4.1 230 21:41 01.01.2021
4166 Clear 31 1015 27 10000 3.6 0 21:19 01.01.2021
4167 Clear 32 1015 27 10000 3.6 0 20:48 01.01.2021
4168 Clear 31 1015 30 10000 3.6 230 20:18 01.01.2021
4169 Clear 31 1015 30 10000 3.6 230 19:42 01.01.2021
4170 Clear 30 1016 23 10000 2.6 240 19:22 01.01.2021
4171 Clear 30 1016 23 10000 2.6 240 18:45 01.01.2021
4172 Clear 30 1016 26 10000 3.6 240 18:23 01.01.2021
4173 Clear 29 1016 26 10000 3.6 240 17:47 01.01.2021
4174 Clear 28 1016 24 10000 2.6 240 17:23 01.01.2021
4175 Clear 28 1016 24 10000 2.6 240 16:50 01.01.2021
4176 Clear 28 1016 24 10000 2.6 240 16:25 01.01.2021
4177 Clear 26 1017 29 10000 2.6 250 15:41 01.01.2021
4178 Clear 26 1016 35 10000 1.5 240 14:48 01.01.2021
4179 Clear 24 1016 35 10000 1.5 240 14:27 01.01.2021
4180 Clear 23 1016 40 10000 1.5 230 13:40 01.01.2021
4181 Clear 18 1015 55 10000 1.5 190 12:57 01.01.2021
4182 Clear 20 1015 55 10000 1.5 190 12:36 01.01.2021
4183 Clear 19 1014 45 10000 0.5 0 11:43 01.01.2021
4184 Clouds 17 1013 42 10000 2.1 150 11:23 01.01.2021
4185 Clouds 17 1013 42 10000 2.1 150 10:59 01.01.2021
4186 Clouds 18 1013 42 10000 2.1 150 10:33 01.01.2021
4187 Clouds 18 1012 45 10000 3.6 170 09:39 01.01.2021
4188 Clouds 18 1011 45 10000 3.1 150 08:52 01.01.2021
4189 Clouds 18 1011 45 10000 3.1 150 08:25 01.01.2021
4190 Clouds 20 1012 35 10000 4.1 160 04:52 01.01.2021
4191 Clear 23 1011 33 10000 5.1 150 02:25 01.01.2021
4192 Clear 27 1013 26 10000 3.1 240 00:37 01.01.2021
4193 Clear 29 1012 25 10000 3.6 240 23:56 31.12.2020
4194 Clear 30 1012 23 10000 4.1 210 23:22 31.12.2020
4195 Clear 31 1012 23 10000 4.1 210 22:56 31.12.2020
4196 Clear 31 1012 23 10000 4.1 210 22:37 31.12.2020
4197 Clear 31 1013 20 10000 3.6 240 22:19 31.12.2020
4198 Clear 31 1013 20 10000 3.6 240 21:44 31.12.2020
4199 Clear 32 1013 19 10000 4.6 250 21:21 31.12.2020
4200 Clear 33 1013 19 10000 4.6 250 20:31 31.12.2020
4201 Clear 32 1013 17 10000 4.1 220 19:59 31.12.2020
4202 Clear 33 1013 17 10000 4.1 220 19:36 31.12.2020
4203 Clear 32 1013 20 10000 3.1 230 19:18 31.12.2020
4204 Clear 32 1013 20 10000 3.1 230 18:41 31.12.2020
4205 Clear 32 1013 20 10000 2.6 250 18:23 31.12.2020
4206 Clear 31 1013 20 10000 2.6 250 17:41 31.12.2020
4207 Clear 31 1013 23 10000 2.6 260 17:21 31.12.2020
4208 Clear 30 1013 23 10000 2.6 260 16:39 31.12.2020
4209 Clear 28 1013 26 10000 1.5 220 16:20 31.12.2020
4210 Clear 28 1013 26 10000 1.5 220 15:45 31.12.2020
4211 Clear 28 1013 29 10000 1.5 260 15:20 31.12.2020
4212 Clear 27 1013 29 10000 1.5 260 14:54 31.12.2020
4213 Clear 27 1013 29 10000 1.5 260 14:36 31.12.2020
4214 Clear 25 1013 37 10000 1.91 274 14:18 31.12.2020
4215 Clear 23 1013 37 10000 1.91 274 13:38 31.12.2020
4216 Clear 20 1012 42 10000 1.27 279 13:19 31.12.2020
4217 Clear 19 1012 42 10000 1.27 279 12:52 31.12.2020
4218 Clear 19 1012 42 10000 1.12 277 12:32 31.12.2020
4219 Clear 19 1010 48 7000 0.37 345 11:51 31.12.2020
4220 Clear 16 1010 48 7000 0.37 345 11:32 31.12.2020
4221 Clear 16 1010 51 10000 0.07 57 10:46 31.12.2020
4222 Clear 16 1010 51 10000 0.13 21 10:28 31.12.2020
4223 Clear 16 1010 44 10000 0.13 21 09:51 31.12.2020
4224 Clear 16 1010 44 10000 0.32 83 09:26 31.12.2020
4225 Clear 17 1011 39 10000 1.5 350 08:50 31.12.2020
4226 Clear 17 1011 39 10000 1.5 350 08:31 31.12.2020
4227 Clear 19 1011 32 10000 3.1 170 07:56 31.12.2020
4228 Clear 18 1011 32 10000 3.1 170 07:27 31.12.2020
4229 Clear 20 1012 35 10000 3.1 170 05:30 31.12.2020
4230 Clear 22 1013 31 10000 2.1 170 03:40 31.12.2020
4231 Clear 25 1012 24 10000 4.6 200 02:45 31.12.2020
4232 Clear 25 1012 24 10000 4.6 200 02:25 31.12.2020
4233 Clear 26 1012 21 10000 6.7 210 01:43 31.12.2020
4234 Clear 27 1012 18 10000 7.7 220 01:22 31.12.2020
4235 Clear 30 1012 18 10000 7.7 220 00:44 31.12.2020
4236 Clear 30 1014 20 10000 4.1 210 23:48 30.12.2020
4237 Clear 31 1014 55 10000 3.6 210 23:19 30.12.2020
4238 Clear 31 1014 55 10000 3.6 210 22:47 30.12.2020
4239 Clear 31 1014 55 10000 3.6 210 22:47 30.12.2020
4240 Clear 32 1014 55 10000 3.6 210 22:29 30.12.2020
4241 Clear 32 1014 15 10000 2.6 200 21:39 30.12.2020
4242 Clear 31 1015 22 10000 3.1 180 21:20 30.12.2020
4243 Clear 31 1015 22 10000 3.1 180 20:48 30.12.2020
4244 Clear 31 1015 25 10000 3.1 180 20:20 30.12.2020
4245 Clear 31 1015 25 10000 3.1 180 19:40 30.12.2020
4246 Clear 30 1016 28 10000 4.1 240 19:21 30.12.2020
4247 Clear 30 1016 28 10000 4.1 240 18:46 30.12.2020
4248 Clear 30 1016 28 10000 4.1 240 18:27 30.12.2020
4249 Clear 28 1016 34 10000 3.1 180 17:51 30.12.2020
4250 Clear 27 1017 38 10000 2.6 260 17:32 30.12.2020
4251 Clear 26 1017 38 10000 2.6 260 16:53 30.12.2020
4252 Clear 24 1017 49 10000 2.6 240 16:29 30.12.2020
4253 Clear 24 1017 49 10000 2.6 240 15:47 30.12.2020
4254 Clear 22 1018 52 10000 1.5 230 15:24 30.12.2020
4255 Clear 23 1018 52 10000 1.5 230 14:44 30.12.2020
4256 Clear 20 1018 63 10000 1.5 180 14:22 30.12.2020
4257 Clear 18 1018 63 10000 1.5 180 13:29 30.12.2020
4258 Clear 16 1017 67 10000 0.37 288 12:29 30.12.2020
4259 Clear 16 1016 67 7000 2.6 170 11:57 30.12.2020
4260 Clear 16 1016 67 7000 2.6 170 11:36 30.12.2020
4261 Clear 14 1016 71 10000 0.41 230 11:18 30.12.2020
4262 Clear 14 1016 71 10000 0.41 230 10:40 30.12.2020
4263 Clear 14 1016 67 10000 1.5 10 10:21 30.12.2020
4264 Clear 14 1016 67 10000 1.5 10 09:48 30.12.2020
4265 Clear 15 1017 67 10000 2.1 210 09:23 30.12.2020
4266 Clear 15 1017 63 10000 0.86 215 08:24 30.12.2020
4267 Clear 16 1017 63 10000 0.35 44 07:29 30.12.2020
4268 Clear 16 1018 63 10000 2.6 150 06:44 30.12.2020
4269 Clear 17 1019 59 10000 4.1 160 05:52 30.12.2020
4270 Clear 17 1019 59 10000 4.1 160 05:31 30.12.2020
4271 Clear 18 1019 48 10000 3.6 140 04:29 30.12.2020
4272 Clouds 19 1017 45 10000 8.2 180 03:28 30.12.2020
4273 Clouds 19 1017 45 10000 8.2 180 02:38 30.12.2020
4274 Clouds 20 1017 40 10000 9.3 190 01:51 30.12.2020
4275 Clouds 21 1017 40 10000 9.3 190 01:32 30.12.2020
4276 Clouds 22 1016 40 10000 7.2 210 00:47 30.12.2020
4277 Clouds 24 1017 36 10000 4.6 230 00:29 30.12.2020
4278 Clouds 25 1017 36 10000 4.6 230 23:53 29.12.2020
4279 Clouds 25 1017 36 10000 4.6 230 23:35 29.12.2020
4280 Clouds 27 1017 34 10000 4.6 250 22:50 29.12.2020
4281 Clouds 27 1017 34 10000 4.6 250 22:32 29.12.2020
4282 Clouds 28 1017 32 10000 4.6 240 21:59 29.12.2020
4283 Clouds 28 1017 32 10000 4.6 240 21:59 29.12.2020
4284 Clouds 28 1017 32 10000 4.6 240 21:39 29.12.2020
4285 Clouds 28 1019 32 10000 3.6 250 21:21 29.12.2020
4286 Clouds 28 1019 32 10000 3.6 250 20:44 29.12.2020
4287 Clouds 28 1018 41 10000 3.6 240 20:25 29.12.2020
4288 Clouds 29 1018 41 10000 3.6 240 19:45 29.12.2020
4289 Clouds 27 1018 41 10000 4.1 240 19:23 29.12.2020
4290 Clouds 27 1018 41 10000 4.1 240 18:54 29.12.2020
4291 Clouds 28 1018 41 10000 4.1 240 18:29 29.12.2020
4292 Clouds 27 1018 44 10000 4.1 210 17:48 29.12.2020
4293 Clouds 26 1019 47 10000 3.6 190 17:23 29.12.2020
4294 Clouds 25 1019 47 10000 3.6 190 16:56 29.12.2020
4295 Clouds 24 1019 53 10000 3.1 220 16:27 29.12.2020
4296 Clouds 23 1019 53 10000 3.1 220 15:51 29.12.2020
4297 Clouds 23 1019 53 10000 3.1 220 15:33 29.12.2020
4298 Clear 21 1019 60 10000 1.5 210 14:45 29.12.2020
4299 Clear 20 1019 63 10000 2.39 256 14:27 29.12.2020
4300 Clear 19 1019 63 10000 2.39 256 13:59 29.12.2020
4301 Clear 17 1018 77 10000 1.99 250 13:25 29.12.2020
4302 Clear 17 1018 77 10000 1.99 250 12:56 29.12.2020
4303 Clear 17 1018 77 10000 1.76 252 12:36 29.12.2020
4304 Clear 17 1017 87 8000 2.1 170 12:18 29.12.2020
4305 Clear 16 1017 87 8000 2.1 170 11:45 29.12.2020
4306 Clear 15 1017 87 8000 2.1 170 11:24 29.12.2020
4307 Clear 15 1016 87 10000 3.6 180 10:20 29.12.2020
4308 Clear 15 1016 87 10000 3.6 180 09:41 29.12.2020
4309 Clear 15 1016 82 10000 3.1 160 09:19 29.12.2020
4310 Clear 15 1016 82 10000 3.1 160 08:49 29.12.2020
4311 Clear 16 1016 82 10000 5.1 160 07:40 29.12.2020
4312 Clear 16 1016 77 10000 5.1 160 07:18 29.12.2020
4313 Clear 17 1016 72 10000 3.6 150 05:44 29.12.2020
4314 Clear 22 1015 46 10000 7.2 190 01:58 29.12.2020
4315 Clear 26 1016 34 10000 4.1 240 00:26 29.12.2020
4316 Clear 27 1016 34 10000 4.1 240 23:38 28.12.2020
4317 Clear 29 1016 28 10000 5.1 240 22:48 28.12.2020
4318 Clear 30 1016 30 10000 5.1 240 21:57 28.12.2020
4319 Clear 30 1016 30 10000 5.1 240 21:39 28.12.2020
4320 Clear 30 1016 33 10000 3.6 210 21:19 28.12.2020
4321 Clear 31 1016 33 10000 3.6 210 20:40 28.12.2020
4322 Clear 31 1017 33 10000 4.1 240 20:20 28.12.2020
4323 Clear 31 1017 33 10000 4.1 240 19:41 28.12.2020
4324 Clear 31 1017 35 10000 3.1 240 19:22 28.12.2020
4325 Clear 30 1017 35 10000 3.1 240 18:49 28.12.2020
4326 Clear 30 1017 39 10000 2.6 210 18:27 28.12.2020
4327 Clear 29 1017 39 10000 2.6 210 17:41 28.12.2020
4328 Clear 27 1017 47 10000 1.5 200 17:18 28.12.2020
4329 Clear 27 1017 47 10000 1.5 200 16:33 28.12.2020
4330 Clear 26 1017 47 10000 1 60 15:59 28.12.2020
4331 Clear 26 1017 47 10000 1 60 15:40 28.12.2020
4332 Clear 24 1017 56 10000 2.1 160 14:49 28.12.2020
4333 Clear 22 1017 63 10000 1 240 13:51 28.12.2020
4334 Clear 18 1017 67 10000 1.37 252 13:24 28.12.2020
4335 Clear 18 1017 67 10000 1.14 252 12:40 28.12.2020
4336 Clear 18 1016 77 8000 0.5 0 12:20 28.12.2020
4337 Clear 17 1016 77 8000 0.5 0 11:45 28.12.2020
4338 Clear 16 1015 77 10000 2.1 140 11:22 28.12.2020
4339 Clear 16 1015 77 10000 2.1 140 10:43 28.12.2020
4340 Clear 15 1015 77 10000 2.1 140 10:25 28.12.2020
4341 Clear 15 1015 77 10000 3.1 170 09:45 28.12.2020
4342 Clear 16 1015 72 10000 3.1 170 09:18 28.12.2020
4343 Clear 17 1015 67 10000 4.1 160 07:21 28.12.2020
4344 Clear 17 1015 67 10000 4.1 160 06:43 28.12.2020
4345 Clear 19 1014 60 10000 5.1 150 04:22 28.12.2020
4346 Clear 22 1013 53 10000 6.2 210 01:57 28.12.2020
4347 Clear 25 1014 41 10000 4.1 230 00:30 28.12.2020
4348 Clear 25 1014 41 10000 4.1 230 00:30 28.12.2020
4349 Clear 27 1014 41 10000 4.1 230 23:46 27.12.2020
4350 Clear 28 1014 42 10000 3.1 220 23:18 27.12.2020
4351 Clouds 28 1015 39 10000 3.6 220 21:56 27.12.2020
4352 Clouds 29 1015 39 10000 3.6 220 21:25 27.12.2020
4353 Clouds 29 1016 39 10000 4.1 220 20:42 27.12.2020
4354 Clouds 28 1016 39 10000 3.6 210 19:25 27.12.2020
4355 Clear 27 1017 39 10000 3.1 210 18:55 27.12.2020
4356 Clear 27 1017 39 10000 3.1 210 18:37 27.12.2020
4357 Clear 26 1017 47 10000 2.1 200 18:18 27.12.2020
4358 Clear 27 1017 47 10000 2.1 200 17:43 27.12.2020
4359 Clear 25 1017 44 10000 2.6 240 17:21 27.12.2020
4360 Clear 25 1017 44 10000 2.6 240 16:30 27.12.2020
4361 Clear 22 1017 45 10000 2.1 210 15:50 27.12.2020
4362 Clear 21 1017 55 10000 1.5 260 14:58 27.12.2020
4363 Clear 21 1017 55 10000 1.5 260 14:38 27.12.2020
4364 Clear 18 1017 71 10000 1 260 13:55 27.12.2020
4365 Clear 14 1016 81 10000 1 210 13:19 27.12.2020
4366 Clear 15 1016 81 10000 1 210 12:43 27.12.2020
4367 Clouds 15 1015 93 10000 3.6 160 11:49 27.12.2020
4368 Clouds 14 1015 93 10000 3.6 160 11:29 27.12.2020
4369 Clear 14 1014 87 10000 3.6 160 10:51 27.12.2020
4370 Clear 14 1014 87 10000 3.6 160 10:24 27.12.2020
4371 Clear 14 1013 87 10000 3.1 160 09:42 27.12.2020
4372 Clear 14 1013 87 10000 2.6 160 08:29 27.12.2020
4373 Clear 15 1013 87 10000 3.1 170 07:59 27.12.2020
4374 Clear 15 1013 87 10000 3.1 170 07:25 27.12.2020
4375 Clear 16 1013 82 10000 4.6 160 05:44 27.12.2020
4376 Clear 17 1013 72 10000 6.7 150 03:26 27.12.2020
4377 Clear 18 1012 68 10000 6.7 150 02:42 27.12.2020
4378 Clear 21 1011 60 10000 6.2 210 01:32 27.12.2020
4379 Clear 25 1012 39 10000 3.6 240 23:57 26.12.2020
4380 Clear 26 1012 39 10000 3.6 240 23:27 26.12.2020
4381 Clear 27 1012 34 10000 4.1 210 22:47 26.12.2020
4382 Clear 28 1012 30 10000 3.6 240 22:20 26.12.2020
4383 Clear 29 1012 30 10000 3.6 240 21:55 26.12.2020
4384 Clear 30 1012 30 10000 3.6 240 21:33 26.12.2020
4385 Clear 30 1013 30 10000 4.1 220 20:59 26.12.2020
4386 Clear 30 1013 30 10000 4.1 220 20:36 26.12.2020
4387 Clear 30 1013 30 10000 4.1 220 20:36 26.12.2020
4388 Clear 30 1013 30 10000 3.6 230 20:18 26.12.2020
4389 Clear 30 1013 30 10000 3.6 230 19:25 26.12.2020
4390 Clear 30 1014 32 10000 3.6 240 18:49 26.12.2020
4391 Clear 30 1014 32 10000 3.6 240 18:27 26.12.2020
4392 Clear 29 1014 30 10000 4.1 240 17:40 26.12.2020
4393 Clear 29 1014 28 10000 2.1 190 17:20 26.12.2020
4394 Clear 28 1014 28 10000 2.1 190 16:35 26.12.2020
4395 Clear 26 1014 31 10000 1.5 260 15:27 26.12.2020
4396 Clear 26 1014 31 10000 1.5 260 15:27 26.12.2020
4397 Clear 25 1014 38 10000 1.5 180 14:50 26.12.2020
4398 Clear 25 1014 38 10000 1.5 180 14:28 26.12.2020
4399 Clear 22 1014 42 10000 2.44 257 13:43 26.12.2020
4400 Clear 19 1014 59 10000 1.62 254 13:25 26.12.2020
4401 Clear 19 1014 59 10000 1.62 254 12:44 26.12.2020
4402 Clear 19 1013 67 10000 1 0 12:22 26.12.2020
4403 Clear 18 1013 67 10000 1 0 11:51 26.12.2020
4404 Clear 15 1012 67 10000 1 0 11:22 26.12.2020
4405 Clear 15 1012 67 10000 1 0 11:22 26.12.2020
4406 Clear 15 1012 67 10000 1 0 10:54 26.12.2020
4407 Clear 15 1012 67 10000 1 0 10:27 26.12.2020
4408 Clear 17 1012 59 10000 1.5 150 09:50 26.12.2020
4409 Clear 17 1012 59 10000 1 0 09:25 26.12.2020
4410 Clear 17 1012 59 10000 1 0 08:29 26.12.2020
4411 Clear 18 1013 55 10000 1.5 170 07:50 26.12.2020
4412 Clear 19 1013 48 10000 2.1 180 06:29 26.12.2020
4413 Clear 24 1012 33 10000 4.6 150 03:19 26.12.2020
4414 Clouds 27 1013 37 10000 2.6 0 01:32 26.12.2020
4415 Clouds 30 1012 27 10000 4.6 240 00:25 26.12.2020
4416 Clouds 29 1012 27 10000 4.6 240 23:39 25.12.2020
4417 Clouds 31 1012 24 10000 4.6 210 23:21 25.12.2020
4418 Clouds 32 1012 24 10000 4.6 210 22:40 25.12.2020
4419 Clouds 33 1012 21 10000 3.6 0 21:54 25.12.2020
4420 Clouds 33 1012 21 10000 3.6 0 21:34 25.12.2020
4421 Clouds 33 1012 19 10000 4.1 210 20:50 25.12.2020
4422 Clouds 33 1012 19 10000 4.1 210 20:31 25.12.2020
4423 Clear 33 1013 21 10000 3.6 0 19:47 25.12.2020
4424 Clear 34 1013 19 10000 2.6 230 19:20 25.12.2020
4425 Clear 33 1013 19 10000 2.6 230 18:39 25.12.2020
4426 Clear 31 1013 22 10000 2.6 270 17:47 25.12.2020
4427 Clear 31 1013 22 10000 2.6 270 17:28 25.12.2020
4428 Clear 30 1014 30 10000 2.1 230 16:33 25.12.2020
4429 Clear 29 1014 30 10000 2.1 230 15:59 25.12.2020
4430 Clear 30 1014 30 10000 2.1 230 15:36 25.12.2020
4431 Clear 25 1014 38 10000 1.5 230 14:54 25.12.2020
4432 Clear 24 1014 38 10000 1.5 230 14:29 25.12.2020
4433 Clear 22 1014 46 10000 1 50 13:44 25.12.2020
4434 Clear 22 1014 46 10000 1 50 13:26 25.12.2020
4435 Clear 20 1014 54 10000 1.72 263 12:45 25.12.2020
4436 Clear 19 1013 62 8000 0.5 0 11:58 25.12.2020
4437 Clear 18 1013 62 8000 0.5 0 11:40 25.12.2020
4438 Clear 14 1013 62 8000 0.5 0 11:19 25.12.2020
4439 Clear 14 1012 67 10000 0.05 249 10:27 25.12.2020
4440 Clear 17 1012 55 10000 1.5 200 09:37 25.12.2020
4441 Clear 17 1012 55 10000 0.15 21 08:48 25.12.2020
4442 Clear 16 1012 59 10000 0.5 0 07:59 25.12.2020
4443 Clear 18 1013 48 10000 1.5 310 06:47 25.12.2020
4444 Clear 21 1013 38 10000 3.1 150 03:49 25.12.2020
4445 Clear 24 1012 31 10000 6.7 200 01:42 25.12.2020
4446 Clear 28 1013 30 10000 4.1 240 00:18 25.12.2020
4447 Clear 30 1013 29 10000 4.1 250 23:23 24.12.2020
4448 Clear 31 1013 29 10000 4.1 250 22:50 24.12.2020
4449 Clear 31 1014 29 10000 3.6 210 22:21 24.12.2020
4450 Clear 31 1014 29 10000 3.6 210 21:36 24.12.2020
4451 Clear 32 1014 29 10000 4.6 230 20:42 24.12.2020
4452 Clear 30 1015 30 10000 3.1 230 18:52 24.12.2020
4453 Clear 30 1016 34 10000 2.1 240 18:19 24.12.2020
4454 Clear 29 1016 34 10000 2.1 240 17:37 24.12.2020
4455 Clear 29 1016 39 10000 2.1 270 16:49 24.12.2020
4456 Clear 26 1016 41 10000 2.6 270 16:22 24.12.2020
4457 Clear 26 1016 41 10000 2.6 270 15:42 24.12.2020
4458 Clear 24 1016 46 10000 1.5 270 15:19 24.12.2020
4459 Clear 24 1016 46 10000 1.5 270 14:50 24.12.2020
4460 Clear 22 1016 59 10000 2.27 248 14:24 24.12.2020
4461 Clear 21 1016 59 10000 2.27 248 13:48 24.12.2020
4462 Clear 20 1016 59 10000 1.84 248 13:29 24.12.2020
4463 Clear 16 1015 67 10000 1.5 60 12:44 24.12.2020
4464 Clear 18 1015 72 8000 1.5 340 12:21 24.12.2020
4465 Clear 18 1015 72 6000 0.54 260 11:47 24.12.2020
4466 Clear 16 1015 72 6000 0.23 244 11:21 24.12.2020
4467 Clear 15 1014 76 10000 0.23 244 10:53 24.12.2020
4468 Clear 15 1014 76 10000 0.23 244 10:35 24.12.2020
4469 Clear 15 1013 72 10000 2.1 160 09:52 24.12.2020
4470 Clear 15 1013 72 10000 2.1 160 09:26 24.12.2020
4471 Clear 16 1013 67 10000 3.1 170 08:39 24.12.2020
4472 Clear 16 1013 67 10000 3.1 170 07:42 24.12.2020
4473 Clear 17 1013 67 10000 3.1 160 07:20 24.12.2020
4474 Clear 18 1014 63 10000 3.6 170 05:49 24.12.2020
4475 Clear 21 1013 52 10000 4.6 160 02:26 24.12.2020
4476 Clear 21 1014 39 10000 1.68 228 01:43 24.12.2020
4477 Clear 24 1013 41 10000 3.1 260 01:18 24.12.2020
4478 Clear 26 1013 39 10000 3.6 250 00:22 24.12.2020
4479 Clear 26 1013 39 10000 3.6 250 23:49 23.12.2020
4480 Clear 26 1013 39 10000 3.6 250 23:49 23.12.2020
4481 Clear 27 1013 39 10000 3.6 250 23:30 23.12.2020
4482 Clear 28 1013 34 10000 4.1 250 22:57 23.12.2020
4483 Clear 27 1013 34 10000 4.1 250 22:33 23.12.2020
4484 Clear 29 1014 34 10000 3.6 240 21:57 23.12.2020
4485 Clear 29 1014 34 10000 3.6 240 21:28 23.12.2020
4486 Clear 29 1014 36 10000 4.1 240 20:56 23.12.2020
4487 Clear 29 1014 36 10000 4.1 240 20:37 23.12.2020
4488 Clear 29 1014 32 10000 4.6 240 20:19 23.12.2020
4489 Clear 29 1014 32 10000 4.6 240 19:39 23.12.2020
4490 Clear 29 1014 36 10000 4.1 240 19:20 23.12.2020
4491 Clear 29 1014 36 10000 4.1 240 18:49 23.12.2020
4492 Clear 29 1015 34 10000 3.6 210 18:29 23.12.2020
4493 Clear 28 1015 34 10000 3.6 210 17:41 23.12.2020
4494 Clear 28 1015 36 10000 2.1 240 17:22 23.12.2020
4495 Clear 27 1015 36 10000 2.1 240 16:49 23.12.2020
4496 Clear 27 1015 36 10000 2.1 240 16:29 23.12.2020
4497 Clear 26 1015 38 10000 2.1 210 15:58 23.12.2020
4498 Clear 26 1015 38 10000 2.1 210 15:38 23.12.2020
4499 Clear 24 1015 46 10000 1.5 190 15:20 23.12.2020
4500 Clear 24 1015 46 10000 1.5 190 14:41 23.12.2020
4501 Clear 22 1014 55 10000 1 250 14:21 23.12.2020
4502 Clear 21 1014 55 10000 1 250 13:45 23.12.2020
4503 Clear 18 1014 67 10000 1.95 257 13:20 23.12.2020
4504 Clear 18 1014 67 10000 1.95 257 12:54 23.12.2020
4505 Clear 17 1014 67 10000 1.94 261 12:30 23.12.2020
4506 Smoke 20 1013 71 5000 0.82 273 11:56 23.12.2020
4507 Smoke 18 1013 71 5000 0.82 273 11:31 23.12.2020
4508 Clear 17 1012 63 10000 1.5 150 10:56 23.12.2020
4509 Clear 17 1012 63 10000 1.5 150 10:37 23.12.2020
4510 Clear 17 1011 67 10000 1 240 09:38 23.12.2020
4511 Clear 17 1012 63 10000 2.1 180 08:57 23.12.2020
4512 Clear 17 1012 63 10000 2.1 180 08:31 23.12.2020
4513 Clear 18 1012 59 10000 3.1 170 07:48 23.12.2020
4514 Clear 19 1012 55 10000 2.6 160 06:42 23.12.2020
4515 Clear 20 1013 52 10000 3.1 150 05:58 23.12.2020
4516 Clear 20 1013 49 10000 4.6 160 05:22 23.12.2020
4517 Clear 25 1012 33 10000 5.7 200 01:57 23.12.2020
4518 Clear 27 1013 34 10000 3.1 250 00:32 23.12.2020
4519 Clear 29 1013 30 10000 4.1 240 23:41 22.12.2020
4520 Clear 30 1013 28 10000 4.1 250 23:22 22.12.2020
4521 Clear 30 1013 28 10000 4.1 250 22:42 22.12.2020
4522 Clear 31 1013 28 10000 4.6 240 22:24 22.12.2020
4523 Clear 31 1013 28 10000 4.6 240 21:48 22.12.2020
4524 Clear 32 1013 19 10000 4.1 230 21:20 22.12.2020
4525 Clear 32 1013 19 10000 4.1 230 20:53 22.12.2020
4526 Clear 32 1013 19 10000 4.1 230 20:35 22.12.2020
4527 Clear 32 1015 21 10000 4.1 230 19:54 22.12.2020
4528 Clear 32 1015 21 10000 4.1 230 19:29 22.12.2020
4529 Clear 31 1015 25 10000 3.1 200 18:59 22.12.2020
4530 Clear 31 1015 25 10000 3.1 200 18:38 22.12.2020
4531 Clear 31 1015 23 10000 2.1 300 18:20 22.12.2020
4532 Clear 31 1015 23 10000 2.1 300 17:38 22.12.2020
4533 Clear 30 1015 23 10000 2.1 300 17:18 22.12.2020
4534 Clear 29 1015 30 10000 2.1 270 16:47 22.12.2020
4535 Clear 28 1015 34 10000 1.5 230 16:21 22.12.2020
4536 Clear 27 1015 34 10000 1.5 230 15:46 22.12.2020
4537 Clear 27 1015 34 10000 1.5 230 15:28 22.12.2020
4538 Clear 25 1015 40 10000 1.5 270 14:57 22.12.2020
4539 Clear 25 1015 40 10000 1.5 270 14:38 22.12.2020
4540 Clear 22 1015 45 10000 2.28 252 14:18 22.12.2020
4541 Clear 22 1015 45 10000 2.28 252 13:42 22.12.2020
4542 Clear 19 1015 55 10000 1.66 241 13:18 22.12.2020
4543 Clear 19 1015 55 10000 1.65 249 12:46 22.12.2020
4544 Clear 18 1015 55 10000 0.55 231 12:27 22.12.2020
4545 Clear 19 1014 51 8000 1 0 11:57 22.12.2020
4546 Clear 18 1013 51 8000 0.55 231 11:39 22.12.2020
4547 Clear 16 1013 51 8000 0.07 265 11:19 22.12.2020
4548 Clear 16 1013 50 10000 0.5 0 10:51 22.12.2020
4549 Clear 17 1013 48 10000 1.5 140 10:24 22.12.2020
4550 Clear 17 1013 48 10000 1.5 140 09:56 22.12.2020
4551 Clear 17 1013 51 10000 0.05 47 09:23 22.12.2020
4552 Clear 17 1013 51 10000 0.05 47 08:53 22.12.2020
4553 Clear 17 1013 51 10000 0.32 234 08:29 22.12.2020
4554 Clear 19 1012 39 10000 0.32 234 07:48 22.12.2020
4555 Clear 19 1014 39 10000 3.6 180 06:48 22.12.2020
4556 Clear 20 1014 33 10000 0.58 232 05:47 22.12.2020
4557 Clear 21 1013 32 10000 5.7 150 03:40 22.12.2020
4558 Clear 27 1014 23 10000 3.1 240 00:47 22.12.2020
4559 Clear 29 1014 20 10000 4.1 250 23:54 21.12.2020
4560 Clear 29 1014 20 10000 4.1 250 23:36 21.12.2020
4561 Clear 31 1013 19 10000 4.6 240 22:38 21.12.2020
4562 Clear 32 1014 21 10000 4.1 230 22:20 21.12.2020
4563 Clear 32 1014 21 10000 4.1 230 21:59 21.12.2020
4564 Clear 32 1014 21 10000 4.1 230 21:39 21.12.2020
4565 Clear 32 1014 21 10000 4.1 230 21:39 21.12.2020
4566 Clear 32 1014 21 10000 4.6 0 21:19 21.12.2020
4567 Clear 32 1014 21 10000 4.6 0 20:29 21.12.2020
4568 Clear 32 1014 21 10000 4.1 0 19:59 21.12.2020
4569 Clear 32 1014 21 10000 4.1 0 19:41 21.12.2020
4570 Clear 31 1015 23 10000 3.1 200 19:19 21.12.2020
4571 Clear 31 1015 23 10000 3.1 200 18:51 21.12.2020
4572 Clear 31 1015 23 10000 3.1 200 18:33 21.12.2020
4573 Clear 31 1015 25 10000 2.6 0 17:43 21.12.2020
4574 Clear 30 1015 25 10000 2.6 0 17:24 21.12.2020
4575 Clear 29 1015 26 10000 2.1 190 16:47 21.12.2020
4576 Clear 27 1015 31 10000 1.5 210 16:27 21.12.2020
4577 Clear 27 1015 31 10000 1.5 210 15:54 21.12.2020
4578 Clear 26 1015 31 10000 1.5 210 15:35 21.12.2020
4579 Clear 26 1015 37 10000 2.45 252 14:57 21.12.2020
4580 Clear 21 1015 45 10000 0.5 150 14:21 21.12.2020
4581 Clear 23 1015 45 10000 0.5 150 13:44 21.12.2020
4582 Clear 18 1015 51 10000 1.33 250 13:26 21.12.2020
4583 Clear 20 1015 51 10000 1.39 256 12:45 21.12.2020
4584 Clear 19 1014 51 8000 1 0 12:25 21.12.2020
4585 Clear 20 1014 51 8000 1 0 11:58 21.12.2020
4586 Clear 18 1013 58 8000 0.29 284 11:39 21.12.2020
4587 Clear 16 1013 62 10000 1.5 10 11:20 21.12.2020
4588 Clear 15 1013 62 10000 1.5 10 10:42 21.12.2020
4589 Clear 15 1013 62 10000 1.5 10 10:24 21.12.2020
4590 Clear 15 1013 58 10000 0.16 204 09:46 21.12.2020
4591 Clear 16 1013 58 10000 0.07 275 09:25 21.12.2020
4592 Clear 16 1013 58 10000 0.07 275 08:52 21.12.2020
4593 Clear 17 1013 51 10000 0.07 227 07:52 21.12.2020
4594 Clear 17 1013 51 10000 0.07 227 07:52 21.12.2020
4595 Clear 17 1013 51 10000 0.5 0 06:47 21.12.2020
4596 Clear 19 1013 42 10000 3.1 160 04:49 21.12.2020
4597 Clear 25 1013 26 10000 4.1 240 01:26 21.12.2020
4598 Clear 26 1013 26 10000 4.1 240 00:32 21.12.2020
4599 Clear 28 1013 23 10000 3.6 240 23:36 20.12.2020
4600 Clear 29 1013 19 10000 4.1 210 22:59 20.12.2020
4601 Clear 29 1013 19 10000 4.1 210 22:59 20.12.2020
4602 Clear 30 1013 19 10000 4.1 210 22:41 20.12.2020
4603 Clear 30 1014 20 10000 3.1 190 22:22 20.12.2020
4604 Clear 30 1014 20 10000 3.1 190 21:40 20.12.2020
4605 Clear 30 1012 22 10000 6.7 210 21:20 20.12.2020
4606 Clear 29 1013 23 10000 5.1 170 20:51 20.12.2020
4607 Clear 29 1015 20 10000 1.5 210 20:24 20.12.2020
4608 Clear 29 1015 20 10000 1.5 210 19:46 20.12.2020
4609 Clear 29 1015 20 10000 1.5 210 19:46 20.12.2020
4610 Clear 29 1015 20 10000 1.5 210 19:28 20.12.2020
4611 Clear 28 1015 29 10000 2.6 0 18:58 20.12.2020
4612 Clear 28 1015 29 10000 2.6 0 18:38 20.12.2020
4613 Clear 27 1016 29 10000 2.1 190 18:19 20.12.2020
4614 Clear 27 1016 29 10000 2.1 190 17:43 20.12.2020
4615 Clear 26 1016 31 10000 1.5 210 17:22 20.12.2020
4616 Clear 26 1016 31 10000 1.5 210 16:45 20.12.2020
4617 Clear 23 1016 21 10000 1.5 310 16:25 20.12.2020
4618 Clear 23 1016 21 10000 1.5 310 15:47 20.12.2020
4619 Clear 22 1016 39 10000 1.5 170 15:24 20.12.2020
4620 Clear 20 1016 39 10000 1.5 170 14:53 20.12.2020
4621 Clear 20 1016 39 10000 1.5 170 14:30 20.12.2020
4622 Clear 20 1017 51 10000 1.91 257 13:47 20.12.2020
4623 Clear 17 1017 51 10000 1.36 258 13:25 20.12.2020
4624 Clear 14 1017 71 10000 1.36 258 12:57 20.12.2020
4625 Clear 14 1017 71 10000 1.37 253 12:39 20.12.2020
4626 Clear 15 1016 66 10000 0.38 262 12:18 20.12.2020
4627 Clear 15 1016 66 10000 0.38 262 11:42 20.12.2020
4628 Clouds 12 1015 66 10000 2.1 160 10:57 20.12.2020
4629 Clouds 12 1015 66 10000 2.1 160 10:38 20.12.2020
4630 Clouds 12 1015 66 10000 3.1 160 10:19 20.12.2020
4631 Clouds 12 1015 66 10000 3.1 160 09:45 20.12.2020
4632 Clouds 12 1015 58 10000 1.5 240 09:27 20.12.2020
4633 Clouds 12 1015 66 10000 3.1 160 09:27 20.12.2020
4634 Clouds 13 1015 58 10000 1.5 240 08:52 20.12.2020
4635 Clouds 13 1015 58 10000 1.5 240 08:33 20.12.2020
4636 Clouds 14 1015 50 10000 1 0 07:23 20.12.2020
4637 Clouds 14 1015 50 10000 1 0 07:23 20.12.2020
4638 Clouds 15 1016 47 10000 3.1 140 05:44 20.12.2020
4639 Clear 21 1015 33 10000 3.6 240 01:33 20.12.2020
4640 Clear 21 1015 33 10000 3.6 240 01:33 20.12.2020
4641 Clear 23 1015 33 10000 3.6 240 00:32 20.12.2020
4642 Clear 25 1015 24 10000 3.1 180 23:19 19.12.2020
4643 Clear 26 1015 24 10000 3.1 180 22:56 19.12.2020
4644 Clear 26 1015 24 10000 3.1 180 22:37 19.12.2020
4645 Clear 26 1015 24 10000 4.1 190 22:18 19.12.2020
4646 Clear 26 1015 24 10000 4.1 190 21:41 19.12.2020
4647 Clear 26 1015 24 10000 4.1 190 21:41 19.12.2020
4648 Clear 27 1015 22 10000 2.6 180 21:23 19.12.2020
4649 Clear 27 1015 22 10000 2.6 180 20:42 19.12.2020
4650 Clear 26 1016 23 10000 2.6 240 20:19 19.12.2020
4651 Clear 26 1016 23 10000 2.6 240 19:50 19.12.2020
4652 Clear 26 1016 23 10000 2.6 240 19:31 19.12.2020
4653 Clouds 26 1016 29 10000 3.6 220 18:41 19.12.2020
4654 Clouds 25 1016 33 10000 3.1 190 18:20 19.12.2020
4655 Clouds 25 1016 33 10000 3.1 190 17:46 19.12.2020
4656 Clouds 24 1016 40 10000 3.1 180 17:24 19.12.2020
4657 Clouds 22 1016 40 10000 3.1 180 16:45 19.12.2020
4658 Clouds 21 1016 40 10000 3.1 180 16:26 19.12.2020
4659 Clouds 21 1017 45 10000 2.1 210 15:58 19.12.2020
4660 Clouds 22 1017 45 10000 2.1 210 15:39 19.12.2020
4661 Clouds 20 1017 63 10000 1 300 14:43 19.12.2020
4662 Clouds 15 1017 71 10000 1 110 14:22 19.12.2020
4663 Clouds 17 1017 71 10000 1 110 13:41 19.12.2020
4664 Clear 15 1017 76 10000 1.8 256 13:20 19.12.2020
4665 Clear 15 1017 76 10000 1.72 251 12:44 19.12.2020
4666 Clear 14 1017 76 10000 0.68 230 12:26 19.12.2020
4667 Clear 12 1016 87 10000 2.6 30 11:58 19.12.2020
4668 Clear 12 1016 87 10000 2.6 30 11:40 19.12.2020
4669 Clouds 10 1016 76 10000 2.1 360 10:45 19.12.2020
4670 Clear 10 1016 76 10000 2.1 360 10:27 19.12.2020
4671 Clear 11 1016 81 10000 0.59 230 09:56 19.12.2020
4672 Clear 11 1016 81 10000 0.59 230 09:38 19.12.2020
4673 Clear 11 1017 76 10000 0.5 0 08:36 19.12.2020
4674 Clear 13 1017 71 10000 1.5 180 07:25 19.12.2020
4675 Clear 13 1018 66 10000 2.6 150 06:54 19.12.2020
4676 Clear 13 1018 66 10000 2.6 160 06:21 19.12.2020
4677 Clear 14 1018 62 10000 4.6 170 05:19 19.12.2020
4678 Clear 16 1018 51 10000 3.6 150 03:20 19.12.2020
4679 Clear 19 1018 39 10000 3.6 200 00:41 19.12.2020
4680 Clouds 21 1017 35 10000 3.6 220 00:18 19.12.2020
4681 Clouds 22 1017 35 10000 3.6 220 23:48 18.12.2020
4682 Clouds 22 1017 35 10000 3.6 220 23:23 18.12.2020
4683 Clouds 22 1017 32 10000 4.1 220 22:46 18.12.2020
4684 Clouds 22 1017 37 10000 3.6 220 22:24 18.12.2020
4685 Clouds 22 1017 37 10000 3.6 220 21:50 18.12.2020
4686 Clouds 22 1017 37 7000 3.1 230 21:31 18.12.2020
4687 Clouds 23 1017 37 7000 3.1 230 20:43 18.12.2020
4688 Clouds 22 1018 42 8000 3.6 250 20:22 18.12.2020
4689 Clouds 22 1018 42 8000 3.6 250 19:45 18.12.2020
4690 Clouds 22 1018 42 8000 3.6 250 19:22 18.12.2020
4691 Clouds 21 1018 45 8000 1.5 270 18:45 18.12.2020
4692 Clouds 20 1018 63 8000 2.6 210 18:24 18.12.2020
4693 Clouds 19 1018 76 7000 1.5 230 17:30 18.12.2020
4694 Clouds 17 1018 76 7000 1.5 230 16:57 18.12.2020
4695 Clouds 18 1018 76 7000 1.5 230 16:38 18.12.2020
4696 Clouds 18 1018 76 7000 2.6 250 16:20 18.12.2020
4697 Clouds 17 1018 76 7000 2.6 250 15:43 18.12.2020
4698 Clouds 16 1017 76 8000 2.6 230 15:24 18.12.2020
4699 Clouds 15 1017 76 8000 2.6 230 14:55 18.12.2020
4700 Clouds 15 1017 76 8000 2.1 0 14:23 18.12.2020
4701 Clouds 14 1017 76 8000 2.1 0 13:51 18.12.2020
4702 Clouds 14 1017 76 8000 2.1 0 13:32 18.12.2020
4703 Clouds 12 1017 81 8000 2.6 200 12:57 18.12.2020
4704 Clouds 13 1017 81 8000 2.6 200 12:34 18.12.2020
4705 Clouds 12 1016 81 10000 3.1 190 11:28 18.12.2020
4706 Clear 13 1015 81 10000 3.1 180 10:40 18.12.2020
4707 Clear 13 1015 87 10000 3.6 180 10:21 18.12.2020
4708 Clear 13 1015 87 10000 3.6 180 09:57 18.12.2020
4709 Clear 13 1015 87 10000 3.6 160 09:36 18.12.2020
4710 Clear 13 1015 87 10000 4.6 170 09:18 18.12.2020
4711 Clear 13 1015 87 10000 4.6 150 08:43 18.12.2020
4712 Clear 12 1015 87 10000 5.1 150 07:56 18.12.2020
4713 Clear 14 1015 87 10000 5.7 160 07:19 18.12.2020
4714 Clear 12 1015 87 10000 5.7 160 06:59 18.12.2020
4715 Clear 12 1015 81 10000 6.2 170 05:44 18.12.2020
4716 Clear 14 1015 76 10000 4.6 150 04:51 18.12.2020
4717 Clear 16 1015 72 10000 5.1 150 03:20 18.12.2020
4718 Clear 19 1013 49 10000 7.7 150 01:44 18.12.2020
4719 Clear 24 1014 38 10000 3.6 240 00:29 18.12.2020
4720 Clear 25 1013 30 10000 4.6 240 23:52 17.12.2020
4721 Clear 27 1013 26 10000 4.1 230 23:21 17.12.2020
4722 Clear 28 1013 26 10000 4.1 230 22:48 17.12.2020
4723 Clear 29 1013 26 10000 4.1 230 22:27 17.12.2020
4724 Clear 30 1014 23 10000 4.6 240 21:46 17.12.2020
4725 Clear 31 1014 19 10000 4.1 230 21:21 17.12.2020
4726 Clear 31 1014 19 10000 4.1 230 20:45 17.12.2020
4727 Clear 30 1014 20 10000 3.1 230 20:20 17.12.2020
4728 Clear 31 1014 20 10000 3.1 230 19:56 17.12.2020
4729 Clear 31 1014 20 10000 3.1 230 19:38 17.12.2020
4730 Clear 30 1014 20 10000 2.6 270 19:19 17.12.2020
4731 Clear 30 1014 20 10000 2.6 270 18:40 17.12.2020
4732 Clear 30 1015 21 10000 2.6 180 18:19 17.12.2020
4733 Clear 30 1015 21 10000 2.6 180 17:45 17.12.2020
4734 Clear 28 1015 22 10000 2.1 270 17:27 17.12.2020
4735 Clear 28 1015 22 10000 2.1 270 16:40 17.12.2020
4736 Clear 25 1015 25 10000 1.5 180 16:20 17.12.2020
4737 Clear 24 1015 25 10000 1.5 180 15:45 17.12.2020
4738 Clear 23 1016 28 10000 1.5 200 15:27 17.12.2020
4739 Clear 25 1016 28 10000 1.5 200 14:49 17.12.2020
4740 Clear 21 1016 36 10000 1.5 250 14:22 17.12.2020
4741 Clear 22 1016 36 10000 1.5 250 13:48 17.12.2020
4742 Clear 16 1016 44 10000 1 50 13:22 17.12.2020
4743 Clear 18 1016 44 10000 1 50 12:41 17.12.2020
4744 Clear 17 1014 58 10000 0.74 254 12:22 17.12.2020
4745 Clear 17 1014 58 10000 0.74 254 11:42 17.12.2020
4746 Clear 14 1014 58 10000 0.22 243 11:22 17.12.2020
4747 Clear 15 1014 50 10000 1.5 150 10:48 17.12.2020
4748 Clear 15 1014 47 10000 1 180 09:40 17.12.2020
4749 Clear 15 1014 44 10000 2.1 190 08:57 17.12.2020
4750 Clear 16 1014 47 10000 4.1 160 07:44 17.12.2020
4751 Clear 16 1014 47 10000 4.1 160 07:25 17.12.2020
4752 Clear 16 1014 38 10000 3.6 160 06:50 17.12.2020
4753 Clear 17 1014 38 10000 3.6 160 06:32 17.12.2020
4754 Clear 20 1014 26 10000 5.7 160 03:55 17.12.2020
4755 Clear 26 1014 19 10000 3.1 240 00:29 17.12.2020
4756 Clear 27 1014 21 10000 3.6 240 23:50 16.12.2020
4757 Clear 29 1012 22 10000 4.6 240 23:19 16.12.2020
4758 Clear 30 1012 22 10000 4.6 240 22:50 16.12.2020
4759 Clear 30 1012 22 10000 4.6 240 22:31 16.12.2020
4760 Clear 31 1012 23 10000 8.2 220 21:46 16.12.2020
4761 Clear 31 1013 20 10000 3.1 240 21:26 16.12.2020
4762 Clear 31 1013 20 10000 3.1 240 20:52 16.12.2020
4763 Clear 31 1014 22 10000 4.1 240 20:20 16.12.2020
4764 Clear 31 1014 22 10000 4.1 240 19:45 16.12.2020
4765 Clear 30 1014 25 10000 3.6 0 19:18 16.12.2020
4766 Clear 31 1014 25 10000 3.6 0 18:52 16.12.2020
4767 Clear 30 1014 26 10000 2.1 240 18:26 16.12.2020
4768 Clear 30 1014 26 10000 2.1 240 17:43 16.12.2020
4769 Clear 28 1015 29 10000 2.1 0 16:58 16.12.2020
4770 Clear 28 1015 29 10000 2.1 0 16:38 16.12.2020
4771 Clear 26 1015 36 10000 2.6 200 16:19 16.12.2020
4772 Clear 26 1015 36 10000 2.6 200 15:48 16.12.2020
4773 Clear 25 1015 37 10000 1 300 15:23 16.12.2020
4774 Clear 25 1015 37 10000 1 300 14:46 16.12.2020
4775 Clear 23 1015 37 10000 1 300 14:27 16.12.2020
4776 Clear 22 1015 48 10000 2.04 253 13:42 16.12.2020
4777 Clear 19 1015 55 10000 1.54 252 13:21 16.12.2020
4778 Clear 18 1015 55 10000 1.54 252 12:46 16.12.2020
4779 Clear 18 1014 55 8000 1 0 12:20 16.12.2020
4780 Clear 17 1013 58 8000 0.5 0 11:38 16.12.2020
4781 Clear 15 1013 62 10000 0.14 298 11:19 16.12.2020
4782 Clear 15 1013 62 10000 0.14 298 10:41 16.12.2020
4783 Clear 15 1013 58 10000 1 0 09:56 16.12.2020
4784 Clear 16 1013 58 10000 1 0 09:34 16.12.2020
4785 Clear 17 1013 48 10000 1.5 170 08:23 16.12.2020
4786 Clear 17 1013 48 10000 1.5 170 07:47 16.12.2020
4787 Clear 17 1013 48 10000 1.5 170 07:29 16.12.2020
4788 Clear 19 1013 45 10000 2.6 140 05:42 16.12.2020
4789 Clear 22 1012 33 10000 6.7 200 02:20 16.12.2020
4790 Clear 27 1012 26 10000 4.1 240 23:57 15.12.2020
4791 Clear 28 1012 26 10000 4.1 240 23:37 15.12.2020
4792 Clear 29 1012 19 10000 3.6 240 22:44 15.12.2020
4793 Clear 29 1013 20 10000 3.1 210 22:22 15.12.2020
4794 Clear 30 1013 20 10000 3.1 210 21:49 15.12.2020
4795 Clear 30 1013 21 10000 3.6 250 21:24 15.12.2020
4796 Clear 30 1013 21 10000 3.6 250 20:46 15.12.2020
4797 Clear 30 1013 23 10000 3.6 250 20:27 15.12.2020
4798 Clear 29 1013 23 10000 3.6 250 19:55 15.12.2020
4799 Clear 30 1013 23 10000 3.6 250 19:34 15.12.2020
4800 Clear 28 1014 28 10000 3.1 240 18:55 15.12.2020
4801 Clear 29 1014 28 10000 3.1 240 18:36 15.12.2020
4802 Clear 28 1014 29 10000 3.1 230 18:18 15.12.2020
4803 Clear 29 1014 29 10000 3.1 230 17:41 15.12.2020
4804 Clear 27 1014 33 10000 2.1 190 17:20 15.12.2020
4805 Clear 25 1014 33 10000 2.1 190 16:34 15.12.2020
4806 Clear 24 1015 37 10000 1 280 15:59 15.12.2020
4807 Clear 23 1015 37 10000 1 280 15:33 15.12.2020
4808 Clear 21 1015 45 10000 2.1 220 14:51 15.12.2020
4809 Clear 20 1015 52 10000 1.5 210 14:25 15.12.2020
4810 Clear 20 1015 52 10000 1.5 210 13:54 15.12.2020
4811 Clear 19 1015 52 10000 1.5 210 13:33 15.12.2020
4812 Clear 17 1015 62 10000 1.71 242 12:47 15.12.2020
4813 Clear 16 1015 62 10000 0.86 247 12:25 15.12.2020
4814 Clear 16 1014 66 10000 1.5 60 11:58 15.12.2020
4815 Clear 15 1014 66 10000 1.5 60 11:39 15.12.2020
4816 Clear 15 1014 66 10000 1.5 60 11:20 15.12.2020
4817 Clear 14 1013 66 10000 1 0 10:41 15.12.2020
4818 Clear 15 1013 67 10000 1.5 280 09:53 15.12.2020
4819 Clear 15 1013 67 10000 1.5 280 09:32 15.12.2020
4820 Clear 16 1014 59 10000 3.6 150 08:58 15.12.2020
4821 Clear 16 1014 59 10000 3.6 150 08:30 15.12.2020
4822 Clear 16 1014 59 10000 3.1 150 07:59 15.12.2020
4823 Clear 17 1014 59 10000 3.1 150 07:37 15.12.2020
4824 Clouds 17 1014 55 10000 2.1 160 06:40 15.12.2020
4825 Clouds 19 1015 42 10000 3.1 140 04:55 15.12.2020
4826 Clear 26 1014 22 10000 4.1 240 00:37 15.12.2020
4827 Clear 28 1014 17 10000 3.6 240 23:47 14.12.2020
4828 Clear 29 1014 16 10000 3.6 230 23:19 14.12.2020
4829 Clear 29 1014 16 10000 3.6 230 22:39 14.12.2020
4830 Clear 30 1014 13 10000 4.1 220 21:56 14.12.2020
4831 Clear 30 1014 13 10000 4.1 220 21:36 14.12.2020
4832 Clear 30 1012 11 10000 2.6 220 20:57 14.12.2020
4833 Clear 30 1012 11 10000 2.6 220 20:39 14.12.2020
4834 Clear 29 1015 20 10000 3.1 180 20:18 14.12.2020
4835 Clear 29 1015 20 10000 3.1 180 19:34 14.12.2020
4836 Clear 30 1015 20 10000 3.1 230 18:57 14.12.2020
4837 Clear 30 1015 20 10000 3.1 230 18:38 14.12.2020
4838 Clear 29 1015 22 10000 3.1 200 18:18 14.12.2020
4839 Clear 27 1015 22 10000 3.1 200 17:33 14.12.2020
4840 Clear 28 1015 22 10000 2.6 250 16:57 14.12.2020
4841 Clear 28 1015 22 10000 2.6 250 16:38 14.12.2020
4842 Clear 27 1015 25 10000 3.6 230 16:18 14.12.2020
4843 Clear 27 1015 25 10000 3.6 230 15:33 14.12.2020
4844 Clear 25 1015 28 10000 2.1 220 14:48 14.12.2020
4845 Clear 24 1015 28 10000 2.1 220 14:29 14.12.2020
4846 Clear 22 1015 32 10000 1 180 13:55 14.12.2020
4847 Clear 21 1015 32 10000 1 180 13:34 14.12.2020
4848 Clear 18 1015 58 10000 1 50 12:56 14.12.2020
4849 Clear 18 1015 58 10000 1 50 12:31 14.12.2020
4850 Clear 19 1014 41 10000 1 0 11:54 14.12.2020
4851 Clear 16 1014 41 10000 1 0 11:23 14.12.2020
4852 Clear 15 1014 44 10000 1 0 10:27 14.12.2020
4853 Clear 16 1014 38 10000 1.5 0 09:52 14.12.2020
4854 Clear 18 1015 34 10000 0.1 73 08:56 14.12.2020
4855 Clear 18 1015 34 10000 0.1 73 08:38 14.12.2020
4856 Clear 18 1015 34 10000 2.1 330 07:53 14.12.2020
4857 Clear 19 1015 32 10000 1.5 230 07:19 14.12.2020
4858 Clear 20 1015 30 10000 5.1 170 06:42 14.12.2020
4859 Clear 24 1015 23 10000 5.1 170 03:57 14.12.2020
4860 Clear 24 1015 23 10000 5.1 170 03:57 14.12.2020
4861 Clear 29 1015 20 10000 3.1 240 00:58 14.12.2020
4862 Clear 29 1015 20 10000 3.1 240 00:39 14.12.2020
4863 Clear 30 1015 18 10000 2.1 230 00:20 14.12.2020
4864 Clear 31 1015 18 10000 2.1 230 23:44 13.12.2020
4865 Clear 31 1015 19 10000 3.1 180 22:58 13.12.2020
4866 Clear 32 1015 19 10000 3.1 180 22:39 13.12.2020
4867 Clear 32 1016 19 10000 4.1 250 22:18 13.12.2020
4868 Clear 31 1016 19 10000 4.1 250 21:41 13.12.2020
4869 Clear 31 1016 19 10000 3.6 0 20:55 13.12.2020
4870 Clear 32 1016 19 10000 3.6 0 20:28 13.12.2020
4871 Clear 31 1016 17 10000 3.6 180 19:48 13.12.2020
4872 Clear 31 1016 17 10000 3.6 180 19:24 13.12.2020
4873 Clear 30 1017 23 10000 4.1 190 18:56 13.12.2020
4874 Clear 30 1017 23 10000 4.1 190 18:36 13.12.2020
4875 Clear 29 1017 28 10000 3.1 240 18:18 13.12.2020
4876 Clear 29 1017 28 10000 3.1 240 17:45 13.12.2020
4877 Clear 29 1017 33 10000 2.1 270 17:18 13.12.2020
4878 Clear 27 1017 33 10000 2.1 270 16:50 13.12.2020
4879 Clear 26 1017 33 10000 2.1 270 16:31 13.12.2020
4880 Clear 24 1016 40 10000 1 240 15:47 13.12.2020
4881 Clear 24 1016 40 10000 1 240 15:26 13.12.2020
4882 Clear 23 1018 43 10000 1 170 14:47 13.12.2020
4883 Clear 22 1018 43 10000 1 170 14:29 13.12.2020
4884 Clear 19 1019 59 10000 0.5 30 13:50 13.12.2020
4885 Clear 19 1019 59 10000 0.5 30 13:31 13.12.2020
4886 Clear 14 1019 66 10000 0.5 30 12:57 13.12.2020
4887 Clear 15 1019 66 10000 0.5 30 12:25 13.12.2020
4888 Clear 17 1018 71 10000 1 340 11:58 13.12.2020
4889 Clear 15 1018 71 10000 1 340 11:32 13.12.2020
4890 Clear 14 1017 71 10000 0.32 329 10:45 13.12.2020
4891 Clear 15 1018 62 10000 2.1 200 10:21 13.12.2020
4892 Clear 15 1018 62 10000 2.1 200 09:46 13.12.2020
4893 Clear 15 1018 67 10000 2.6 150 08:52 13.12.2020
4894 Clear 15 1018 67 10000 2.6 150 08:30 13.12.2020
4895 Clear 16 1018 63 10000 3.6 160 07:25 13.12.2020
4896 Clear 19 1018 42 10000 7.7 180 03:24 13.12.2020
4897 Clear 20 1018 42 10000 7.7 180 02:32 13.12.2020
4898 Clear 23 1018 20 10000 4.1 200 01:36 13.12.2020
4899 Clear 24 1018 20 10000 4.1 200 00:44 13.12.2020
4900 Clear 26 1017 17 10000 3.6 270 23:40 12.12.2020
4901 Clear 26 1017 17 10000 3.6 270 23:40 12.12.2020
4902 Clear 27 1017 18 10000 5.1 230 23:20 12.12.2020
4903 Clear 28 1017 18 10000 5.1 230 22:36 12.12.2020
4904 Clear 29 1015 16 10000 4.1 250 21:47 12.12.2020
4905 Clear 30 1016 16 10000 5.1 260 21:20 12.12.2020
4906 Clear 29 1016 16 10000 5.1 260 20:46 12.12.2020
4907 Clear 29 1017 15 10000 3.1 270 20:21 12.12.2020
4908 Clear 29 1017 15 10000 3.1 270 19:54 12.12.2020
4909 Clear 30 1017 15 10000 3.1 270 19:34 12.12.2020
4910 Clear 29 1017 18 10000 3.1 200 18:58 12.12.2020
4911 Clear 30 1017 18 10000 3.1 200 18:38 12.12.2020
4912 Clear 30 1017 18 10000 3.1 200 18:38 12.12.2020
4913 Clear 28 1018 27 10000 2.6 0 18:20 12.12.2020
4914 Clear 27 1018 27 10000 2.6 0 17:41 12.12.2020
4915 Clear 27 1017 27 10000 3.1 220 16:45 12.12.2020
4916 Clear 26 1017 33 10000 1.5 70 15:58 12.12.2020
4917 Clear 26 1017 33 10000 1.5 70 15:40 12.12.2020
4918 Clear 23 1018 40 10000 1.5 0 14:54 12.12.2020
4919 Clear 23 1018 40 10000 1.5 0 14:35 12.12.2020
4920 Clear 21 1017 48 10000 1.38 259 13:46 12.12.2020
4921 Clear 20 1017 48 10000 1.9 244 13:26 12.12.2020
4922 Clear 18 1016 59 10000 1.77 243 12:37 12.12.2020
4923 Clear 16 1015 62 10000 1.02 243 11:39 12.12.2020
4924 Clear 14 1015 62 10000 1 0 10:51 12.12.2020
4925 Clear 15 1014 54 10000 1.5 300 09:25 12.12.2020
4926 Clear 15 1014 54 10000 0.5 80 08:42 12.12.2020
4927 Clear 21 1014 33 10000 6.2 200 01:59 12.12.2020
4928 Clear 26 1014 24 10000 4.6 240 23:31 11.12.2020
4929 Clear 29 1015 20 10000 4.6 220 22:21 11.12.2020
4930 Clear 28 1015 26 10000 2.6 190 19:57 11.12.2020
4931 Clear 25 1017 33 10000 2.1 190 17:30 11.12.2020
4932 Clear 21 1018 55 10000 1.5 160 14:39 11.12.2020
4933 Clear 18 1018 67 10000 2.01 249 13:46 11.12.2020
4934 Clear 15 1017 71 10000 0.65 259 12:29 11.12.2020
4935 Clear 15 1017 67 10000 1 0 11:56 11.12.2020
4936 Clear 13 1016 76 8000 1 0 11:37 11.12.2020
4937 Clear 12 1016 76 10000 1 0 10:41 11.12.2020
4938 Clear 14 1017 71 10000 1.5 200 07:51 11.12.2020
4939 Clear 15 1018 62 10000 4.1 150 05:36 11.12.2020
4940 Clear 16 1018 55 10000 2.6 150 04:47 11.12.2020
4941 Clear 20 1017 28 10000 3.6 220 00:59 11.12.2020
4942 Clear 23 1017 25 10000 4.1 230 23:31 10.12.2020
4943 Clear 25 1017 23 10000 3.1 240 21:55 10.12.2020
4944 Clear 25 1018 25 10000 4.1 220 21:28 10.12.2020
4945 Clear 25 1018 25 10000 4.1 220 20:36 10.12.2020
4946 Clear 24 1018 26 10000 4.6 230 19:31 10.12.2020
4947 Clear 24 1018 37 10000 4.6 250 18:50 10.12.2020
4948 Clear 24 1017 28 10000 3.1 260 17:36 10.12.2020
4949 Clear 23 1016 37 10000 2.6 230 16:18 10.12.2020
4950 Clear 22 1015 40 10000 3.56 254 15:24 10.12.2020
4951 Clear 22 1015 40 10000 3.56 254 14:46 10.12.2020
4952 Clear 18 1015 48 10000 2.25 258 14:21 10.12.2020
4953 Clear 15 1013 62 10000 1.5 0 12:24 10.12.2020
4954 Clouds 15 1013 54 10000 3.1 150 10:57 10.12.2020
4955 Clouds 16 1013 54 10000 2.6 170 08:44 10.12.2020
4956 Clear 16 1013 54 10000 2.6 170 07:34 10.12.2020
4957 Clear 17 1014 48 10000 4.1 160 06:33 10.12.2020
4958 Clear 22 1013 25 10000 4.1 160 02:50 10.12.2020
4959 Clear 23 1013 25 10000 7.7 190 01:50 10.12.2020
4960 Clear 28 1014 25 10000 5.1 250 23:45 09.12.2020
4961 Clear 33 1015 19 10000 4.1 250 20:40 09.12.2020
4962 Clear 33 1015 20 10000 4.6 240 20:20 09.12.2020
4963 Clear 32 1015 22 10000 4.1 250 18:42 09.12.2020
4964 Clear 32 1016 27 10000 2.1 280 17:35 09.12.2020
4965 Clear 28 1016 30 10000 2.6 210 16:40 09.12.2020
4966 Clear 27 1017 36 10000 2.1 210 16:20 09.12.2020
4967 Clear 24 1017 40 10000 2.6 180 14:51 09.12.2020
4968 Clear 23 1017 40 10000 2.6 180 14:27 09.12.2020
4969 Clear 21 1017 42 10000 0.5 180 13:46 09.12.2020
4970 Clear 18 1017 63 10000 1 90 13:18 09.12.2020
4971 Clear 18 1017 63 10000 1 90 12:36 09.12.2020
4972 Clear 17 1016 62 8000 0.78 246 11:43 09.12.2020
4973 Clear 15 1016 67 10000 1.5 290 09:54 09.12.2020
4974 Clear 16 1017 59 10000 0.56 214 08:42 09.12.2020
4975 Clear 17 1017 52 10000 2.1 190 06:56 09.12.2020
4976 Clear 19 1018 48 10000 2.1 140 05:33 09.12.2020
4977 Clear 21 1018 38 10000 5.1 180 02:43 09.12.2020
4978 Clear 24 1019 29 10000 3.6 240 00:52 09.12.2020
4979 Clear 28 1018 23 10000 2.6 210 23:36 08.12.2020
4980 Clear 30 1019 23 10000 4.1 240 22:27 08.12.2020
4981 Clear 32 1019 22 10000 3.1 200 20:48 08.12.2020
4982 Clear 31 1019 26 10000 3.1 0 19:31 08.12.2020
4983 Clear 30 1020 30 10000 2.6 0 18:38 08.12.2020
4984 Clear 29 1020 32 10000 2.1 240 17:20 08.12.2020
4985 Clear 25 1020 46 10000 1.5 210 15:25 08.12.2020
4986 Clear 20 1020 67 10000 2.17 247 13:52 08.12.2020
4987 Clear 18 1020 67 10000 1.07 228 12:46 08.12.2020
4988 Clear 15 1020 81 10000 1.5 170 11:59 08.12.2020
4989 Clear 13 1019 81 10000 3.1 140 11:27 08.12.2020
4990 Clear 13 1019 81 10000 3.1 140 10:41 08.12.2020
4991 Clear 13 1018 81 10000 3.6 170 09:45 08.12.2020
4992 Clear 13 1018 76 10000 2.6 170 07:41 08.12.2020
4993 Clear 14 1018 76 10000 1.5 130 05:43 08.12.2020
4994 Clear 16 1017 67 10000 7.7 150 02:49 08.12.2020
4995 Clear 22 1016 36 10000 3.1 240 00:45 08.12.2020
4996 Clear 24 1015 31 10000 3.6 240 23:50 07.12.2020
4997 Clear 26 1015 28 10000 4.6 230 22:32 07.12.2020
4998 Clear 29 1015 28 10000 4.6 0 21:48 07.12.2020
4999 Clear 30 1015 30 10000 4.6 230 19:45 07.12.2020
5000 Clear 30 1014 28 10000 3.1 270 18:19 07.12.2020
5001 Clear 28 1015 30 10000 1.5 210 17:23 07.12.2020
5002 Clear 28 1015 30 10000 1.5 210 16:47 07.12.2020
5003 Clear 24 1015 40 10000 2.1 240 15:25 07.12.2020
5004 Clear 24 1015 40 10000 2.1 240 14:40 07.12.2020
5005 Clear 21 1014 52 10000 1 270 13:43 07.12.2020
5006 Clear 18 1014 76 10000 1.89 249 12:34 07.12.2020
5007 Clear 15 1013 71 10000 3.1 150 11:43 07.12.2020
5008 Clear 14 1013 71 10000 2.6 170 10:38 07.12.2020
5009 Clear 14 1013 66 10000 3.1 160 09:24 07.12.2020
5010 Clear 15 1013 66 10000 3.1 160 07:49 07.12.2020
5011 Clear 17 1014 48 10000 3.1 160 05:29 07.12.2020
5012 Clear 18 1014 48 10000 4.6 160 04:40 07.12.2020
5013 Clear 23 1013 26 10000 3.6 200 01:23 07.12.2020
5014 Clear 29 1013 20 10000 4.1 250 22:53 06.12.2020
5015 Clear 31 1013 18 10000 3.6 200 21:53 06.12.2020
5016 Clear 32 1014 19 10000 4.1 220 20:47 06.12.2020
5017 Clear 32 1014 19 10000 4.1 220 20:26 06.12.2020
5018 Clear 31 1014 28 10000 4.1 230 19:43 06.12.2020
5019 Clear 31 1014 30 10000 2.1 260 17:54 06.12.2020
5020 Clear 27 1015 36 10000 3.12 246 16:39 06.12.2020
5021 Clear 24 1015 49 10000 2.63 250 14:50 06.12.2020
5022 Clear 21 1016 55 10000 2 247 13:30 06.12.2020
5023 Clear 16 1016 87 10000 1.66 252 12:35 06.12.2020
5024 Clear 17 1015 76 8000 0.5 0 11:53 06.12.2020
5025 Clear 14 1015 76 8000 0.5 0 11:25 06.12.2020
5026 Clear 14 1015 71 10000 1.5 180 10:36 06.12.2020
5027 Clear 14 1015 71 10000 1.5 160 09:38 06.12.2020
5028 Clear 15 1015 67 10000 2.1 170 07:52 06.12.2020
5029 Clear 17 1017 59 10000 3.6 170 05:18 06.12.2020
5030 Clear 23 1016 29 10000 2.6 270 00:46 06.12.2020
5031 Clear 24 1016 29 10000 2.6 270 00:27 06.12.2020
5032 Clear 25 1016 28 10000 3.6 230 23:57 05.12.2020
5033 Clear 29 1016 26 10000 4.1 230 22:25 05.12.2020
5034 Clear 29 1017 20 10000 3.6 250 21:55 05.12.2020
5035 Clear 30 1017 20 10000 3.6 250 21:30 05.12.2020
5036 Clouds 30 1017 26 10000 3.1 240 20:59 05.12.2020
5037 Clear 30 1018 26 10000 2.1 210 18:46 05.12.2020
5038 Clear 29 1018 27 10000 3.1 0 17:57 05.12.2020
5039 Clear 27 1018 31 10000 2.1 250 16:49 05.12.2020
5040 Clear 27 1018 31 10000 2.1 250 16:28 05.12.2020
5041 Clear 22 1018 34 10000 1.5 170 15:21 05.12.2020
5042 Clear 19 1018 48 10000 1.95 242 13:25 05.12.2020
5043 Clear 15 1017 66 10000 0.5 0 11:50 05.12.2020
5044 Clear 13 1016 62 10000 0.16 243 10:35 05.12.2020
5045 Clear 14 1016 58 10000 2.1 150 08:54 05.12.2020
5046 Clear 14 1016 58 10000 2.6 170 07:48 05.12.2020
5047 Clear 15 1017 47 10000 4.1 160 05:34 05.12.2020
5048 Clouds 22 1015 29 10000 3.1 240 00:55 05.12.2020
5049 Clouds 26 1015 26 10000 3.6 240 23:36 04.12.2020
5050 Clouds 29 1014 23 10000 5.7 240 21:35 04.12.2020
5051 Clouds 30 1014 21 10000 4.1 180 19:21 04.12.2020
5052 Clouds 30 1014 23 10000 3.1 190 18:39 04.12.2020
5053 Clear 29 1014 22 10000 2.1 270 17:47 04.12.2020
5054 Clear 28 1015 27 10000 2.1 270 16:32 04.12.2020
5055 Clear 23 1015 32 10000 0.5 180 15:23 04.12.2020
5056 Clear 22 1015 45 10000 2.13 254 13:36 04.12.2020
5057 Clear 17 1015 58 10000 1 90 13:18 04.12.2020
5058 Clear 18 1015 58 10000 1 90 12:22 04.12.2020
5059 Clear 14 1013 58 10000 1 350 10:37 04.12.2020
5060 Clear 14 1013 54 10000 1 0 09:24 04.12.2020
5061 Clear 16 1014 45 10000 2.1 170 06:40 04.12.2020
5062 Clear 18 1014 39 10000 4.1 160 04:53 04.12.2020
5063 Clear 21 1013 27 10000 7.2 200 01:53 04.12.2020
5064 Clear 28 1013 17 10000 3.6 220 22:49 03.12.2020
5065 Clear 29 1013 18 10000 3.6 230 21:37 03.12.2020
5066 Clear 29 1014 23 10000 3.1 210 20:46 03.12.2020
5067 Clear 29 1013 23 10000 3.1 210 19:24 03.12.2020
5068 Clear 28 1014 24 10000 3.6 200 18:47 03.12.2020
5069 Clear 27 1015 31 10000 1.5 210 17:21 03.12.2020
5070 Clear 26 1015 37 10000 2.6 260 15:59 03.12.2020
5071 Clear 25 1015 37 10000 2.6 260 15:33 03.12.2020
5072 Clear 23 1015 42 10000 2.6 210 14:49 03.12.2020
5073 Clear 22 1015 45 8000 1 0 13:55 03.12.2020
5074 Clear 18 1016 82 10000 0.5 60 12:50 03.12.2020
5075 Clear 17 1016 82 10000 0.5 60 12:23 03.12.2020
5076 Clear 14 1014 66 10000 2.1 300 10:54 03.12.2020
5077 Clear 15 1014 58 10000 0.5 200 08:49 03.12.2020
5078 Clear 18 1016 42 10000 3.1 150 04:21 03.12.2020
5079 Clear 21 1018 37 10000 1.68 223 02:20 03.12.2020
5080 Clear 24 1016 33 10000 4.1 260 00:32 03.12.2020
5081 Clear 28 1015 20 10000 3.1 270 22:47 02.12.2020
5082 Clear 29 1015 24 10000 4.1 210 21:55 02.12.2020
5083 Clear 28 1016 28 10000 4.1 240 20:51 02.12.2020
5084 Clear 28 1016 28 10000 4.1 240 20:33 02.12.2020
5085 Clear 27 1016 30 10000 4.6 180 19:54 02.12.2020
5086 Clear 28 1017 33 10000 2.1 260 17:51 02.12.2020
5087 Clear 28 1017 33 10000 2.1 260 17:33 02.12.2020
5088 Clear 25 1017 40 10000 2.6 280 16:49 02.12.2020
5089 Clear 21 1018 59 10000 0.5 210 14:47 02.12.2020
5090 Clear 13 1018 87 8000 2.6 190 11:34 02.12.2020
5091 Clear 12 1017 87 10000 3.6 170 10:28 02.12.2020
5092 Clear 13 1021 62 10000 0.36 253 08:24 02.12.2020
5093 Clouds 19 1017 45 10000 2.1 210 00:57 02.12.2020
5094 Clouds 23 1016 29 10000 3.6 230 22:21 01.12.2020
5095 Clouds 26 1015 22 10000 7.2 220 20:36 01.12.2020
5096 Clear 28 1014 24 10000 5.1 230 19:34 01.12.2020
5097 Clear 29 1015 29 10000 2.1 290 17:29 01.12.2020
5098 Clear 27 1015 29 10000 2.6 220 15:24 01.12.2020
5099 Clear 24 1014 40 10000 2.47 266 13:37 01.12.2020
5100 Clear 18 1013 54 10000 0.86 316 11:44 01.12.2020
5101 Clear 17 1016 41 10000 0.47 6 11:26 01.12.2020
5102 Clear 16 1012 58 10000 1 0 10:37 01.12.2020
5103 Clear 17 1015 40 10000 0.29 242 08:20 01.12.2020
5104 Clear 18 1014 36 10000 0.36 219 06:46 01.12.2020
5105 Clear 23 1015 34 10000 1.24 236 01:51 01.12.2020
5106 Clear 25 1013 26 10000 4.1 230 00:52 01.12.2020
5107 Clear 29 1013 18 10000 4.1 230 23:21 30.11.2020
5108 Clear 30 1013 18 10000 4.1 230 22:43 30.11.2020
5109 Clear 31 1013 18 10000 4.1 230 22:25 30.11.2020
5110 Clear 32 1014 19 10000 4.1 250 20:47 30.11.2020
5111 Clear 31 1014 22 10000 4.1 260 19:42 30.11.2020
5112 Clear 31 1014 22 10000 4.1 260 19:42 30.11.2020
5113 Clear 30 1015 28 10000 4.1 240 18:23 30.11.2020
5114 Clear 30 1015 28 10000 4.1 240 17:47 30.11.2020
5115 Clear 30 1015 30 10000 1.5 260 16:55 30.11.2020
5116 Clear 28 1015 38 10000 1 240 15:59 30.11.2020
5117 Clear 25 1016 46 10000 2.1 210 14:31 30.11.2020
5118 Clear 23 1016 55 10000 1 210 13:42 30.11.2020
5119 Clear 19 1016 67 10000 0.6 242 12:26 30.11.2020
5120 Clear 17 1015 66 6000 0.5 0 11:57 30.11.2020
5121 Clear 15 1015 71 10000 1 0 10:26 30.11.2020
5122 Clear 16 1019 53 10000 0.15 242 09:45 30.11.2020
5123 Clear 18 1019 43 10000 0.2 233 07:18 30.11.2020
5124 Clear 27 1016 21 10000 3.6 230 23:58 29.11.2020
5125 Clear 30 1016 20 10000 3.6 210 21:51 29.11.2020
5126 Clear 31 1016 20 10000 3.6 210 21:31 29.11.2020
5127 Clear 30 1017 25 10000 3.6 220 19:54 29.11.2020
5128 Clear 29 1017 28 10000 2.6 220 17:47 29.11.2020
5129 Clear 25 1018 35 10000 2.1 220 15:25 29.11.2020
5130 Clear 19 1019 48 10000 1.68 247 13:23 29.11.2020
5131 Clear 16 1018 58 8000 1 0 11:41 29.11.2020
5132 Clear 14 1021 55 10000 0.55 215 10:22 29.11.2020
5133 Clear 14 1021 54 10000 0.61 216 08:38 29.11.2020
5134 Clear 17 1021 42 10000 0.97 227 05:19 29.11.2020
5135 Clear 25 1017 24 10000 4.1 230 23:48 28.11.2020
5136 Clear 27 1017 21 10000 4.1 230 22:56 28.11.2020
5137 Clear 29 1017 23 10000 4.1 250 20:47 28.11.2020
5138 Clear 29 1018 26 10000 4.1 200 19:47 28.11.2020
5139 Clear 30 1018 26 10000 4.1 200 19:21 28.11.2020
5140 Clear 29 1018 24 10000 2.6 260 18:27 28.11.2020
5141 Clear 28 1018 27 8000 2.1 290 17:41 28.11.2020
5142 Clear 27 1018 31 8000 2.6 190 16:40 28.11.2020
5143 Clear 24 1019 37 10000 2.1 230 14:52 28.11.2020
5144 Clear 14 1017 66 10000 1 0 11:31 28.11.2020
5145 Clear 13 1016 66 10000 1 150 10:28 28.11.2020
5146 Clear 15 1020 44 10000 0.94 241 06:26 28.11.2020
5147 Clear 18 1020 44 10000 1.34 233 03:26 28.11.2020
5148 Clear 21 1016 22 10000 2.6 260 01:34 28.11.2020
5149 Clear 26 1015 19 10000 4.1 230 22:55 27.11.2020
5150 Clear 29 1015 20 10000 4.1 230 21:33 27.11.2020
5151 Clear 29 1015 20 10000 3.6 250 20:30 27.11.2020
5152 Clouds 30 1015 18 10000 4.1 240 19:25 27.11.2020
5153 Clear 29 1015 22 10000 4.1 230 18:28 27.11.2020
5154 Clear 25 1015 35 10000 1.5 220 14:47 27.11.2020
5155 Clear 20 1015 37 10000 1 260 13:26 27.11.2020
5156 Clear 20 1015 44 10000 0.5 60 12:47 27.11.2020
5157 Clear 17 1013 58 8000 0.67 287 11:47 27.11.2020
5158 Clear 14 1012 58 10000 0.21 297 10:50 27.11.2020
5159 Clear 15 1012 50 10000 0.5 0 09:57 27.11.2020
5160 Clear 17 1016 44 10000 0.34 226 07:29 27.11.2020
5161 Clear 31 1012 15 10000 4.1 190 22:28 26.11.2020
5162 Clouds 31 1012 11 10000 4.1 230 21:56 26.11.2020
5163 Clear 32 1012 11 10000 4.1 220 20:59 26.11.2020
5164 Clear 31 1012 17 10000 4.1 250 18:59 26.11.2020
5165 Clear 30 1013 21 10000 2.6 280 17:53 26.11.2020
5166 Clear 25 1014 37 10000 2.6 190 14:57 26.11.2020
5167 Clear 21 1014 45 10000 1 210 13:42 26.11.2020
5168 Clear 19 1014 54 10000 0.91 249 12:44 26.11.2020
5169 Clear 16 1013 66 10000 1.5 20 11:47 26.11.2020
5170 Clear 13 1013 66 10000 1 0 10:37 26.11.2020
5171 Clear 14 1013 58 10000 1.5 20 09:48 26.11.2020
5172 Clear 14 1013 58 10000 1.5 20 09:29 26.11.2020
5173 Clear 15 1013 51 10000 1.5 350 08:39 26.11.2020
5174 Clear 16 1015 45 10000 3.1 170 06:50 26.11.2020
5175 Clear 26 1016 22 10000 3.1 190 23:54 25.11.2020
5176 Clear 28 1017 22 10000 3.1 180 20:46 25.11.2020
5177 Clear 28 1017 24 10000 3.1 240 19:55 25.11.2020
5178 Clear 27 1018 25 10000 4.1 220 18:28 25.11.2020
5179 Clear 25 1019 35 10000 2.6 250 16:44 25.11.2020
5180 Clear 22 1019 40 10000 1.5 190 15:40 25.11.2020
5181 Clear 19 1020 54 10000 1 250 13:57 25.11.2020
5182 Clear 18 1020 54 10000 1 250 13:38 25.11.2020
5183 Clear 15 1022 47 10000 1.03 235 11:58 25.11.2020
5184 Clear 13 1022 49 10000 0.26 258 11:18 25.11.2020
5185 Clear 14 1022 46 10000 0.49 221 09:19 25.11.2020
5186 Clear 14 1022 45 10000 0.49 221 08:44 25.11.2020
5187 Clear 17 1023 41 10000 1.27 232 03:59 25.11.2020
5188 Clear 18 1019 37 10000 7.7 180 02:26 25.11.2020
5189 Clear 22 1020 30 10000 4.1 250 00:24 25.11.2020
5190 Clear 23 1019 31 10000 5.1 220 23:52 24.11.2020
5191 Clear 23 1019 31 10000 5.1 220 23:34 24.11.2020
5192 Clouds 26 1018 31 10000 4.1 220 21:51 24.11.2020
5193 Clouds 27 1018 31 10000 4.1 220 21:30 24.11.2020
5194 Clouds 27 1018 29 10000 4.1 230 20:42 24.11.2020
5195 Clouds 27 1018 36 10000 4.1 250 18:56 24.11.2020
5196 Clouds 25 1017 36 8000 3.1 210 17:31 24.11.2020
5197 Clear 25 1018 40 10000 2.1 210 16:50 24.11.2020
5198 Clear 25 1018 40 10000 2.1 210 16:50 24.11.2020
5199 Clear 24 1018 40 10000 2.1 210 16:31 24.11.2020
5200 Clear 22 1018 43 10000 1.5 200 15:54 24.11.2020
5201 Clear 18 1018 52 10000 1.5 210 15:18 24.11.2020
5202 Clear 22 1018 52 10000 1.5 210 14:34 24.11.2020
5203 Clear 17 1018 71 10000 1.83 258 12:55 24.11.2020
5204 Clear 17 1020 51 10000 0.56 266 12:22 24.11.2020
5205 Clear 16 1020 54 10000 0.56 266 11:53 24.11.2020
5206 Clear 13 1020 55 10000 0.28 253 10:46 24.11.2020
5207 Clear 13 1020 55 10000 0.65 250 10:24 24.11.2020
5208 Clear 14 1020 54 10000 0.65 250 09:35 24.11.2020
5209 Clear 15 1019 53 10000 0.82 247 07:58 24.11.2020
5210 Clear 17 1020 48 10000 1 257 04:48 24.11.2020
5211 Clear 26 1015 34 10000 5.1 240 22:35 23.11.2020
5212 Clear 27 1016 28 10000 4.1 210 21:38 23.11.2020
5213 Clear 28 1016 29 10000 5.1 250 20:56 23.11.2020
5214 Clear 28 1016 29 10000 5.1 250 20:28 23.11.2020
5215 Clear 28 1016 31 10000 4.6 230 19:32 23.11.2020
5216 Clear 26 1017 31 10000 3.1 240 17:27 23.11.2020
5217 Clear 24 1017 31 10000 4.1 230 16:37 23.11.2020
5218 Clear 22 1017 37 10000 2.1 240 14:49 23.11.2020
5219 Clear 20 1017 45 10000 1 270 13:43 23.11.2020
5220 Clear 16 1017 62 10000 2.08 252 12:38 23.11.2020
5221 Clear 16 1019 46 10000 1.01 250 11:49 23.11.2020
5222 Clear 14 1019 47 10000 0.35 237 11:25 23.11.2020
5223 Clear 14 1018 50 10000 0.57 263 09:42 23.11.2020
5224 Clear 14 1018 48 10000 0.54 279 08:49 23.11.2020
5225 Clouds 15 1017 45 10000 0.71 273 07:29 23.11.2020
5226 Clear 20 1012 35 10000 7.2 190 01:45 23.11.2020
5227 Clouds 26 1013 29 10000 3.6 250 23:41 22.11.2020
5228 Clear 29 1012 22 10000 3.6 230 22:19 22.11.2020
5229 Clear 30 1012 22 10000 3.6 230 21:23 22.11.2020
5230 Clear 29 1012 18 10000 2.6 180 19:58 22.11.2020
5231 Clear 29 1013 23 10000 2.1 180 18:56 22.11.2020
5232 Clear 27 1014 26 10000 2.6 300 17:54 22.11.2020
5233 Clear 24 1014 35 10000 1 270 15:58 22.11.2020
5234 Clear 24 1014 42 10000 1 300 14:54 22.11.2020
5235 Clear 15 1015 71 10000 1.5 30 12:50 22.11.2020
5236 Clear 16 1016 46 10000 0.68 258 12:18 22.11.2020
5237 Clear 14 1014 76 10000 0.68 258 11:36 22.11.2020
5238 Clear 12 1013 71 10000 0.13 219 10:47 22.11.2020
5239 Clear 13 1013 71 10000 0.24 40 10:29 22.11.2020
5240 Clear 19 1019 39 10000 1.37 238 01:50 22.11.2020
5241 Clear 23 1016 27 10000 4.1 230 23:54 21.11.2020
5242 Clear 26 1016 19 10000 4.6 210 22:40 21.11.2020
5243 Clear 27 1016 17 10000 4.1 240 21:30 21.11.2020
5244 Clear 27 1017 18 10000 4.1 210 20:49 21.11.2020
5245 Clear 26 1017 22 10000 4.1 260 19:58 21.11.2020
5246 Clear 26 1017 22 10000 4.1 260 19:37 21.11.2020
5247 Clear 25 1018 31 10000 3.1 240 18:39 21.11.2020
5248 Clear 23 1019 40 10000 3.1 210 17:29 21.11.2020
5249 Clear 23 1019 40 10000 3.1 210 16:44 21.11.2020
5250 Clear 19 1020 58 10000 2.6 210 15:23 21.11.2020
5251 Clear 19 1020 58 10000 2.6 210 14:48 21.11.2020
5252 Clear 17 1020 58 10000 2.6 210 14:27 21.11.2020
5253 Clear 14 1020 71 10000 1.32 240 12:42 21.11.2020
5254 Clear 11 1019 87 8000 1 0 12:20 21.11.2020
5255 Clear 9 1019 87 9000 1.5 360 10:57 21.11.2020
5256 Clear 9 1019 87 9000 1.5 360 10:27 21.11.2020
5257 Clear 10 1019 81 10000 2.1 280 08:51 21.11.2020
5258 Clear 10 1019 76 10000 2.6 170 07:52 21.11.2020
5259 Clear 12 1020 66 10000 4.6 160 05:24 21.11.2020
5260 Clouds 16 1019 45 10000 3.1 230 01:43 21.11.2020
5261 Clear 19 1019 40 10000 2.1 230 23:59 20.11.2020
5262 Clear 21 1019 40 10000 2.6 220 22:31 20.11.2020
5263 Clouds 21 1019 45 10000 3.1 230 21:44 20.11.2020
5264 Clouds 21 1020 52 10000 2.6 180 21:21 20.11.2020
5265 Clouds 20 1020 63 7000 1 200 19:52 20.11.2020
5266 Clouds 19 1020 71 7000 1 180 18:53 20.11.2020
5267 Mist 17 1021 87 4000 1.5 180 17:53 20.11.2020
5268 Mist 16 1021 87 4000 1.5 180 17:28 20.11.2020
5269 Mist 15 1020 87 1500 2.1 270 16:40 20.11.2020
5270 Mist 14 1020 93 1500 1.5 230 15:59 20.11.2020
5271 Mist 14 1020 93 1500 1.5 230 15:27 20.11.2020
5272 Mist 13 1020 93 1300 2.6 230 13:47 20.11.2020
5273 Mist 13 1019 93 1100 1.5 250 13:19 20.11.2020
5274 Mist 13 1019 93 1100 1.5 250 12:36 20.11.2020
5275 Drizzle 12 1018 93 5000 3.6 170 11:45 20.11.2020
5276 Drizzle 12 1018 93 7000 3.6 170 11:20 20.11.2020
5277 Clouds 13 1018 93 8000 3.6 170 09:30 20.11.2020
5278 Clouds 13 1021 63 10000 1.08 248 08:26 20.11.2020
5279 Clouds 13 1018 81 10000 3.1 170 07:34 20.11.2020
5280 Clouds 14 1019 81 10000 4.1 160 03:44 20.11.2020
5281 Clear 21 1016 46 10000 4.1 230 22:47 19.11.2020
5282 Clear 22 1016 46 10000 4.1 230 22:26 19.11.2020
5283 Clear 23 1016 43 10000 4.6 210 21:46 19.11.2020
5284 Clouds 23 1016 43 10000 4.1 250 20:33 19.11.2020
5285 Clouds 22 1017 49 10000 4.1 240 19:54 19.11.2020
5286 Clouds 22 1017 49 10000 4.1 240 19:25 19.11.2020
5287 Clouds 23 1017 55 6000 4.1 250 17:46 19.11.2020
5288 Clouds 20 1018 63 7000 2.6 230 16:58 19.11.2020
5289 Clouds 19 1018 67 6000 2.6 240 15:59 19.11.2020
5290 Clouds 18 1018 67 6000 2.6 240 15:28 19.11.2020
5291 Haze 15 1018 87 4000 0.5 210 13:46 19.11.2020
5292 Mist 14 1017 87 3000 2.05 244 13:20 19.11.2020
5293 Mist 14 1017 87 3000 2.04 247 12:44 19.11.2020
5294 Mist 13 1017 87 3000 1.31 245 12:24 19.11.2020
5295 Clear 14 1020 66 10000 1.31 245 11:39 19.11.2020
5296 Mist 12 1015 100 5000 5.1 160 10:54 19.11.2020
5297 Mist 12 1015 100 5000 5.1 160 10:27 19.11.2020
5298 Clear 14 1019 65 10000 0.74 230 09:44 19.11.2020
5299 Mist 13 1015 100 4000 5.1 160 09:24 19.11.2020
5300 Mist 13 1015 100 4000 5.1 160 09:24 19.11.2020
5301 Clear 14 1014 81 10000 4.1 160 08:19 19.11.2020
5302 Clear 16 1015 72 10000 3.1 160 05:41 19.11.2020
5303 Clouds 20 1018 46 10000 1.36 222 01:45 19.11.2020
5304 Clouds 24 1015 31 10000 3.6 270 23:53 18.11.2020
5305 Clouds 25 1015 31 10000 3.6 270 23:25 18.11.2020
5306 Clouds 26 1015 30 10000 3.6 220 22:36 18.11.2020
5307 Clouds 27 1015 30 10000 3.6 230 22:18 18.11.2020
5308 Clouds 27 1015 30 10000 3.6 230 21:38 18.11.2020
5309 Clouds 26 1015 27 10000 4.1 230 21:19 18.11.2020
5310 Clear 27 1015 34 10000 3.1 230 19:47 18.11.2020
5311 Clear 27 1015 34 10000 3.1 230 19:27 18.11.2020
5312 Clear 27 1016 36 8000 2.6 250 18:49 18.11.2020
5313 Clear 26 1016 46 8000 1.5 230 17:59 18.11.2020
5314 Clear 25 1016 46 8000 1.5 230 17:35 18.11.2020
5315 Clear 24 1017 46 8000 2.1 180 16:23 18.11.2020
5316 Clear 21 1018 63 8000 1 20 15:22 18.11.2020
5317 Clear 20 1018 63 8000 1 20 14:40 18.11.2020
5318 Clear 17 1018 76 7000 1 120 13:43 18.11.2020
5319 Clouds 15 1018 76 7000 1.35 243 12:54 18.11.2020
5320 Clouds 14 1018 76 7000 0.55 226 12:27 18.11.2020
5321 Clouds 11 1018 93 8000 2.1 170 11:28 18.11.2020
5322 Clouds 10 1018 87 10000 1 0 10:31 18.11.2020
5323 Clouds 10 1018 87 10000 2.1 170 09:52 18.11.2020
5324 Clouds 12 1018 81 10000 1.5 150 07:40 18.11.2020
5325 Clouds 12 1019 81 10000 2.6 160 06:30 18.11.2020
5326 Clouds 18 1020 59 10000 2.1 270 00:23 18.11.2020
5327 Clouds 19 1020 59 8000 3.1 230 23:31 17.11.2020
5328 Clouds 20 1019 52 8000 3.1 210 22:46 17.11.2020
5329 Clouds 20 1019 52 8000 3.1 210 22:46 17.11.2020
5330 Clouds 20 1019 52 8000 3.1 210 22:28 17.11.2020
5331 Clouds 21 1020 55 7000 3.6 250 21:49 17.11.2020
5332 Clouds 21 1020 55 7000 3.6 250 21:30 17.11.2020
5333 Clouds 21 1020 55 7000 3.1 230 20:44 17.11.2020
5334 Clouds 21 1020 55 7000 3.1 230 20:24 17.11.2020
5335 Clouds 20 1019 52 7000 2.6 240 19:50 17.11.2020
5336 Clouds 21 1019 55 7000 2.1 260 18:24 17.11.2020
5337 Clouds 19 1019 63 7000 2.6 250 17:33 17.11.2020
5338 Rain 19 1019 62 7000 1.5 250 16:49 17.11.2020
5339 Rain 17 1019 67 7000 2.1 260 16:18 17.11.2020
5340 Clouds 17 1019 67 7000 2.1 260 15:38 17.11.2020
5341 Rain 17 1018 71 7000 1.5 250 15:20 17.11.2020
5342 Clouds 16 1018 71 7000 1.5 250 14:30 17.11.2020
5343 Clouds 15 1018 76 8000 1.5 270 13:54 17.11.2020
5344 Clouds 14 1018 76 8000 1.5 270 13:27 17.11.2020
5345 Clear 13 1017 81 10000 1.5 220 12:42 17.11.2020
5346 Clouds 14 1020 59 10000 1.39 238 11:45 17.11.2020
5347 Clouds 12 1017 87 8000 3.6 150 11:26 17.11.2020
5348 Clouds 12 1016 87 10000 3.1 170 10:39 17.11.2020
5349 Clouds 14 1019 58 10000 1.1 231 09:57 17.11.2020
5350 Clouds 13 1015 81 10000 2.6 190 09:36 17.11.2020
5351 Clouds 14 1019 57 10000 0.97 249 08:43 17.11.2020
5352 Clouds 14 1019 55 10000 1.12 240 07:59 17.11.2020
5353 Clouds 14 1018 55 10000 1 260 07:28 17.11.2020
5354 Clear 15 1016 71 10000 6.2 160 04:31 17.11.2020
5355 Clear 16 1016 67 10000 6.7 160 03:25 17.11.2020
5356 Clear 17 1015 59 10000 5.1 140 02:29 17.11.2020
5357 Clouds 20 1016 43 10000 3.1 250 00:56 17.11.2020
5358 Clouds 23 1015 36 10000 4.1 240 23:54 16.11.2020
5359 Clouds 24 1015 36 10000 4.1 240 23:31 16.11.2020
5360 Clouds 25 1015 27 10000 4.6 240 22:55 16.11.2020
5361 Clouds 26 1015 27 10000 4.6 240 22:23 16.11.2020
5362 Clear 26 1014 26 10000 6.7 210 21:56 16.11.2020
5363 Clear 26 1014 26 10000 6.7 210 21:37 16.11.2020
5364 Clear 27 1014 26 10000 6.7 210 21:18 16.11.2020
5365 Clouds 26 1015 31 10000 4.1 210 20:26 16.11.2020
5366 Clouds 26 1015 31 10000 4.1 210 19:50 16.11.2020
5367 Clouds 26 1015 31 10000 4.1 210 19:28 16.11.2020
5368 Clouds 26 1016 31 10000 2.6 230 18:48 16.11.2020
5369 Clear 26 1016 28 10000 2.6 270 17:57 16.11.2020
5370 Clear 24 1016 28 10000 2.6 270 17:26 16.11.2020
5371 Clear 24 1017 32 10000 1.5 260 16:57 16.11.2020
5372 Clear 24 1017 32 10000 1.5 260 16:38 16.11.2020
5373 Clear 21 1017 32 10000 1 230 16:18 16.11.2020
5374 Clear 21 1017 32 10000 1 230 15:41 16.11.2020
5375 Clear 19 1018 36 10000 0.5 60 15:22 16.11.2020
5376 Clear 21 1018 36 10000 0.5 60 14:42 16.11.2020
5377 Clear 16 1018 47 10000 0.5 120 13:35 16.11.2020
5378 Clear 15 1018 70 10000 0.5 30 12:34 16.11.2020
5379 Clear 13 1018 76 10000 1.5 180 11:55 16.11.2020
5380 Clear 12 1018 76 10000 1.5 180 11:37 16.11.2020
5381 Clear 11 1018 76 10000 1.5 170 11:18 16.11.2020
5382 Clear 11 1018 76 10000 1.5 170 10:40 16.11.2020
5383 Clear 11 1018 76 10000 1.5 170 10:22 16.11.2020
5384 Clear 11 1018 66 10000 2.1 170 09:41 16.11.2020
5385 Clear 11 1018 61 10000 2.6 150 08:59 16.11.2020
5386 Clear 12 1018 61 10000 2.6 150 08:38 16.11.2020
5387 Clear 12 1019 57 10000 3.1 170 07:44 16.11.2020
5388 Clear 13 1019 50 10000 3.1 160 06:49 16.11.2020
5389 Clear 13 1019 47 10000 3.6 160 05:55 16.11.2020
5390 Clear 15 1019 44 10000 4.1 150 04:37 16.11.2020
5391 Clear 18 1018 42 10000 6.7 200 01:57 16.11.2020
5392 Clear 17 1018 42 10000 6.7 200 01:39 16.11.2020
5393 Clear 22 1018 33 10000 4.1 250 23:53 15.11.2020
5394 Clear 23 1018 29 10000 4.6 240 23:22 15.11.2020
5395 Clear 24 1018 29 10000 4.6 240 22:45 15.11.2020
5396 Clear 24 1018 29 10000 4.6 240 22:20 15.11.2020
5397 Clear 25 1017 31 10000 5.1 240 21:43 15.11.2020
5398 Clear 25 1017 31 10000 5.1 240 21:24 15.11.2020
5399 Clouds 26 1017 29 10000 4.1 0 20:41 15.11.2020
5400 Clouds 26 1017 31 10000 5.1 220 20:18 15.11.2020
5401 Clouds 26 1017 31 10000 5.1 220 19:48 15.11.2020
5402 Clouds 26 1017 31 10000 5.1 220 19:22 15.11.2020
5403 Clouds 26 1017 33 10000 2.6 0 18:56 15.11.2020
5404 Clouds 26 1017 33 10000 2.6 0 18:38 15.11.2020
5405 Clear 25 1018 35 10000 3.1 230 18:19 15.11.2020
5406 Clear 25 1018 35 10000 3.1 230 17:44 15.11.2020
5407 Clear 23 1018 37 10000 2.1 0 17:23 15.11.2020
5408 Clear 24 1018 37 10000 2.1 0 16:45 15.11.2020
5409 Clear 22 1018 42 10000 2.1 0 16:20 15.11.2020
5410 Clear 21 1018 42 10000 2.1 0 15:50 15.11.2020
5411 Clear 21 1018 42 10000 2.1 0 15:26 15.11.2020
5412 Clear 19 1017 51 10000 1.5 190 14:56 15.11.2020
5413 Clear 19 1017 51 10000 1.5 190 14:30 15.11.2020
5414 Clear 17 1018 62 10000 2.25 254 13:56 15.11.2020
5415 Clear 18 1018 62 10000 2.25 254 13:36 15.11.2020
5416 Clear 13 1017 81 10000 1.52 252 12:50 15.11.2020
5417 Smoke 14 1016 81 6000 0.56 267 12:22 15.11.2020
5418 Smoke 13 1016 81 6000 0.56 267 11:46 15.11.2020
5419 Clear 12 1016 76 10000 1.5 20 11:19 15.11.2020
5420 Clear 11 1016 76 10000 1.5 20 10:53 15.11.2020
5421 Clear 11 1016 76 10000 1.5 20 10:32 15.11.2020
5422 Clear 12 1015 76 10000 0.19 266 09:57 15.11.2020
5423 Clear 12 1015 76 10000 0.19 266 09:37 15.11.2020
5424 Clear 12 1015 66 10000 1 180 09:18 15.11.2020
5425 Clear 12 1015 66 10000 1 180 08:45 15.11.2020
5426 Clear 13 1015 62 10000 2.1 170 07:47 15.11.2020
5427 Clear 14 1015 62 10000 1.5 160 06:49 15.11.2020
5428 Clear 15 1016 58 10000 3.6 170 04:56 15.11.2020
5429 Clear 17 1015 48 10000 5.1 200 02:27 15.11.2020
5430 Clouds 21 1016 27 10000 3.1 210 00:36 15.11.2020
5431 Clouds 22 1016 27 10000 3.1 210 00:18 15.11.2020
5432 Clouds 23 1016 27 10000 3.1 210 23:27 14.11.2020
5433 Clouds 24 1016 29 10000 3.1 0 22:45 14.11.2020
5434 Clouds 24 1016 29 10000 3.1 0 22:26 14.11.2020
5435 Clouds 25 1016 29 10000 3.6 250 21:39 14.11.2020
5436 Clouds 24 1016 33 10000 3.1 0 21:21 14.11.2020
5437 Clouds 24 1016 33 10000 3.1 0 21:21 14.11.2020
5438 Clouds 25 1016 33 10000 3.1 0 20:48 14.11.2020
5439 Clouds 25 1016 33 10000 3.1 0 20:25 14.11.2020
5440 Clouds 24 1017 37 10000 2.1 180 19:39 14.11.2020
5441 Clouds 24 1017 37 10000 2.1 180 19:20 14.11.2020
5442 Clouds 23 1017 40 10000 2.6 280 18:42 14.11.2020
5443 Clouds 22 1018 48 7000 2.6 240 18:22 14.11.2020
5444 Clouds 22 1018 48 7000 2.6 240 17:47 14.11.2020
5445 Clouds 22 1018 48 7000 2.6 240 17:47 14.11.2020
5446 Clouds 22 1018 48 7000 2.6 240 17:29 14.11.2020
5447 Clouds 21 1018 59 7000 2.1 250 16:53 14.11.2020
5448 Clouds 20 1018 59 7000 2.1 250 16:34 14.11.2020
5449 Haze 19 1019 72 5000 1.5 170 15:58 14.11.2020
5450 Haze 17 1019 72 5000 1.5 170 15:33 14.11.2020
5451 Haze 18 1019 71 4000 2.09 241 14:59 14.11.2020
5452 Haze 16 1019 71 4000 1.88 242 14:31 14.11.2020
5453 Haze 15 1019 76 4000 1.88 242 13:58 14.11.2020
5454 Haze 15 1019 76 4000 1.88 242 13:58 14.11.2020
5455 Haze 15 1019 76 4000 1.88 242 13:39 14.11.2020
5456 Haze 14 1019 76 4000 2.02 251 13:21 14.11.2020
5457 Haze 14 1019 76 4000 2.04 247 12:41 14.11.2020
5458 Haze 14 1019 76 4000 1.66 246 12:23 14.11.2020
5459 Clouds 13 1018 81 10000 1.5 130 11:40 14.11.2020
5460 Clouds 13 1018 81 10000 2.6 150 11:21 14.11.2020
5461 Clouds 13 1018 81 10000 2.6 150 10:40 14.11.2020
5462 Clouds 13 1018 81 10000 2.6 150 10:22 14.11.2020
5463 Clouds 13 1018 81 10000 3.6 160 09:45 14.11.2020
5464 Clouds 13 1018 81 10000 3.6 160 09:27 14.11.2020
5465 Clouds 13 1017 81 10000 3.1 160 08:44 14.11.2020
5466 Clouds 13 1017 81 10000 3.1 160 08:23 14.11.2020
5467 Clouds 13 1018 81 10000 4.1 160 07:42 14.11.2020
5468 Clouds 13 1018 81 10000 4.1 160 07:20 14.11.2020
5469 Clouds 14 1018 82 10000 3.1 160 06:28 14.11.2020
5470 Clouds 14 1019 82 10000 2.6 150 05:18 14.11.2020
5471 Clouds 14 1019 76 10000 3.1 180 03:28 14.11.2020
5472 Clouds 16 1018 76 10000 7.7 210 00:42 14.11.2020
5473 Clouds 17 1019 63 7000 3.1 240 23:38 13.11.2020
5474 Clouds 19 1018 55 7000 3.1 210 23:20 13.11.2020
5475 Clouds 19 1018 55 7000 3.1 210 22:42 13.11.2020
5476 Clouds 19 1018 55 7000 3.1 210 22:23 13.11.2020
5477 Clouds 20 1019 48 10000 3.94 236 21:51 13.11.2020
5478 Clouds 20 1020 47 10000 4.01 240 21:29 13.11.2020
5479 Clouds 21 1018 59 8000 5.7 180 20:55 13.11.2020
5480 Clouds 21 1018 46 10000 4.01 240 20:36 13.11.2020
5481 Clouds 21 1017 47 10000 3.96 241 20:18 13.11.2020
5482 Clouds 20 1018 59 8000 5.7 180 19:44 13.11.2020
5483 Clouds 20 1018 59 8000 5.7 180 19:44 13.11.2020
5484 Clouds 19 1020 53 10000 3.67 244 19:22 13.11.2020
5485 Clouds 19 1018 63 8000 1.5 0 18:49 13.11.2020
5486 Clouds 19 1019 72 8000 1 0 17:59 13.11.2020
5487 Mist 16 1020 87 3000 0.5 360 17:36 13.11.2020
5488 Mist 16 1020 87 3000 0.5 360 17:18 13.11.2020
5489 Mist 15 1020 87 3000 0.5 360 16:42 13.11.2020
5490 Mist 15 1020 93 2000 1 180 16:21 13.11.2020
5491 Mist 14 1020 93 2000 1 180 15:41 13.11.2020
5492 Mist 14 1020 93 2000 2.1 240 15:22 13.11.2020
5493 Mist 14 1020 93 2000 2.1 240 14:39 13.11.2020
5494 Mist 14 1019 87 3000 1.5 240 14:19 13.11.2020
5495 Mist 14 1019 87 3000 1.5 240 14:19 13.11.2020
5496 Mist 14 1019 87 3000 1.5 240 13:37 13.11.2020
5497 Mist 14 1019 87 4000 1.5 210 13:18 13.11.2020
5498 Rain 14 1019 87 4000 1.5 210 12:43 13.11.2020
5499 Clouds 14 1022 66 10000 1.84 249 12:24 13.11.2020
5500 Mist 13 1018 87 5000 3.6 170 11:47 13.11.2020
5501 Clouds 13 1018 87 9000 2.6 170 11:24 13.11.2020
5502 Clouds 13 1018 87 9000 2.6 170 10:54 13.11.2020
5503 Clouds 13 1018 87 9000 2.6 170 10:34 13.11.2020
5504 Clouds 13 1018 87 9000 2.1 170 09:53 13.11.2020
5505 Clouds 13 1018 87 9000 2.1 170 09:32 13.11.2020
5506 Clouds 13 1018 87 10000 2.6 170 08:55 13.11.2020
5507 Clouds 13 1018 87 10000 2.6 170 08:32 13.11.2020
5508 Clouds 13 1018 87 10000 3.6 150 07:55 13.11.2020
5509 Clouds 13 1018 87 10000 3.6 160 07:36 13.11.2020
5510 Clouds 13 1019 87 10000 3.6 170 07:18 13.11.2020
5511 Clouds 15 1022 63 10000 1.22 252 06:37 13.11.2020
5512 Clouds 15 1022 60 10000 0.96 265 05:42 13.11.2020
5513 Clouds 16 1022 57 10000 0.99 234 04:24 13.11.2020
5514 Clouds 19 1021 51 10000 2.31 231 01:43 13.11.2020
5515 Clear 21 1017 38 10000 3.6 250 00:37 13.11.2020
5516 Clear 23 1017 38 10000 3.6 250 23:59 12.11.2020
5517 Clear 23 1017 38 10000 3.6 250 23:36 12.11.2020
5518 Clear 25 1016 34 10000 4.1 220 23:18 12.11.2020
5519 Clear 26 1016 34 10000 4.1 220 22:41 12.11.2020
5520 Clear 27 1016 34 10000 4.1 220 22:20 12.11.2020
5521 Clear 27 1016 34 10000 4.1 220 21:41 12.11.2020
5522 Clear 28 1016 34 10000 4.6 250 21:23 12.11.2020
5523 Clear 28 1016 34 10000 4.6 250 20:45 12.11.2020
5524 Clear 28 1016 34 10000 4.6 250 20:25 12.11.2020
5525 Clear 28 1016 34 10000 3.1 230 19:58 12.11.2020
5526 Clear 28 1016 34 10000 3.1 230 19:40 12.11.2020
5527 Clear 28 1016 34 10000 3.1 230 19:21 12.11.2020
5528 Clouds 27 1016 36 8000 2.6 200 18:48 12.11.2020
5529 Clouds 27 1017 36 8000 2.1 270 18:20 12.11.2020
5530 Clouds 27 1017 36 8000 2.1 270 17:43 12.11.2020
5531 Clouds 26 1017 43 8000 2.1 220 17:25 12.11.2020
5532 Clouds 25 1017 43 8000 2.1 220 16:46 12.11.2020
5533 Clouds 25 1017 43 8000 2.1 220 16:46 12.11.2020
5534 Clouds 25 1017 43 8000 2.1 220 16:24 12.11.2020
5535 Clouds 23 1017 49 8000 1.5 270 15:54 12.11.2020
5536 Clouds 21 1017 49 8000 1.5 270 15:31 12.11.2020
5537 Clear 22 1017 59 10000 2.76 250 14:57 12.11.2020
5538 Clear 22 1017 59 10000 2.76 250 14:38 12.11.2020
5539 Clear 20 1017 76 10000 2.21 253 14:20 12.11.2020
5540 Clear 19 1017 76 10000 2.21 253 13:45 12.11.2020
5541 Clear 17 1017 87 10000 1.43 256 13:21 12.11.2020
5542 Clear 16 1017 87 10000 1.43 256 12:49 12.11.2020
5543 Clear 15 1017 87 10000 0.65 251 12:26 12.11.2020
5544 Fog 14 1017 100 1200 2.6 170 11:58 12.11.2020
5545 Fog 15 1017 100 1200 2.6 170 11:40 12.11.2020
5546 Fog 12 1017 100 1200 2.1 160 10:54 12.11.2020
5547 Fog 12 1016 93 6000 2.6 150 10:35 12.11.2020
5548 Clouds 12 1016 93 7000 3.1 160 09:58 12.11.2020
5549 Clouds 13 1016 93 10000 3.1 170 09:38 12.11.2020
5550 Clouds 14 1017 81 10000 3.1 160 09:18 12.11.2020
5551 Clouds 13 1017 81 10000 3.1 160 08:40 12.11.2020
5552 Clouds 14 1017 81 10000 4.1 160 08:21 12.11.2020
5553 Clouds 13 1017 81 10000 4.1 160 07:55 12.11.2020
5554 Clouds 13 1017 81 10000 4.1 160 07:36 12.11.2020
5555 Clouds 14 1017 76 10000 4.1 160 06:52 12.11.2020
5556 Clouds 15 1017 71 10000 3.6 150 06:26 12.11.2020
5557 Clouds 16 1021 51 10000 0.84 245 03:50 12.11.2020
5558 Clouds 17 1021 49 10000 1.3 237 03:20 12.11.2020
5559 Clouds 20 1019 40 10000 1.75 238 00:45 12.11.2020
5560 Clear 23 1017 41 10000 3.1 0 23:45 11.11.2020
5561 Clear 24 1017 41 10000 3.1 0 23:25 11.11.2020
5562 Clear 25 1016 38 10000 4.6 240 22:48 11.11.2020
5563 Clear 26 1016 38 10000 4.6 240 22:24 11.11.2020
5564 Clear 27 1016 34 10000 4.1 230 21:59 11.11.2020
5565 Clear 27 1016 34 10000 4.1 230 21:40 11.11.2020
5566 Clear 27 1016 34 10000 3.6 220 21:20 11.11.2020
5567 Clear 26 1016 34 10000 3.6 220 20:54 11.11.2020
5568 Clear 26 1016 34 10000 3.6 220 20:36 11.11.2020
5569 Clear 26 1016 39 8000 3.1 0 20:18 11.11.2020
5570 Clear 26 1016 39 8000 3.1 0 19:41 11.11.2020
5571 Clouds 27 1016 39 8000 3.1 0 19:22 11.11.2020
5572 Clouds 26 1017 36 8000 2.1 0 18:47 11.11.2020
5573 Clouds 26 1017 36 8000 2.1 0 18:27 11.11.2020
5574 Clouds 25 1017 40 8000 2.1 280 17:41 11.11.2020
5575 Clouds 21 1018 52 6000 2.1 210 17:21 11.11.2020
5576 Clouds 23 1018 52 6000 2.1 210 16:45 11.11.2020
5577 Clouds 23 1018 52 6000 2.1 210 16:27 11.11.2020
5578 Clouds 22 1018 63 7000 2.1 0 15:44 11.11.2020
5579 Clouds 21 1018 63 7000 2.1 0 15:26 11.11.2020
5580 Clouds 19 1018 72 7000 2.1 0 14:52 11.11.2020
5581 Clouds 18 1018 72 7000 2.1 0 14:31 11.11.2020
5582 Clear 17 1018 82 8000 2.26 247 13:52 11.11.2020
5583 Clear 17 1018 82 8000 2.26 247 13:52 11.11.2020
5584 Clear 16 1018 82 8000 2.26 247 13:32 11.11.2020
5585 Clouds 14 1018 82 8000 1.84 246 12:40 11.11.2020
5586 Clouds 13 1021 63 10000 1.04 246 12:20 11.11.2020
5587 Clouds 12 1017 93 6000 1 0 11:48 11.11.2020
5588 Clouds 13 1021 66 10000 0.44 233 11:26 11.11.2020
5589 Clouds 13 1021 66 10000 0.44 233 10:40 11.11.2020
5590 Clouds 12 1021 65 10000 0.68 244 10:20 11.11.2020
5591 Clouds 13 1021 65 10000 0.68 244 09:44 11.11.2020
5592 Clouds 13 1021 64 10000 0.74 247 09:25 11.11.2020
5593 Clouds 13 1021 63 10000 0.74 247 08:46 11.11.2020
5594 Clouds 13 1021 62 10000 0.63 240 08:27 11.11.2020
5595 Clouds 14 1017 93 10000 3.6 130 07:49 11.11.2020
5596 Clear 13 1017 93 10000 5.1 150 07:18 11.11.2020
5597 Clear 14 1017 93 10000 5.1 150 06:26 11.11.2020
5598 Clear 16 1020 47 10000 1.24 238 03:57 11.11.2020
5599 Clear 20 1018 37 10000 2.09 228 00:59 11.11.2020
5600 Clear 22 1015 33 10000 4.1 260 00:28 11.11.2020
5601 Clear 23 1015 33 10000 4.1 260 23:49 10.11.2020
5602 Clear 24 1015 33 10000 4.1 260 23:24 10.11.2020
5603 Clear 25 1015 31 10000 4.1 240 22:57 10.11.2020
5604 Clear 26 1015 31 10000 4.1 240 22:27 10.11.2020
5605 Clear 27 1015 29 10000 5.1 240 21:44 10.11.2020
5606 Clear 28 1015 29 10000 5.1 240 21:25 10.11.2020
5607 Clear 28 1015 32 10000 4.1 250 20:59 10.11.2020
5608 Clear 28 1015 32 10000 4.1 250 20:41 10.11.2020
5609 Clear 28 1015 34 8000 3.6 240 20:22 10.11.2020
5610 Clear 28 1015 34 8000 3.6 240 19:49 10.11.2020
5611 Clear 29 1015 34 8000 3.6 240 19:30 10.11.2020
5612 Clear 29 1015 34 7000 3.6 0 18:59 10.11.2020
5613 Clear 29 1015 34 7000 3.6 0 18:40 10.11.2020
5614 Clear 28 1015 38 10000 3.1 240 18:19 10.11.2020
5615 Clear 28 1015 38 10000 3.1 240 17:43 10.11.2020
5616 Clear 27 1015 38 10000 3.1 240 17:25 10.11.2020
5617 Clear 26 1015 38 10000 2.1 0 16:46 10.11.2020
5618 Clear 26 1015 38 10000 2.1 0 16:24 10.11.2020
5619 Clear 25 1015 43 10000 1.5 0 15:57 10.11.2020
5620 Clear 25 1015 43 10000 1.5 0 15:38 10.11.2020
5621 Clear 24 1016 52 10000 2.55 248 15:20 10.11.2020
5622 Clear 24 1016 52 10000 2.55 248 14:41 10.11.2020
5623 Clear 21 1016 59 10000 2.12 255 14:22 10.11.2020
5624 Clear 21 1016 59 10000 2.12 255 13:41 10.11.2020
5625 Clear 19 1015 67 10000 1.64 259 13:23 10.11.2020
5626 Clear 19 1015 67 10000 1.64 259 12:58 10.11.2020
5627 Clear 18 1015 67 10000 1.63 258 12:39 10.11.2020
5628 Clear 16 1014 81 10000 1.5 160 12:20 10.11.2020
5629 Clear 15 1014 81 10000 1.5 160 11:39 10.11.2020
5630 Clear 14 1014 81 10000 2.1 160 11:19 10.11.2020
5631 Clear 14 1014 81 10000 2.1 160 10:43 10.11.2020
5632 Clear 14 1014 81 10000 2.1 160 10:24 10.11.2020
5633 Clear 14 1014 76 10000 2.6 160 09:51 10.11.2020
5634 Clear 14 1014 76 10000 2.6 160 09:26 10.11.2020
5635 Clear 15 1014 76 10000 2.6 150 08:59 10.11.2020
5636 Clear 15 1014 76 10000 2.6 150 08:30 10.11.2020
5637 Clear 15 1014 76 10000 3.1 170 07:56 10.11.2020
5638 Clear 15 1014 76 10000 3.1 170 07:37 10.11.2020
5639 Clear 16 1015 71 10000 3.1 160 07:18 10.11.2020
5640 Clear 16 1017 53 10000 0.52 231 06:38 10.11.2020
5641 Clear 17 1017 51 10000 0.83 239 05:29 10.11.2020
5642 Clear 18 1018 50 10000 1.07 237 03:36 10.11.2020
5643 Clear 20 1017 44 10000 1.54 247 01:41 10.11.2020
5644 Clear 22 1016 42 10000 1.67 243 00:50 10.11.2020
5645 Clear 25 1013 36 10000 3.6 230 23:46 09.11.2020
5646 Clear 27 1013 32 10000 3.6 230 22:59 09.11.2020
5647 Clear 28 1013 32 10000 3.6 230 22:41 09.11.2020
5648 Clear 28 1013 30 10000 3.6 200 22:20 09.11.2020
5649 Clear 28 1013 30 10000 3.6 200 21:43 09.11.2020
5650 Clear 29 1013 30 10000 3.6 200 21:25 09.11.2020
5651 Clear 29 1013 30 10000 3.6 200 21:25 09.11.2020
5652 Clear 29 1014 32 10000 4.1 250 20:42 09.11.2020
5653 Clouds 28 1014 32 10000 2.6 220 20:22 09.11.2020
5654 Clouds 28 1014 32 10000 2.6 220 19:48 09.11.2020
5655 Clouds 28 1014 32 10000 2.6 220 19:23 09.11.2020
5656 Clear 29 1015 41 10000 2.6 200 18:58 09.11.2020
5657 Clear 28 1015 41 10000 2.6 200 18:39 09.11.2020
5658 Clear 28 1016 38 10000 2.6 210 18:19 09.11.2020
5659 Clear 27 1016 38 10000 2.6 210 17:43 09.11.2020
5660 Clear 27 1016 38 10000 2.6 210 17:25 09.11.2020
5661 Clear 27 1016 46 10000 2.6 270 16:44 09.11.2020
5662 Clear 27 1016 46 10000 2.6 270 16:44 09.11.2020
5663 Clear 22 1016 49 10000 1 30 16:23 09.11.2020
5664 Clear 25 1016 49 10000 1 30 15:45 09.11.2020
5665 Clear 24 1016 49 10000 1 30 15:25 09.11.2020
5666 Clear 22 1017 59 10000 1 60 14:49 09.11.2020
5667 Clear 21 1017 59 10000 1 60 14:28 09.11.2020
5668 Clear 20 1017 76 10000 2.21 249 13:53 09.11.2020
5669 Clear 18 1017 76 10000 1.46 245 13:28 09.11.2020
5670 Clear 16 1017 71 10000 1.46 245 12:58 09.11.2020
5671 Clear 16 1017 71 10000 1.57 245 12:40 09.11.2020
5672 Fog 14 1017 100 800 1.5 180 12:20 09.11.2020
5673 Fog 9 1017 100 500 3.1 180 11:42 09.11.2020
5674 Fog 13 1017 100 500 3.1 180 11:24 09.11.2020
5675 Clouds 13 1017 93 7000 2.6 170 10:44 09.11.2020
5676 Clouds 13 1017 93 7000 2.6 170 10:25 09.11.2020
5677 Clouds 14 1017 87 10000 2.6 170 09:54 09.11.2020
5678 Clouds 14 1017 87 10000 2.6 170 09:29 09.11.2020
5679 Clouds 14 1017 81 10000 3.1 170 08:50 09.11.2020
5680 Clouds 14 1017 81 10000 3.1 170 08:27 09.11.2020
5681 Clouds 14 1017 81 10000 2.1 150 07:43 09.11.2020
5682 Clouds 14 1017 81 10000 2.1 150 07:22 09.11.2020
5683 Clouds 15 1018 76 10000 2.1 200 06:51 09.11.2020
5684 Clear 17 1019 67 10000 5.1 160 03:51 09.11.2020
5685 Clouds 19 1021 45 10000 1.39 237 01:57 09.11.2020
5686 Clouds 19 1021 43 10000 1.39 237 01:39 09.11.2020
5687 Clear 20 1018 46 10000 3.6 200 00:35 09.11.2020
5688 Clear 23 1018 46 10000 3.6 200 23:40 08.11.2020
5689 Clear 23 1017 44 10000 4.1 230 23:22 08.11.2020
5690 Clear 24 1017 44 10000 4.1 230 22:42 08.11.2020
5691 Clear 25 1017 44 10000 4.1 230 22:21 08.11.2020
5692 Clear 26 1017 44 10000 4.1 230 21:45 08.11.2020
5693 Clear 27 1017 36 10000 3.6 250 21:21 08.11.2020
5694 Clear 28 1017 36 10000 3.6 250 20:57 08.11.2020
5695 Clear 27 1017 36 10000 3.6 250 20:38 08.11.2020
5696 Clear 29 1017 28 10000 3.6 230 20:19 08.11.2020
5697 Clear 27 1017 28 10000 3.6 230 19:45 08.11.2020
5698 Clear 27 1017 28 10000 3.6 230 19:21 08.11.2020
5699 Clear 27 1017 32 10000 3.1 250 18:55 08.11.2020
5700 Clear 28 1017 32 10000 3.1 250 18:37 08.11.2020
5701 Clear 27 1018 38 10000 3.1 220 18:19 08.11.2020
5702 Clear 27 1018 38 10000 3.1 220 17:41 08.11.2020
5703 Clear 26 1018 40 10000 2.6 270 17:20 08.11.2020
5704 Clear 26 1018 40 10000 2.6 270 16:57 08.11.2020
5705 Clear 25 1018 40 10000 2.6 270 16:37 08.11.2020
5706 Clear 25 1018 40 10000 2.1 270 16:18 08.11.2020
5707 Clear 24 1018 40 10000 2.1 270 15:44 08.11.2020
5708 Clear 24 1018 40 10000 2.1 270 15:25 08.11.2020
5709 Clear 22 1018 48 10000 1.5 200 14:42 08.11.2020
5710 Clear 22 1018 48 10000 1.5 200 14:23 08.11.2020
5711 Clear 22 1018 48 10000 1.5 200 14:23 08.11.2020
5712 Clear 20 1018 59 10000 1 220 13:50 08.11.2020
5713 Clear 19 1018 67 10000 1.81 253 13:24 08.11.2020
5714 Clear 19 1018 59 10000 1 220 13:24 08.11.2020
5715 Clear 18 1018 67 10000 1.81 253 12:47 08.11.2020
5716 Clear 16 1018 67 10000 0.87 249 12:29 08.11.2020
5717 Clear 16 1016 71 10000 1.5 180 11:58 08.11.2020
5718 Clear 15 1016 71 10000 1.5 180 11:40 08.11.2020
5719 Clear 14 1015 71 10000 1.5 190 11:22 08.11.2020
5720 Clear 14 1015 71 10000 1.5 190 10:51 08.11.2020
5721 Clear 14 1015 71 10000 2.6 160 10:20 08.11.2020
5722 Clear 14 1015 71 10000 2.6 160 09:59 08.11.2020
5723 Clear 14 1015 71 10000 2.6 160 09:40 08.11.2020
5724 Clear 15 1015 62 10000 3.1 160 09:18 08.11.2020
5725 Clear 15 1015 62 10000 3.1 160 08:41 08.11.2020
5726 Clear 15 1014 66 10000 1.5 170 08:20 08.11.2020
5727 Clear 15 1014 66 10000 1.5 170 07:52 08.11.2020
5728 Clear 15 1014 66 10000 1.5 170 07:29 08.11.2020
5729 Clear 16 1014 62 10000 1.5 140 06:24 08.11.2020
5730 Clear 17 1014 58 10000 3.1 160 05:53 08.11.2020
5731 Clear 17 1014 48 10000 4.6 150 04:50 08.11.2020
5732 Clear 21 1013 40 10000 4.1 150 01:53 08.11.2020
5733 Clear 22 1016 35 10000 1.96 224 01:19 08.11.2020
5734 Clear 25 1014 26 10000 3.6 240 00:30 08.11.2020
5735 Clear 26 1014 26 10000 3.6 240 23:47 07.11.2020
5736 Clear 26 1014 26 10000 3.6 240 23:29 07.11.2020
5737 Clear 28 1013 23 10000 4.6 240 22:47 07.11.2020
5738 Clear 29 1013 23 10000 4.6 240 22:27 07.11.2020
5739 Clear 30 1013 19 10000 4.1 230 21:56 07.11.2020
5740 Clear 30 1013 19 10000 4.1 230 21:37 07.11.2020
5741 Clear 30 1013 19 10000 3.6 230 21:18 07.11.2020
5742 Clear 31 1013 19 10000 3.6 230 20:42 07.11.2020
5743 Clear 31 1013 19 10000 3.6 230 20:23 07.11.2020
5744 Clear 31 1013 22 10000 3.6 0 19:44 07.11.2020
5745 Clear 31 1013 22 10000 3.6 0 19:26 07.11.2020
5746 Clear 30 1013 20 10000 2.1 270 18:41 07.11.2020
5747 Clear 30 1014 23 10000 2.1 220 18:22 07.11.2020
5748 Clear 30 1014 23 10000 2.1 220 17:46 07.11.2020
5749 Clear 29 1014 23 10000 2.1 220 17:28 07.11.2020
5750 Clear 29 1014 27 10000 1.5 0 16:46 07.11.2020
5751 Clear 28 1014 27 10000 1.5 0 16:25 07.11.2020
5752 Clear 27 1014 33 10000 1.5 260 15:53 07.11.2020
5753 Clear 26 1014 33 10000 1.5 260 15:26 07.11.2020
5754 Clear 26 1011 23 10000 2.2 255 15:00 07.11.2020
5755 Clear 23 1014 51 10000 2.2 255 14:41 07.11.2020
5756 Clear 21 1014 51 10000 1.75 255 14:21 07.11.2020
5757 Clear 21 1014 51 10000 1.75 255 13:46 07.11.2020
5758 Clear 21 1014 51 10000 1.13 246 13:25 07.11.2020
5759 Clear 18 1014 62 10000 1.05 248 12:40 07.11.2020
5760 Clear 18 1013 66 8000 1 20 12:18 07.11.2020
5761 Clear 18 1013 66 8000 1 20 12:18 07.11.2020
5762 Clear 17 1013 66 8000 1 20 11:39 07.11.2020
5763 Clear 13 1012 66 10000 1 0 11:20 07.11.2020
5764 Clear 13 1012 66 10000 1 0 10:45 07.11.2020
5765 Clear 13 1012 66 10000 1 0 10:24 07.11.2020
5766 Clear 14 1012 66 10000 0.86 75 09:49 07.11.2020
5767 Clear 14 1012 66 10000 0.59 75 09:25 07.11.2020
5768 Clear 14 1012 66 10000 0.59 75 08:51 07.11.2020
5769 Clear 14 1012 66 10000 0.59 75 08:33 07.11.2020
5770 Clear 15 1012 54 10000 1.5 180 07:49 07.11.2020
5771 Clear 16 1013 54 10000 2.6 170 07:18 07.11.2020
5772 Clear 16 1013 54 10000 2.6 170 06:43 07.11.2020
5773 Clear 17 1014 51 10000 2.6 160 04:32 07.11.2020
5774 Clear 19 1014 32 10000 4.1 150 03:22 07.11.2020
5775 Clear 20 1013 30 10000 3.6 150 01:28 07.11.2020
5776 Clear 20 1013 30 10000 3.6 150 01:28 07.11.2020
5777 Clear 22 1013 31 10000 7.2 200 00:40 07.11.2020
5778 Clear 23 1014 27 10000 3.6 230 23:49 06.11.2020
5779 Clear 25 1012 25 10000 3.39 232 23:19 06.11.2020
5780 Clear 27 1011 25 10000 3.39 232 22:41 06.11.2020
5781 Clear 28 1013 26 10000 3.6 230 22:19 06.11.2020
5782 Clear 28 1013 26 10000 3.6 230 22:19 06.11.2020
5783 Clear 28 1013 26 10000 3.6 230 21:44 06.11.2020
5784 Clouds 28 1014 26 10000 4.6 240 21:21 06.11.2020
5785 Clouds 28 1014 26 10000 4.6 240 20:51 06.11.2020
5786 Clouds 28 1014 26 10000 3.6 230 20:20 06.11.2020
5787 Clouds 28 1014 26 10000 3.6 230 19:55 06.11.2020
5788 Clouds 28 1014 26 10000 3.6 230 19:37 06.11.2020
5789 Clouds 27 1014 29 10000 3.1 220 19:19 06.11.2020
5790 Clouds 27 1014 29 10000 3.1 220 18:44 06.11.2020
5791 Clouds 27 1015 29 10000 2.6 190 18:22 06.11.2020
5792 Clouds 27 1015 29 10000 2.6 190 17:50 06.11.2020
5793 Clouds 27 1015 29 10000 2.6 190 17:25 06.11.2020
5794 Clear 25 1015 33 10000 2.6 270 16:48 06.11.2020
5795 Clear 24 1015 33 10000 2.6 270 16:25 06.11.2020
5796 Clear 23 1015 37 10000 2.1 220 15:47 06.11.2020
5797 Clear 23 1015 37 10000 2.1 220 15:28 06.11.2020
5798 Clear 23 1014 42 10000 1 0 14:53 06.11.2020
5799 Clear 17 1015 48 10000 0.5 190 14:25 06.11.2020
5800 Clear 20 1015 48 10000 0.5 190 13:45 06.11.2020
5801 Clear 17 1015 48 10000 0.5 190 13:23 06.11.2020
5802 Clear 17 1015 67 10000 1 30 12:45 06.11.2020
5803 Clear 15 1015 67 10000 1 30 12:23 06.11.2020
5804 Clear 13 1013 71 10000 0.37 293 11:46 06.11.2020
5805 Clear 13 1013 71 10000 0.08 355 11:27 06.11.2020
5806 Clear 13 1013 66 10000 1.5 270 10:44 06.11.2020
5807 Clear 13 1013 66 10000 1.5 270 10:25 06.11.2020
5808 Clear 14 1013 62 10000 1 0 09:49 06.11.2020
5809 Clear 14 1013 58 10000 1 0 09:22 06.11.2020
5810 Clear 14 1013 58 10000 1 0 08:50 06.11.2020
5811 Clear 14 1013 58 10000 1 0 08:29 06.11.2020
5812 Clear 14 1013 58 10000 2.1 170 07:50 06.11.2020
5813 Clear 14 1013 58 10000 2.1 170 07:31 06.11.2020
5814 Clear 15 1014 51 10000 1 140 06:58 06.11.2020
5815 Clear 16 1014 51 10000 1 140 06:24 06.11.2020
5816 Clear 17 1015 45 10000 3.1 140 04:42 06.11.2020
5817 Clear 21 1013 31 10000 7.7 210 01:22 06.11.2020
5818 Clear 24 1015 29 10000 3.1 210 00:21 06.11.2020
5819 Clear 25 1015 29 10000 3.1 210 23:32 05.11.2020
5820 Clear 26 1014 32 10000 3.1 210 22:58 05.11.2020
5821 Clear 27 1014 32 10000 3.1 210 22:39 05.11.2020
5822 Clear 27 1015 32 10000 3.1 240 22:20 05.11.2020
5823 Clear 27 1015 32 10000 3.1 240 21:43 05.11.2020
5824 Clear 27 1015 30 10000 3.1 240 21:22 05.11.2020
5825 Clear 27 1015 30 10000 3.1 240 20:55 05.11.2020
5826 Clear 27 1015 30 10000 3.1 240 20:37 05.11.2020
5827 Clear 27 1014 34 10000 5.7 160 20:18 05.11.2020
5828 Clear 27 1014 34 10000 5.7 160 19:41 05.11.2020
5829 Clear 26 1016 38 10000 3.1 240 19:23 05.11.2020
5830 Clear 26 1016 38 10000 3.1 240 18:46 05.11.2020
5831 Clear 26 1016 38 10000 3.1 240 18:26 05.11.2020
5832 Clear 26 1017 43 10000 2.6 240 17:52 05.11.2020
5833 Clear 25 1017 43 10000 2.6 240 17:31 05.11.2020
5834 Clear 24 1017 49 10000 2.1 240 16:59 05.11.2020
5835 Clear 24 1017 49 10000 2.1 240 16:41 05.11.2020
5836 Clear 21 1018 55 10000 1.5 180 16:20 05.11.2020
5837 Clear 22 1018 55 10000 1.5 180 15:46 05.11.2020
5838 Clear 19 1018 63 10000 1.5 180 15:22 05.11.2020
5839 Clear 19 1018 63 10000 1.5 180 14:46 05.11.2020
5840 Clear 18 1018 63 10000 1.5 180 14:27 05.11.2020
5841 Clear 19 1019 71 10000 2.13 248 13:49 05.11.2020
5842 Clear 16 1019 71 10000 2.13 248 13:30 05.11.2020
5843 Clear 16 1019 81 10000 1.52 254 12:53 05.11.2020
5844 Clear 13 1019 81 10000 0.52 302 12:29 05.11.2020
5845 Clear 13 1018 87 8000 1.5 360 11:55 05.11.2020
5846 Clear 12 1018 87 8000 1.5 360 11:37 05.11.2020
5847 Clear 11 1018 87 10000 1.5 340 11:18 05.11.2020
5848 Clear 11 1018 87 10000 1.5 340 10:41 05.11.2020
5849 Clear 11 1018 87 10000 1.5 340 10:22 05.11.2020
5850 Clear 12 1018 81 10000 1 330 09:45 05.11.2020
5851 Clear 12 1018 81 10000 0.45 237 09:22 05.11.2020
5852 Clear 12 1018 81 10000 0.45 237 08:44 05.11.2020
5853 Clear 12 1018 81 10000 0.39 238 08:26 05.11.2020
5854 Clear 13 1018 76 10000 1.5 90 07:40 05.11.2020
5855 Clouds 13 1018 76 10000 2.6 150 07:20 05.11.2020
5856 Clouds 13 1018 76 10000 2.6 150 06:41 05.11.2020
5857 Clouds 14 1019 76 10000 3.6 170 05:44 05.11.2020
5858 Clear 17 1018 59 10000 5.1 210 01:35 05.11.2020
5859 Clouds 20 1019 46 8000 3.1 230 00:33 05.11.2020
5860 Clouds 21 1019 46 8000 3.1 230 23:44 04.11.2020
5861 Clouds 22 1019 46 8000 3.1 230 23:26 04.11.2020
5862 Clouds 23 1019 43 8000 3.1 250 22:52 04.11.2020
5863 Clouds 24 1019 43 8000 3.1 250 22:26 04.11.2020
5864 Clouds 24 1019 43 6000 3.1 240 21:58 04.11.2020
5865 Clouds 24 1019 43 6000 3.1 240 21:37 04.11.2020
5866 Clouds 25 1019 43 6000 2.6 240 21:18 04.11.2020
5867 Clouds 25 1019 43 6000 2.6 240 20:43 04.11.2020
5868 Clouds 25 1019 43 6000 2.6 240 20:25 04.11.2020
5869 Clouds 25 1019 43 7000 3.6 260 19:49 04.11.2020
5870 Clouds 25 1019 43 7000 3.6 260 19:29 04.11.2020
5871 Clouds 25 1019 43 6000 4.1 200 18:55 04.11.2020
5872 Clouds 25 1019 43 6000 4.1 200 18:55 04.11.2020
5873 Clouds 24 1019 43 6000 4.1 200 18:37 04.11.2020
5874 Haze 24 1018 46 5000 3.1 240 18:18 04.11.2020
5875 Haze 24 1018 46 5000 3.1 240 17:40 04.11.2020
5876 Clouds 24 1018 49 7000 3.1 200 17:21 04.11.2020
5877 Clouds 24 1018 49 7000 3.1 200 16:38 04.11.2020
5878 Clouds 22 1018 55 7000 1.5 280 16:20 04.11.2020
5879 Rain 22 1018 55 7000 1.5 280 15:47 04.11.2020
5880 Clouds 21 1018 55 7000 1.5 280 15:25 04.11.2020
5881 Clouds 21 1018 63 7000 2.1 230 14:57 04.11.2020
5882 Clouds 21 1018 63 7000 2.1 230 14:39 04.11.2020
5883 Clear 20 1018 72 10000 1.41 263 14:19 04.11.2020
5884 Clear 19 1018 72 10000 1.41 263 13:42 04.11.2020
5885 Clear 18 1018 76 10000 2.01 253 13:20 04.11.2020
5886 Clear 17 1018 76 10000 2.01 253 12:51 04.11.2020
5887 Clear 16 1018 76 10000 0.42 258 12:27 04.11.2020
5888 Clouds 15 1016 93 6000 2.6 170 11:56 04.11.2020
5889 Clouds 15 1016 93 6000 2.6 170 11:56 04.11.2020
5890 Clouds 15 1016 93 6000 2.6 170 11:56 04.11.2020
5891 Clouds 15 1016 93 6000 2.6 170 11:56 04.11.2020
5892 Clouds 16 1016 93 6000 2.6 170 11:37 04.11.2020
5893 Clouds 16 1016 93 6000 2.6 170 11:37 04.11.2020
5894 Clouds 13 1015 93 8000 1.5 230 11:19 04.11.2020
5895 Clouds 13 1015 93 8000 1.5 230 10:43 04.11.2020
5896 Clouds 13 1015 93 8000 1.5 230 10:22 04.11.2020
5897 Clouds 14 1015 93 9000 3.6 170 09:50 04.11.2020
5898 Clouds 14 1015 93 9000 3.6 170 09:22 04.11.2020
5899 Clouds 15 1014 87 10000 3.6 170 08:45 04.11.2020
5900 Clouds 15 1015 87 10000 5.1 170 08:19 04.11.2020
5901 Clouds 15 1015 87 10000 5.1 170 07:48 04.11.2020
5902 Clouds 15 1015 87 10000 5.1 170 07:27 04.11.2020
5903 Clouds 16 1015 87 10000 5.1 150 06:42 04.11.2020
5904 Clouds 16 1015 76 10000 5.1 150 06:18 04.11.2020
5905 Clear 20 1017 41 10000 0.99 225 02:32 04.11.2020
5906 Clear 23 1013 38 10000 4.6 150 01:49 04.11.2020
5907 Clear 24 1013 29 10000 6.2 200 00:43 04.11.2020
5908 Clear 28 1014 26 10000 3.1 240 23:40 03.11.2020
5909 Clear 28 1014 17 10000 3.6 230 23:20 03.11.2020
5910 Clear 29 1014 17 10000 3.6 230 22:41 03.11.2020
5911 Clear 30 1014 15 10000 3.6 230 22:20 03.11.2020
5912 Clear 30 1014 15 10000 3.6 230 21:56 03.11.2020
5913 Clear 30 1014 15 10000 3.6 230 21:37 03.11.2020
5914 Clear 31 1015 17 10000 3.1 230 21:18 03.11.2020
5915 Clear 31 1015 17 10000 3.1 230 20:42 03.11.2020
5916 Clear 31 1016 19 10000 3.1 210 20:22 03.11.2020
5917 Clear 30 1016 19 10000 3.1 210 19:43 03.11.2020
5918 Clear 30 1016 25 10000 3.1 240 19:20 03.11.2020
5919 Clear 29 1016 25 10000 3.1 240 18:44 03.11.2020
5920 Clear 28 1015 34 10000 3.6 170 18:20 03.11.2020
5921 Clear 28 1015 34 10000 3.6 170 17:56 03.11.2020
5922 Clear 27 1017 36 10000 2.6 240 17:37 03.11.2020
5923 Clear 27 1017 36 10000 2.6 240 17:18 03.11.2020
5924 Clear 27 1017 36 10000 2.6 240 16:43 03.11.2020
5925 Clear 27 1017 36 10000 2.6 240 16:21 03.11.2020
5926 Clear 24 1018 49 10000 1.5 210 15:41 03.11.2020
5927 Clear 23 1018 52 10000 2.1 250 15:23 03.11.2020
5928 Clear 23 1018 52 10000 2.1 250 14:46 03.11.2020
5929 Clear 22 1018 52 10000 2.1 250 14:27 03.11.2020
5930 Clear 22 1018 52 10000 2.1 250 14:27 03.11.2020
5931 Clear 20 1018 67 10000 0.5 180 13:44 03.11.2020
5932 Clear 19 1018 67 10000 0.5 180 13:23 03.11.2020
5933 Clear 17 1017 71 10000 1.64 242 12:49 03.11.2020
5934 Clear 16 1017 71 10000 0.23 227 12:28 03.11.2020
5935 Mist 15 1016 93 4000 2.1 240 11:59 03.11.2020
5936 Mist 15 1016 93 4000 2.1 240 11:40 03.11.2020
5937 Mist 14 1016 100 3000 0.47 181 11:18 03.11.2020
5938 Fog 14 1016 100 2000 0.5 0 10:39 03.11.2020
5939 Fog 14 1016 100 2000 0.5 0 10:39 03.11.2020
5940 Fog 14 1016 93 4000 0.5 0 10:20 03.11.2020
5941 Fog 14 1016 93 4000 0.5 0 09:49 03.11.2020
5942 Fog 14 1016 93 4000 0.5 0 09:31 03.11.2020
5943 Clouds 14 1016 93 2900 1.5 170 08:55 03.11.2020
5944 Clouds 13 1016 93 7000 3.6 160 08:34 03.11.2020
5945 Clouds 14 1016 93 7000 3.6 160 07:49 03.11.2020
5946 Clouds 14 1016 93 7000 3.6 160 07:22 03.11.2020
5947 Clouds 15 1016 87 10000 4.6 160 06:45 03.11.2020
5948 Clear 16 1015 71 10000 3.1 170 05:19 03.11.2020
5949 Clear 20 1015 55 10000 5.1 160 01:51 03.11.2020
5950 Clear 22 1014 46 10000 5.7 150 00:40 03.11.2020
5951 Clear 25 1016 34 10000 3.1 250 23:48 02.11.2020
5952 Clear 25 1016 34 10000 3.1 250 23:29 02.11.2020
5953 Clear 26 1015 24 10000 4.1 250 22:49 02.11.2020
5954 Clear 26 1015 24 10000 4.1 250 22:30 02.11.2020
5955 Clear 26 1015 19 10000 3.1 230 21:58 02.11.2020
5956 Clear 26 1015 19 10000 3.1 230 21:37 02.11.2020
5957 Clear 27 1015 17 10000 4.1 180 21:19 02.11.2020
5958 Clear 27 1015 17 10000 4.1 180 20:39 02.11.2020
5959 Clear 27 1015 21 10000 4.1 230 20:20 02.11.2020
5960 Clear 28 1015 21 10000 4.1 230 19:44 02.11.2020
5961 Clear 27 1015 21 10000 4.1 230 19:26 02.11.2020
5962 Clear 26 1015 24 10000 4.1 230 18:55 02.11.2020
5963 Clear 27 1015 24 10000 4.1 230 18:36 02.11.2020
5964 Clear 26 1016 29 10000 2.6 230 18:18 02.11.2020
5965 Clear 25 1016 29 10000 2.6 230 17:40 02.11.2020
5966 Clear 25 1016 33 8000 1.5 230 17:21 02.11.2020
5967 Clear 24 1016 33 8000 1.5 230 16:49 02.11.2020
5968 Clear 24 1016 33 8000 1.5 230 16:28 02.11.2020
5969 Clear 23 1017 43 8000 1.5 230 15:55 02.11.2020
5970 Clear 22 1017 43 8000 1.5 230 15:36 02.11.2020
5971 Clear 23 1017 48 10000 1 230 15:18 02.11.2020
5972 Clear 22 1017 48 10000 1 230 14:41 02.11.2020
5973 Clear 20 1017 63 10000 1 240 14:19 02.11.2020
5974 Clear 19 1017 63 10000 1 240 13:46 02.11.2020
5975 Clear 16 1017 87 10000 1.32 238 13:21 02.11.2020
5976 Clear 13 1017 87 10000 1.31 243 12:50 02.11.2020
5977 Clear 13 1017 87 10000 0.27 155 12:26 02.11.2020
5978 Clear 15 1016 81 10000 1 0 11:45 02.11.2020
5979 Clear 12 1015 81 10000 0.64 209 11:20 02.11.2020
5980 Clear 11 1015 81 10000 0.64 209 10:48 02.11.2020
5981 Clear 14 1015 81 10000 0.2 232 10:25 02.11.2020
5982 Clear 14 1015 81 10000 2.1 180 09:55 02.11.2020
5983 Clear 14 1015 81 10000 2.1 180 09:29 02.11.2020
5984 Clear 15 1020 54 10000 0.36 223 08:57 02.11.2020
5985 Clear 15 1020 52 10000 0.36 223 08:36 02.11.2020
5986 Clear 15 1019 53 10000 0.3 175 08:18 02.11.2020
5987 Clear 13 1016 76 10000 1.5 190 07:39 02.11.2020
5988 Clear 14 1017 71 10000 2.1 170 06:45 02.11.2020
5989 Clear 15 1017 71 10000 4.1 160 05:19 02.11.2020
5990 Clear 20 1016 55 10000 5.1 150 01:27 02.11.2020
5991 Clear 20 1016 55 10000 5.1 150 01:27 02.11.2020
5992 Clear 20 1016 55 10000 5.1 150 01:27 02.11.2020
5993 Clear 22 1017 40 10000 3.6 240 00:38 02.11.2020
5994 Clear 22 1017 40 10000 3.6 240 00:19 02.11.2020
5995 Clear 22 1017 40 10000 3.6 240 23:38 01.11.2020
5996 Clear 22 1017 40 10000 3.6 240 23:38 01.11.2020
5997 Clear 23 1017 38 10000 4.1 240 23:20 01.11.2020
5998 Clear 24 1017 38 10000 4.1 240 22:42 01.11.2020
5999 Clear 25 1017 38 10000 4.1 240 22:22 01.11.2020
6000 Clear 26 1017 34 10000 3.6 210 21:43 01.11.2020
6001 Clear 26 1017 34 10000 3.6 210 21:24 01.11.2020
6002 Clear 26 1017 34 10000 4.6 240 20:48 01.11.2020
6003 Clear 26 1017 34 10000 4.6 240 20:26 01.11.2020
6004 Clear 26 1017 36 10000 4.1 240 19:49 01.11.2020
6005 Clear 26 1017 36 10000 4.1 240 19:29 01.11.2020
6006 Clear 26 1017 31 10000 2.6 210 18:59 01.11.2020
6007 Clear 26 1017 31 10000 2.6 210 18:40 01.11.2020
6008 Clear 25 1018 38 10000 2.6 260 18:19 01.11.2020
6009 Clear 25 1018 38 10000 2.6 260 17:45 01.11.2020
6010 Clear 25 1018 38 10000 2.6 260 17:27 01.11.2020
6011 Clear 23 1018 46 10000 1.5 270 16:45 01.11.2020
6012 Clear 23 1018 46 10000 1.5 270 16:27 01.11.2020
6013 Clear 23 1018 46 10000 1.5 270 16:27 01.11.2020
6014 Clear 22 1019 52 10000 1.5 280 15:59 01.11.2020
6015 Clear 22 1019 52 10000 1.5 280 15:38 01.11.2020
6016 Clear 20 1019 59 10000 1 180 15:20 01.11.2020
6017 Clear 21 1019 59 10000 1 180 14:46 01.11.2020
6018 Clear 20 1019 59 10000 1 180 14:22 01.11.2020
6019 Clear 19 1019 71 10000 0.5 180 13:57 01.11.2020
6020 Clear 18 1019 71 10000 0.5 180 13:39 01.11.2020
6021 Clear 17 1018 76 10000 1.59 242 13:21 01.11.2020
6022 Clear 16 1018 76 10000 1.67 243 12:42 01.11.2020
6023 Fog 15 1017 100 500 2.6 170 12:19 01.11.2020
6024 Fog 15 1017 100 500 2.6 170 11:48 01.11.2020
6025 Fog 13 1017 100 500 2.1 180 11:18 01.11.2020
6026 Fog 14 1017 100 500 2.1 180 10:42 01.11.2020
6027 Fog 14 1017 100 500 2.1 180 10:24 01.11.2020
6028 Fog 14 1017 100 500 2.1 180 10:24 01.11.2020
6029 Fog 14 1017 100 1000 2.1 180 09:49 01.11.2020
6030 Fog 14 1017 100 1200 2.6 170 09:27 01.11.2020
6031 Fog 14 1017 93 4900 2.6 170 08:44 01.11.2020
6032 Clear 15 1017 87 10000 2.1 160 08:18 01.11.2020
6033 Clear 16 1017 81 10000 2.6 160 07:21 01.11.2020
6034 Clear 19 1016 63 10000 5.1 160 02:32 01.11.2020
6035 Clear 21 1015 55 10000 5.1 150 01:42 01.11.2020
6036 Clear 24 1016 34 10000 3.1 250 00:22 01.11.2020
6037 Clear 26 1016 34 10000 3.1 250 23:24 31.10.2020
6038 Clear 27 1016 32 10000 3.6 250 22:45 31.10.2020
6039 Clear 27 1016 32 10000 3.6 250 22:25 31.10.2020
6040 Clear 28 1015 26 10000 4.1 240 21:47 31.10.2020
6041 Clear 28 1015 26 10000 4.1 240 21:47 31.10.2020
6042 Clear 28 1015 26 10000 4.1 240 21:23 31.10.2020
6043 Clear 28 1015 26 10000 4.1 240 20:59 31.10.2020
6044 Clear 28 1015 26 10000 4.1 240 20:38 31.10.2020
6045 Clear 29 1016 25 10000 3.6 210 20:18 31.10.2020
6046 Clear 29 1016 25 10000 3.6 210 19:38 31.10.2020
6047 Clear 29 1016 23 10000 2.6 210 19:19 31.10.2020
6048 Clear 29 1016 23 10000 2.6 210 18:45 31.10.2020
6049 Clear 27 1016 26 10000 1.5 200 17:56 31.10.2020
6050 Clear 27 1016 26 10000 1.5 200 17:37 31.10.2020
6051 Clear 26 1016 31 10000 1 240 17:18 31.10.2020
6052 Clear 26 1016 31 10000 1 240 16:41 31.10.2020
6053 Clear 25 1017 35 10000 1 210 15:59 31.10.2020
6054 Clear 24 1017 35 10000 1 210 15:38 31.10.2020
6055 Clear 23 1016 40 10000 1 240 15:19 31.10.2020
6056 Clear 23 1016 40 10000 1 240 14:46 31.10.2020
6057 Clear 22 1016 40 10000 1 240 14:26 31.10.2020
6058 Clear 20 1016 54 10000 1.92 252 13:50 31.10.2020
6059 Clear 19 1016 54 10000 1.2 242 13:23 31.10.2020
6060 Clear 16 1016 71 10000 1.5 30 12:35 31.10.2020
6061 Clear 15 1015 81 10000 1 0 11:48 31.10.2020
6062 Clear 12 1015 81 10000 1 0 11:29 31.10.2020
6063 Clear 13 1014 76 10000 0.23 87 10:56 31.10.2020
6064 Clear 13 1014 76 10000 0.23 87 10:33 31.10.2020
6065 Clear 13 1014 71 10000 1.5 200 09:42 31.10.2020
6066 Clear 14 1014 71 10000 1.5 200 09:22 31.10.2020
6067 Clear 13 1014 76 10000 2.6 170 08:33 31.10.2020
6068 Clear 15 1015 71 10000 2.1 160 07:58 31.10.2020
6069 Clear 15 1015 71 10000 2.1 160 07:27 31.10.2020
6070 Clear 16 1015 67 10000 1.5 160 06:40 31.10.2020
6071 Clear 16 1016 59 10000 4.1 150 05:20 31.10.2020
6072 Clear 17 1016 55 10000 4.6 160 03:46 31.10.2020
6073 Clear 22 1016 33 10000 2.1 220 01:30 31.10.2020
6074 Clear 22 1016 33 10000 2.1 220 00:47 31.10.2020
6075 Clear 25 1016 26 10000 4.1 230 23:52 30.10.2020
6076 Clear 25 1016 26 10000 4.1 230 23:25 30.10.2020
6077 Clear 27 1015 23 10000 3.1 230 22:48 30.10.2020
6078 Clear 27 1015 23 10000 3.1 230 22:26 30.10.2020
6079 Clear 28 1015 18 10000 4.1 0 21:58 30.10.2020
6080 Clear 28 1015 18 10000 4.1 0 21:58 30.10.2020
6081 Clear 28 1015 18 10000 4.1 0 21:39 30.10.2020
6082 Clear 28 1016 20 10000 3.1 0 21:20 30.10.2020
6083 Clear 28 1016 20 10000 3.1 0 20:42 30.10.2020
6084 Clear 28 1016 20 10000 3.1 0 20:23 30.10.2020
6085 Clear 29 1016 23 10000 3.1 0 19:49 30.10.2020
6086 Clear 29 1016 23 10000 3.1 0 19:19 30.10.2020
6087 Clear 28 1016 22 10000 2.1 0 18:50 30.10.2020
6088 Clear 27 1016 22 10000 2.1 0 18:28 30.10.2020
6089 Clear 26 1017 25 10000 2.1 210 17:54 30.10.2020
6090 Clear 26 1017 25 10000 2.1 210 17:36 30.10.2020
6091 Clear 25 1017 27 10000 1.5 0 17:18 30.10.2020
6092 Clear 25 1017 27 10000 1.5 0 16:48 30.10.2020
6093 Clear 23 1017 30 10000 2.75 242 16:19 30.10.2020
6094 Clear 23 1017 30 10000 2.75 242 15:41 30.10.2020
6095 Clear 21 1016 36 10000 1.5 210 15:20 30.10.2020
6096 Clear 21 1016 36 10000 1.5 210 14:45 30.10.2020
6097 Clear 20 1016 36 10000 1.5 210 14:26 30.10.2020
6098 Clear 18 1017 44 10000 1.63 240 13:47 30.10.2020
6099 Clear 16 1017 58 10000 0.69 206 13:23 30.10.2020
6100 Clear 16 1017 58 10000 0.69 206 12:58 30.10.2020
6101 Clear 16 1017 58 10000 1.08 80 12:23 30.10.2020
6102 Clear 15 1015 70 8000 1 20 11:57 30.10.2020
6103 Clear 15 1015 70 8000 1 20 11:57 30.10.2020
6104 Clear 15 1015 70 8000 1 20 11:57 30.10.2020
6105 Clear 14 1015 70 8000 1 20 11:38 30.10.2020
6106 Clear 13 1015 66 10000 0.5 290 11:18 30.10.2020
6107 Clear 13 1015 66 10000 0.5 290 10:40 30.10.2020
6108 Clear 13 1015 61 10000 0.5 0 10:21 30.10.2020
6109 Clear 14 1015 61 10000 0.5 0 09:44 30.10.2020
6110 Clear 13 1015 61 10000 0.5 0 09:22 30.10.2020
6111 Clear 14 1015 57 10000 1.5 40 08:41 30.10.2020
6112 Clear 14 1015 57 10000 1.5 40 08:23 30.10.2020
6113 Clear 14 1016 57 10000 1.5 0 07:49 30.10.2020
6114 Clear 14 1016 57 10000 1.5 0 07:30 30.10.2020
6115 Clear 14 1016 58 10000 2.1 270 06:35 30.10.2020
6116 Clear 15 1016 44 10000 3.6 160 04:47 30.10.2020
6117 Clear 17 1016 39 10000 5.1 130 02:26 30.10.2020
6118 Clear 22 1015 25 10000 4.6 240 00:39 30.10.2020
6119 Clear 23 1015 25 10000 4.6 240 23:49 29.10.2020
6120 Clear 24 1015 25 10000 4.6 240 23:30 29.10.2020
6121 Clear 25 1014 19 10000 4.6 210 22:57 29.10.2020
6122 Clear 25 1014 19 10000 4.6 210 22:38 29.10.2020
6123 Clear 25 1014 16 10000 3.6 210 22:20 29.10.2020
6124 Clear 26 1014 16 10000 3.6 210 21:36 29.10.2020
6125 Clear 26 1014 21 10000 4.1 240 21:18 29.10.2020
6126 Clear 26 1014 21 10000 4.1 240 20:40 29.10.2020
6127 Clear 26 1014 21 10000 3.6 250 20:19 29.10.2020
6128 Clear 25 1014 21 10000 3.6 250 19:42 29.10.2020
6129 Clear 25 1014 21 10000 3.6 250 19:22 29.10.2020
6130 Clear 25 1015 23 10000 1.5 240 18:49 29.10.2020
6131 Clear 25 1015 23 10000 1.5 240 18:29 29.10.2020
6132 Clear 24 1015 27 10000 2.1 210 17:57 29.10.2020
6133 Clear 24 1015 27 10000 2.1 210 17:38 29.10.2020
6134 Clear 23 1016 30 10000 1.5 210 17:18 29.10.2020
6135 Clear 23 1016 30 10000 1.5 210 16:45 29.10.2020
6136 Clear 22 1016 37 10000 1 360 16:19 29.10.2020
6137 Clear 21 1016 37 10000 1 360 15:56 29.10.2020
6138 Clear 21 1016 37 10000 1 360 15:37 29.10.2020
6139 Clear 20 1016 45 10000 1 90 15:18 29.10.2020
6140 Clear 19 1016 45 10000 1 90 14:42 29.10.2020
6141 Clear 16 1017 54 10000 1.56 263 14:21 29.10.2020
6142 Clear 16 1017 54 10000 1.56 263 13:46 29.10.2020
6143 Clear 15 1017 54 10000 0.98 254 13:27 29.10.2020
6144 Clear 14 1016 66 10000 0.98 254 12:43 29.10.2020
6145 Clear 12 1015 75 10000 1.5 40 12:20 29.10.2020
6146 Clear 12 1015 75 10000 1.5 40 11:54 29.10.2020
6147 Clear 11 1015 75 10000 1.5 40 11:36 29.10.2020
6148 Clear 11 1015 75 10000 1.5 320 11:18 29.10.2020
6149 Clear 11 1015 75 10000 1.5 320 10:37 29.10.2020
6150 Clear 11 1015 75 10000 1.5 320 10:37 29.10.2020
6151 Clear 12 1015 66 10000 1.5 120 10:18 29.10.2020
6152 Clear 12 1015 66 10000 1.5 120 09:47 29.10.2020
6153 Clear 12 1015 66 10000 1.5 120 09:24 29.10.2020
6154 Clear 13 1015 66 10000 0.5 0 08:41 29.10.2020
6155 Clear 13 1015 66 10000 0.5 0 08:23 29.10.2020
6156 Clear 11 1016 62 10000 0.05 192 07:49 29.10.2020
6157 Clear 13 1017 54 10000 1 0 06:59 29.10.2020
6158 Clear 13 1017 54 10000 1 0 06:30 29.10.2020
6159 Clear 15 1017 44 10000 5.1 180 04:48 29.10.2020
6160 Clear 16 1019 38 10000 1.2 239 02:28 29.10.2020
6161 Clear 21 1018 34 10000 1.78 239 00:41 29.10.2020
6162 Clear 20 1018 34 10000 2.38 230 00:21 29.10.2020
6163 Clear 21 1018 34 10000 2.38 230 23:41 28.10.2020
6164 Clear 22 1018 33 10000 2.6 230 23:20 28.10.2020
6165 Clear 22 1018 27 10000 2.6 230 22:43 28.10.2020
6166 Clear 23 1017 25 10000 3.6 200 22:23 28.10.2020
6167 Clear 23 1017 25 10000 3.6 200 21:45 28.10.2020
6168 Clear 23 1017 25 10000 3.6 200 21:26 28.10.2020
6169 Clear 22 1018 26 10000 2.6 0 20:44 28.10.2020
6170 Clear 22 1018 26 10000 2.6 0 20:24 28.10.2020
6171 Clear 22 1019 32 10000 2.6 0 19:57 28.10.2020
6172 Clear 22 1019 32 10000 2.6 0 19:39 28.10.2020
6173 Clear 21 1020 37 10000 2.6 230 19:20 28.10.2020
6174 Clear 21 1020 37 10000 2.6 230 18:43 28.10.2020
6175 Clear 20 1020 42 10000 2.6 0 18:20 28.10.2020
6176 Clear 20 1020 42 10000 2.6 0 17:43 28.10.2020
6177 Clear 19 1021 48 10000 3.1 0 17:21 28.10.2020
6178 Clear 18 1021 48 10000 3.1 0 16:47 28.10.2020
6179 Clear 18 1021 48 10000 3.1 0 16:29 28.10.2020
6180 Clear 18 1021 54 10000 1.5 0 15:45 28.10.2020
6181 Clear 17 1020 42 10000 2.79 236 15:20 28.10.2020
6182 Clear 18 1022 41 10000 2.79 236 14:53 28.10.2020
6183 Clouds 13 1022 76 10000 1 0 14:32 28.10.2020
6184 Clear 15 1024 48 10000 2.2 236 13:59 28.10.2020
6185 Clear 11 1026 55 10000 2.01 237 12:38 28.10.2020
6186 Clear 11 1026 55 10000 2.01 237 12:38 28.10.2020
6187 Clear 11 1026 57 10000 0.68 184 12:20 28.10.2020
6188 Clear 9 1027 62 10000 0.68 184 11:43 28.10.2020
6189 Clear 9 1027 62 10000 1.12 222 11:22 28.10.2020
6190 Clear 9 1021 87 10000 3.1 230 10:58 28.10.2020
6191 Clear 9 1021 87 10000 3.1 230 10:40 28.10.2020
6192 Clear 9 1021 87 10000 1.5 160 10:22 28.10.2020
6193 Clear 8 1021 87 10000 1.5 160 09:38 28.10.2020
6194 Clear 8 1020 87 10000 0.92 276 09:20 28.10.2020
6195 Clear 8 1020 87 10000 0.92 276 08:47 28.10.2020
6196 Clear 8 1020 87 10000 0.99 25 08:25 28.10.2020
6197 Clear 8 1020 81 10000 1.5 280 07:48 28.10.2020
6198 Clear 9 1020 81 10000 1.5 280 07:30 28.10.2020
6199 Clouds 9 1021 87 10000 1.5 190 06:41 28.10.2020
6200 Clouds 9 1021 87 10000 2.6 120 05:51 28.10.2020
6201 Clear 10 1020 71 10000 3.1 150 04:53 28.10.2020
6202 Clear 10 1020 71 10000 3.1 150 04:25 28.10.2020
6203 Clouds 12 1019 50 10000 1 0 02:26 28.10.2020
6204 Clouds 12 1019 47 10000 3.1 190 01:49 28.10.2020
6205 Clouds 15 1019 50 10000 1 350 23:57 27.10.2020
6206 Clouds 16 1019 50 10000 1 350 23:38 27.10.2020
6207 Clouds 16 1019 43 10000 2.1 350 23:20 27.10.2020
6208 Clouds 16 1019 43 10000 2.1 350 22:42 27.10.2020
6209 Clouds 16 1019 50 8000 2.6 180 22:19 27.10.2020
6210 Clouds 16 1019 50 8000 2.6 180 21:55 27.10.2020
6211 Clouds 16 1019 50 8000 2.6 180 21:37 27.10.2020
6212 Clouds 16 1019 50 8000 2.6 180 21:37 27.10.2020
6213 Clouds 16 1019 50 8000 2.6 180 21:37 27.10.2020
6214 Clouds 16 1018 51 8000 2.1 200 21:18 27.10.2020
6215 Rain 16 1018 51 8000 2.1 200 20:43 27.10.2020
6216 Clouds 16 1018 51 8000 2.1 200 20:22 27.10.2020
6217 Clouds 17 1018 47 10000 2.1 20 19:39 27.10.2020
6218 Rain 17 1018 47 10000 2.1 20 19:21 27.10.2020
6219 Clouds 16 1019 51 8000 4.1 230 18:58 27.10.2020
6220 Clouds 16 1019 51 8000 4.1 230 18:40 27.10.2020
6221 Clouds 16 1018 47 10000 1.5 230 18:20 27.10.2020
6222 Clouds 17 1018 47 10000 1.5 230 17:43 27.10.2020
6223 Clouds 16 1018 54 10000 1 200 17:21 27.10.2020
6224 Clouds 16 1018 54 10000 1 200 17:21 27.10.2020
6225 Clouds 16 1018 54 10000 1 200 16:54 27.10.2020
6226 Clouds 16 1018 54 10000 1 200 16:36 27.10.2020
6227 Clouds 15 1018 54 10000 2.1 220 16:18 27.10.2020
6228 Rain 15 1018 54 10000 2.1 220 15:40 27.10.2020
6229 Clouds 15 1017 54 10000 2.25 257 15:20 27.10.2020
6230 Clouds 15 1017 54 10000 2.25 257 14:48 27.10.2020
6231 Clouds 14 1017 54 10000 1.89 265 14:28 27.10.2020
6232 Rain 13 1017 62 10000 1.89 265 13:52 27.10.2020
6233 Clouds 14 1016 58 10000 1.5 250 13:22 27.10.2020
6234 Clouds 13 1016 58 10000 1.5 250 12:42 27.10.2020
6235 Clouds 12 1015 70 10000 2.1 230 12:23 27.10.2020
6236 Clouds 12 1015 70 10000 2.1 230 11:43 27.10.2020
6237 Clouds 12 1015 70 10000 2.1 230 11:24 27.10.2020
6238 Clouds 12 1014 70 10000 1.5 130 10:48 27.10.2020
6239 Clouds 12 1014 70 10000 1.5 130 10:30 27.10.2020
6240 Clouds 12 1013 70 10000 3.6 170 09:47 27.10.2020
6241 Clouds 12 1013 70 10000 3.6 170 09:26 27.10.2020
6242 Clouds 12 1014 66 10000 3.6 160 08:44 27.10.2020
6243 Clouds 12 1014 66 10000 3.6 160 08:26 27.10.2020
6244 Clouds 13 1013 53 10000 3.6 160 07:47 27.10.2020
6245 Clear 13 1013 53 10000 3.6 160 07:28 27.10.2020
6246 Clear 14 1014 47 10000 3.1 140 06:38 27.10.2020
6247 Clear 14 1015 50 10000 4.6 150 06:19 27.10.2020
6248 Clear 14 1015 50 10000 4.6 150 05:43 27.10.2020
6249 Clear 15 1015 50 10000 3.6 160 04:57 27.10.2020
6250 Clear 18 1014 48 10000 4.6 150 02:35 27.10.2020
6251 Clear 21 1013 40 10000 6.7 210 00:59 27.10.2020
6252 Clear 23 1015 36 10000 4.6 240 23:53 26.10.2020
6253 Clear 23 1015 36 10000 4.6 240 23:32 26.10.2020
6254 Clouds 25 1014 29 10000 5.1 250 22:52 26.10.2020
6255 Clouds 26 1014 29 10000 5.1 250 22:28 26.10.2020
6256 Clear 25 1014 26 10000 4.1 240 21:51 26.10.2020
6257 Clear 27 1014 26 10000 2.6 210 21:21 26.10.2020
6258 Clear 26 1014 26 10000 2.6 210 20:58 26.10.2020
6259 Clear 27 1014 26 10000 2.6 210 20:40 26.10.2020
6260 Clear 27 1015 26 10000 3.1 200 20:22 26.10.2020
6261 Clear 26 1015 26 10000 3.1 200 19:48 26.10.2020
6262 Clear 26 1015 26 10000 3.1 200 19:26 26.10.2020
6263 Clear 26 1015 31 10000 2.6 150 18:47 26.10.2020
6264 Clear 26 1015 31 10000 2.6 150 18:25 26.10.2020
6265 Clear 25 1016 27 10000 2.6 220 17:59 26.10.2020
6266 Clear 25 1016 27 10000 2.6 220 17:40 26.10.2020
6267 Clear 25 1016 27 10000 2.6 220 17:40 26.10.2020
6268 Clear 24 1016 40 10000 2.6 240 17:22 26.10.2020
6269 Clear 24 1016 40 10000 2.6 240 16:43 26.10.2020
6270 Clear 22 1016 48 10000 1.5 240 16:22 26.10.2020
6271 Clear 22 1016 48 10000 1.5 240 15:44 26.10.2020
6272 Clear 20 1016 48 10000 1.5 240 15:25 26.10.2020
6273 Clear 20 1017 63 10000 0.5 180 14:56 26.10.2020
6274 Clear 19 1017 63 10000 0.5 180 14:38 26.10.2020
6275 Clear 17 1018 71 10000 0.5 30 13:48 26.10.2020
6276 Clear 16 1018 71 10000 0.5 30 13:29 26.10.2020
6277 Clear 14 1018 81 10000 0.81 227 12:58 26.10.2020
6278 Clear 12 1018 81 10000 0.88 224 12:39 26.10.2020
6279 Clear 13 1017 87 6000 1.5 280 12:20 26.10.2020
6280 Clear 13 1017 87 6000 1.5 280 11:46 26.10.2020
6281 Clear 11 1017 81 9000 1.5 210 11:23 26.10.2020
6282 Clear 11 1017 81 9000 1.5 210 10:57 26.10.2020
6283 Clear 11 1017 81 9000 1.5 210 10:38 26.10.2020
6284 Clear 11 1017 81 10000 0.8 85 10:18 26.10.2020
6285 Clear 11 1017 81 10000 0.8 85 09:39 26.10.2020
6286 Clear 12 1018 81 10000 1.5 40 09:18 26.10.2020
6287 Clear 12 1018 81 10000 1.5 40 08:27 26.10.2020
6288 Clear 12 1019 81 10000 1.5 50 07:52 26.10.2020
6289 Clear 12 1019 81 10000 1.5 50 07:31 26.10.2020
6290 Clear 14 1021 67 10000 0.44 187 05:58 26.10.2020
6291 Clear 15 1021 67 10000 3.1 170 04:20 26.10.2020
6292 Clear 16 1021 63 10000 3.1 190 03:21 26.10.2020
6293 Clear 17 1020 59 10000 5.7 200 01:36 26.10.2020
6294 Clear 18 1020 55 10000 6.7 210 00:39 26.10.2020
6295 Clear 19 1019 49 10000 7.2 210 00:21 26.10.2020
6296 Clear 20 1019 49 10000 7.2 210 23:37 25.10.2020
6297 Clouds 22 1019 38 10000 5.7 230 22:59 25.10.2020
6298 Clouds 22 1020 35 10000 3.1 180 22:39 25.10.2020
6299 Clouds 23 1020 35 10000 3.1 180 22:19 25.10.2020
6300 Clouds 23 1020 35 10000 3.1 180 21:39 25.10.2020
6301 Clouds 23 1020 35 10000 3.6 240 21:19 25.10.2020
6302 Clouds 23 1020 35 10000 3.6 240 20:44 25.10.2020
6303 Clouds 23 1020 35 10000 3.6 240 20:25 25.10.2020
6304 Clouds 22 1021 42 10000 2.1 290 19:57 25.10.2020
6305 Clouds 22 1021 42 10000 2.1 290 19:38 25.10.2020
6306 Clouds 21 1021 48 10000 2.1 210 19:19 25.10.2020
6307 Clouds 21 1021 48 10000 2.1 210 18:41 25.10.2020
6308 Clouds 20 1022 55 10000 1.5 220 18:22 25.10.2020
6309 Clouds 19 1022 55 10000 1.5 220 17:57 25.10.2020
6310 Clouds 19 1022 55 10000 1.5 220 17:38 25.10.2020
6311 Clouds 19 1022 59 10000 1.5 210 17:19 25.10.2020
6312 Clouds 19 1022 59 10000 1.5 210 16:46 25.10.2020
6313 Clouds 19 1022 59 10000 1.5 210 16:28 25.10.2020
6314 Clouds 18 1021 67 10000 1.5 210 15:50 25.10.2020
6315 Clouds 16 1021 67 10000 1.5 210 15:29 25.10.2020
6316 Clouds 15 1021 76 10000 0.5 270 14:55 25.10.2020
6317 Clouds 15 1021 76 10000 0.5 270 14:31 25.10.2020
6318 Clouds 14 1021 76 10000 2.6 260 13:58 25.10.2020
6319 Clouds 15 1021 76 10000 2.6 260 13:39 25.10.2020
6320 Clouds 14 1021 62 10000 1.5 230 13:18 25.10.2020
6321 Clouds 14 1021 62 10000 1.5 230 12:46 25.10.2020
6322 Clouds 14 1021 62 10000 1.5 230 12:25 25.10.2020
6323 Clouds 13 1019 81 10000 3.1 160 11:43 25.10.2020
6324 Clouds 13 1019 76 10000 2.1 140 11:21 25.10.2020
6325 Clouds 13 1019 76 10000 2.1 140 10:56 25.10.2020
6326 Clouds 13 1019 76 10000 2.1 140 10:38 25.10.2020
6327 Clouds 12 1018 81 10000 1 0 10:19 25.10.2020
6328 Clouds 12 1018 81 10000 1 0 09:39 25.10.2020
6329 Clouds 12 1019 87 10000 2.6 270 09:19 25.10.2020
6330 Clouds 12 1019 87 10000 2.6 270 09:19 25.10.2020
6331 Clouds 12 1019 87 10000 2.6 270 08:41 25.10.2020
6332 Clouds 12 1019 87 10000 2.6 270 08:41 25.10.2020
6333 Clouds 12 1019 87 10000 2.6 270 08:22 25.10.2020
6334 Clouds 13 1018 87 10000 3.1 150 07:46 25.10.2020
6335 Clouds 13 1018 87 10000 3.1 150 07:24 25.10.2020
6336 Clouds 13 1019 76 10000 4.6 160 06:36 25.10.2020
6337 Clouds 14 1019 76 10000 4.6 160 05:34 25.10.2020
6338 Clouds 14 1018 71 10000 4.1 150 04:51 25.10.2020
6339 Clouds 15 1018 54 10000 7.7 180 02:45 25.10.2020
6340 Clear 16 1016 48 10000 8.7 200 01:47 25.10.2020
6341 Clear 19 1017 37 10000 5.1 250 00:49 25.10.2020
6342 Clear 22 1016 35 10000 4.1 230 00:20 25.10.2020
6343 Clear 22 1016 35 10000 4.1 230 23:54 24.10.2020
6344 Clear 23 1016 35 10000 4.1 230 23:26 24.10.2020
6345 Clouds 23 1016 35 10000 4.6 250 22:55 24.10.2020
6346 Clouds 23 1016 35 10000 4.6 250 22:37 24.10.2020
6347 Clear 24 1016 38 10000 4.6 240 22:19 24.10.2020
6348 Clear 24 1016 38 10000 4.6 240 21:41 24.10.2020
6349 Clear 25 1016 38 10000 4.6 240 21:21 24.10.2020
6350 Clear 25 1016 38 10000 4.6 240 20:47 24.10.2020
6351 Clear 25 1016 38 10000 4.6 240 20:23 24.10.2020
6352 Clear 25 1016 38 10000 3.1 200 19:55 24.10.2020
6353 Clear 24 1016 38 10000 3.1 200 19:37 24.10.2020
6354 Clear 24 1017 40 10000 2.6 260 19:18 24.10.2020
6355 Clear 24 1017 40 10000 2.6 260 18:42 24.10.2020
6356 Clear 23 1016 43 10000 2.1 240 18:22 24.10.2020
6357 Clear 22 1016 43 10000 2.1 240 17:39 24.10.2020
6358 Clear 22 1016 48 10000 2.1 240 17:20 24.10.2020
6359 Clear 22 1016 48 10000 2.1 240 16:45 24.10.2020
6360 Clear 21 1016 48 10000 2.1 240 16:22 24.10.2020
6361 Clear 20 1016 63 10000 1 240 15:40 24.10.2020
6362 Clear 18 1016 76 10000 0.5 190 15:19 24.10.2020
6363 Clear 17 1016 76 10000 0.5 190 14:50 24.10.2020
6364 Clear 16 1016 76 10000 0.5 190 14:28 24.10.2020
6365 Clear 12 1016 100 10000 1.67 246 13:46 24.10.2020
6366 Clear 10 1016 100 10000 0.7 241 13:24 24.10.2020
6367 Clear 13 1015 87 7000 1.5 40 12:46 24.10.2020
6368 Clear 11 1015 81 10000 1 300 12:21 24.10.2020
6369 Clear 10 1015 81 10000 1 300 11:53 24.10.2020
6370 Clear 11 1015 81 10000 1 300 11:35 24.10.2020
6371 Clear 11 1015 81 10000 2.1 160 10:54 24.10.2020
6372 Clear 11 1015 81 10000 2.1 160 10:34 24.10.2020
6373 Clear 11 1016 81 10000 1 0 09:55 24.10.2020
6374 Clear 11 1016 81 10000 1 0 09:37 24.10.2020
6375 Clear 12 1016 81 10000 3.1 160 09:19 24.10.2020
6376 Clear 12 1016 76 10000 3.1 140 08:20 24.10.2020
6377 Clear 13 1016 76 10000 3.1 140 07:54 24.10.2020
6378 Clear 13 1016 76 10000 3.1 140 07:25 24.10.2020
6379 Clear 13 1017 71 10000 3.1 160 06:53 24.10.2020
6380 Clear 14 1017 66 10000 4.6 160 06:23 24.10.2020
6381 Clear 17 1016 54 10000 5.7 150 03:36 24.10.2020
6382 Clear 20 1014 52 10000 7.2 190 02:18 24.10.2020
6383 Clear 23 1015 38 10000 4.1 230 00:42 24.10.2020
6384 Clear 25 1015 34 10000 4.1 250 00:22 24.10.2020
6385 Clear 25 1015 34 10000 4.1 250 23:49 23.10.2020
6386 Clear 26 1015 34 10000 4.1 250 23:26 23.10.2020
6387 Clear 27 1014 30 10000 5.1 270 22:58 23.10.2020
6388 Clear 27 1014 30 10000 5.1 270 22:58 23.10.2020
6389 Clear 27 1014 30 10000 5.1 270 22:40 23.10.2020
6390 Clear 27 1014 30 10000 5.1 270 22:20 23.10.2020
6391 Clear 28 1015 30 10000 3.6 230 21:46 23.10.2020
6392 Clear 28 1015 30 10000 3.6 230 21:25 23.10.2020
6393 Clear 27 1015 34 8000 2.1 230 20:41 23.10.2020
6394 Clear 27 1015 34 8000 2.1 230 20:23 23.10.2020
6395 Clear 26 1016 34 8000 2.1 250 19:54 23.10.2020
6396 Clear 27 1016 34 8000 2.1 250 19:33 23.10.2020
6397 Clear 26 1016 44 10000 2.1 270 18:57 23.10.2020
6398 Clear 25 1016 44 10000 2.1 270 18:37 23.10.2020
6399 Clear 23 1016 46 8000 2.1 230 18:19 23.10.2020
6400 Clear 22 1016 46 8000 2.1 230 17:42 23.10.2020
6401 Clear 22 1016 46 8000 2.1 230 17:20 23.10.2020
6402 Clear 22 1016 45 10000 1.5 230 16:39 23.10.2020
6403 Clear 20 1017 59 10000 1.5 320 16:21 23.10.2020
6404 Clear 19 1017 59 10000 1.5 320 15:43 23.10.2020
6405 Clear 17 1017 76 10000 1 230 15:24 23.10.2020
6406 Clear 15 1017 76 10000 1 230 14:53 23.10.2020
6407 Clear 15 1017 76 10000 1 230 14:35 23.10.2020
6408 Clear 14 1016 59 10000 1.3 245 13:56 23.10.2020
6409 Clear 14 1016 59 10000 1.3 243 13:37 23.10.2020
6410 Clear 9 1015 81 10000 1.5 200 13:19 23.10.2020
6411 Clear 9 1015 81 10000 1.5 200 12:43 23.10.2020
6412 Clear 12 1015 81 10000 1.5 200 12:24 23.10.2020
6413 Clouds 11 1015 81 10000 2.1 150 11:46 23.10.2020
6414 Clouds 12 1015 81 10000 2.1 150 11:21 23.10.2020
6415 Clouds 12 1015 81 10000 1 140 10:43 23.10.2020
6416 Clouds 12 1015 81 10000 1 140 10:25 23.10.2020
6417 Clouds 13 1015 81 10000 3.1 200 09:45 23.10.2020
6418 Clouds 13 1015 81 10000 3.1 200 09:26 23.10.2020
6419 Clouds 13 1016 76 10000 3.1 150 08:52 23.10.2020
6420 Clouds 14 1016 76 10000 3.1 150 08:32 23.10.2020
6421 Clouds 14 1016 71 10000 4.6 150 07:33 23.10.2020
6422 Clouds 15 1016 66 10000 3.6 160 06:59 23.10.2020
6423 Clouds 15 1016 67 10000 3.6 160 06:20 23.10.2020
6424 Clear 16 1016 62 10000 4.1 150 04:56 23.10.2020
6425 Clear 19 1015 52 10000 4.1 160 02:32 23.10.2020
6426 Clear 22 1015 33 10000 3.6 240 01:23 23.10.2020
6427 Clear 23 1015 33 10000 3.6 240 00:36 23.10.2020
6428 Clear 26 1014 30 10000 3.6 240 23:40 22.10.2020
6429 Clear 27 1014 24 10000 4.1 210 23:22 22.10.2020
6430 Clear 27 1014 24 10000 4.1 210 22:48 22.10.2020
6431 Clear 28 1014 24 10000 4.1 210 22:26 22.10.2020
6432 Clear 28 1015 26 10000 4.1 230 21:58 22.10.2020
6433 Clear 28 1015 26 10000 4.1 230 21:40 22.10.2020
6434 Clear 28 1015 30 10000 4.1 230 21:20 22.10.2020
6435 Clear 28 1015 30 10000 4.1 230 20:44 22.10.2020
6436 Clear 27 1015 30 10000 4.1 230 20:25 22.10.2020
6437 Clear 27 1015 29 10000 2.6 240 19:44 22.10.2020
6438 Clear 26 1016 36 10000 3.1 240 19:21 22.10.2020
6439 Clear 26 1016 36 10000 3.1 240 18:59 22.10.2020
6440 Clear 25 1016 36 10000 3.1 240 18:39 22.10.2020
6441 Clear 22 1016 40 10000 1.5 100 18:19 22.10.2020
6442 Clear 22 1016 40 10000 1.5 100 17:44 22.10.2020
6443 Clear 20 1017 45 10000 2.1 220 17:21 22.10.2020
6444 Clear 21 1017 45 10000 2.1 220 16:45 22.10.2020
6445 Clear 21 1017 45 10000 2.1 220 16:25 22.10.2020
6446 Clear 20 1017 55 10000 2.1 180 15:50 22.10.2020
6447 Clear 16 1017 55 10000 2.1 180 15:27 22.10.2020
6448 Clear 14 1017 66 10000 1.65 259 14:56 22.10.2020
6449 Clear 14 1017 66 10000 1.65 259 14:37 22.10.2020
6450 Clear 14 1017 81 10000 0.87 263 14:19 22.10.2020
6451 Clear 11 1017 81 10000 0.87 263 13:41 22.10.2020
6452 Clear 10 1016 93 8000 0.5 360 13:22 22.10.2020
6453 Clear 11 1016 93 8000 0.5 360 12:41 22.10.2020
6454 Clouds 11 1015 87 10000 1.5 300 12:22 22.10.2020
6455 Clouds 11 1015 87 10000 1.5 300 11:43 22.10.2020
6456 Clouds 12 1015 87 10000 1.5 170 11:18 22.10.2020
6457 Clouds 12 1015 87 10000 1.5 170 10:47 22.10.2020
6458 Clouds 12 1015 87 10000 1.5 170 10:25 22.10.2020
6459 Clouds 12 1016 81 10000 2.1 160 09:43 22.10.2020
6460 Clouds 12 1016 81 10000 2.6 160 09:21 22.10.2020
6461 Clouds 12 1016 81 10000 2.6 160 08:41 22.10.2020
6462 Clear 13 1016 81 10000 2.6 160 08:23 22.10.2020
6463 Clear 13 1017 87 10000 3.1 160 07:43 22.10.2020
6464 Clear 13 1017 71 10000 2.6 160 07:18 22.10.2020
6465 Clear 14 1017 71 10000 2.6 160 06:45 22.10.2020
6466 Clear 14 1018 71 10000 3.6 160 06:23 22.10.2020
6467 Clear 15 1018 71 10000 3.6 160 05:38 22.10.2020
6468 Clear 17 1018 62 10000 5.7 150 03:25 22.10.2020
6469 Clear 21 1019 37 10000 3.1 260 00:55 22.10.2020
6470 Clear 23 1018 38 10000 3.6 240 00:22 22.10.2020
6471 Clear 23 1018 38 10000 3.6 240 23:43 21.10.2020
6472 Clear 24 1018 36 10000 5.1 250 23:19 21.10.2020
6473 Clear 24 1018 36 10000 5.1 250 22:38 21.10.2020
6474 Clear 24 1018 36 10000 4.6 240 22:19 21.10.2020
6475 Clear 24 1018 36 10000 4.6 240 22:19 21.10.2020
6476 Clear 25 1018 36 10000 4.6 240 21:46 21.10.2020
6477 Clear 25 1018 33 10000 3.6 220 21:20 21.10.2020
6478 Clear 25 1018 33 10000 3.6 220 20:57 21.10.2020
6479 Clear 25 1018 33 10000 3.6 220 20:39 21.10.2020
6480 Clear 24 1019 38 10000 4.1 230 20:18 21.10.2020
6481 Clear 24 1019 38 10000 4.1 230 19:40 21.10.2020
6482 Clear 23 1018 37 10000 4.1 240 19:22 21.10.2020
6483 Clear 23 1018 37 10000 4.1 240 18:52 21.10.2020
6484 Clear 23 1018 37 10000 4.1 240 18:30 21.10.2020
6485 Clear 22 1018 40 10000 1.5 270 17:50 21.10.2020
6486 Clear 21 1018 42 10000 2.1 260 17:22 21.10.2020
6487 Clear 21 1018 42 10000 2.1 260 16:59 21.10.2020
6488 Clear 21 1018 42 10000 2.1 260 16:59 21.10.2020
6489 Clear 21 1018 42 10000 2.1 260 16:39 21.10.2020
6490 Clear 20 1018 42 10000 2.1 260 16:20 21.10.2020
6491 Clear 19 1018 51 10000 2.1 270 15:45 21.10.2020
6492 Clear 17 1018 51 10000 2.1 270 15:22 21.10.2020
6493 Clear 18 1017 62 10000 0.5 180 14:49 21.10.2020
6494 Clear 16 1017 62 10000 0.5 180 14:29 21.10.2020
6495 Clear 14 1016 71 10000 1.64 253 13:58 21.10.2020
6496 Clear 15 1016 71 10000 1.64 253 13:40 21.10.2020
6497 Clear 13 1016 71 10000 1.14 268 13:20 21.10.2020
6498 Clear 13 1015 71 10000 1.5 180 12:40 21.10.2020
6499 Clear 14 1014 71 10000 2.6 140 12:20 21.10.2020
6500 Clear 14 1014 71 10000 2.6 140 11:46 21.10.2020
6501 Clear 13 1014 71 10000 2.6 140 11:21 21.10.2020
6502 Clear 13 1014 66 10000 2.1 160 10:49 21.10.2020
6503 Clear 13 1014 66 10000 2.1 160 10:27 21.10.2020
6504 Clear 14 1014 62 10000 2.6 170 09:58 21.10.2020
6505 Clear 14 1014 62 10000 2.6 170 09:39 21.10.2020
6506 Clear 15 1014 58 10000 1.5 160 08:59 21.10.2020
6507 Clear 15 1014 58 10000 1.5 160 08:40 21.10.2020
6508 Clear 15 1014 58 10000 1.5 160 08:22 21.10.2020
6509 Clear 15 1015 58 10000 3.6 150 07:48 21.10.2020
6510 Clear 16 1015 51 10000 3.1 160 06:59 21.10.2020
6511 Clear 16 1015 51 10000 3.1 160 06:33 21.10.2020
6512 Clear 17 1015 45 10000 3.1 150 05:23 21.10.2020
6513 Clear 20 1014 37 10000 7.7 200 02:37 21.10.2020
6514 Clear 25 1014 27 10000 4.1 250 00:24 21.10.2020
6515 Clear 26 1013 24 10000 4.6 240 23:25 20.10.2020
6516 Clear 27 1013 23 10000 4.1 230 22:37 20.10.2020
6517 Clear 28 1013 23 10000 4.1 230 22:19 20.10.2020
6518 Clear 28 1014 23 10000 4.1 250 21:47 20.10.2020
6519 Clear 28 1014 23 10000 4.1 250 21:18 20.10.2020
6520 Clear 28 1014 22 10000 3.6 240 20:42 20.10.2020
6521 Clear 28 1014 22 10000 3.6 240 20:23 20.10.2020
6522 Clear 27 1014 27 10000 2.6 220 19:45 20.10.2020
6523 Clear 25 1015 29 10000 2.6 210 19:22 20.10.2020
6524 Clear 25 1015 29 10000 2.6 210 18:57 20.10.2020
6525 Clear 24 1015 29 10000 2.6 210 18:37 20.10.2020
6526 Clear 23 1015 35 10000 3.18 247 17:51 20.10.2020
6527 Clear 23 1015 35 10000 3.18 247 17:32 20.10.2020
6528 Clear 21 1016 42 10000 1.5 160 16:58 20.10.2020
6529 Clear 22 1016 42 10000 1.5 160 16:38 20.10.2020
6530 Clear 21 1016 42 10000 1.5 160 16:20 20.10.2020
6531 Clear 20 1016 48 10000 2.28 249 15:44 20.10.2020
6532 Clear 20 1016 48 10000 1.88 249 15:23 20.10.2020
6533 Clear 17 1015 62 10000 1.88 249 14:44 20.10.2020
6534 Clear 17 1015 62 10000 1.19 228 14:25 20.10.2020
6535 Clear 15 1016 76 10000 1.5 50 13:58 20.10.2020
6536 Clear 14 1016 76 10000 1.5 50 13:39 20.10.2020
6537 Clear 14 1016 76 10000 1.5 50 13:19 20.10.2020
6538 Clear 14 1016 76 10000 1.5 10 12:48 20.10.2020
6539 Clear 12 1016 76 10000 1.5 10 12:29 20.10.2020
6540 Clear 12 1016 70 10000 2.1 20 11:47 20.10.2020
6541 Clear 12 1016 70 10000 2.1 20 11:27 20.10.2020
6542 Clear 13 1017 66 10000 0.5 0 10:43 20.10.2020
6543 Clear 13 1017 66 10000 0.5 0 10:25 20.10.2020
6544 Clear 13 1018 62 10000 1 160 09:44 20.10.2020
6545 Clear 14 1018 62 10000 1 160 09:19 20.10.2020
6546 Clear 14 1019 66 10000 3.1 180 08:39 20.10.2020
6547 Clouds 14 1019 66 10000 3.1 180 08:19 20.10.2020
6548 Clouds 15 1019 54 10000 1.5 150 07:42 20.10.2020
6549 Clouds 15 1019 54 10000 1.5 150 07:21 20.10.2020
6550 Clouds 16 1020 51 10000 3.6 160 06:19 20.10.2020
6551 Clouds 18 1020 45 10000 4.6 130 04:27 20.10.2020
6552 Clouds 19 1017 39 10000 8.7 210 02:30 20.10.2020
6553 Clouds 22 1015 31 10000 3.1 230 01:22 20.10.2020
6554 Clouds 23 1015 31 10000 3.1 230 00:51 20.10.2020
6555 Rain 24 1015 31 10000 3.1 230 00:26 20.10.2020
6556 Clouds 24 1015 29 10000 3.1 210 23:51 19.10.2020
6557 Clouds 24 1015 29 10000 3.1 210 23:25 19.10.2020
6558 Clouds 25 1015 29 10000 3.1 180 22:54 19.10.2020
6559 Clouds 25 1015 29 10000 3.1 180 22:26 19.10.2020
6560 Clouds 24 1016 31 10000 4.1 210 21:55 19.10.2020
6561 Clouds 24 1016 31 10000 4.1 210 21:37 19.10.2020
6562 Clouds 25 1017 31 10000 3.6 240 21:18 19.10.2020
6563 Clouds 25 1017 31 10000 3.6 240 20:42 19.10.2020
6564 Clouds 25 1017 31 10000 3.6 240 20:24 19.10.2020
6565 Clear 24 1017 31 7000 2.6 190 19:45 19.10.2020
6566 Clear 24 1017 31 7000 2.6 190 19:19 19.10.2020
6567 Clear 23 1018 33 10000 3.1 150 18:50 19.10.2020
6568 Clear 23 1018 33 10000 3.1 150 18:24 19.10.2020
6569 Clear 21 1019 42 10000 2.6 210 17:47 19.10.2020
6570 Clear 21 1019 42 10000 2.6 210 17:27 19.10.2020
6571 Clear 21 1019 48 10000 1.5 270 16:54 19.10.2020
6572 Clouds 19 1019 48 10000 1.5 270 16:29 19.10.2020
6573 Clouds 21 1019 34 10000 2.39 252 15:48 19.10.2020
6574 Clear 21 1019 37 10000 2.05 254 15:26 19.10.2020
6575 Clear 19 1018 41 10000 2.05 254 14:57 19.10.2020
6576 Clear 19 1020 40 10000 2.05 254 14:57 19.10.2020
6577 Clear 19 1020 42 10000 2.05 254 14:36 19.10.2020
6578 Clear 17 1021 46 10000 1.43 253 14:18 19.10.2020
6579 Clear 15 1021 54 10000 1.46 255 13:42 19.10.2020
6580 Clear 13 1022 58 10000 0.53 261 13:22 19.10.2020
6581 Clear 15 1018 49 10000 0.53 261 12:43 19.10.2020
6582 Clear 12 1022 60 10000 0.32 265 12:25 19.10.2020
6583 Clear 11 1023 59 10000 0.32 265 11:48 19.10.2020
6584 Clear 12 1017 71 10000 3.1 150 11:22 19.10.2020
6585 Clear 12 1017 71 10000 3.1 150 10:44 19.10.2020
6586 Clear 12 1017 71 10000 3.1 150 10:23 19.10.2020
6587 Clear 12 1017 71 10000 1 0 09:56 19.10.2020
6588 Clear 12 1017 71 10000 1 0 09:25 19.10.2020
6589 Clear 12 1018 71 10000 1.5 260 08:59 19.10.2020
6590 Clear 13 1018 71 10000 1.5 260 08:41 19.10.2020
6591 Clear 13 1018 58 10000 3.6 190 08:20 19.10.2020
6592 Clear 14 1018 62 10000 4.1 140 07:20 19.10.2020
6593 Clear 14 1018 62 10000 4.1 140 06:36 19.10.2020
6594 Clear 16 1017 55 10000 5.1 190 04:47 19.10.2020
6595 Clear 17 1017 59 10000 3.6 170 03:45 19.10.2020
6596 Clear 21 1016 40 10000 6.2 200 01:33 19.10.2020
6597 Clear 23 1015 35 10000 5.7 190 00:38 19.10.2020
6598 Clear 24 1014 36 10000 7.2 190 23:56 18.10.2020
6599 Clear 24 1016 27 10000 5.1 300 23:37 18.10.2020
6600 Clear 25 1016 27 10000 5.1 300 23:18 18.10.2020
6601 Clear 25 1016 27 10000 5.1 300 23:18 18.10.2020
6602 Clear 25 1016 27 10000 5.1 300 22:43 18.10.2020
6603 Clear 26 1016 22 10000 4.1 200 22:18 18.10.2020
6604 Clear 26 1016 22 10000 4.1 200 21:41 18.10.2020
6605 Clear 26 1016 26 10000 5.1 230 21:21 18.10.2020
6606 Clear 26 1016 26 10000 5.1 230 20:44 18.10.2020
6607 Clear 26 1016 26 10000 5.1 230 20:23 18.10.2020
6608 Clear 26 1016 22 10000 3.6 240 19:50 18.10.2020
6609 Clear 26 1016 22 10000 3.6 240 19:27 18.10.2020
6610 Clear 25 1016 29 10000 3.1 210 18:51 18.10.2020
6611 Clear 25 1016 29 10000 3.1 210 18:30 18.10.2020
6612 Clear 24 1016 33 10000 2.1 270 17:59 18.10.2020
6613 Clear 24 1016 33 10000 2.1 270 17:41 18.10.2020
6614 Clear 24 1016 33 10000 2.1 270 17:41 18.10.2020
6615 Clear 23 1016 35 10000 1.5 270 17:21 18.10.2020
6616 Clear 22 1016 35 10000 1.5 270 16:42 18.10.2020
6617 Clear 22 1016 35 10000 1.5 270 16:23 18.10.2020
6618 Clear 20 1015 55 10000 2.62 256 15:43 18.10.2020
6619 Clear 17 1015 66 10000 1.8 261 15:19 18.10.2020
6620 Clear 18 1015 66 10000 1.8 261 14:57 18.10.2020
6621 Clear 17 1015 66 10000 1.8 261 14:31 18.10.2020
6622 Clear 16 1015 66 10000 1.46 263 13:59 18.10.2020
6623 Clear 16 1015 66 10000 1.46 263 13:40 18.10.2020
6624 Mist 14 1013 93 4000 1 0 13:22 18.10.2020
6625 Mist 15 1013 93 4000 1 0 12:43 18.10.2020
6626 Clear 12 1013 93 10000 0.39 235 12:22 18.10.2020
6627 Clear 12 1013 93 10000 0.39 235 11:42 18.10.2020
6628 Clear 12 1013 93 10000 0.44 248 11:23 18.10.2020
6629 Clear 12 1013 87 10000 1 210 10:45 18.10.2020
6630 Clear 13 1013 87 10000 0.53 250 10:22 18.10.2020
6631 Clear 13 1013 87 10000 0.53 250 10:00 18.10.2020
6632 Clear 13 1013 87 10000 0.53 250 09:41 18.10.2020
6633 Clear 14 1013 81 10000 1 0 09:20 18.10.2020
6634 Clear 14 1013 81 10000 1 0 08:44 18.10.2020
6635 Clear 14 1013 81 10000 1 0 08:25 18.10.2020
6636 Clear 14 1014 76 10000 2.6 180 07:48 18.10.2020
6637 Clear 16 1015 76 10000 2.1 170 05:36 18.10.2020
6638 Clear 18 1015 62 10000 5.7 150 03:39 18.10.2020
6639 Clear 19 1015 52 10000 5.1 150 02:51 18.10.2020
6640 Clear 21 1015 42 10000 4.6 150 01:25 18.10.2020
6641 Clear 23 1014 38 10000 6.2 160 00:36 18.10.2020
6642 Clear 24 1014 41 10000 6.2 200 23:59 17.10.2020
6643 Clear 25 1015 21 10000 5.1 180 23:40 17.10.2020
6644 Clear 25 1015 21 10000 5.1 180 23:21 17.10.2020
6645 Clear 25 1015 21 10000 5.1 180 22:55 17.10.2020
6646 Clear 27 1015 21 10000 5.1 230 22:22 17.10.2020
6647 Clear 27 1015 21 10000 5.1 230 21:59 17.10.2020
6648 Clear 27 1015 21 10000 5.1 230 21:40 17.10.2020
6649 Clear 27 1015 26 10000 4.1 250 21:20 17.10.2020
6650 Clear 27 1015 26 10000 4.1 250 20:44 17.10.2020
6651 Clear 28 1015 28 10000 3.1 230 20:19 17.10.2020
6652 Clear 28 1015 28 10000 3.1 230 19:43 17.10.2020
6653 Clear 27 1015 28 10000 3.1 240 19:21 17.10.2020
6654 Clear 27 1015 28 10000 3.1 240 18:45 17.10.2020
6655 Clear 27 1015 28 10000 3.1 240 18:26 17.10.2020
6656 Clear 26 1015 41 6000 2.6 230 17:50 17.10.2020
6657 Clear 24 1015 46 10000 1.5 210 17:24 17.10.2020
6658 Clear 24 1015 46 10000 1.5 210 16:51 17.10.2020
6659 Clear 23 1015 46 10000 1.5 210 16:25 17.10.2020
6660 Clear 20 1015 59 10000 1 150 15:59 17.10.2020
6661 Clear 20 1015 59 10000 1 150 15:41 17.10.2020
6662 Clear 18 1014 71 10000 1.94 255 15:21 17.10.2020
6663 Clear 17 1014 71 10000 1.94 255 14:55 17.10.2020
6664 Clear 17 1014 71 10000 1.94 255 14:37 17.10.2020
6665 Clear 16 1014 62 10000 0.41 259 14:18 17.10.2020
66